<?xml version="1.0" encoding="UTF-8" standalone="no" ?>
<gpx xmlns="http://www.topografix.com/GPX/1/1" xmlns:xsi="http://www.w3.org/2001/XMLSchema-instance" xsi:schemaLocation="http://www.topografix.com/GPX/1/1 http://www.topografix.com/GPX/1/1/gpx.xsd" version="1.1" creator="VisuGPX - https://www.visugpx.com">
  <metadata>
    <name>Tour des Seolanes</name>
    <desc><![CDATA[[url]http://www.xvtt.fr/t9833-samedi-15-septembre-Rando-montagne-autour-des-Seolane-Ubaye.htm?start=160[/url]]]></desc>
  </metadata>
  <trk>
    <name><![CDATA[Tour des Seolanes_1]]></name>
    <cmt><![CDATA[ + descente sur Méolans depuis le col des Soléane --> 1200 m D- / 6 kms]]></cmt>
    <trkseg>
      <trkpt lat="44.39819" lon="6.5075">
        <ele>1065.2780761719</ele>
        <time>2012-09-15T06:37:18Z</time>
      </trkpt>
      <trkpt lat="44.39817" lon="6.50737">
        <ele>1065.2780761719</ele>
        <time>2012-09-15T06:37:22Z</time>
      </trkpt>
      <trkpt lat="44.39819" lon="6.50726">
        <ele>1065.2780761719</ele>
        <time>2012-09-15T06:37:25Z</time>
      </trkpt>
      <trkpt lat="44.39817" lon="6.50724">
        <ele>1066.2392578125</ele>
        <time>2012-09-15T06:37:29Z</time>
      </trkpt>
      <trkpt lat="44.39819" lon="6.5073">
        <ele>1065.7587890625</ele>
        <time>2012-09-15T06:37:32Z</time>
      </trkpt>
      <trkpt lat="44.39826" lon="6.50743">
        <ele>1064.3166503906</ele>
        <time>2012-09-15T06:37:39Z</time>
      </trkpt>
      <trkpt lat="44.39837" lon="6.50758">
        <ele>1064.3166503906</ele>
        <time>2012-09-15T06:37:46Z</time>
      </trkpt>
      <trkpt lat="44.3985" lon="6.5078">
        <ele>1059.0295410156</ele>
        <time>2012-09-15T06:37:52Z</time>
      </trkpt>
      <trkpt lat="44.39853" lon="6.50792">
        <ele>1055.1843261719</ele>
        <time>2012-09-15T06:37:55Z</time>
      </trkpt>
      <trkpt lat="44.39847" lon="6.50805">
        <ele>1054.7036132812</ele>
        <time>2012-09-15T06:38:01Z</time>
      </trkpt>
      <trkpt lat="44.39845" lon="6.50814">
        <ele>1055.6650390625</ele>
        <time>2012-09-15T06:38:07Z</time>
      </trkpt>
      <trkpt lat="44.3985" lon="6.50824">
        <ele>1052.7810058594</ele>
        <time>2012-09-15T06:38:13Z</time>
      </trkpt>
      <trkpt lat="44.39854" lon="6.5083">
        <ele>1054.2231445312</ele>
        <time>2012-09-15T06:38:17Z</time>
      </trkpt>
      <trkpt lat="44.39863" lon="6.50843">
        <ele>1053.26171875</ele>
        <time>2012-09-15T06:38:25Z</time>
      </trkpt>
      <trkpt lat="44.39866" lon="6.50856">
        <ele>1053.7424316406</ele>
        <time>2012-09-15T06:38:31Z</time>
      </trkpt>
      <trkpt lat="44.39867" lon="6.5086">
        <ele>1053.26171875</ele>
        <time>2012-09-15T06:38:33Z</time>
      </trkpt>
      <trkpt lat="44.39861" lon="6.50868">
        <ele>1056.6262207031</ele>
        <time>2012-09-15T06:38:39Z</time>
      </trkpt>
      <trkpt lat="44.39859" lon="6.50863">
        <ele>1059.0295410156</ele>
        <time>2012-09-15T06:38:42Z</time>
      </trkpt>
      <trkpt lat="44.39861" lon="6.50854">
        <ele>1062.8747558594</ele>
        <time>2012-09-15T06:38:45Z</time>
      </trkpt>
      <trkpt lat="44.39852" lon="6.5084">
        <ele>1076.3332519531</ele>
        <time>2012-09-15T06:38:52Z</time>
      </trkpt>
      <trkpt lat="44.39843" lon="6.5084">
        <ele>1078.7365722656</ele>
        <time>2012-09-15T06:38:55Z</time>
      </trkpt>
      <trkpt lat="44.39828" lon="6.50841">
        <ele>1083.0622558594</ele>
        <time>2012-09-15T06:39:01Z</time>
      </trkpt>
      <trkpt lat="44.39818" lon="6.50824">
        <ele>1093.6369628906</ele>
        <time>2012-09-15T06:39:09Z</time>
      </trkpt>
      <trkpt lat="44.39819" lon="6.50809">
        <ele>1089.7917480469</ele>
        <time>2012-09-15T06:39:16Z</time>
      </trkpt>
      <trkpt lat="44.39823" lon="6.50793">
        <ele>1088.3498535156</ele>
        <time>2012-09-15T06:39:23Z</time>
      </trkpt>
      <trkpt lat="44.39818" lon="6.50776">
        <ele>1084.0239257812</ele>
        <time>2012-09-15T06:39:31Z</time>
      </trkpt>
      <trkpt lat="44.39812" lon="6.50765">
        <ele>1082.1010742188</ele>
        <time>2012-09-15T06:39:37Z</time>
      </trkpt>
      <trkpt lat="44.39811" lon="6.50746">
        <ele>1081.6203613281</ele>
        <time>2012-09-15T06:39:44Z</time>
      </trkpt>
      <trkpt lat="44.39809" lon="6.50733">
        <ele>1079.6977539062</ele>
        <time>2012-09-15T06:39:50Z</time>
      </trkpt>
      <trkpt lat="44.39793" lon="6.50722">
        <ele>1080.6591796875</ele>
        <time>2012-09-15T06:39:58Z</time>
      </trkpt>
      <trkpt lat="44.39779" lon="6.50711">
        <ele>1083.0622558594</ele>
        <time>2012-09-15T06:40:05Z</time>
      </trkpt>
      <trkpt lat="44.39767" lon="6.50699">
        <ele>1087.3884277344</ele>
        <time>2012-09-15T06:40:12Z</time>
      </trkpt>
      <trkpt lat="44.39758" lon="6.5068">
        <ele>1091.2336425781</ele>
        <time>2012-09-15T06:40:20Z</time>
      </trkpt>
      <trkpt lat="44.39747" lon="6.50664">
        <ele>1095.0788574219</ele>
        <time>2012-09-15T06:40:28Z</time>
      </trkpt>
      <trkpt lat="44.39734" lon="6.50659">
        <ele>1095.5595703125</ele>
        <time>2012-09-15T06:40:34Z</time>
      </trkpt>
      <trkpt lat="44.39717" lon="6.50657">
        <ele>1096.5209960938</ele>
        <time>2012-09-15T06:40:41Z</time>
      </trkpt>
      <trkpt lat="44.39705" lon="6.50652">
        <ele>1098.443359375</ele>
        <time>2012-09-15T06:40:47Z</time>
      </trkpt>
      <trkpt lat="44.39697" lon="6.50644">
        <ele>1106.1340332031</ele>
        <time>2012-09-15T06:40:52Z</time>
      </trkpt>
      <trkpt lat="44.39692" lon="6.50643">
        <ele>1108.5373535156</ele>
        <time>2012-09-15T06:40:54Z</time>
      </trkpt>
      <trkpt lat="44.39684" lon="6.50637">
        <ele>1115.7473144531</ele>
        <time>2012-09-15T06:40:59Z</time>
      </trkpt>
      <trkpt lat="44.39676" lon="6.50627">
        <ele>1118.1506347656</ele>
        <time>2012-09-15T06:41:06Z</time>
      </trkpt>
      <trkpt lat="44.39669" lon="6.50618">
        <ele>1115.2666015625</ele>
        <time>2012-09-15T06:41:12Z</time>
      </trkpt>
      <trkpt lat="44.39669" lon="6.50605">
        <ele>1109.4987792969</ele>
        <time>2012-09-15T06:41:17Z</time>
      </trkpt>
      <trkpt lat="44.39666" lon="6.50596">
        <ele>1109.0180664062</ele>
        <time>2012-09-15T06:41:21Z</time>
      </trkpt>
      <trkpt lat="44.39659" lon="6.50582">
        <ele>1109.0180664062</ele>
        <time>2012-09-15T06:41:29Z</time>
      </trkpt>
      <trkpt lat="44.3966" lon="6.50571">
        <ele>1109.9792480469</ele>
        <time>2012-09-15T06:41:35Z</time>
      </trkpt>
      <trkpt lat="44.39661" lon="6.5056">
        <ele>1110.4599609375</ele>
        <time>2012-09-15T06:41:42Z</time>
      </trkpt>
      <trkpt lat="44.39665" lon="6.50542">
        <ele>1108.0568847656</ele>
        <time>2012-09-15T06:41:49Z</time>
      </trkpt>
      <trkpt lat="44.39667" lon="6.50528">
        <ele>1109.0180664062</ele>
        <time>2012-09-15T06:41:55Z</time>
      </trkpt>
      <trkpt lat="44.3967" lon="6.50515">
        <ele>1109.0180664062</ele>
        <time>2012-09-15T06:42:01Z</time>
      </trkpt>
      <trkpt lat="44.39675" lon="6.50498">
        <ele>1112.3825683594</ele>
        <time>2012-09-15T06:42:10Z</time>
      </trkpt>
      <trkpt lat="44.39677" lon="6.50485">
        <ele>1112.86328125</ele>
        <time>2012-09-15T06:42:17Z</time>
      </trkpt>
      <trkpt lat="44.39677" lon="6.50468">
        <ele>1116.2280273438</ele>
        <time>2012-09-15T06:42:24Z</time>
      </trkpt>
      <trkpt lat="44.39674" lon="6.50445">
        <ele>1120.0732421875</ele>
        <time>2012-09-15T06:42:34Z</time>
      </trkpt>
      <trkpt lat="44.39674" lon="6.5043">
        <ele>1122.4765625</ele>
        <time>2012-09-15T06:42:40Z</time>
      </trkpt>
      <trkpt lat="44.39669" lon="6.50411">
        <ele>1121.9958496094</ele>
        <time>2012-09-15T06:42:48Z</time>
      </trkpt>
      <trkpt lat="44.39666" lon="6.50398">
        <ele>1122.9572753906</ele>
        <time>2012-09-15T06:42:54Z</time>
      </trkpt>
      <trkpt lat="44.39664" lon="6.5038">
        <ele>1125.3603515625</ele>
        <time>2012-09-15T06:43:02Z</time>
      </trkpt>
      <trkpt lat="44.39661" lon="6.50366">
        <ele>1126.3217773438</ele>
        <time>2012-09-15T06:43:09Z</time>
      </trkpt>
      <trkpt lat="44.3966" lon="6.50352">
        <ele>1126.8024902344</ele>
        <time>2012-09-15T06:43:15Z</time>
      </trkpt>
      <trkpt lat="44.3966" lon="6.50343">
        <ele>1127.763671875</ele>
        <time>2012-09-15T06:43:19Z</time>
      </trkpt>
      <trkpt lat="44.39656" lon="6.50327">
        <ele>1129.2055664062</ele>
        <time>2012-09-15T06:43:27Z</time>
      </trkpt>
      <trkpt lat="44.39657" lon="6.50309">
        <ele>1128.2443847656</ele>
        <time>2012-09-15T06:43:34Z</time>
      </trkpt>
      <trkpt lat="44.39657" lon="6.50296">
        <ele>1132.08984375</ele>
        <time>2012-09-15T06:43:42Z</time>
      </trkpt>
      <trkpt lat="44.39655" lon="6.5029">
        <ele>1134.4931640625</ele>
        <time>2012-09-15T06:43:45Z</time>
      </trkpt>
      <trkpt lat="44.39645" lon="6.50289">
        <ele>1138.3383789062</ele>
        <time>2012-09-15T06:43:51Z</time>
      </trkpt>
      <trkpt lat="44.39643" lon="6.50292">
        <ele>1137.376953125</ele>
        <time>2012-09-15T06:43:53Z</time>
      </trkpt>
      <trkpt lat="44.39643" lon="6.50294">
        <ele>1136.8962402344</ele>
        <time>2012-09-15T06:43:55Z</time>
      </trkpt>
      <trkpt lat="44.39639" lon="6.50306">
        <ele>1131.6088867188</ele>
        <time>2012-09-15T06:44:03Z</time>
      </trkpt>
      <trkpt lat="44.39635" lon="6.5032">
        <ele>1126.8024902344</ele>
        <time>2012-09-15T06:44:11Z</time>
      </trkpt>
      <trkpt lat="44.3963" lon="6.5033">
        <ele>1124.3991699219</ele>
        <time>2012-09-15T06:44:18Z</time>
      </trkpt>
      <trkpt lat="44.39621" lon="6.50329">
        <ele>1126.3217773438</ele>
        <time>2012-09-15T06:44:25Z</time>
      </trkpt>
      <trkpt lat="44.39617" lon="6.50324">
        <ele>1129.2055664062</ele>
        <time>2012-09-15T06:44:29Z</time>
      </trkpt>
      <trkpt lat="44.39615" lon="6.50305">
        <ele>1133.0510253906</ele>
        <time>2012-09-15T06:44:38Z</time>
      </trkpt>
      <trkpt lat="44.39613" lon="6.5029">
        <ele>1136.4157714844</ele>
        <time>2012-09-15T06:44:45Z</time>
      </trkpt>
      <trkpt lat="44.39611" lon="6.50273">
        <ele>1139.2995605469</ele>
        <time>2012-09-15T06:44:53Z</time>
      </trkpt>
      <trkpt lat="44.39611" lon="6.50254">
        <ele>1140.2609863281</ele>
        <time>2012-09-15T06:45:01Z</time>
      </trkpt>
      <trkpt lat="44.39614" lon="6.50239">
        <ele>1146.5095214844</ele>
        <time>2012-09-15T06:45:10Z</time>
      </trkpt>
      <trkpt lat="44.39618" lon="6.50218">
        <ele>1146.0288085938</ele>
        <time>2012-09-15T06:45:19Z</time>
      </trkpt>
      <trkpt lat="44.39614" lon="6.50202">
        <ele>1147.9514160156</ele>
        <time>2012-09-15T06:45:27Z</time>
      </trkpt>
      <trkpt lat="44.39613" lon="6.50192">
        <ele>1148.9128417969</ele>
        <time>2012-09-15T06:45:31Z</time>
      </trkpt>
      <trkpt lat="44.39604" lon="6.50176">
        <ele>1151.796875</ele>
        <time>2012-09-15T06:45:40Z</time>
      </trkpt>
      <trkpt lat="44.39598" lon="6.50157">
        <ele>1154.6806640625</ele>
        <time>2012-09-15T06:45:50Z</time>
      </trkpt>
      <trkpt lat="44.39594" lon="6.50142">
        <ele>1155.1613769531</ele>
        <time>2012-09-15T06:45:57Z</time>
      </trkpt>
      <trkpt lat="44.39585" lon="6.50125">
        <ele>1154.6806640625</ele>
        <time>2012-09-15T06:46:05Z</time>
      </trkpt>
      <trkpt lat="44.3958" lon="6.50118">
        <ele>1157.5646972656</ele>
        <time>2012-09-15T06:46:10Z</time>
      </trkpt>
      <trkpt lat="44.39571" lon="6.50112">
        <ele>1163.3325195312</ele>
        <time>2012-09-15T06:46:16Z</time>
      </trkpt>
      <trkpt lat="44.39565" lon="6.50106">
        <ele>1164.7746582031</ele>
        <time>2012-09-15T06:46:22Z</time>
      </trkpt>
      <trkpt lat="44.39557" lon="6.50098">
        <ele>1168.1391601562</ele>
        <time>2012-09-15T06:46:28Z</time>
      </trkpt>
      <trkpt lat="44.39543" lon="6.50092">
        <ele>1171.0231933594</ele>
        <time>2012-09-15T06:46:34Z</time>
      </trkpt>
      <trkpt lat="44.39531" lon="6.50085">
        <ele>1173.4265136719</ele>
        <time>2012-09-15T06:46:40Z</time>
      </trkpt>
      <trkpt lat="44.39523" lon="6.50078">
        <ele>1175.3488769531</ele>
        <time>2012-09-15T06:46:45Z</time>
      </trkpt>
      <trkpt lat="44.39517" lon="6.50064">
        <ele>1177.7521972656</ele>
        <time>2012-09-15T06:46:52Z</time>
      </trkpt>
      <trkpt lat="44.39513" lon="6.50047">
        <ele>1180.6364746094</ele>
        <time>2012-09-15T06:46:59Z</time>
      </trkpt>
      <trkpt lat="44.39507" lon="6.50034">
        <ele>1181.1171875</ele>
        <time>2012-09-15T06:47:05Z</time>
      </trkpt>
      <trkpt lat="44.39504" lon="6.50028">
        <ele>1181.1171875</ele>
        <time>2012-09-15T06:47:08Z</time>
      </trkpt>
      <trkpt lat="44.39486" lon="6.5002">
        <ele>1180.6364746094</ele>
        <time>2012-09-15T06:47:16Z</time>
      </trkpt>
      <trkpt lat="44.39477" lon="6.50013">
        <ele>1184.4816894531</ele>
        <time>2012-09-15T06:47:21Z</time>
      </trkpt>
      <trkpt lat="44.39473" lon="6.50007">
        <ele>1187.3654785156</ele>
        <time>2012-09-15T06:47:24Z</time>
      </trkpt>
      <trkpt lat="44.39466" lon="6.49993">
        <ele>1191.2106933594</ele>
        <time>2012-09-15T06:47:31Z</time>
      </trkpt>
      <trkpt lat="44.39465" lon="6.49989">
        <ele>1193.1333007812</ele>
        <time>2012-09-15T06:47:33Z</time>
      </trkpt>
      <trkpt lat="44.39456" lon="6.49981">
        <ele>1193.1333007812</ele>
        <time>2012-09-15T06:47:39Z</time>
      </trkpt>
      <trkpt lat="44.39452" lon="6.49976">
        <ele>1191.2106933594</ele>
        <time>2012-09-15T06:47:42Z</time>
      </trkpt>
      <trkpt lat="44.39445" lon="6.49969">
        <ele>1191.69140625</ele>
        <time>2012-09-15T06:47:47Z</time>
      </trkpt>
      <trkpt lat="44.39427" lon="6.49967">
        <ele>1193.6140136719</ele>
        <time>2012-09-15T06:47:54Z</time>
      </trkpt>
      <trkpt lat="44.39412" lon="6.49962">
        <ele>1201.3046875</ele>
        <time>2012-09-15T06:48:01Z</time>
      </trkpt>
      <trkpt lat="44.39398" lon="6.49958">
        <ele>1197.4594726562</ele>
        <time>2012-09-15T06:48:08Z</time>
      </trkpt>
      <trkpt lat="44.39391" lon="6.49959">
        <ele>1194.0947265625</ele>
        <time>2012-09-15T06:48:12Z</time>
      </trkpt>
      <trkpt lat="44.39373" lon="6.49963">
        <ele>1184.9624023438</ele>
        <time>2012-09-15T06:48:22Z</time>
      </trkpt>
      <trkpt lat="44.39364" lon="6.49967">
        <ele>1185.9235839844</ele>
        <time>2012-09-15T06:48:29Z</time>
      </trkpt>
      <trkpt lat="44.39352" lon="6.49973">
        <ele>1187.3654785156</ele>
        <time>2012-09-15T06:48:37Z</time>
      </trkpt>
      <trkpt lat="44.39334" lon="6.49979">
        <ele>1186.404296875</ele>
        <time>2012-09-15T06:48:46Z</time>
      </trkpt>
      <trkpt lat="44.3932" lon="6.4998">
        <ele>1186.884765625</ele>
        <time>2012-09-15T06:48:54Z</time>
      </trkpt>
      <trkpt lat="44.39303" lon="6.49981">
        <ele>1187.8461914062</ele>
        <time>2012-09-15T06:49:02Z</time>
      </trkpt>
      <trkpt lat="44.39294" lon="6.4998">
        <ele>1189.2880859375</ele>
        <time>2012-09-15T06:49:08Z</time>
      </trkpt>
      <trkpt lat="44.39283" lon="6.49983">
        <ele>1190.7299804688</ele>
        <time>2012-09-15T06:49:14Z</time>
      </trkpt>
      <trkpt lat="44.39272" lon="6.49989">
        <ele>1192.1721191406</ele>
        <time>2012-09-15T06:49:20Z</time>
      </trkpt>
      <trkpt lat="44.39259" lon="6.50002">
        <ele>1194.0947265625</ele>
        <time>2012-09-15T06:49:29Z</time>
      </trkpt>
      <trkpt lat="44.39251" lon="6.50014">
        <ele>1195.5366210938</ele>
        <time>2012-09-15T06:49:36Z</time>
      </trkpt>
      <trkpt lat="44.39243" lon="6.50023">
        <ele>1196.4982910156</ele>
        <time>2012-09-15T06:49:42Z</time>
      </trkpt>
      <trkpt lat="44.3923" lon="6.50035">
        <ele>1196.4982910156</ele>
        <time>2012-09-15T06:49:51Z</time>
      </trkpt>
      <trkpt lat="44.39215" lon="6.50047">
        <ele>1201.7854003906</ele>
        <time>2012-09-15T06:50:00Z</time>
      </trkpt>
      <trkpt lat="44.39212" lon="6.50045">
        <ele>1203.7080078125</ele>
        <time>2012-09-15T06:50:03Z</time>
      </trkpt>
      <trkpt lat="44.39203" lon="6.50037">
        <ele>1210.4370117188</ele>
        <time>2012-09-15T06:50:09Z</time>
      </trkpt>
      <trkpt lat="44.392" lon="6.50027">
        <ele>1216.205078125</ele>
        <time>2012-09-15T06:50:14Z</time>
      </trkpt>
      <trkpt lat="44.39196" lon="6.50022">
        <ele>1221.01171875</ele>
        <time>2012-09-15T06:50:17Z</time>
      </trkpt>
      <trkpt lat="44.39191" lon="6.50009">
        <ele>1221.4921875</ele>
        <time>2012-09-15T06:50:24Z</time>
      </trkpt>
      <trkpt lat="44.3919" lon="6.49995">
        <ele>1222.4536132812</ele>
        <time>2012-09-15T06:50:29Z</time>
      </trkpt>
      <trkpt lat="44.39186" lon="6.49978">
        <ele>1221.01171875</ele>
        <time>2012-09-15T06:50:36Z</time>
      </trkpt>
      <trkpt lat="44.39185" lon="6.49973">
        <ele>1221.01171875</ele>
        <time>2012-09-15T06:50:38Z</time>
      </trkpt>
      <trkpt lat="44.3918" lon="6.49959">
        <ele>1221.4921875</ele>
        <time>2012-09-15T06:50:45Z</time>
      </trkpt>
      <trkpt lat="44.3918" lon="6.49956">
        <ele>1221.01171875</ele>
        <time>2012-09-15T06:50:46Z</time>
      </trkpt>
      <trkpt lat="44.39178" lon="6.49938">
        <ele>1220.0502929688</ele>
        <time>2012-09-15T06:50:53Z</time>
      </trkpt>
      <trkpt lat="44.39174" lon="6.49919">
        <ele>1219.0891113281</ele>
        <time>2012-09-15T06:51:00Z</time>
      </trkpt>
      <trkpt lat="44.39164" lon="6.499">
        <ele>1219.5698242188</ele>
        <time>2012-09-15T06:51:08Z</time>
      </trkpt>
      <trkpt lat="44.39157" lon="6.49892">
        <ele>1216.205078125</ele>
        <time>2012-09-15T06:51:13Z</time>
      </trkpt>
      <trkpt lat="44.39157" lon="6.49897">
        <ele>1214.2824707031</ele>
        <time>2012-09-15T06:51:17Z</time>
      </trkpt>
      <trkpt lat="44.39168" lon="6.49909">
        <ele>1211.8791503906</ele>
        <time>2012-09-15T06:51:26Z</time>
      </trkpt>
      <trkpt lat="44.39169" lon="6.49925">
        <ele>1213.8017578125</ele>
        <time>2012-09-15T06:51:34Z</time>
      </trkpt>
      <trkpt lat="44.39167" lon="6.49943">
        <ele>1213.8017578125</ele>
        <time>2012-09-15T06:51:42Z</time>
      </trkpt>
      <trkpt lat="44.39167" lon="6.49959">
        <ele>1214.7631835938</ele>
        <time>2012-09-15T06:51:49Z</time>
      </trkpt>
      <trkpt lat="44.39166" lon="6.49974">
        <ele>1218.6083984375</ele>
        <time>2012-09-15T06:51:56Z</time>
      </trkpt>
      <trkpt lat="44.39166" lon="6.49993">
        <ele>1219.0891113281</ele>
        <time>2012-09-15T06:52:04Z</time>
      </trkpt>
      <trkpt lat="44.39167" lon="6.50008">
        <ele>1219.5698242188</ele>
        <time>2012-09-15T06:52:10Z</time>
      </trkpt>
      <trkpt lat="44.39164" lon="6.50029">
        <ele>1222.9343261719</ele>
        <time>2012-09-15T06:52:19Z</time>
      </trkpt>
      <trkpt lat="44.39164" lon="6.50033">
        <ele>1223.4150390625</ele>
        <time>2012-09-15T06:52:21Z</time>
      </trkpt>
      <trkpt lat="44.39164" lon="6.5004">
        <ele>1225.3374023438</ele>
        <time>2012-09-15T06:52:25Z</time>
      </trkpt>
      <trkpt lat="44.39164" lon="6.50059">
        <ele>1226.7795410156</ele>
        <time>2012-09-15T06:52:34Z</time>
      </trkpt>
      <trkpt lat="44.39166" lon="6.5007">
        <ele>1233.0280761719</ele>
        <time>2012-09-15T06:52:41Z</time>
      </trkpt>
      <trkpt lat="44.39167" lon="6.50083">
        <ele>1236.3928222656</ele>
        <time>2012-09-15T06:52:47Z</time>
      </trkpt>
      <trkpt lat="44.39167" lon="6.50098">
        <ele>1245.0446777344</ele>
        <time>2012-09-15T06:52:55Z</time>
      </trkpt>
      <trkpt lat="44.39172" lon="6.5011">
        <ele>1258.5029296875</ele>
        <time>2012-09-15T06:53:03Z</time>
      </trkpt>
      <trkpt lat="44.39177" lon="6.5012">
        <ele>1261.3872070312</ele>
        <time>2012-09-15T06:53:09Z</time>
      </trkpt>
      <trkpt lat="44.39177" lon="6.50131">
        <ele>1258.9836425781</ele>
        <time>2012-09-15T06:53:15Z</time>
      </trkpt>
      <trkpt lat="44.39178" lon="6.50132">
        <ele>1258.0224609375</ele>
        <time>2012-09-15T06:53:16Z</time>
      </trkpt>
      <trkpt lat="44.3919" lon="6.50131">
        <ele>1252.2543945312</ele>
        <time>2012-09-15T06:53:24Z</time>
      </trkpt>
      <trkpt lat="44.39204" lon="6.50126">
        <ele>1245.0446777344</ele>
        <time>2012-09-15T06:53:34Z</time>
      </trkpt>
      <trkpt lat="44.39219" lon="6.50114">
        <ele>1244.0834960938</ele>
        <time>2012-09-15T06:53:44Z</time>
      </trkpt>
      <trkpt lat="44.39227" lon="6.50104">
        <ele>1252.7351074219</ele>
        <time>2012-09-15T06:53:51Z</time>
      </trkpt>
      <trkpt lat="44.39233" lon="6.50107">
        <ele>1256.099609375</ele>
        <time>2012-09-15T06:53:56Z</time>
      </trkpt>
      <trkpt lat="44.39251" lon="6.50123">
        <ele>1239.7573242188</ele>
        <time>2012-09-15T06:54:05Z</time>
      </trkpt>
      <trkpt lat="44.3926" lon="6.50134">
        <ele>1239.2766113281</ele>
        <time>2012-09-15T06:54:12Z</time>
      </trkpt>
      <trkpt lat="44.39264" lon="6.50136">
        <ele>1239.7573242188</ele>
        <time>2012-09-15T06:54:14Z</time>
      </trkpt>
      <trkpt lat="44.39266" lon="6.50145">
        <ele>1246.9672851562</ele>
        <time>2012-09-15T06:54:19Z</time>
      </trkpt>
      <trkpt lat="44.3927" lon="6.50153">
        <ele>1253.2158203125</ele>
        <time>2012-09-15T06:54:24Z</time>
      </trkpt>
      <trkpt lat="44.39278" lon="6.5016">
        <ele>1262.3483886719</ele>
        <time>2012-09-15T06:54:33Z</time>
      </trkpt>
      <trkpt lat="44.39283" lon="6.50165">
        <ele>1269.0776367188</ele>
        <time>2012-09-15T06:54:39Z</time>
      </trkpt>
      <trkpt lat="44.39298" lon="6.50175">
        <ele>1268.5969238281</ele>
        <time>2012-09-15T06:54:48Z</time>
      </trkpt>
      <trkpt lat="44.39305" lon="6.50182">
        <ele>1273.4035644531</ele>
        <time>2012-09-15T06:54:55Z</time>
      </trkpt>
      <trkpt lat="44.39311" lon="6.50189">
        <ele>1271.0002441406</ele>
        <time>2012-09-15T06:54:59Z</time>
      </trkpt>
      <trkpt lat="44.39323" lon="6.50198">
        <ele>1273.8840332031</ele>
        <time>2012-09-15T06:55:08Z</time>
      </trkpt>
      <trkpt lat="44.39332" lon="6.50205">
        <ele>1276.2875976562</ele>
        <time>2012-09-15T06:55:14Z</time>
      </trkpt>
      <trkpt lat="44.39346" lon="6.5022">
        <ele>1268.5969238281</ele>
        <time>2012-09-15T06:55:22Z</time>
      </trkpt>
      <trkpt lat="44.39358" lon="6.50233">
        <ele>1268.1162109375</ele>
        <time>2012-09-15T06:55:30Z</time>
      </trkpt>
      <trkpt lat="44.39371" lon="6.5025">
        <ele>1263.3098144531</ele>
        <time>2012-09-15T06:55:38Z</time>
      </trkpt>
      <trkpt lat="44.39378" lon="6.5026">
        <ele>1261.8679199219</ele>
        <time>2012-09-15T06:55:44Z</time>
      </trkpt>
      <trkpt lat="44.39378" lon="6.50261">
        <ele>1261.8679199219</ele>
        <time>2012-09-15T06:55:46Z</time>
      </trkpt>
      <trkpt lat="44.3938" lon="6.5026">
        <ele>1266.6743164062</ele>
        <time>2012-09-15T06:56:07Z</time>
      </trkpt>
      <trkpt lat="44.39378" lon="6.50266">
        <ele>1269.0776367188</ele>
        <time>2012-09-15T06:58:28Z</time>
      </trkpt>
      <trkpt lat="44.39378" lon="6.50271">
        <ele>1269.5583496094</ele>
        <time>2012-09-15T06:58:32Z</time>
      </trkpt>
      <trkpt lat="44.39377" lon="6.5028">
        <ele>1271.4807128906</ele>
        <time>2012-09-15T06:58:37Z</time>
      </trkpt>
      <trkpt lat="44.39376" lon="6.50282">
        <ele>1272.9228515625</ele>
        <time>2012-09-15T06:58:39Z</time>
      </trkpt>
      <trkpt lat="44.39364" lon="6.50297">
        <ele>1274.8454589844</ele>
        <time>2012-09-15T06:58:49Z</time>
      </trkpt>
      <trkpt lat="44.39352" lon="6.50304">
        <ele>1275.3259277344</ele>
        <time>2012-09-15T06:58:57Z</time>
      </trkpt>
      <trkpt lat="44.39344" lon="6.50309">
        <ele>1275.806640625</ele>
        <time>2012-09-15T06:59:03Z</time>
      </trkpt>
      <trkpt lat="44.3934" lon="6.50314">
        <ele>1275.806640625</ele>
        <time>2012-09-15T06:59:07Z</time>
      </trkpt>
      <trkpt lat="44.39336" lon="6.50329">
        <ele>1276.7683105469</ele>
        <time>2012-09-15T06:59:15Z</time>
      </trkpt>
      <trkpt lat="44.39336" lon="6.50344">
        <ele>1278.6909179688</ele>
        <time>2012-09-15T06:59:22Z</time>
      </trkpt>
      <trkpt lat="44.3933" lon="6.50357">
        <ele>1279.6520996094</ele>
        <time>2012-09-15T06:59:29Z</time>
      </trkpt>
      <trkpt lat="44.39321" lon="6.50353">
        <ele>1280.1328125</ele>
        <time>2012-09-15T06:59:35Z</time>
      </trkpt>
      <trkpt lat="44.39316" lon="6.50336">
        <ele>1281.0942382812</ele>
        <time>2012-09-15T06:59:43Z</time>
      </trkpt>
      <trkpt lat="44.39309" lon="6.50323">
        <ele>1287.8232421875</ele>
        <time>2012-09-15T06:59:53Z</time>
      </trkpt>
      <trkpt lat="44.39303" lon="6.50315">
        <ele>1293.1105957031</ele>
        <time>2012-09-15T07:00:00Z</time>
      </trkpt>
      <trkpt lat="44.39293" lon="6.50304">
        <ele>1296.9558105469</ele>
        <time>2012-09-15T07:00:08Z</time>
      </trkpt>
      <trkpt lat="44.39282" lon="6.50294">
        <ele>1299.83984375</ele>
        <time>2012-09-15T07:00:14Z</time>
      </trkpt>
      <trkpt lat="44.39269" lon="6.50289">
        <ele>1295.033203125</ele>
        <time>2012-09-15T07:00:21Z</time>
      </trkpt>
      <trkpt lat="44.39262" lon="6.50276">
        <ele>1299.3591308594</ele>
        <time>2012-09-15T07:00:28Z</time>
      </trkpt>
      <trkpt lat="44.39257" lon="6.50262">
        <ele>1302.7236328125</ele>
        <time>2012-09-15T07:00:35Z</time>
      </trkpt>
      <trkpt lat="44.39249" lon="6.5025">
        <ele>1304.6462402344</ele>
        <time>2012-09-15T07:00:43Z</time>
      </trkpt>
      <trkpt lat="44.39236" lon="6.50241">
        <ele>1305.126953125</ele>
        <time>2012-09-15T07:00:52Z</time>
      </trkpt>
      <trkpt lat="44.39224" lon="6.5024">
        <ele>1298.3977050781</ele>
        <time>2012-09-15T07:00:58Z</time>
      </trkpt>
      <trkpt lat="44.39212" lon="6.5024">
        <ele>1296.4753417969</ele>
        <time>2012-09-15T07:01:05Z</time>
      </trkpt>
      <trkpt lat="44.39198" lon="6.50245">
        <ele>1295.5139160156</ele>
        <time>2012-09-15T07:01:15Z</time>
      </trkpt>
      <trkpt lat="44.39185" lon="6.50254">
        <ele>1295.033203125</ele>
        <time>2012-09-15T07:01:23Z</time>
      </trkpt>
      <trkpt lat="44.39171" lon="6.50261">
        <ele>1295.9946289062</ele>
        <time>2012-09-15T07:01:32Z</time>
      </trkpt>
      <trkpt lat="44.39158" lon="6.50265">
        <ele>1297.4365234375</ele>
        <time>2012-09-15T07:01:41Z</time>
      </trkpt>
      <trkpt lat="44.39148" lon="6.50269">
        <ele>1302.2429199219</ele>
        <time>2012-09-15T07:01:49Z</time>
      </trkpt>
      <trkpt lat="44.39138" lon="6.50272">
        <ele>1305.6076660156</ele>
        <time>2012-09-15T07:01:56Z</time>
      </trkpt>
      <trkpt lat="44.39127" lon="6.50277">
        <ele>1308.4916992188</ele>
        <time>2012-09-15T07:02:04Z</time>
      </trkpt>
      <trkpt lat="44.39114" lon="6.50284">
        <ele>1306.5688476562</ele>
        <time>2012-09-15T07:02:11Z</time>
      </trkpt>
      <trkpt lat="44.39106" lon="6.50288">
        <ele>1310.4143066406</ele>
        <time>2012-09-15T07:02:18Z</time>
      </trkpt>
      <trkpt lat="44.39097" lon="6.50294">
        <ele>1311.8564453125</ele>
        <time>2012-09-15T07:02:24Z</time>
      </trkpt>
      <trkpt lat="44.39083" lon="6.503">
        <ele>1313.2983398438</ele>
        <time>2012-09-15T07:02:32Z</time>
      </trkpt>
      <trkpt lat="44.39076" lon="6.50302">
        <ele>1319.546875</ele>
        <time>2012-09-15T07:02:39Z</time>
      </trkpt>
      <trkpt lat="44.39072" lon="6.503">
        <ele>1322.9113769531</ele>
        <time>2012-09-15T07:02:43Z</time>
      </trkpt>
      <trkpt lat="44.39068" lon="6.50296">
        <ele>1325.7954101562</ele>
        <time>2012-09-15T07:02:46Z</time>
      </trkpt>
      <trkpt lat="44.39064" lon="6.50285">
        <ele>1325.7954101562</ele>
        <time>2012-09-15T07:02:53Z</time>
      </trkpt>
      <trkpt lat="44.39063" lon="6.50269">
        <ele>1327.7180175781</ele>
        <time>2012-09-15T07:03:00Z</time>
      </trkpt>
      <trkpt lat="44.39061" lon="6.50254">
        <ele>1329.1599121094</ele>
        <time>2012-09-15T07:03:06Z</time>
      </trkpt>
      <trkpt lat="44.39058" lon="6.50242">
        <ele>1330.1213378906</ele>
        <time>2012-09-15T07:03:13Z</time>
      </trkpt>
      <trkpt lat="44.39057" lon="6.50239">
        <ele>1331.0827636719</ele>
        <time>2012-09-15T07:03:15Z</time>
      </trkpt>
      <trkpt lat="44.39049" lon="6.50233">
        <ele>1333.0051269531</ele>
        <time>2012-09-15T07:03:22Z</time>
      </trkpt>
      <trkpt lat="44.39034" lon="6.50231">
        <ele>1330.6020507812</ele>
        <time>2012-09-15T07:03:30Z</time>
      </trkpt>
      <trkpt lat="44.39019" lon="6.50231">
        <ele>1325.3146972656</ele>
        <time>2012-09-15T07:03:37Z</time>
      </trkpt>
      <trkpt lat="44.39009" lon="6.50228">
        <ele>1324.8342285156</ele>
        <time>2012-09-15T07:03:44Z</time>
      </trkpt>
      <trkpt lat="44.39003" lon="6.5022">
        <ele>1328.6794433594</ele>
        <time>2012-09-15T07:03:51Z</time>
      </trkpt>
      <trkpt lat="44.38997" lon="6.50209">
        <ele>1339.2536621094</ele>
        <time>2012-09-15T07:03:58Z</time>
      </trkpt>
      <trkpt lat="44.38994" lon="6.50207">
        <ele>1342.1379394531</ele>
        <time>2012-09-15T07:04:00Z</time>
      </trkpt>
      <trkpt lat="44.38986" lon="6.50201">
        <ele>1347.4250488281</ele>
        <time>2012-09-15T07:04:07Z</time>
      </trkpt>
      <trkpt lat="44.38979" lon="6.50189">
        <ele>1355.5961914062</ele>
        <time>2012-09-15T07:04:15Z</time>
      </trkpt>
      <trkpt lat="44.38977" lon="6.50184">
        <ele>1358.4802246094</ele>
        <time>2012-09-15T07:04:18Z</time>
      </trkpt>
      <trkpt lat="44.38972" lon="6.5018">
        <ele>1359.9221191406</ele>
        <time>2012-09-15T07:04:22Z</time>
      </trkpt>
      <trkpt lat="44.38961" lon="6.50185">
        <ele>1355.5961914062</ele>
        <time>2012-09-15T07:04:28Z</time>
      </trkpt>
      <trkpt lat="44.38961" lon="6.50194">
        <ele>1350.7895507812</ele>
        <time>2012-09-15T07:04:32Z</time>
      </trkpt>
      <trkpt lat="44.3897" lon="6.50209">
        <ele>1345.9831542969</ele>
        <time>2012-09-15T07:04:42Z</time>
      </trkpt>
      <trkpt lat="44.38974" lon="6.50215">
        <ele>1345.5024414062</ele>
        <time>2012-09-15T07:04:46Z</time>
      </trkpt>
      <trkpt lat="44.38983" lon="6.50228">
        <ele>1345.9831542969</ele>
        <time>2012-09-15T07:04:55Z</time>
      </trkpt>
      <trkpt lat="44.38993" lon="6.50236">
        <ele>1350.3090820312</ele>
        <time>2012-09-15T07:05:02Z</time>
      </trkpt>
      <trkpt lat="44.39002" lon="6.50245">
        <ele>1352.7121582031</ele>
        <time>2012-09-15T07:05:09Z</time>
      </trkpt>
      <trkpt lat="44.39006" lon="6.50258">
        <ele>1353.1928710938</ele>
        <time>2012-09-15T07:05:15Z</time>
      </trkpt>
      <trkpt lat="44.39008" lon="6.50283">
        <ele>1353.1928710938</ele>
        <time>2012-09-15T07:05:24Z</time>
      </trkpt>
      <trkpt lat="44.39007" lon="6.50287">
        <ele>1354.154296875</ele>
        <time>2012-09-15T07:05:26Z</time>
      </trkpt>
      <trkpt lat="44.39006" lon="6.50298">
        <ele>1356.5576171875</ele>
        <time>2012-09-15T07:05:31Z</time>
      </trkpt>
      <trkpt lat="44.39003" lon="6.50315">
        <ele>1358.9609375</ele>
        <time>2012-09-15T07:05:39Z</time>
      </trkpt>
      <trkpt lat="44.39008" lon="6.50325">
        <ele>1362.3254394531</ele>
        <time>2012-09-15T07:05:45Z</time>
      </trkpt>
      <trkpt lat="44.39011" lon="6.5033">
        <ele>1362.3254394531</ele>
        <time>2012-09-15T07:05:49Z</time>
      </trkpt>
      <trkpt lat="44.39012" lon="6.50332">
        <ele>1361.8449707031</ele>
        <time>2012-09-15T07:05:51Z</time>
      </trkpt>
      <trkpt lat="44.39024" lon="6.50339">
        <ele>1359.9221191406</ele>
        <time>2012-09-15T07:05:59Z</time>
      </trkpt>
      <trkpt lat="44.3904" lon="6.50354">
        <ele>1351.2702636719</ele>
        <time>2012-09-15T07:06:08Z</time>
      </trkpt>
      <trkpt lat="44.39051" lon="6.50367">
        <ele>1346.9443359375</ele>
        <time>2012-09-15T07:06:15Z</time>
      </trkpt>
      <trkpt lat="44.39057" lon="6.5038">
        <ele>1343.0991210938</ele>
        <time>2012-09-15T07:06:21Z</time>
      </trkpt>
      <trkpt lat="44.39063" lon="6.50396">
        <ele>1340.6958007812</ele>
        <time>2012-09-15T07:06:28Z</time>
      </trkpt>
      <trkpt lat="44.39071" lon="6.50416">
        <ele>1348.3862304688</ele>
        <time>2012-09-15T07:06:37Z</time>
      </trkpt>
      <trkpt lat="44.39073" lon="6.50439">
        <ele>1354.154296875</ele>
        <time>2012-09-15T07:06:47Z</time>
      </trkpt>
      <trkpt lat="44.39074" lon="6.50453">
        <ele>1355.5961914062</ele>
        <time>2012-09-15T07:06:54Z</time>
      </trkpt>
      <trkpt lat="44.39078" lon="6.50469">
        <ele>1360.4028320312</ele>
        <time>2012-09-15T07:07:03Z</time>
      </trkpt>
      <trkpt lat="44.39082" lon="6.50487">
        <ele>1365.6901855469</ele>
        <time>2012-09-15T07:07:12Z</time>
      </trkpt>
      <trkpt lat="44.39085" lon="6.50502">
        <ele>1370.0158691406</ele>
        <time>2012-09-15T07:07:20Z</time>
      </trkpt>
      <trkpt lat="44.39089" lon="6.50516">
        <ele>1373.380859375</ele>
        <time>2012-09-15T07:07:27Z</time>
      </trkpt>
      <trkpt lat="44.39091" lon="6.5053">
        <ele>1375.3032226562</ele>
        <time>2012-09-15T07:07:34Z</time>
      </trkpt>
      <trkpt lat="44.39093" lon="6.50547">
        <ele>1374.8227539062</ele>
        <time>2012-09-15T07:07:41Z</time>
      </trkpt>
      <trkpt lat="44.39091" lon="6.50563">
        <ele>1374.3420410156</ele>
        <time>2012-09-15T07:07:47Z</time>
      </trkpt>
      <trkpt lat="44.39085" lon="6.50574">
        <ele>1371.9384765625</ele>
        <time>2012-09-15T07:07:53Z</time>
      </trkpt>
      <trkpt lat="44.39079" lon="6.50587">
        <ele>1375.7839355469</ele>
        <time>2012-09-15T07:08:01Z</time>
      </trkpt>
      <trkpt lat="44.39079" lon="6.50591">
        <ele>1377.7065429688</ele>
        <time>2012-09-15T07:08:03Z</time>
      </trkpt>
      <trkpt lat="44.39079" lon="6.50609">
        <ele>1388.28125</ele>
        <time>2012-09-15T07:08:12Z</time>
      </trkpt>
      <trkpt lat="44.39078" lon="6.50613">
        <ele>1387.8002929688</ele>
        <time>2012-09-15T07:08:14Z</time>
      </trkpt>
      <trkpt lat="44.39076" lon="6.50631">
        <ele>1385.3969726562</ele>
        <time>2012-09-15T07:08:22Z</time>
      </trkpt>
      <trkpt lat="44.39075" lon="6.50652">
        <ele>1382.5131835938</ele>
        <time>2012-09-15T07:08:31Z</time>
      </trkpt>
      <trkpt lat="44.39075" lon="6.50674">
        <ele>1382.0324707031</ele>
        <time>2012-09-15T07:08:40Z</time>
      </trkpt>
      <trkpt lat="44.39077" lon="6.50694">
        <ele>1383.4743652344</ele>
        <time>2012-09-15T07:08:49Z</time>
      </trkpt>
      <trkpt lat="44.39079" lon="6.50706">
        <ele>1387.3195800781</ele>
        <time>2012-09-15T07:08:56Z</time>
      </trkpt>
      <trkpt lat="44.39085" lon="6.5072">
        <ele>1392.1264648438</ele>
        <time>2012-09-15T07:09:05Z</time>
      </trkpt>
      <trkpt lat="44.39092" lon="6.5073">
        <ele>1393.0876464844</ele>
        <time>2012-09-15T07:09:12Z</time>
      </trkpt>
      <trkpt lat="44.39098" lon="6.50745">
        <ele>1393.568359375</ele>
        <time>2012-09-15T07:09:19Z</time>
      </trkpt>
      <trkpt lat="44.391" lon="6.50758">
        <ele>1392.1264648438</ele>
        <time>2012-09-15T07:09:24Z</time>
      </trkpt>
      <trkpt lat="44.39091" lon="6.50761">
        <ele>1393.0876464844</ele>
        <time>2012-09-15T07:09:30Z</time>
      </trkpt>
      <trkpt lat="44.39089" lon="6.5076">
        <ele>1392.6071777344</ele>
        <time>2012-09-15T07:09:31Z</time>
      </trkpt>
      <trkpt lat="44.3908" lon="6.50748">
        <ele>1395.4909667969</ele>
        <time>2012-09-15T07:09:40Z</time>
      </trkpt>
      <trkpt lat="44.39074" lon="6.50743">
        <ele>1398.85546875</ele>
        <time>2012-09-15T07:09:46Z</time>
      </trkpt>
      <trkpt lat="44.39064" lon="6.50737">
        <ele>1402.7006835938</ele>
        <time>2012-09-15T07:09:54Z</time>
      </trkpt>
      <trkpt lat="44.39062" lon="6.50737">
        <ele>1404.6235351562</ele>
        <time>2012-09-15T07:09:56Z</time>
      </trkpt>
      <trkpt lat="44.39056" lon="6.50731">
        <ele>1412.7946777344</ele>
        <time>2012-09-15T07:10:01Z</time>
      </trkpt>
      <trkpt lat="44.39043" lon="6.50722">
        <ele>1413.755859375</ele>
        <time>2012-09-15T07:10:09Z</time>
      </trkpt>
      <trkpt lat="44.39037" lon="6.50712">
        <ele>1417.6010742188</ele>
        <time>2012-09-15T07:10:16Z</time>
      </trkpt>
      <trkpt lat="44.39025" lon="6.50702">
        <ele>1412.7946777344</ele>
        <time>2012-09-15T07:10:22Z</time>
      </trkpt>
      <trkpt lat="44.39006" lon="6.5069">
        <ele>1402.7006835938</ele>
        <time>2012-09-15T07:10:31Z</time>
      </trkpt>
      <trkpt lat="44.39" lon="6.50674">
        <ele>1397.8942871094</ele>
        <time>2012-09-15T07:10:38Z</time>
      </trkpt>
      <trkpt lat="44.38993" lon="6.50658">
        <ele>1392.1264648438</ele>
        <time>2012-09-15T07:10:45Z</time>
      </trkpt>
      <trkpt lat="44.38991" lon="6.50646">
        <ele>1393.0876464844</ele>
        <time>2012-09-15T07:10:50Z</time>
      </trkpt>
      <trkpt lat="44.38992" lon="6.50643">
        <ele>1395.0102539062</ele>
        <time>2012-09-15T07:10:51Z</time>
      </trkpt>
      <trkpt lat="44.38998" lon="6.50627">
        <ele>1407.5075683594</ele>
        <time>2012-09-15T07:10:58Z</time>
      </trkpt>
      <trkpt lat="44.39" lon="6.50617">
        <ele>1415.1979980469</ele>
        <time>2012-09-15T07:11:02Z</time>
      </trkpt>
      <trkpt lat="44.39008" lon="6.50596">
        <ele>1431.0598144531</ele>
        <time>2012-09-15T07:11:11Z</time>
      </trkpt>
      <trkpt lat="44.39009" lon="6.50591">
        <ele>1434.4243164062</ele>
        <time>2012-09-15T07:11:13Z</time>
      </trkpt>
      <trkpt lat="44.39012" lon="6.5058">
        <ele>1439.7116699219</ele>
        <time>2012-09-15T07:11:18Z</time>
      </trkpt>
      <trkpt lat="44.39014" lon="6.50563">
        <ele>1443.5568847656</ele>
        <time>2012-09-15T07:11:26Z</time>
      </trkpt>
      <trkpt lat="44.39014" lon="6.50539">
        <ele>1442.595703125</ele>
        <time>2012-09-15T07:11:36Z</time>
      </trkpt>
      <trkpt lat="44.39012" lon="6.50528">
        <ele>1443.076171875</ele>
        <time>2012-09-15T07:11:41Z</time>
      </trkpt>
      <trkpt lat="44.39" lon="6.5052">
        <ele>1434.4243164062</ele>
        <time>2012-09-15T07:11:47Z</time>
      </trkpt>
      <trkpt lat="44.38987" lon="6.50509">
        <ele>1427.6950683594</ele>
        <time>2012-09-15T07:11:54Z</time>
      </trkpt>
      <trkpt lat="44.38976" lon="6.50501">
        <ele>1426.7338867188</ele>
        <time>2012-09-15T07:12:01Z</time>
      </trkpt>
      <trkpt lat="44.38973" lon="6.50499">
        <ele>1426.2531738281</ele>
        <time>2012-09-15T07:12:02Z</time>
      </trkpt>
      <trkpt lat="44.38966" lon="6.50497">
        <ele>1422.4079589844</ele>
        <time>2012-09-15T07:12:05Z</time>
      </trkpt>
      <trkpt lat="44.38961" lon="6.5049">
        <ele>1419.0432128906</ele>
        <time>2012-09-15T07:12:10Z</time>
      </trkpt>
      <trkpt lat="44.38952" lon="6.50481">
        <ele>1416.6398925781</ele>
        <time>2012-09-15T07:12:17Z</time>
      </trkpt>
      <trkpt lat="44.38948" lon="6.50489">
        <ele>1418.0817871094</ele>
        <time>2012-09-15T07:12:23Z</time>
      </trkpt>
      <trkpt lat="44.3895" lon="6.50493">
        <ele>1419.0432128906</ele>
        <time>2012-09-15T07:12:26Z</time>
      </trkpt>
      <trkpt lat="44.38963" lon="6.50503">
        <ele>1420.4853515625</ele>
        <time>2012-09-15T07:12:37Z</time>
      </trkpt>
      <trkpt lat="44.38971" lon="6.50515">
        <ele>1425.7724609375</ele>
        <time>2012-09-15T07:12:45Z</time>
      </trkpt>
      <trkpt lat="44.38971" lon="6.5053">
        <ele>1426.2531738281</ele>
        <time>2012-09-15T07:12:52Z</time>
      </trkpt>
      <trkpt lat="44.3897" lon="6.50541">
        <ele>1428.6564941406</ele>
        <time>2012-09-15T07:12:58Z</time>
      </trkpt>
      <trkpt lat="44.38966" lon="6.50551">
        <ele>1433.462890625</ele>
        <time>2012-09-15T07:13:04Z</time>
      </trkpt>
      <trkpt lat="44.38962" lon="6.50564">
        <ele>1436.8276367188</ele>
        <time>2012-09-15T07:13:10Z</time>
      </trkpt>
      <trkpt lat="44.3896" lon="6.50574">
        <ele>1440.6728515625</ele>
        <time>2012-09-15T07:13:15Z</time>
      </trkpt>
      <trkpt lat="44.38958" lon="6.50583">
        <ele>1444.9987792969</ele>
        <time>2012-09-15T07:13:22Z</time>
      </trkpt>
      <trkpt lat="44.38954" lon="6.50598">
        <ele>1444.5180664062</ele>
        <time>2012-09-15T07:13:29Z</time>
      </trkpt>
      <trkpt lat="44.3895" lon="6.50613">
        <ele>1444.0375976562</ele>
        <time>2012-09-15T07:13:35Z</time>
      </trkpt>
      <trkpt lat="44.38951" lon="6.50631">
        <ele>1444.0375976562</ele>
        <time>2012-09-15T07:13:43Z</time>
      </trkpt>
      <trkpt lat="44.38951" lon="6.50646">
        <ele>1445.9602050781</ele>
        <time>2012-09-15T07:13:49Z</time>
      </trkpt>
      <trkpt lat="44.3895" lon="6.50666">
        <ele>1447.4020996094</ele>
        <time>2012-09-15T07:13:57Z</time>
      </trkpt>
      <trkpt lat="44.38952" lon="6.50683">
        <ele>1444.5180664062</ele>
        <time>2012-09-15T07:14:03Z</time>
      </trkpt>
      <trkpt lat="44.38952" lon="6.50701">
        <ele>1446.4409179688</ele>
        <time>2012-09-15T07:14:10Z</time>
      </trkpt>
      <trkpt lat="44.38951" lon="6.50717">
        <ele>1448.36328125</ele>
        <time>2012-09-15T07:14:16Z</time>
      </trkpt>
      <trkpt lat="44.38952" lon="6.50729">
        <ele>1450.2861328125</ele>
        <time>2012-09-15T07:14:21Z</time>
      </trkpt>
      <trkpt lat="44.38953" lon="6.5075">
        <ele>1445.4794921875</ele>
        <time>2012-09-15T07:14:30Z</time>
      </trkpt>
      <trkpt lat="44.38957" lon="6.50762">
        <ele>1446.9213867188</ele>
        <time>2012-09-15T07:14:36Z</time>
      </trkpt>
      <trkpt lat="44.38962" lon="6.50772">
        <ele>1445.9602050781</ele>
        <time>2012-09-15T07:14:42Z</time>
      </trkpt>
      <trkpt lat="44.38968" lon="6.50779">
        <ele>1450.7666015625</ele>
        <time>2012-09-15T07:14:47Z</time>
      </trkpt>
      <trkpt lat="44.38976" lon="6.50792">
        <ele>1455.5734863281</ele>
        <time>2012-09-15T07:14:55Z</time>
      </trkpt>
      <trkpt lat="44.38984" lon="6.50807">
        <ele>1457.9768066406</ele>
        <time>2012-09-15T07:15:03Z</time>
      </trkpt>
      <trkpt lat="44.38996" lon="6.50824">
        <ele>1464.2250976562</ele>
        <time>2012-09-15T07:15:13Z</time>
      </trkpt>
      <trkpt lat="44.39004" lon="6.50837">
        <ele>1466.1477050781</ele>
        <time>2012-09-15T07:15:21Z</time>
      </trkpt>
      <trkpt lat="44.39015" lon="6.50847">
        <ele>1469.0319824219</ele>
        <time>2012-09-15T07:15:28Z</time>
      </trkpt>
      <trkpt lat="44.39025" lon="6.50854">
        <ele>1468.5512695312</ele>
        <time>2012-09-15T07:15:35Z</time>
      </trkpt>
      <trkpt lat="44.39036" lon="6.50862">
        <ele>1469.0319824219</ele>
        <time>2012-09-15T07:15:42Z</time>
      </trkpt>
      <trkpt lat="44.39047" lon="6.50875">
        <ele>1464.2250976562</ele>
        <time>2012-09-15T07:15:49Z</time>
      </trkpt>
      <trkpt lat="44.39057" lon="6.5089">
        <ele>1462.3024902344</ele>
        <time>2012-09-15T07:15:57Z</time>
      </trkpt>
      <trkpt lat="44.39067" lon="6.50902">
        <ele>1465.6672363281</ele>
        <time>2012-09-15T07:16:04Z</time>
      </trkpt>
      <trkpt lat="44.39074" lon="6.50914">
        <ele>1468.0705566406</ele>
        <time>2012-09-15T07:16:10Z</time>
      </trkpt>
      <trkpt lat="44.39078" lon="6.50923">
        <ele>1470.4738769531</ele>
        <time>2012-09-15T07:16:15Z</time>
      </trkpt>
      <trkpt lat="44.39083" lon="6.50934">
        <ele>1472.396484375</ele>
        <time>2012-09-15T07:16:20Z</time>
      </trkpt>
      <trkpt lat="44.39088" lon="6.5095">
        <ele>1474.3190917969</ele>
        <time>2012-09-15T07:16:26Z</time>
      </trkpt>
      <trkpt lat="44.39093" lon="6.50964">
        <ele>1475.7609863281</ele>
        <time>2012-09-15T07:16:32Z</time>
      </trkpt>
      <trkpt lat="44.39102" lon="6.50984">
        <ele>1475.7609863281</ele>
        <time>2012-09-15T07:16:40Z</time>
      </trkpt>
      <trkpt lat="44.39109" lon="6.51004">
        <ele>1475.7609863281</ele>
        <time>2012-09-15T07:16:48Z</time>
      </trkpt>
      <trkpt lat="44.39112" lon="6.51009">
        <ele>1475.7609863281</ele>
        <time>2012-09-15T07:16:51Z</time>
      </trkpt>
      <trkpt lat="44.39127" lon="6.51026">
        <ele>1478.1643066406</ele>
        <time>2012-09-15T07:17:00Z</time>
      </trkpt>
      <trkpt lat="44.39133" lon="6.51042">
        <ele>1477.203125</ele>
        <time>2012-09-15T07:17:06Z</time>
      </trkpt>
      <trkpt lat="44.39135" lon="6.51064">
        <ele>1479.6062011719</ele>
        <time>2012-09-15T07:17:15Z</time>
      </trkpt>
      <trkpt lat="44.39134" lon="6.51072">
        <ele>1478.1643066406</ele>
        <time>2012-09-15T07:17:19Z</time>
      </trkpt>
      <trkpt lat="44.39138" lon="6.51092">
        <ele>1481.0483398438</ele>
        <time>2012-09-15T07:17:28Z</time>
      </trkpt>
      <trkpt lat="44.3914" lon="6.51096">
        <ele>1482.970703125</ele>
        <time>2012-09-15T07:17:31Z</time>
      </trkpt>
      <trkpt lat="44.39151" lon="6.51106">
        <ele>1482.490234375</ele>
        <time>2012-09-15T07:17:39Z</time>
      </trkpt>
      <trkpt lat="44.39152" lon="6.51108">
        <ele>1482.970703125</ele>
        <time>2012-09-15T07:17:40Z</time>
      </trkpt>
      <trkpt lat="44.39157" lon="6.51118">
        <ele>1487.7775878906</ele>
        <time>2012-09-15T07:17:46Z</time>
      </trkpt>
      <trkpt lat="44.39163" lon="6.51135">
        <ele>1488.2583007812</ele>
        <time>2012-09-15T07:17:53Z</time>
      </trkpt>
      <trkpt lat="44.39169" lon="6.51148">
        <ele>1491.6228027344</ele>
        <time>2012-09-15T07:17:59Z</time>
      </trkpt>
      <trkpt lat="44.3918" lon="6.51166">
        <ele>1496.9099121094</ele>
        <time>2012-09-15T07:18:07Z</time>
      </trkpt>
      <trkpt lat="44.39186" lon="6.51182">
        <ele>1497.8713378906</ele>
        <time>2012-09-15T07:18:14Z</time>
      </trkpt>
      <trkpt lat="44.39193" lon="6.51196">
        <ele>1497.390625</ele>
        <time>2012-09-15T07:18:20Z</time>
      </trkpt>
      <trkpt lat="44.39201" lon="6.51208">
        <ele>1498.8325195312</ele>
        <time>2012-09-15T07:18:27Z</time>
      </trkpt>
      <trkpt lat="44.39206" lon="6.51224">
        <ele>1496.4294433594</ele>
        <time>2012-09-15T07:18:34Z</time>
      </trkpt>
      <trkpt lat="44.39208" lon="6.51239">
        <ele>1498.3518066406</ele>
        <time>2012-09-15T07:18:40Z</time>
      </trkpt>
      <trkpt lat="44.39209" lon="6.51259">
        <ele>1497.8713378906</ele>
        <time>2012-09-15T07:18:47Z</time>
      </trkpt>
      <trkpt lat="44.39211" lon="6.5128">
        <ele>1496.4294433594</ele>
        <time>2012-09-15T07:18:55Z</time>
      </trkpt>
      <trkpt lat="44.39214" lon="6.51293">
        <ele>1498.3518066406</ele>
        <time>2012-09-15T07:19:00Z</time>
      </trkpt>
      <trkpt lat="44.39219" lon="6.51312">
        <ele>1501.716796875</ele>
        <time>2012-09-15T07:19:08Z</time>
      </trkpt>
      <trkpt lat="44.39223" lon="6.51329">
        <ele>1503.1586914062</ele>
        <time>2012-09-15T07:19:15Z</time>
      </trkpt>
      <trkpt lat="44.3923" lon="6.51343">
        <ele>1505.0812988281</ele>
        <time>2012-09-15T07:19:22Z</time>
      </trkpt>
      <trkpt lat="44.39233" lon="6.51358">
        <ele>1505.0812988281</ele>
        <time>2012-09-15T07:19:29Z</time>
      </trkpt>
      <trkpt lat="44.39235" lon="6.51367">
        <ele>1506.0424804688</ele>
        <time>2012-09-15T07:19:33Z</time>
      </trkpt>
      <trkpt lat="44.39244" lon="6.51385">
        <ele>1509.4072265625</ele>
        <time>2012-09-15T07:19:41Z</time>
      </trkpt>
      <trkpt lat="44.39246" lon="6.51394">
        <ele>1511.3298339844</ele>
        <time>2012-09-15T07:19:45Z</time>
      </trkpt>
      <trkpt lat="44.39254" lon="6.51406">
        <ele>1512.7717285156</ele>
        <time>2012-09-15T07:19:50Z</time>
      </trkpt>
      <trkpt lat="44.39265" lon="6.51409">
        <ele>1509.4072265625</ele>
        <time>2012-09-15T07:19:56Z</time>
      </trkpt>
      <trkpt lat="44.39288" lon="6.51408">
        <ele>1501.716796875</ele>
        <time>2012-09-15T07:20:05Z</time>
      </trkpt>
      <trkpt lat="44.39303" lon="6.51405">
        <ele>1495.9487304688</ele>
        <time>2012-09-15T07:20:11Z</time>
      </trkpt>
      <trkpt lat="44.39323" lon="6.51407">
        <ele>1492.5842285156</ele>
        <time>2012-09-15T07:20:18Z</time>
      </trkpt>
      <trkpt lat="44.39342" lon="6.51413">
        <ele>1493.5454101562</ele>
        <time>2012-09-15T07:20:25Z</time>
      </trkpt>
      <trkpt lat="44.39359" lon="6.51421">
        <ele>1495.4680175781</ele>
        <time>2012-09-15T07:20:32Z</time>
      </trkpt>
      <trkpt lat="44.3937" lon="6.51429">
        <ele>1500.2749023438</ele>
        <time>2012-09-15T07:20:38Z</time>
      </trkpt>
      <trkpt lat="44.39375" lon="6.51445">
        <ele>1505.0812988281</ele>
        <time>2012-09-15T07:20:44Z</time>
      </trkpt>
      <trkpt lat="44.39382" lon="6.51464">
        <ele>1509.8876953125</ele>
        <time>2012-09-15T07:20:51Z</time>
      </trkpt>
      <trkpt lat="44.39386" lon="6.51481">
        <ele>1511.3298339844</ele>
        <time>2012-09-15T07:20:57Z</time>
      </trkpt>
      <trkpt lat="44.39391" lon="6.51504">
        <ele>1510.3684082031</ele>
        <time>2012-09-15T07:21:04Z</time>
      </trkpt>
      <trkpt lat="44.39392" lon="6.51531">
        <ele>1512.7717285156</ele>
        <time>2012-09-15T07:21:12Z</time>
      </trkpt>
      <trkpt lat="44.39392" lon="6.51551">
        <ele>1513.2524414062</ele>
        <time>2012-09-15T07:21:18Z</time>
      </trkpt>
      <trkpt lat="44.39386" lon="6.51571">
        <ele>1510.3684082031</ele>
        <time>2012-09-15T07:21:24Z</time>
      </trkpt>
      <trkpt lat="44.39378" lon="6.5159">
        <ele>1509.8876953125</ele>
        <time>2012-09-15T07:21:30Z</time>
      </trkpt>
      <trkpt lat="44.39365" lon="6.51609">
        <ele>1507.4846191406</ele>
        <time>2012-09-15T07:21:36Z</time>
      </trkpt>
      <trkpt lat="44.39352" lon="6.51626">
        <ele>1506.5231933594</ele>
        <time>2012-09-15T07:21:41Z</time>
      </trkpt>
      <trkpt lat="44.39338" lon="6.51643">
        <ele>1501.2360839844</ele>
        <time>2012-09-15T07:21:46Z</time>
      </trkpt>
      <trkpt lat="44.39324" lon="6.51665">
        <ele>1496.9099121094</ele>
        <time>2012-09-15T07:21:52Z</time>
      </trkpt>
      <trkpt lat="44.39309" lon="6.51687">
        <ele>1493.5454101562</ele>
        <time>2012-09-15T07:21:58Z</time>
      </trkpt>
      <trkpt lat="44.39298" lon="6.51709">
        <ele>1491.1420898438</ele>
        <time>2012-09-15T07:22:03Z</time>
      </trkpt>
      <trkpt lat="44.39289" lon="6.51736">
        <ele>1491.1420898438</ele>
        <time>2012-09-15T07:22:09Z</time>
      </trkpt>
      <trkpt lat="44.39278" lon="6.51767">
        <ele>1493.0646972656</ele>
        <time>2012-09-15T07:22:16Z</time>
      </trkpt>
      <trkpt lat="44.39265" lon="6.51799">
        <ele>1491.1420898438</ele>
        <time>2012-09-15T07:22:22Z</time>
      </trkpt>
      <trkpt lat="44.39266" lon="6.51814">
        <ele>1496.4294433594</ele>
        <time>2012-09-15T07:22:25Z</time>
      </trkpt>
      <trkpt lat="44.39252" lon="6.51828">
        <ele>1494.9873046875</ele>
        <time>2012-09-15T07:22:30Z</time>
      </trkpt>
      <trkpt lat="44.3923" lon="6.51842">
        <ele>1495.4680175781</ele>
        <time>2012-09-15T07:22:36Z</time>
      </trkpt>
      <trkpt lat="44.39223" lon="6.51847">
        <ele>1494.9873046875</ele>
        <time>2012-09-15T07:22:38Z</time>
      </trkpt>
      <trkpt lat="44.3921" lon="6.5187">
        <ele>1494.5065917969</ele>
        <time>2012-09-15T07:22:43Z</time>
      </trkpt>
      <trkpt lat="44.39209" lon="6.51875">
        <ele>1495.4680175781</ele>
        <time>2012-09-15T07:22:44Z</time>
      </trkpt>
      <trkpt lat="44.39209" lon="6.51885">
        <ele>1499.3132324219</ele>
        <time>2012-09-15T07:22:46Z</time>
      </trkpt>
      <trkpt lat="44.3922" lon="6.51921">
        <ele>1513.7329101562</ele>
        <time>2012-09-15T07:22:53Z</time>
      </trkpt>
      <trkpt lat="44.39227" lon="6.51954">
        <ele>1513.7329101562</ele>
        <time>2012-09-15T07:23:00Z</time>
      </trkpt>
      <trkpt lat="44.39233" lon="6.51987">
        <ele>1513.2524414062</ele>
        <time>2012-09-15T07:23:06Z</time>
      </trkpt>
      <trkpt lat="44.39234" lon="6.51993">
        <ele>1512.291015625</ele>
        <time>2012-09-15T07:23:07Z</time>
      </trkpt>
      <trkpt lat="44.39234" lon="6.52019">
        <ele>1511.810546875</ele>
        <time>2012-09-15T07:23:12Z</time>
      </trkpt>
      <trkpt lat="44.39226" lon="6.52032">
        <ele>1512.291015625</ele>
        <time>2012-09-15T07:23:16Z</time>
      </trkpt>
      <trkpt lat="44.39207" lon="6.52055">
        <ele>1510.8491210938</ele>
        <time>2012-09-15T07:23:24Z</time>
      </trkpt>
      <trkpt lat="44.39194" lon="6.52071">
        <ele>1513.2524414062</ele>
        <time>2012-09-15T07:23:30Z</time>
      </trkpt>
      <trkpt lat="44.39181" lon="6.5209">
        <ele>1515.6557617188</ele>
        <time>2012-09-15T07:23:37Z</time>
      </trkpt>
      <trkpt lat="44.39164" lon="6.521">
        <ele>1516.1364746094</ele>
        <time>2012-09-15T07:23:44Z</time>
      </trkpt>
      <trkpt lat="44.39152" lon="6.52107">
        <ele>1523.3464355469</ele>
        <time>2012-09-15T07:23:51Z</time>
      </trkpt>
      <trkpt lat="44.39142" lon="6.52111">
        <ele>1530.0754394531</ele>
        <time>2012-09-15T07:23:57Z</time>
      </trkpt>
      <trkpt lat="44.39128" lon="6.52118">
        <ele>1529.1140136719</ele>
        <time>2012-09-15T07:24:03Z</time>
      </trkpt>
      <trkpt lat="44.39113" lon="6.52127">
        <ele>1526.2302246094</ele>
        <time>2012-09-15T07:24:09Z</time>
      </trkpt>
      <trkpt lat="44.39099" lon="6.52139">
        <ele>1526.2302246094</ele>
        <time>2012-09-15T07:24:16Z</time>
      </trkpt>
      <trkpt lat="44.39086" lon="6.52146">
        <ele>1525.7495117188</ele>
        <time>2012-09-15T07:24:22Z</time>
      </trkpt>
      <trkpt lat="44.39075" lon="6.52154">
        <ele>1526.2302246094</ele>
        <time>2012-09-15T07:24:28Z</time>
      </trkpt>
      <trkpt lat="44.39064" lon="6.52165">
        <ele>1526.7109375</ele>
        <time>2012-09-15T07:24:34Z</time>
      </trkpt>
      <trkpt lat="44.3905" lon="6.52182">
        <ele>1527.6721191406</ele>
        <time>2012-09-15T07:24:41Z</time>
      </trkpt>
      <trkpt lat="44.39038" lon="6.52207">
        <ele>1527.1916503906</ele>
        <time>2012-09-15T07:24:48Z</time>
      </trkpt>
      <trkpt lat="44.39031" lon="6.5224">
        <ele>1526.7109375</ele>
        <time>2012-09-15T07:24:54Z</time>
      </trkpt>
      <trkpt lat="44.39021" lon="6.52264">
        <ele>1521.904296875</ele>
        <time>2012-09-15T07:24:58Z</time>
      </trkpt>
      <trkpt lat="44.39001" lon="6.523">
        <ele>1516.1364746094</ele>
        <time>2012-09-15T07:25:04Z</time>
      </trkpt>
      <trkpt lat="44.38998" lon="6.52307">
        <ele>1517.0979003906</ele>
        <time>2012-09-15T07:25:05Z</time>
      </trkpt>
      <trkpt lat="44.38975" lon="6.52337">
        <ele>1519.9816894531</ele>
        <time>2012-09-15T07:25:10Z</time>
      </trkpt>
      <trkpt lat="44.38952" lon="6.52352">
        <ele>1520.4624023438</ele>
        <time>2012-09-15T07:25:14Z</time>
      </trkpt>
      <trkpt lat="44.38925" lon="6.52377">
        <ele>1519.5012207031</ele>
        <time>2012-09-15T07:25:20Z</time>
      </trkpt>
      <trkpt lat="44.38923" lon="6.52394">
        <ele>1519.5012207031</ele>
        <time>2012-09-15T07:25:22Z</time>
      </trkpt>
      <trkpt lat="44.38919" lon="6.52431">
        <ele>1520.4624023438</ele>
        <time>2012-09-15T07:25:26Z</time>
      </trkpt>
      <trkpt lat="44.38903" lon="6.52467">
        <ele>1514.6943359375</ele>
        <time>2012-09-15T07:25:30Z</time>
      </trkpt>
      <trkpt lat="44.38883" lon="6.52512">
        <ele>1510.3684082031</ele>
        <time>2012-09-15T07:25:35Z</time>
      </trkpt>
      <trkpt lat="44.38874" lon="6.52531">
        <ele>1510.8491210938</ele>
        <time>2012-09-15T07:25:38Z</time>
      </trkpt>
      <trkpt lat="44.38865" lon="6.52556">
        <ele>1510.8491210938</ele>
        <time>2012-09-15T07:25:42Z</time>
      </trkpt>
      <trkpt lat="44.38873" lon="6.52582">
        <ele>1512.291015625</ele>
        <time>2012-09-15T07:25:46Z</time>
      </trkpt>
      <trkpt lat="44.38878" lon="6.52607">
        <ele>1510.3684082031</ele>
        <time>2012-09-15T07:25:50Z</time>
      </trkpt>
      <trkpt lat="44.3889" lon="6.52625">
        <ele>1507.4846191406</ele>
        <time>2012-09-15T07:25:54Z</time>
      </trkpt>
      <trkpt lat="44.38919" lon="6.52658">
        <ele>1501.2360839844</ele>
        <time>2012-09-15T07:26:00Z</time>
      </trkpt>
      <trkpt lat="44.38948" lon="6.52697">
        <ele>1498.3518066406</ele>
        <time>2012-09-15T07:26:05Z</time>
      </trkpt>
      <trkpt lat="44.38979" lon="6.52738">
        <ele>1494.5065917969</ele>
        <time>2012-09-15T07:26:10Z</time>
      </trkpt>
      <trkpt lat="44.39011" lon="6.52777">
        <ele>1491.6228027344</ele>
        <time>2012-09-15T07:26:15Z</time>
      </trkpt>
      <trkpt lat="44.39056" lon="6.52826">
        <ele>1488.7390136719</ele>
        <time>2012-09-15T07:26:21Z</time>
      </trkpt>
      <trkpt lat="44.39069" lon="6.52841">
        <ele>1488.7390136719</ele>
        <time>2012-09-15T07:26:23Z</time>
      </trkpt>
      <trkpt lat="44.39101" lon="6.52867">
        <ele>1486.8161621094</ele>
        <time>2012-09-15T07:26:28Z</time>
      </trkpt>
      <trkpt lat="44.39109" lon="6.52886">
        <ele>1486.8161621094</ele>
        <time>2012-09-15T07:26:32Z</time>
      </trkpt>
      <trkpt lat="44.39106" lon="6.52901">
        <ele>1488.2583007812</ele>
        <time>2012-09-15T07:26:37Z</time>
      </trkpt>
      <trkpt lat="44.39106" lon="6.52903">
        <ele>1488.2583007812</ele>
        <time>2012-09-15T07:26:38Z</time>
      </trkpt>
      <trkpt lat="44.391" lon="6.52925">
        <ele>1490.1809082031</ele>
        <time>2012-09-15T07:26:48Z</time>
      </trkpt>
      <trkpt lat="44.39093" lon="6.52941">
        <ele>1493.5454101562</ele>
        <time>2012-09-15T07:26:56Z</time>
      </trkpt>
      <trkpt lat="44.39084" lon="6.52954">
        <ele>1491.6228027344</ele>
        <time>2012-09-15T07:27:04Z</time>
      </trkpt>
      <trkpt lat="44.39075" lon="6.5297">
        <ele>1493.5454101562</ele>
        <time>2012-09-15T07:27:13Z</time>
      </trkpt>
      <trkpt lat="44.39064" lon="6.52981">
        <ele>1489.2194824219</ele>
        <time>2012-09-15T07:27:20Z</time>
      </trkpt>
      <trkpt lat="44.39061" lon="6.52995">
        <ele>1493.5454101562</ele>
        <time>2012-09-15T07:27:27Z</time>
      </trkpt>
      <trkpt lat="44.39054" lon="6.53008">
        <ele>1495.9487304688</ele>
        <time>2012-09-15T07:27:34Z</time>
      </trkpt>
      <trkpt lat="44.39046" lon="6.53016">
        <ele>1495.4680175781</ele>
        <time>2012-09-15T07:27:41Z</time>
      </trkpt>
      <trkpt lat="44.3904" lon="6.53025">
        <ele>1496.9099121094</ele>
        <time>2012-09-15T07:27:47Z</time>
      </trkpt>
      <trkpt lat="44.39032" lon="6.53039">
        <ele>1499.3132324219</ele>
        <time>2012-09-15T07:27:55Z</time>
      </trkpt>
      <trkpt lat="44.39024" lon="6.53055">
        <ele>1502.6779785156</ele>
        <time>2012-09-15T07:28:04Z</time>
      </trkpt>
      <trkpt lat="44.39017" lon="6.53068">
        <ele>1505.5620117188</ele>
        <time>2012-09-15T07:28:12Z</time>
      </trkpt>
      <trkpt lat="44.39016" lon="6.53079">
        <ele>1515.1750488281</ele>
        <time>2012-09-15T07:28:20Z</time>
      </trkpt>
      <trkpt lat="44.39017" lon="6.53091">
        <ele>1526.7109375</ele>
        <time>2012-09-15T07:28:27Z</time>
      </trkpt>
      <trkpt lat="44.39013" lon="6.53098">
        <ele>1528.6335449219</ele>
        <time>2012-09-15T07:28:33Z</time>
      </trkpt>
      <trkpt lat="44.39003" lon="6.53109">
        <ele>1529.5947265625</ele>
        <time>2012-09-15T07:28:40Z</time>
      </trkpt>
      <trkpt lat="44.38996" lon="6.53118">
        <ele>1529.5947265625</ele>
        <time>2012-09-15T07:28:46Z</time>
      </trkpt>
      <trkpt lat="44.38987" lon="6.53129">
        <ele>1530.5561523438</ele>
        <time>2012-09-15T07:28:54Z</time>
      </trkpt>
      <trkpt lat="44.3898" lon="6.53144">
        <ele>1535.8435058594</ele>
        <time>2012-09-15T07:29:04Z</time>
      </trkpt>
      <trkpt lat="44.38966" lon="6.53154">
        <ele>1530.5561523438</ele>
        <time>2012-09-15T07:29:12Z</time>
      </trkpt>
      <trkpt lat="44.38953" lon="6.53171">
        <ele>1530.0754394531</ele>
        <time>2012-09-15T07:29:22Z</time>
      </trkpt>
      <trkpt lat="44.38947" lon="6.53186">
        <ele>1529.1140136719</ele>
        <time>2012-09-15T07:29:29Z</time>
      </trkpt>
      <trkpt lat="44.38941" lon="6.53205">
        <ele>1525.7495117188</ele>
        <time>2012-09-15T07:29:38Z</time>
      </trkpt>
      <trkpt lat="44.38937" lon="6.53226">
        <ele>1525.2687988281</ele>
        <time>2012-09-15T07:29:48Z</time>
      </trkpt>
      <trkpt lat="44.38929" lon="6.53246">
        <ele>1523.3464355469</ele>
        <time>2012-09-15T07:29:57Z</time>
      </trkpt>
      <trkpt lat="44.38926" lon="6.53257">
        <ele>1529.1140136719</ele>
        <time>2012-09-15T07:30:03Z</time>
      </trkpt>
      <trkpt lat="44.38919" lon="6.53259">
        <ele>1534.4016113281</ele>
        <time>2012-09-15T07:30:09Z</time>
      </trkpt>
      <trkpt lat="44.3891" lon="6.53259">
        <ele>1535.8435058594</ele>
        <time>2012-09-15T07:30:14Z</time>
      </trkpt>
      <trkpt lat="44.389" lon="6.5326">
        <ele>1539.6887207031</ele>
        <time>2012-09-15T07:30:21Z</time>
      </trkpt>
      <trkpt lat="44.38891" lon="6.5326">
        <ele>1541.611328125</ele>
        <time>2012-09-15T07:30:28Z</time>
      </trkpt>
      <trkpt lat="44.38874" lon="6.5326">
        <ele>1538.7275390625</ele>
        <time>2012-09-15T07:30:36Z</time>
      </trkpt>
      <trkpt lat="44.38866" lon="6.53258">
        <ele>1537.7661132812</ele>
        <time>2012-09-15T07:30:41Z</time>
      </trkpt>
      <trkpt lat="44.38865" lon="6.53258">
        <ele>1541.1306152344</ele>
        <time>2012-09-15T07:30:43Z</time>
      </trkpt>
      <trkpt lat="44.38852" lon="6.53263">
        <ele>1545.4565429688</ele>
        <time>2012-09-15T07:30:52Z</time>
      </trkpt>
      <trkpt lat="44.38837" lon="6.53268">
        <ele>1543.5339355469</ele>
        <time>2012-09-15T07:31:01Z</time>
      </trkpt>
      <trkpt lat="44.38821" lon="6.53269">
        <ele>1533.9208984375</ele>
        <time>2012-09-15T07:31:08Z</time>
      </trkpt>
      <trkpt lat="44.38811" lon="6.53275">
        <ele>1533.4401855469</ele>
        <time>2012-09-15T07:31:15Z</time>
      </trkpt>
      <trkpt lat="44.38804" lon="6.53285">
        <ele>1541.611328125</ele>
        <time>2012-09-15T07:31:23Z</time>
      </trkpt>
      <trkpt lat="44.38796" lon="6.53293">
        <ele>1546.41796875</ele>
        <time>2012-09-15T07:31:30Z</time>
      </trkpt>
      <trkpt lat="44.38783" lon="6.53303">
        <ele>1545.4565429688</ele>
        <time>2012-09-15T07:31:38Z</time>
      </trkpt>
      <trkpt lat="44.38773" lon="6.53314">
        <ele>1549.7827148438</ele>
        <time>2012-09-15T07:31:46Z</time>
      </trkpt>
      <trkpt lat="44.38765" lon="6.53324">
        <ele>1551.7053222656</ele>
        <time>2012-09-15T07:31:52Z</time>
      </trkpt>
      <trkpt lat="44.38757" lon="6.5334">
        <ele>1556.9924316406</ele>
        <time>2012-09-15T07:32:00Z</time>
      </trkpt>
      <trkpt lat="44.38745" lon="6.53357">
        <ele>1556.9924316406</ele>
        <time>2012-09-15T07:32:08Z</time>
      </trkpt>
      <trkpt lat="44.38738" lon="6.53374">
        <ele>1558.4343261719</ele>
        <time>2012-09-15T07:32:15Z</time>
      </trkpt>
      <trkpt lat="44.3873" lon="6.53388">
        <ele>1560.8376464844</ele>
        <time>2012-09-15T07:32:21Z</time>
      </trkpt>
      <trkpt lat="44.38725" lon="6.53405">
        <ele>1560.8376464844</ele>
        <time>2012-09-15T07:32:27Z</time>
      </trkpt>
      <trkpt lat="44.38719" lon="6.53429">
        <ele>1562.2795410156</ele>
        <time>2012-09-15T07:32:35Z</time>
      </trkpt>
      <trkpt lat="44.38711" lon="6.53452">
        <ele>1558.9150390625</ele>
        <time>2012-09-15T07:32:42Z</time>
      </trkpt>
      <trkpt lat="44.38712" lon="6.53463">
        <ele>1555.0698242188</ele>
        <time>2012-09-15T07:32:46Z</time>
      </trkpt>
      <trkpt lat="44.3871" lon="6.53468">
        <ele>1549.7827148438</ele>
        <time>2012-09-15T07:32:51Z</time>
      </trkpt>
      <trkpt lat="44.38721" lon="6.53481">
        <ele>1554.1086425781</ele>
        <time>2012-09-15T07:32:56Z</time>
      </trkpt>
      <trkpt lat="44.38729" lon="6.53499">
        <ele>1553.6279296875</ele>
        <time>2012-09-15T07:33:04Z</time>
      </trkpt>
      <trkpt lat="44.38737" lon="6.53518">
        <ele>1557.4731445312</ele>
        <time>2012-09-15T07:33:11Z</time>
      </trkpt>
      <trkpt lat="44.38747" lon="6.53533">
        <ele>1558.9150390625</ele>
        <time>2012-09-15T07:33:18Z</time>
      </trkpt>
      <trkpt lat="44.38755" lon="6.53543">
        <ele>1560.8376464844</ele>
        <time>2012-09-15T07:33:24Z</time>
      </trkpt>
      <trkpt lat="44.38763" lon="6.53555">
        <ele>1559.8762207031</ele>
        <time>2012-09-15T07:33:31Z</time>
      </trkpt>
      <trkpt lat="44.38767" lon="6.53569">
        <ele>1561.318359375</ele>
        <time>2012-09-15T07:33:36Z</time>
      </trkpt>
      <trkpt lat="44.38766" lon="6.53579">
        <ele>1560.3569335938</ele>
        <time>2012-09-15T07:33:40Z</time>
      </trkpt>
      <trkpt lat="44.38765" lon="6.53598">
        <ele>1560.8376464844</ele>
        <time>2012-09-15T07:33:48Z</time>
      </trkpt>
      <trkpt lat="44.38758" lon="6.5362">
        <ele>1561.7990722656</ele>
        <time>2012-09-15T07:33:57Z</time>
      </trkpt>
      <trkpt lat="44.38753" lon="6.5364">
        <ele>1563.7214355469</ele>
        <time>2012-09-15T07:34:06Z</time>
      </trkpt>
      <trkpt lat="44.38744" lon="6.53659">
        <ele>1565.1638183594</ele>
        <time>2012-09-15T07:34:15Z</time>
      </trkpt>
      <trkpt lat="44.38738" lon="6.5368">
        <ele>1569.0090332031</ele>
        <time>2012-09-15T07:34:24Z</time>
      </trkpt>
      <trkpt lat="44.3873" lon="6.537">
        <ele>1570.4509277344</ele>
        <time>2012-09-15T07:34:34Z</time>
      </trkpt>
      <trkpt lat="44.38723" lon="6.53718">
        <ele>1573.3349609375</ele>
        <time>2012-09-15T07:34:43Z</time>
      </trkpt>
      <trkpt lat="44.3872" lon="6.53735">
        <ele>1574.2961425781</ele>
        <time>2012-09-15T07:34:51Z</time>
      </trkpt>
      <trkpt lat="44.38719" lon="6.53751">
        <ele>1574.7768554688</ele>
        <time>2012-09-15T07:34:58Z</time>
      </trkpt>
      <trkpt lat="44.38714" lon="6.53768">
        <ele>1575.7380371094</ele>
        <time>2012-09-15T07:35:05Z</time>
      </trkpt>
      <trkpt lat="44.38708" lon="6.53784">
        <ele>1577.1801757812</ele>
        <time>2012-09-15T07:35:12Z</time>
      </trkpt>
      <trkpt lat="44.38704" lon="6.53793">
        <ele>1580.544921875</ele>
        <time>2012-09-15T07:35:18Z</time>
      </trkpt>
      <trkpt lat="44.38699" lon="6.53803">
        <ele>1582.4675292969</ele>
        <time>2012-09-15T07:35:24Z</time>
      </trkpt>
      <trkpt lat="44.38696" lon="6.53808">
        <ele>1582.4675292969</ele>
        <time>2012-09-15T07:35:27Z</time>
      </trkpt>
      <trkpt lat="44.38692" lon="6.53816">
        <ele>1583.4287109375</ele>
        <time>2012-09-15T07:35:31Z</time>
      </trkpt>
      <trkpt lat="44.3869" lon="6.53827">
        <ele>1583.9094238281</ele>
        <time>2012-09-15T07:35:36Z</time>
      </trkpt>
      <trkpt lat="44.38681" lon="6.53838">
        <ele>1583.9094238281</ele>
        <time>2012-09-15T07:35:43Z</time>
      </trkpt>
      <trkpt lat="44.38675" lon="6.53847">
        <ele>1586.3127441406</ele>
        <time>2012-09-15T07:35:50Z</time>
      </trkpt>
      <trkpt lat="44.38669" lon="6.53855">
        <ele>1588.7160644531</ele>
        <time>2012-09-15T07:35:56Z</time>
      </trkpt>
      <trkpt lat="44.38659" lon="6.53867">
        <ele>1589.1965332031</ele>
        <time>2012-09-15T07:36:03Z</time>
      </trkpt>
      <trkpt lat="44.38651" lon="6.5388">
        <ele>1589.1965332031</ele>
        <time>2012-09-15T07:36:10Z</time>
      </trkpt>
      <trkpt lat="44.38641" lon="6.5389">
        <ele>1588.7160644531</ele>
        <time>2012-09-15T07:36:17Z</time>
      </trkpt>
      <trkpt lat="44.38633" lon="6.53893">
        <ele>1589.1965332031</ele>
        <time>2012-09-15T07:36:23Z</time>
      </trkpt>
      <trkpt lat="44.38621" lon="6.53894">
        <ele>1589.6772460938</ele>
        <time>2012-09-15T07:36:30Z</time>
      </trkpt>
      <trkpt lat="44.38614" lon="6.53885">
        <ele>1589.6772460938</ele>
        <time>2012-09-15T07:36:36Z</time>
      </trkpt>
      <trkpt lat="44.38612" lon="6.53881">
        <ele>1589.6772460938</ele>
        <time>2012-09-15T07:36:38Z</time>
      </trkpt>
      <trkpt lat="44.3861" lon="6.53871">
        <ele>1589.6772460938</ele>
        <time>2012-09-15T07:36:42Z</time>
      </trkpt>
      <trkpt lat="44.38614" lon="6.53853">
        <ele>1592.5612792969</ele>
        <time>2012-09-15T07:36:51Z</time>
      </trkpt>
      <trkpt lat="44.38617" lon="6.53836">
        <ele>1591.119140625</ele>
        <time>2012-09-15T07:36:58Z</time>
      </trkpt>
      <trkpt lat="44.38619" lon="6.53831">
        <ele>1590.1579589844</ele>
        <time>2012-09-15T07:37:00Z</time>
      </trkpt>
      <trkpt lat="44.38622" lon="6.53822">
        <ele>1590.1579589844</ele>
        <time>2012-09-15T07:37:04Z</time>
      </trkpt>
      <trkpt lat="44.38633" lon="6.53805">
        <ele>1593.0417480469</ele>
        <time>2012-09-15T07:37:13Z</time>
      </trkpt>
      <trkpt lat="44.38638" lon="6.53793">
        <ele>1594.4836425781</ele>
        <time>2012-09-15T07:37:19Z</time>
      </trkpt>
      <trkpt lat="44.38638" lon="6.53789">
        <ele>1594.9643554688</ele>
        <time>2012-09-15T07:37:21Z</time>
      </trkpt>
      <trkpt lat="44.38635" lon="6.53781">
        <ele>1593.0417480469</ele>
        <time>2012-09-15T07:37:25Z</time>
      </trkpt>
      <trkpt lat="44.38633" lon="6.53779">
        <ele>1594.4836425781</ele>
        <time>2012-09-15T07:37:28Z</time>
      </trkpt>
      <trkpt lat="44.38626" lon="6.53783">
        <ele>1595.4450683594</ele>
        <time>2012-09-15T07:37:35Z</time>
      </trkpt>
      <trkpt lat="44.38623" lon="6.53786">
        <ele>1596.4067382812</ele>
        <time>2012-09-15T07:37:39Z</time>
      </trkpt>
      <trkpt lat="44.38615" lon="6.53797">
        <ele>1598.8098144531</ele>
        <time>2012-09-15T07:37:47Z</time>
      </trkpt>
      <trkpt lat="44.3861" lon="6.53805">
        <ele>1600.251953125</ele>
        <time>2012-09-15T07:37:52Z</time>
      </trkpt>
      <trkpt lat="44.38605" lon="6.53813">
        <ele>1601.2131347656</ele>
        <time>2012-09-15T07:37:57Z</time>
      </trkpt>
      <trkpt lat="44.38597" lon="6.53826">
        <ele>1603.6164550781</ele>
        <time>2012-09-15T07:38:05Z</time>
      </trkpt>
      <trkpt lat="44.3859" lon="6.5384">
        <ele>1606.01953125</ele>
        <time>2012-09-15T07:38:13Z</time>
      </trkpt>
      <trkpt lat="44.38585" lon="6.53852">
        <ele>1607.4616699219</ele>
        <time>2012-09-15T07:38:19Z</time>
      </trkpt>
      <trkpt lat="44.3858" lon="6.5387">
        <ele>1608.4228515625</ele>
        <time>2012-09-15T07:38:28Z</time>
      </trkpt>
      <trkpt lat="44.38575" lon="6.53881">
        <ele>1608.9035644531</ele>
        <time>2012-09-15T07:38:34Z</time>
      </trkpt>
      <trkpt lat="44.38566" lon="6.53892">
        <ele>1608.4228515625</ele>
        <time>2012-09-15T07:38:41Z</time>
      </trkpt>
      <trkpt lat="44.3856" lon="6.539">
        <ele>1608.9035644531</ele>
        <time>2012-09-15T07:38:47Z</time>
      </trkpt>
      <trkpt lat="44.38551" lon="6.53912">
        <ele>1611.3068847656</ele>
        <time>2012-09-15T07:38:55Z</time>
      </trkpt>
      <trkpt lat="44.38545" lon="6.53923">
        <ele>1614.6716308594</ele>
        <time>2012-09-15T07:39:02Z</time>
      </trkpt>
      <trkpt lat="44.38536" lon="6.53934">
        <ele>1616.5942382812</ele>
        <time>2012-09-15T07:39:09Z</time>
      </trkpt>
      <trkpt lat="44.38526" lon="6.53946">
        <ele>1618.5168457031</ele>
        <time>2012-09-15T07:39:17Z</time>
      </trkpt>
      <trkpt lat="44.38517" lon="6.53956">
        <ele>1620.439453125</ele>
        <time>2012-09-15T07:39:24Z</time>
      </trkpt>
      <trkpt lat="44.38509" lon="6.53965">
        <ele>1619.9587402344</ele>
        <time>2012-09-15T07:39:30Z</time>
      </trkpt>
      <trkpt lat="44.38499" lon="6.53974">
        <ele>1618.9975585938</ele>
        <time>2012-09-15T07:39:37Z</time>
      </trkpt>
      <trkpt lat="44.38493" lon="6.53974">
        <ele>1618.9975585938</ele>
        <time>2012-09-15T07:39:40Z</time>
      </trkpt>
      <trkpt lat="44.38492" lon="6.53962">
        <ele>1620.439453125</ele>
        <time>2012-09-15T07:39:46Z</time>
      </trkpt>
      <trkpt lat="44.38498" lon="6.53954">
        <ele>1621.8813476562</ele>
        <time>2012-09-15T07:39:52Z</time>
      </trkpt>
      <trkpt lat="44.38504" lon="6.53944">
        <ele>1622.8427734375</ele>
        <time>2012-09-15T07:39:58Z</time>
      </trkpt>
      <trkpt lat="44.38511" lon="6.53936">
        <ele>1624.2846679688</ele>
        <time>2012-09-15T07:40:04Z</time>
      </trkpt>
      <trkpt lat="44.3852" lon="6.53918">
        <ele>1624.7653808594</ele>
        <time>2012-09-15T07:40:13Z</time>
      </trkpt>
      <trkpt lat="44.38524" lon="6.53899">
        <ele>1626.2072753906</ele>
        <time>2012-09-15T07:40:22Z</time>
      </trkpt>
      <trkpt lat="44.38519" lon="6.53879">
        <ele>1623.3234863281</ele>
        <time>2012-09-15T07:40:31Z</time>
      </trkpt>
      <trkpt lat="44.38513" lon="6.5386">
        <ele>1621.8813476562</ele>
        <time>2012-09-15T07:40:39Z</time>
      </trkpt>
      <trkpt lat="44.38515" lon="6.53847">
        <ele>1623.8039550781</ele>
        <time>2012-09-15T07:40:46Z</time>
      </trkpt>
      <trkpt lat="44.38515" lon="6.53832">
        <ele>1625.2458496094</ele>
        <time>2012-09-15T07:40:53Z</time>
      </trkpt>
      <trkpt lat="44.38515" lon="6.53819">
        <ele>1625.7265625</ele>
        <time>2012-09-15T07:40:59Z</time>
      </trkpt>
      <trkpt lat="44.3851" lon="6.53805">
        <ele>1626.2072753906</ele>
        <time>2012-09-15T07:41:06Z</time>
      </trkpt>
      <trkpt lat="44.38504" lon="6.53803">
        <ele>1631.0141601562</ele>
        <time>2012-09-15T07:41:13Z</time>
      </trkpt>
      <trkpt lat="44.38503" lon="6.53803">
        <ele>1631.0141601562</ele>
        <time>2012-09-15T07:41:14Z</time>
      </trkpt>
      <trkpt lat="44.38496" lon="6.53819">
        <ele>1635.33984375</ele>
        <time>2012-09-15T07:41:24Z</time>
      </trkpt>
      <trkpt lat="44.38493" lon="6.53832">
        <ele>1637.7431640625</ele>
        <time>2012-09-15T07:41:31Z</time>
      </trkpt>
      <trkpt lat="44.38489" lon="6.53845">
        <ele>1639.6657714844</ele>
        <time>2012-09-15T07:41:38Z</time>
      </trkpt>
      <trkpt lat="44.38487" lon="6.53851">
        <ele>1640.626953125</ele>
        <time>2012-09-15T07:41:41Z</time>
      </trkpt>
      <trkpt lat="44.38486" lon="6.53868">
        <ele>1644.953125</ele>
        <time>2012-09-15T07:41:49Z</time>
      </trkpt>
      <trkpt lat="44.38487" lon="6.53886">
        <ele>1647.8371582031</ele>
        <time>2012-09-15T07:41:57Z</time>
      </trkpt>
      <trkpt lat="44.38483" lon="6.53903">
        <ele>1649.759765625</ele>
        <time>2012-09-15T07:42:05Z</time>
      </trkpt>
      <trkpt lat="44.38476" lon="6.53914">
        <ele>1649.2790527344</ele>
        <time>2012-09-15T07:42:12Z</time>
      </trkpt>
      <trkpt lat="44.38468" lon="6.53927">
        <ele>1651.2016601562</ele>
        <time>2012-09-15T07:42:20Z</time>
      </trkpt>
      <trkpt lat="44.3846" lon="6.53939">
        <ele>1654.5661621094</ele>
        <time>2012-09-15T07:42:28Z</time>
      </trkpt>
      <trkpt lat="44.38452" lon="6.53948">
        <ele>1655.5275878906</ele>
        <time>2012-09-15T07:42:35Z</time>
      </trkpt>
      <trkpt lat="44.38442" lon="6.53956">
        <ele>1656.0080566406</ele>
        <time>2012-09-15T07:42:43Z</time>
      </trkpt>
      <trkpt lat="44.38435" lon="6.53963">
        <ele>1656.9694824219</ele>
        <time>2012-09-15T07:42:49Z</time>
      </trkpt>
      <trkpt lat="44.38427" lon="6.53968">
        <ele>1656.9694824219</ele>
        <time>2012-09-15T07:42:55Z</time>
      </trkpt>
      <trkpt lat="44.38414" lon="6.53975">
        <ele>1658.8920898438</ele>
        <time>2012-09-15T07:43:04Z</time>
      </trkpt>
      <trkpt lat="44.38403" lon="6.53981">
        <ele>1660.3342285156</ele>
        <time>2012-09-15T07:43:11Z</time>
      </trkpt>
      <trkpt lat="44.38395" lon="6.53986">
        <ele>1661.7763671875</ele>
        <time>2012-09-15T07:43:17Z</time>
      </trkpt>
      <trkpt lat="44.38385" lon="6.5399">
        <ele>1662.7375488281</ele>
        <time>2012-09-15T07:43:24Z</time>
      </trkpt>
      <trkpt lat="44.38376" lon="6.53996">
        <ele>1665.1408691406</ele>
        <time>2012-09-15T07:43:31Z</time>
      </trkpt>
      <trkpt lat="44.38366" lon="6.54">
        <ele>1666.1020507812</ele>
        <time>2012-09-15T07:43:38Z</time>
      </trkpt>
      <trkpt lat="44.38357" lon="6.54008">
        <ele>1668.9860839844</ele>
        <time>2012-09-15T07:43:45Z</time>
      </trkpt>
      <trkpt lat="44.38346" lon="6.54014">
        <ele>1668.5053710938</ele>
        <time>2012-09-15T07:43:53Z</time>
      </trkpt>
      <trkpt lat="44.38335" lon="6.54013">
        <ele>1668.9860839844</ele>
        <time>2012-09-15T07:44:00Z</time>
      </trkpt>
      <trkpt lat="44.38335" lon="6.53998">
        <ele>1671.3891601562</ele>
        <time>2012-09-15T07:44:08Z</time>
      </trkpt>
      <trkpt lat="44.38342" lon="6.53985">
        <ele>1672.3505859375</ele>
        <time>2012-09-15T07:44:15Z</time>
      </trkpt>
      <trkpt lat="44.38348" lon="6.53971">
        <ele>1671.8698730469</ele>
        <time>2012-09-15T07:44:23Z</time>
      </trkpt>
      <trkpt lat="44.38356" lon="6.53952">
        <ele>1673.3120117188</ele>
        <time>2012-09-15T07:44:33Z</time>
      </trkpt>
      <trkpt lat="44.38361" lon="6.5394">
        <ele>1673.7924804688</ele>
        <time>2012-09-15T07:44:39Z</time>
      </trkpt>
      <trkpt lat="44.38367" lon="6.53925">
        <ele>1675.234375</ele>
        <time>2012-09-15T07:44:47Z</time>
      </trkpt>
      <trkpt lat="44.38374" lon="6.53909">
        <ele>1675.7150878906</ele>
        <time>2012-09-15T07:44:55Z</time>
      </trkpt>
      <trkpt lat="44.38375" lon="6.53905">
        <ele>1675.7150878906</ele>
        <time>2012-09-15T07:44:57Z</time>
      </trkpt>
      <trkpt lat="44.38376" lon="6.53894">
        <ele>1674.75390625</ele>
        <time>2012-09-15T07:45:02Z</time>
      </trkpt>
      <trkpt lat="44.38376" lon="6.53871">
        <ele>1674.2731933594</ele>
        <time>2012-09-15T07:45:10Z</time>
      </trkpt>
      <trkpt lat="44.38379" lon="6.53854">
        <ele>1678.5993652344</ele>
        <time>2012-09-15T07:45:17Z</time>
      </trkpt>
      <trkpt lat="44.38385" lon="6.53838">
        <ele>1679.0798339844</ele>
        <time>2012-09-15T07:45:23Z</time>
      </trkpt>
      <trkpt lat="44.38392" lon="6.53822">
        <ele>1679.0798339844</ele>
        <time>2012-09-15T07:45:30Z</time>
      </trkpt>
      <trkpt lat="44.384" lon="6.53809">
        <ele>1681.4831542969</ele>
        <time>2012-09-15T07:45:37Z</time>
      </trkpt>
      <trkpt lat="44.38405" lon="6.53792">
        <ele>1681.4831542969</ele>
        <time>2012-09-15T07:45:45Z</time>
      </trkpt>
      <trkpt lat="44.38406" lon="6.53768">
        <ele>1678.1186523438</ele>
        <time>2012-09-15T07:45:54Z</time>
      </trkpt>
      <trkpt lat="44.38404" lon="6.53752">
        <ele>1678.1186523438</ele>
        <time>2012-09-15T07:46:01Z</time>
      </trkpt>
      <trkpt lat="44.38402" lon="6.53738">
        <ele>1678.5993652344</ele>
        <time>2012-09-15T07:46:08Z</time>
      </trkpt>
      <trkpt lat="44.38407" lon="6.53722">
        <ele>1679.560546875</ele>
        <time>2012-09-15T07:46:15Z</time>
      </trkpt>
      <trkpt lat="44.38417" lon="6.53706">
        <ele>1684.3671875</ele>
        <time>2012-09-15T07:46:23Z</time>
      </trkpt>
      <trkpt lat="44.38424" lon="6.53689">
        <ele>1686.7702636719</ele>
        <time>2012-09-15T07:46:31Z</time>
      </trkpt>
      <trkpt lat="44.38424" lon="6.53682">
        <ele>1686.7702636719</ele>
        <time>2012-09-15T07:46:34Z</time>
      </trkpt>
      <trkpt lat="44.38424" lon="6.53667">
        <ele>1686.2897949219</ele>
        <time>2012-09-15T07:46:40Z</time>
      </trkpt>
      <trkpt lat="44.38424" lon="6.53646">
        <ele>1686.2897949219</ele>
        <time>2012-09-15T07:46:49Z</time>
      </trkpt>
      <trkpt lat="44.38427" lon="6.53638">
        <ele>1687.2509765625</ele>
        <time>2012-09-15T07:46:53Z</time>
      </trkpt>
      <trkpt lat="44.38428" lon="6.53619">
        <ele>1688.2124023438</ele>
        <time>2012-09-15T07:47:02Z</time>
      </trkpt>
      <trkpt lat="44.38424" lon="6.53609">
        <ele>1689.1735839844</ele>
        <time>2012-09-15T07:47:07Z</time>
      </trkpt>
      <trkpt lat="44.38418" lon="6.53607">
        <ele>1690.1350097656</ele>
        <time>2012-09-15T07:47:12Z</time>
      </trkpt>
      <trkpt lat="44.38412" lon="6.53619">
        <ele>1693.0190429688</ele>
        <time>2012-09-15T07:47:19Z</time>
      </trkpt>
      <trkpt lat="44.38406" lon="6.53636">
        <ele>1696.8642578125</ele>
        <time>2012-09-15T07:47:27Z</time>
      </trkpt>
      <trkpt lat="44.38399" lon="6.5365">
        <ele>1699.267578125</ele>
        <time>2012-09-15T07:47:34Z</time>
      </trkpt>
      <trkpt lat="44.38393" lon="6.53663">
        <ele>1702.6320800781</ele>
        <time>2012-09-15T07:47:41Z</time>
      </trkpt>
      <trkpt lat="44.38386" lon="6.53677">
        <ele>1705.0354003906</ele>
        <time>2012-09-15T07:47:49Z</time>
      </trkpt>
      <trkpt lat="44.38379" lon="6.53691">
        <ele>1708.880859375</ele>
        <time>2012-09-15T07:47:56Z</time>
      </trkpt>
      <trkpt lat="44.38372" lon="6.53708">
        <ele>1712.2453613281</ele>
        <time>2012-09-15T07:48:05Z</time>
      </trkpt>
      <trkpt lat="44.38371" lon="6.53728">
        <ele>1712.7260742188</ele>
        <time>2012-09-15T07:48:14Z</time>
      </trkpt>
      <trkpt lat="44.38366" lon="6.53748">
        <ele>1712.2453613281</ele>
        <time>2012-09-15T07:48:22Z</time>
      </trkpt>
      <trkpt lat="44.3836" lon="6.53761">
        <ele>1712.7260742188</ele>
        <time>2012-09-15T07:48:28Z</time>
      </trkpt>
      <trkpt lat="44.38353" lon="6.53773">
        <ele>1712.7260742188</ele>
        <time>2012-09-15T07:48:34Z</time>
      </trkpt>
      <trkpt lat="44.38345" lon="6.53791">
        <ele>1712.2453613281</ele>
        <time>2012-09-15T07:48:42Z</time>
      </trkpt>
      <trkpt lat="44.38339" lon="6.53804">
        <ele>1712.2453613281</ele>
        <time>2012-09-15T07:48:48Z</time>
      </trkpt>
      <trkpt lat="44.38335" lon="6.53817">
        <ele>1714.6486816406</ele>
        <time>2012-09-15T07:48:55Z</time>
      </trkpt>
      <trkpt lat="44.38326" lon="6.53826">
        <ele>1715.6101074219</ele>
        <time>2012-09-15T07:49:01Z</time>
      </trkpt>
      <trkpt lat="44.38317" lon="6.53838">
        <ele>1720.4165039062</ele>
        <time>2012-09-15T07:49:09Z</time>
      </trkpt>
      <trkpt lat="44.3831" lon="6.53847">
        <ele>1721.3776855469</ele>
        <time>2012-09-15T07:49:15Z</time>
      </trkpt>
      <trkpt lat="44.38301" lon="6.53855">
        <ele>1721.8583984375</ele>
        <time>2012-09-15T07:49:22Z</time>
      </trkpt>
      <trkpt lat="44.38292" lon="6.53863">
        <ele>1724.2619628906</ele>
        <time>2012-09-15T07:49:28Z</time>
      </trkpt>
      <trkpt lat="44.38284" lon="6.53871">
        <ele>1727.1459960938</ele>
        <time>2012-09-15T07:49:35Z</time>
      </trkpt>
      <trkpt lat="44.38279" lon="6.53878">
        <ele>1729.068359375</ele>
        <time>2012-09-15T07:49:42Z</time>
      </trkpt>
      <trkpt lat="44.38264" lon="6.53885">
        <ele>1730.9912109375</ele>
        <time>2012-09-15T07:49:50Z</time>
      </trkpt>
      <trkpt lat="44.38254" lon="6.53892">
        <ele>1731.9523925781</ele>
        <time>2012-09-15T07:49:58Z</time>
      </trkpt>
      <trkpt lat="44.3825" lon="6.53896">
        <ele>1733.875</ele>
        <time>2012-09-15T07:50:03Z</time>
      </trkpt>
      <trkpt lat="44.3824" lon="6.53905">
        <ele>1737.2395019531</ele>
        <time>2012-09-15T07:50:11Z</time>
      </trkpt>
      <trkpt lat="44.38231" lon="6.53913">
        <ele>1736.2783203125</ele>
        <time>2012-09-15T07:50:20Z</time>
      </trkpt>
      <trkpt lat="44.38226" lon="6.53916">
        <ele>1736.2783203125</ele>
        <time>2012-09-15T07:50:24Z</time>
      </trkpt>
      <trkpt lat="44.38213" lon="6.53924">
        <ele>1735.7976074219</ele>
        <time>2012-09-15T07:50:32Z</time>
      </trkpt>
      <trkpt lat="44.38205" lon="6.53929">
        <ele>1737.2395019531</ele>
        <time>2012-09-15T07:50:38Z</time>
      </trkpt>
      <trkpt lat="44.38199" lon="6.53935">
        <ele>1739.6428222656</ele>
        <time>2012-09-15T07:50:44Z</time>
      </trkpt>
      <trkpt lat="44.38197" lon="6.53938">
        <ele>1741.0849609375</ele>
        <time>2012-09-15T07:50:46Z</time>
      </trkpt>
      <trkpt lat="44.38187" lon="6.53946">
        <ele>1742.5270996094</ele>
        <time>2012-09-15T07:50:53Z</time>
      </trkpt>
      <trkpt lat="44.38179" lon="6.53954">
        <ele>1742.5270996094</ele>
        <time>2012-09-15T07:50:59Z</time>
      </trkpt>
      <trkpt lat="44.38174" lon="6.53962">
        <ele>1743.0075683594</ele>
        <time>2012-09-15T07:51:04Z</time>
      </trkpt>
      <trkpt lat="44.38164" lon="6.53975">
        <ele>1743.9689941406</ele>
        <time>2012-09-15T07:51:13Z</time>
      </trkpt>
      <trkpt lat="44.38154" lon="6.53983">
        <ele>1742.5270996094</ele>
        <time>2012-09-15T07:51:21Z</time>
      </trkpt>
      <trkpt lat="44.38144" lon="6.53992">
        <ele>1743.0075683594</ele>
        <time>2012-09-15T07:51:29Z</time>
      </trkpt>
      <trkpt lat="44.3814" lon="6.54001">
        <ele>1749.7368164062</ele>
        <time>2012-09-15T07:51:36Z</time>
      </trkpt>
      <trkpt lat="44.3813" lon="6.54005">
        <ele>1748.2946777344</ele>
        <time>2012-09-15T07:51:44Z</time>
      </trkpt>
      <trkpt lat="44.38123" lon="6.54011">
        <ele>1750.6979980469</ele>
        <time>2012-09-15T07:51:49Z</time>
      </trkpt>
      <trkpt lat="44.38111" lon="6.54026">
        <ele>1750.6979980469</ele>
        <time>2012-09-15T07:51:58Z</time>
      </trkpt>
      <trkpt lat="44.38102" lon="6.54039">
        <ele>1752.6206054688</ele>
        <time>2012-09-15T07:52:06Z</time>
      </trkpt>
      <trkpt lat="44.38093" lon="6.54048">
        <ele>1753.58203125</ele>
        <time>2012-09-15T07:52:13Z</time>
      </trkpt>
      <trkpt lat="44.38088" lon="6.54058">
        <ele>1755.9851074219</ele>
        <time>2012-09-15T07:52:19Z</time>
      </trkpt>
      <trkpt lat="44.38087" lon="6.54062">
        <ele>1756.4660644531</ele>
        <time>2012-09-15T07:52:21Z</time>
      </trkpt>
      <trkpt lat="44.38085" lon="6.54068">
        <ele>1758.388671875</ele>
        <time>2012-09-15T07:52:25Z</time>
      </trkpt>
      <trkpt lat="44.38089" lon="6.54075">
        <ele>1759.8305664062</ele>
        <time>2012-09-15T07:52:29Z</time>
      </trkpt>
      <trkpt lat="44.38095" lon="6.54085">
        <ele>1757.908203125</ele>
        <time>2012-09-15T07:52:35Z</time>
      </trkpt>
      <trkpt lat="44.38102" lon="6.54091">
        <ele>1761.7534179688</ele>
        <time>2012-09-15T07:52:42Z</time>
      </trkpt>
      <trkpt lat="44.38104" lon="6.54098">
        <ele>1762.7145996094</ele>
        <time>2012-09-15T07:52:48Z</time>
      </trkpt>
      <trkpt lat="44.38107" lon="6.54106">
        <ele>1760.7919921875</ele>
        <time>2012-09-15T07:52:53Z</time>
      </trkpt>
      <trkpt lat="44.3811" lon="6.54115">
        <ele>1763.67578125</ele>
        <time>2012-09-15T07:52:59Z</time>
      </trkpt>
      <trkpt lat="44.38112" lon="6.54123">
        <ele>1764.6372070312</ele>
        <time>2012-09-15T07:53:04Z</time>
      </trkpt>
      <trkpt lat="44.38116" lon="6.54129">
        <ele>1768.9631347656</ele>
        <time>2012-09-15T07:53:09Z</time>
      </trkpt>
      <trkpt lat="44.38123" lon="6.54138">
        <ele>1771.3662109375</ele>
        <time>2012-09-15T07:53:15Z</time>
      </trkpt>
      <trkpt lat="44.38131" lon="6.54148">
        <ele>1768.0017089844</ele>
        <time>2012-09-15T07:53:21Z</time>
      </trkpt>
      <trkpt lat="44.38136" lon="6.54162">
        <ele>1766.0791015625</ele>
        <time>2012-09-15T07:53:28Z</time>
      </trkpt>
      <trkpt lat="44.38137" lon="6.54167">
        <ele>1765.5986328125</ele>
        <time>2012-09-15T07:53:30Z</time>
      </trkpt>
      <trkpt lat="44.38139" lon="6.54177">
        <ele>1767.0405273438</ele>
        <time>2012-09-15T07:53:35Z</time>
      </trkpt>
      <trkpt lat="44.38139" lon="6.54197">
        <ele>1768.482421875</ele>
        <time>2012-09-15T07:53:44Z</time>
      </trkpt>
      <trkpt lat="44.38136" lon="6.54214">
        <ele>1769.9243164062</ele>
        <time>2012-09-15T07:53:53Z</time>
      </trkpt>
      <trkpt lat="44.38136" lon="6.54226">
        <ele>1774.7312011719</ele>
        <time>2012-09-15T07:54:00Z</time>
      </trkpt>
      <trkpt lat="44.38137" lon="6.54229">
        <ele>1774.7312011719</ele>
        <time>2012-09-15T07:54:02Z</time>
      </trkpt>
      <trkpt lat="44.38138" lon="6.54242">
        <ele>1776.1730957031</ele>
        <time>2012-09-15T07:54:10Z</time>
      </trkpt>
      <trkpt lat="44.38137" lon="6.54246">
        <ele>1780.9797363281</ele>
        <time>2012-09-15T07:54:15Z</time>
      </trkpt>
      <trkpt lat="44.3814" lon="6.54253">
        <ele>1785.3054199219</ele>
        <time>2012-09-15T07:54:21Z</time>
      </trkpt>
      <trkpt lat="44.38142" lon="6.54254">
        <ele>1785.7861328125</ele>
        <time>2012-09-15T07:54:22Z</time>
      </trkpt>
      <trkpt lat="44.3815" lon="6.54263">
        <ele>1786.7473144531</ele>
        <time>2012-09-15T07:54:31Z</time>
      </trkpt>
      <trkpt lat="44.38157" lon="6.54271">
        <ele>1787.2280273438</ele>
        <time>2012-09-15T07:54:38Z</time>
      </trkpt>
      <trkpt lat="44.38168" lon="6.54278">
        <ele>1785.3054199219</ele>
        <time>2012-09-15T07:54:44Z</time>
      </trkpt>
      <trkpt lat="44.38177" lon="6.5429">
        <ele>1779.5375976562</ele>
        <time>2012-09-15T07:54:50Z</time>
      </trkpt>
      <trkpt lat="44.3818" lon="6.54306">
        <ele>1777.6149902344</ele>
        <time>2012-09-15T07:54:56Z</time>
      </trkpt>
      <trkpt lat="44.38172" lon="6.54322">
        <ele>1780.4990234375</ele>
        <time>2012-09-15T07:55:04Z</time>
      </trkpt>
      <trkpt lat="44.38165" lon="6.54333">
        <ele>1781.4602050781</ele>
        <time>2012-09-15T07:55:10Z</time>
      </trkpt>
      <trkpt lat="44.38154" lon="6.54347">
        <ele>1781.9409179688</ele>
        <time>2012-09-15T07:55:19Z</time>
      </trkpt>
      <trkpt lat="44.3815" lon="6.54358">
        <ele>1784.3442382812</ele>
        <time>2012-09-15T07:55:27Z</time>
      </trkpt>
      <trkpt lat="44.38142" lon="6.54367">
        <ele>1786.7473144531</ele>
        <time>2012-09-15T07:55:33Z</time>
      </trkpt>
      <trkpt lat="44.38138" lon="6.54375">
        <ele>1789.1508789062</ele>
        <time>2012-09-15T07:55:38Z</time>
      </trkpt>
      <trkpt lat="44.38129" lon="6.54386">
        <ele>1792.0349121094</ele>
        <time>2012-09-15T07:55:46Z</time>
      </trkpt>
      <trkpt lat="44.38123" lon="6.54397">
        <ele>1792.99609375</ele>
        <time>2012-09-15T07:55:54Z</time>
      </trkpt>
      <trkpt lat="44.38113" lon="6.5441">
        <ele>1797.802734375</ele>
        <time>2012-09-15T07:56:02Z</time>
      </trkpt>
      <trkpt lat="44.38111" lon="6.54423">
        <ele>1797.802734375</ele>
        <time>2012-09-15T07:56:10Z</time>
      </trkpt>
      <trkpt lat="44.38108" lon="6.54436">
        <ele>1801.6479492188</ele>
        <time>2012-09-15T07:56:17Z</time>
      </trkpt>
      <trkpt lat="44.38105" lon="6.54442">
        <ele>1807.416015625</ele>
        <time>2012-09-15T07:56:22Z</time>
      </trkpt>
      <trkpt lat="44.38105" lon="6.54449">
        <ele>1809.3386230469</ele>
        <time>2012-09-15T07:56:27Z</time>
      </trkpt>
      <trkpt lat="44.38109" lon="6.54454">
        <ele>1813.1838378906</ele>
        <time>2012-09-15T07:56:31Z</time>
      </trkpt>
      <trkpt lat="44.38113" lon="6.5446">
        <ele>1818.4709472656</ele>
        <time>2012-09-15T07:56:37Z</time>
      </trkpt>
      <trkpt lat="44.38118" lon="6.54464">
        <ele>1822.31640625</ele>
        <time>2012-09-15T07:56:42Z</time>
      </trkpt>
      <trkpt lat="44.38131" lon="6.5447">
        <ele>1813.1838378906</ele>
        <time>2012-09-15T07:58:17Z</time>
      </trkpt>
      <trkpt lat="44.38133" lon="6.54473">
        <ele>1812.2224121094</ele>
        <time>2012-09-15T07:58:29Z</time>
      </trkpt>
      <trkpt lat="44.38122" lon="6.5447">
        <ele>1816.0676269531</ele>
        <time>2012-09-15T07:59:14Z</time>
      </trkpt>
      <trkpt lat="44.38112" lon="6.54464">
        <ele>1828.0842285156</ele>
        <time>2012-09-15T07:59:32Z</time>
      </trkpt>
      <trkpt lat="44.38102" lon="6.54464">
        <ele>1824.2390136719</ele>
        <time>2012-09-15T07:59:38Z</time>
      </trkpt>
      <trkpt lat="44.38099" lon="6.54462">
        <ele>1821.8356933594</ele>
        <time>2012-09-15T07:59:44Z</time>
      </trkpt>
      <trkpt lat="44.38091" lon="6.54457">
        <ele>1818.9516601562</ele>
        <time>2012-09-15T07:59:56Z</time>
      </trkpt>
      <trkpt lat="44.38072" lon="6.54431">
        <ele>1812.703125</ele>
        <time>2012-09-15T08:00:22Z</time>
      </trkpt>
      <trkpt lat="44.38066" lon="6.54429">
        <ele>1812.2224121094</ele>
        <time>2012-09-15T08:00:27Z</time>
      </trkpt>
      <trkpt lat="44.38067" lon="6.5443">
        <ele>1817.5095214844</ele>
        <time>2012-09-15T08:00:31Z</time>
      </trkpt>
      <trkpt lat="44.38062" lon="6.54434">
        <ele>1825.2001953125</ele>
        <time>2012-09-15T08:00:38Z</time>
      </trkpt>
      <trkpt lat="44.38057" lon="6.54438">
        <ele>1826.1616210938</ele>
        <time>2012-09-15T08:00:43Z</time>
      </trkpt>
      <trkpt lat="44.38056" lon="6.54441">
        <ele>1836.2556152344</ele>
        <time>2012-09-15T08:00:50Z</time>
      </trkpt>
      <trkpt lat="44.38062" lon="6.54445">
        <ele>1849.2331542969</ele>
        <time>2012-09-15T08:01:00Z</time>
      </trkpt>
      <trkpt lat="44.38063" lon="6.5445">
        <ele>1852.1171875</ele>
        <time>2012-09-15T08:01:04Z</time>
      </trkpt>
      <trkpt lat="44.38062" lon="6.54459">
        <ele>1851.1557617188</ele>
        <time>2012-09-15T08:01:09Z</time>
      </trkpt>
      <trkpt lat="44.38066" lon="6.54471">
        <ele>1851.6364746094</ele>
        <time>2012-09-15T08:01:20Z</time>
      </trkpt>
      <trkpt lat="44.38068" lon="6.54476">
        <ele>1848.2717285156</ele>
        <time>2012-09-15T08:01:24Z</time>
      </trkpt>
      <trkpt lat="44.38065" lon="6.54494">
        <ele>1847.7912597656</ele>
        <time>2012-09-15T08:01:37Z</time>
      </trkpt>
      <trkpt lat="44.38065" lon="6.54502">
        <ele>1847.7912597656</ele>
        <time>2012-09-15T08:01:44Z</time>
      </trkpt>
      <trkpt lat="44.38068" lon="6.5451">
        <ele>1852.1171875</ele>
        <time>2012-09-15T08:01:51Z</time>
      </trkpt>
      <trkpt lat="44.38068" lon="6.54526">
        <ele>1842.5041503906</ele>
        <time>2012-09-15T08:02:16Z</time>
      </trkpt>
      <trkpt lat="44.38068" lon="6.54525">
        <ele>1842.0234375</ele>
        <time>2012-09-15T08:02:24Z</time>
      </trkpt>
      <trkpt lat="44.38057" lon="6.54518">
        <ele>1840.5812988281</ele>
        <time>2012-09-15T08:02:39Z</time>
      </trkpt>
      <trkpt lat="44.38036" lon="6.54513">
        <ele>1859.3271484375</ele>
        <time>2012-09-15T08:03:22Z</time>
      </trkpt>
      <trkpt lat="44.38008" lon="6.54521">
        <ele>1878.5534667969</ele>
        <time>2012-09-15T08:04:25Z</time>
      </trkpt>
      <trkpt lat="44.38002" lon="6.54549">
        <ele>1887.2053222656</ele>
        <time>2012-09-15T08:05:24Z</time>
      </trkpt>
      <trkpt lat="44.37997" lon="6.54546">
        <ele>1892.0119628906</ele>
        <time>2012-09-15T08:05:33Z</time>
      </trkpt>
      <trkpt lat="44.37994" lon="6.54529">
        <ele>1889.6086425781</ele>
        <time>2012-09-15T08:05:52Z</time>
      </trkpt>
      <trkpt lat="44.37988" lon="6.54528">
        <ele>1892.4926757812</ele>
        <time>2012-09-15T08:05:56Z</time>
      </trkpt>
      <trkpt lat="44.37984" lon="6.54531">
        <ele>1894.4150390625</ele>
        <time>2012-09-15T08:06:00Z</time>
      </trkpt>
      <trkpt lat="44.37975" lon="6.54534">
        <ele>1885.7634277344</ele>
        <time>2012-09-15T08:06:20Z</time>
      </trkpt>
      <trkpt lat="44.3797" lon="6.54535">
        <ele>1891.53125</ele>
        <time>2012-09-15T08:06:31Z</time>
      </trkpt>
      <trkpt lat="44.37964" lon="6.54533">
        <ele>1900.1833496094</ele>
        <time>2012-09-15T08:06:44Z</time>
      </trkpt>
      <trkpt lat="44.37961" lon="6.54552">
        <ele>1908.8349609375</ele>
        <time>2012-09-15T08:07:04Z</time>
      </trkpt>
      <trkpt lat="44.37962" lon="6.54561">
        <ele>1904.5090332031</ele>
        <time>2012-09-15T08:07:11Z</time>
      </trkpt>
      <trkpt lat="44.37959" lon="6.54576">
        <ele>1920.3708496094</ele>
        <time>2012-09-15T08:07:41Z</time>
      </trkpt>
      <trkpt lat="44.37962" lon="6.54583">
        <ele>1925.6579589844</ele>
        <time>2012-09-15T08:07:48Z</time>
      </trkpt>
      <trkpt lat="44.37957" lon="6.54586">
        <ele>1929.0224609375</ele>
        <time>2012-09-15T08:08:32Z</time>
      </trkpt>
      <trkpt lat="44.37948" lon="6.54598">
        <ele>1943.4423828125</ele>
        <time>2012-09-15T08:08:48Z</time>
      </trkpt>
      <trkpt lat="44.37948" lon="6.54598">
        <ele>1943.9230957031</ele>
        <time>2012-09-15T08:08:49Z</time>
      </trkpt>
      <trkpt lat="44.37939" lon="6.54602">
        <ele>1946.8068847656</ele>
        <time>2012-09-15T08:08:54Z</time>
      </trkpt>
      <trkpt lat="44.37971" lon="6.54602">
        <ele>1942.0004882812</ele>
        <time>2012-09-15T08:09:24Z</time>
      </trkpt>
      <trkpt lat="44.37975" lon="6.54606">
        <ele>1940.5583496094</ele>
        <time>2012-09-15T08:09:30Z</time>
      </trkpt>
      <trkpt lat="44.37981" lon="6.54611">
        <ele>1929.0224609375</ele>
        <time>2012-09-15T08:09:34Z</time>
      </trkpt>
      <trkpt lat="44.37984" lon="6.54617">
        <ele>1924.6967773438</ele>
        <time>2012-09-15T08:09:40Z</time>
      </trkpt>
      <trkpt lat="44.37993" lon="6.54623">
        <ele>1919.4096679688</ele>
        <time>2012-09-15T08:09:46Z</time>
      </trkpt>
      <trkpt lat="44.37994" lon="6.54629">
        <ele>1915.5642089844</ele>
        <time>2012-09-15T08:09:52Z</time>
      </trkpt>
      <trkpt lat="44.38001" lon="6.54638">
        <ele>1911.23828125</ele>
        <time>2012-09-15T08:09:59Z</time>
      </trkpt>
      <trkpt lat="44.3801" lon="6.54644">
        <ele>1906.9123535156</ele>
        <time>2012-09-15T08:10:04Z</time>
      </trkpt>
      <trkpt lat="44.38006" lon="6.54652">
        <ele>1913.6413574219</ele>
        <time>2012-09-15T08:10:16Z</time>
      </trkpt>
      <trkpt lat="44.38011" lon="6.54661">
        <ele>1911.7189941406</ele>
        <time>2012-09-15T08:10:23Z</time>
      </trkpt>
      <trkpt lat="44.38011" lon="6.54665">
        <ele>1906.431640625</ele>
        <time>2012-09-15T08:10:29Z</time>
      </trkpt>
      <trkpt lat="44.38017" lon="6.54672">
        <ele>1903.5478515625</ele>
        <time>2012-09-15T08:10:35Z</time>
      </trkpt>
      <trkpt lat="44.38019" lon="6.54678">
        <ele>1905.9509277344</ele>
        <time>2012-09-15T08:10:40Z</time>
      </trkpt>
      <trkpt lat="44.38003" lon="6.54688">
        <ele>1939.1164550781</ele>
        <time>2012-09-15T08:11:17Z</time>
      </trkpt>
      <trkpt lat="44.38008" lon="6.5468">
        <ele>1932.3874511719</ele>
        <time>2012-09-15T08:11:36Z</time>
      </trkpt>
      <trkpt lat="44.38008" lon="6.54661">
        <ele>1916.044921875</ele>
        <time>2012-09-15T08:11:41Z</time>
      </trkpt>
      <trkpt lat="44.37999" lon="6.54646">
        <ele>1912.1994628906</ele>
        <time>2012-09-15T08:11:44Z</time>
      </trkpt>
      <trkpt lat="44.37994" lon="6.54639">
        <ele>1906.431640625</ele>
        <time>2012-09-15T08:11:46Z</time>
      </trkpt>
      <trkpt lat="44.37985" lon="6.54621">
        <ele>1899.2216796875</ele>
        <time>2012-09-15T08:11:52Z</time>
      </trkpt>
      <trkpt lat="44.37984" lon="6.54615">
        <ele>1893.9345703125</ele>
        <time>2012-09-15T08:11:56Z</time>
      </trkpt>
      <trkpt lat="44.37986" lon="6.54599">
        <ele>1904.9897460938</ele>
        <time>2012-09-15T08:12:39Z</time>
      </trkpt>
      <trkpt lat="44.37984" lon="6.546">
        <ele>1910.2768554688</ele>
        <time>2012-09-15T08:12:47Z</time>
      </trkpt>
      <trkpt lat="44.37988" lon="6.546">
        <ele>1909.3156738281</ele>
        <time>2012-09-15T08:13:01Z</time>
      </trkpt>
      <trkpt lat="44.37973" lon="6.54592">
        <ele>1922.2934570312</ele>
        <time>2012-09-15T08:13:25Z</time>
      </trkpt>
      <trkpt lat="44.37966" lon="6.54589">
        <ele>1927.5805664062</ele>
        <time>2012-09-15T08:13:32Z</time>
      </trkpt>
      <trkpt lat="44.37966" lon="6.5459">
        <ele>1927.1000976562</ele>
        <time>2012-09-15T08:13:38Z</time>
      </trkpt>
      <trkpt lat="44.3795" lon="6.54594">
        <ele>1923.2548828125</ele>
        <time>2012-09-15T08:13:53Z</time>
      </trkpt>
      <trkpt lat="44.37941" lon="6.5459">
        <ele>1918.9289550781</ele>
        <time>2012-09-15T08:13:58Z</time>
      </trkpt>
      <trkpt lat="44.37943" lon="6.54587">
        <ele>1917.4868164062</ele>
        <time>2012-09-15T08:14:06Z</time>
      </trkpt>
      <trkpt lat="44.37933" lon="6.54581">
        <ele>1929.5031738281</ele>
        <time>2012-09-15T08:14:20Z</time>
      </trkpt>
      <trkpt lat="44.37916" lon="6.54573">
        <ele>1934.3100585938</ele>
        <time>2012-09-15T08:14:42Z</time>
      </trkpt>
      <trkpt lat="44.37913" lon="6.54566">
        <ele>1942.0004882812</ele>
        <time>2012-09-15T08:14:48Z</time>
      </trkpt>
      <trkpt lat="44.37905" lon="6.54561">
        <ele>1945.3649902344</ele>
        <time>2012-09-15T08:14:55Z</time>
      </trkpt>
      <trkpt lat="44.37899" lon="6.54555">
        <ele>1945.845703125</ele>
        <time>2012-09-15T08:15:00Z</time>
      </trkpt>
      <trkpt lat="44.37894" lon="6.54548">
        <ele>1944.8842773438</ele>
        <time>2012-09-15T08:15:06Z</time>
      </trkpt>
      <trkpt lat="44.37893" lon="6.54527">
        <ele>1928.0612792969</ele>
        <time>2012-09-15T08:15:29Z</time>
      </trkpt>
      <trkpt lat="44.37892" lon="6.54523">
        <ele>1920.8515625</ele>
        <time>2012-09-15T08:15:36Z</time>
      </trkpt>
      <trkpt lat="44.37894" lon="6.54519">
        <ele>1920.8515625</ele>
        <time>2012-09-15T08:15:40Z</time>
      </trkpt>
      <trkpt lat="44.37897" lon="6.54515">
        <ele>1920.8515625</ele>
        <time>2012-09-15T08:15:46Z</time>
      </trkpt>
      <trkpt lat="44.37895" lon="6.54516">
        <ele>1918.9289550781</ele>
        <time>2012-09-15T08:15:53Z</time>
      </trkpt>
      <trkpt lat="44.3789" lon="6.54523">
        <ele>1919.4096679688</ele>
        <time>2012-09-15T08:15:59Z</time>
      </trkpt>
      <trkpt lat="44.37885" lon="6.54531">
        <ele>1922.7741699219</ele>
        <time>2012-09-15T08:16:06Z</time>
      </trkpt>
      <trkpt lat="44.3788" lon="6.54537">
        <ele>1928.0612792969</ele>
        <time>2012-09-15T08:16:12Z</time>
      </trkpt>
      <trkpt lat="44.37873" lon="6.54541">
        <ele>1935.2712402344</ele>
        <time>2012-09-15T08:16:18Z</time>
      </trkpt>
      <trkpt lat="44.37866" lon="6.54548">
        <ele>1942.4812011719</ele>
        <time>2012-09-15T08:16:28Z</time>
      </trkpt>
      <trkpt lat="44.37857" lon="6.5455">
        <ele>1950.171875</ele>
        <time>2012-09-15T08:16:35Z</time>
      </trkpt>
      <trkpt lat="44.37852" lon="6.54554">
        <ele>1955.939453125</ele>
        <time>2012-09-15T08:16:40Z</time>
      </trkpt>
      <trkpt lat="44.37844" lon="6.54557">
        <ele>1961.7075195312</ele>
        <time>2012-09-15T08:16:45Z</time>
      </trkpt>
      <trkpt lat="44.37838" lon="6.54563">
        <ele>1965.072265625</ele>
        <time>2012-09-15T08:16:56Z</time>
      </trkpt>
      <trkpt lat="44.37836" lon="6.54578">
        <ele>1969.3981933594</ele>
        <time>2012-09-15T08:17:10Z</time>
      </trkpt>
      <trkpt lat="44.37835" lon="6.54578">
        <ele>1970.359375</ele>
        <time>2012-09-15T08:17:11Z</time>
      </trkpt>
      <trkpt lat="44.37828" lon="6.54582">
        <ele>1969.3981933594</ele>
        <time>2012-09-15T08:17:19Z</time>
      </trkpt>
      <trkpt lat="44.37829" lon="6.54596">
        <ele>1990.546875</ele>
        <time>2012-09-15T08:17:39Z</time>
      </trkpt>
      <trkpt lat="44.37823" lon="6.54603">
        <ele>1991.5083007812</ele>
        <time>2012-09-15T08:17:53Z</time>
      </trkpt>
      <trkpt lat="44.37813" lon="6.54605">
        <ele>1993.4309082031</ele>
        <time>2012-09-15T08:18:04Z</time>
      </trkpt>
      <trkpt lat="44.37809" lon="6.54608">
        <ele>1993.4309082031</ele>
        <time>2012-09-15T08:18:08Z</time>
      </trkpt>
      <trkpt lat="44.37806" lon="6.54611">
        <ele>1990.546875</ele>
        <time>2012-09-15T08:18:11Z</time>
      </trkpt>
      <trkpt lat="44.37802" lon="6.54613">
        <ele>1995.353515625</ele>
        <time>2012-09-15T08:18:17Z</time>
      </trkpt>
      <trkpt lat="44.37798" lon="6.54616">
        <ele>2000.1604003906</ele>
        <time>2012-09-15T08:18:22Z</time>
      </trkpt>
      <trkpt lat="44.37797" lon="6.54617">
        <ele>2009.7731933594</ele>
        <time>2012-09-15T08:18:28Z</time>
      </trkpt>
      <trkpt lat="44.37787" lon="6.5462">
        <ele>2016.0219726562</ele>
        <time>2012-09-15T08:18:35Z</time>
      </trkpt>
      <trkpt lat="44.37786" lon="6.54624">
        <ele>2009.2927246094</ele>
        <time>2012-09-15T08:18:41Z</time>
      </trkpt>
      <trkpt lat="44.37781" lon="6.54632">
        <ele>2004.966796875</ele>
        <time>2012-09-15T08:18:51Z</time>
      </trkpt>
      <trkpt lat="44.37772" lon="6.54636">
        <ele>2003.0441894531</ele>
        <time>2012-09-15T08:18:56Z</time>
      </trkpt>
      <trkpt lat="44.37764" lon="6.54642">
        <ele>2002.5634765625</ele>
        <time>2012-09-15T08:19:03Z</time>
      </trkpt>
      <trkpt lat="44.37761" lon="6.54646">
        <ele>2002.5634765625</ele>
        <time>2012-09-15T08:19:07Z</time>
      </trkpt>
      <trkpt lat="44.37761" lon="6.54655">
        <ele>1997.7570800781</ele>
        <time>2012-09-15T08:19:15Z</time>
      </trkpt>
      <trkpt lat="44.37759" lon="6.54666">
        <ele>1983.8178710938</ele>
        <time>2012-09-15T08:19:24Z</time>
      </trkpt>
      <trkpt lat="44.37754" lon="6.5467">
        <ele>1982.8564453125</ele>
        <time>2012-09-15T08:19:28Z</time>
      </trkpt>
      <trkpt lat="44.37754" lon="6.5468">
        <ele>1972.7626953125</ele>
        <time>2012-09-15T08:19:37Z</time>
      </trkpt>
      <trkpt lat="44.37759" lon="6.54678">
        <ele>1962.1879882812</ele>
        <time>2012-09-15T08:19:50Z</time>
      </trkpt>
      <trkpt lat="44.37764" lon="6.54682">
        <ele>1956.9008789062</ele>
        <time>2012-09-15T08:20:01Z</time>
      </trkpt>
      <trkpt lat="44.37764" lon="6.54683">
        <ele>1956.9008789062</ele>
        <time>2012-09-15T08:20:12Z</time>
      </trkpt>
      <trkpt lat="44.37756" lon="6.54679">
        <ele>1965.5529785156</ele>
        <time>2012-09-15T08:20:25Z</time>
      </trkpt>
      <trkpt lat="44.37757" lon="6.54681">
        <ele>1968.9174804688</ele>
        <time>2012-09-15T08:20:26Z</time>
      </trkpt>
      <trkpt lat="44.37767" lon="6.54684">
        <ele>1968.4367675781</ele>
        <time>2012-09-15T08:20:40Z</time>
      </trkpt>
      <trkpt lat="44.37766" lon="6.54695">
        <ele>2002.0827636719</ele>
        <time>2012-09-15T08:21:11Z</time>
      </trkpt>
      <trkpt lat="44.37767" lon="6.54694">
        <ele>1994.8728027344</ele>
        <time>2012-09-15T08:21:22Z</time>
      </trkpt>
      <trkpt lat="44.37768" lon="6.54695">
        <ele>1988.1437988281</ele>
        <time>2012-09-15T08:21:43Z</time>
      </trkpt>
      <trkpt lat="44.37768" lon="6.54693">
        <ele>1991.9890136719</ele>
        <time>2012-09-15T08:21:52Z</time>
      </trkpt>
      <trkpt lat="44.37764" lon="6.54686">
        <ele>1982.3759765625</ele>
        <time>2012-09-15T08:22:05Z</time>
      </trkpt>
      <trkpt lat="44.37766" lon="6.54689">
        <ele>1973.7238769531</ele>
        <time>2012-09-15T08:22:20Z</time>
      </trkpt>
      <trkpt lat="44.37769" lon="6.54688">
        <ele>1963.6298828125</ele>
        <time>2012-09-15T08:22:31Z</time>
      </trkpt>
      <trkpt lat="44.3777" lon="6.54687">
        <ele>1954.4975585938</ele>
        <time>2012-09-15T08:22:46Z</time>
      </trkpt>
      <trkpt lat="44.3777" lon="6.54686">
        <ele>1947.7683105469</ele>
        <time>2012-09-15T08:23:05Z</time>
      </trkpt>
      <trkpt lat="44.3777" lon="6.54685">
        <ele>1937.6745605469</ele>
        <time>2012-09-15T08:23:15Z</time>
      </trkpt>
      <trkpt lat="44.37774" lon="6.54685">
        <ele>1930.4645996094</ele>
        <time>2012-09-15T08:23:30Z</time>
      </trkpt>
      <trkpt lat="44.37775" lon="6.54685">
        <ele>1929.9838867188</ele>
        <time>2012-09-15T08:24:00Z</time>
      </trkpt>
      <trkpt lat="44.37772" lon="6.54684">
        <ele>1937.1938476562</ele>
        <time>2012-09-15T08:24:12Z</time>
      </trkpt>
      <trkpt lat="44.37771" lon="6.54682">
        <ele>1942.0004882812</ele>
        <time>2012-09-15T08:24:22Z</time>
      </trkpt>
      <trkpt lat="44.37767" lon="6.54685">
        <ele>1963.1494140625</ele>
        <time>2012-09-15T08:24:33Z</time>
      </trkpt>
      <trkpt lat="44.37766" lon="6.54686">
        <ele>1969.8786621094</ele>
        <time>2012-09-15T08:24:42Z</time>
      </trkpt>
      <trkpt lat="44.37764" lon="6.54685">
        <ele>1977.5690917969</ele>
        <time>2012-09-15T08:24:54Z</time>
      </trkpt>
      <trkpt lat="44.3776" lon="6.54683">
        <ele>1975.646484375</ele>
        <time>2012-09-15T08:25:10Z</time>
      </trkpt>
      <trkpt lat="44.37763" lon="6.54685">
        <ele>1967.4753417969</ele>
        <time>2012-09-15T08:25:29Z</time>
      </trkpt>
      <trkpt lat="44.37766" lon="6.54686">
        <ele>1963.6298828125</ele>
        <time>2012-09-15T08:25:37Z</time>
      </trkpt>
      <trkpt lat="44.37762" lon="6.54683">
        <ele>1969.8786621094</ele>
        <time>2012-09-15T08:25:46Z</time>
      </trkpt>
      <trkpt lat="44.37767" lon="6.54686">
        <ele>1958.8234863281</ele>
        <time>2012-09-15T08:26:08Z</time>
      </trkpt>
      <trkpt lat="44.37764" lon="6.54683">
        <ele>1956.4201660156</ele>
        <time>2012-09-15T08:26:21Z</time>
      </trkpt>
      <trkpt lat="44.3776" lon="6.5468">
        <ele>1954.4975585938</ele>
        <time>2012-09-15T08:26:35Z</time>
      </trkpt>
      <trkpt lat="44.37759" lon="6.54678">
        <ele>1952.5749511719</ele>
        <time>2012-09-15T08:26:45Z</time>
      </trkpt>
      <trkpt lat="44.37761" lon="6.54679">
        <ele>1957.3815917969</ele>
        <time>2012-09-15T08:27:00Z</time>
      </trkpt>
      <trkpt lat="44.37763" lon="6.54681">
        <ele>1962.6687011719</ele>
        <time>2012-09-15T08:27:34Z</time>
      </trkpt>
      <trkpt lat="44.37761" lon="6.54679">
        <ele>1958.3427734375</ele>
        <time>2012-09-15T08:28:21Z</time>
      </trkpt>
      <trkpt lat="44.37759" lon="6.54676">
        <ele>1970.359375</ele>
        <time>2012-09-15T08:28:48Z</time>
      </trkpt>
      <trkpt lat="44.37761" lon="6.54678">
        <ele>1977.0886230469</ele>
        <time>2012-09-15T08:28:58Z</time>
      </trkpt>
      <trkpt lat="44.37759" lon="6.54679">
        <ele>1978.0498046875</ele>
        <time>2012-09-15T08:29:09Z</time>
      </trkpt>
      <trkpt lat="44.37758" lon="6.54681">
        <ele>1971.8012695312</ele>
        <time>2012-09-15T08:29:21Z</time>
      </trkpt>
      <trkpt lat="44.37758" lon="6.54681">
        <ele>1965.072265625</ele>
        <time>2012-09-15T08:30:04Z</time>
      </trkpt>
      <trkpt lat="44.37761" lon="6.54682">
        <ele>1966.9948730469</ele>
        <time>2012-09-15T08:30:16Z</time>
      </trkpt>
      <trkpt lat="44.3777" lon="6.54689">
        <ele>1970.8400878906</ele>
        <time>2012-09-15T08:30:25Z</time>
      </trkpt>
      <trkpt lat="44.37764" lon="6.54683">
        <ele>1960.74609375</ele>
        <time>2012-09-15T08:30:40Z</time>
      </trkpt>
      <trkpt lat="44.37759" lon="6.54678">
        <ele>1953.5363769531</ele>
        <time>2012-09-15T08:30:45Z</time>
      </trkpt>
      <trkpt lat="44.37754" lon="6.54674">
        <ele>1950.171875</ele>
        <time>2012-09-15T08:30:54Z</time>
      </trkpt>
      <trkpt lat="44.37754" lon="6.54674">
        <ele>1950.65234375</ele>
        <time>2012-09-15T08:30:56Z</time>
      </trkpt>
      <trkpt lat="44.37757" lon="6.54676">
        <ele>1955.939453125</ele>
        <time>2012-09-15T08:31:08Z</time>
      </trkpt>
      <trkpt lat="44.37762" lon="6.54682">
        <ele>1959.7846679688</ele>
        <time>2012-09-15T08:31:14Z</time>
      </trkpt>
      <trkpt lat="44.37769" lon="6.54687">
        <ele>1965.5529785156</ele>
        <time>2012-09-15T08:31:26Z</time>
      </trkpt>
      <trkpt lat="44.37769" lon="6.54685">
        <ele>1966.9948730469</ele>
        <time>2012-09-15T08:31:38Z</time>
      </trkpt>
      <trkpt lat="44.37772" lon="6.54689">
        <ele>1967.9560546875</ele>
        <time>2012-09-15T08:31:46Z</time>
      </trkpt>
      <trkpt lat="44.37773" lon="6.54693">
        <ele>1969.8786621094</ele>
        <time>2012-09-15T08:31:59Z</time>
      </trkpt>
      <trkpt lat="44.37772" lon="6.54694">
        <ele>1968.9174804688</ele>
        <time>2012-09-15T08:32:11Z</time>
      </trkpt>
      <trkpt lat="44.37773" lon="6.54693">
        <ele>1967.4753417969</ele>
        <time>2012-09-15T08:32:26Z</time>
      </trkpt>
      <trkpt lat="44.37776" lon="6.54696">
        <ele>1959.3041992188</ele>
        <time>2012-09-15T08:32:50Z</time>
      </trkpt>
      <trkpt lat="44.37777" lon="6.54694">
        <ele>1950.65234375</ele>
        <time>2012-09-15T08:33:32Z</time>
      </trkpt>
      <trkpt lat="44.37775" lon="6.54688">
        <ele>1950.65234375</ele>
        <time>2012-09-15T08:33:46Z</time>
      </trkpt>
      <trkpt lat="44.37772" lon="6.54689">
        <ele>1945.3649902344</ele>
        <time>2012-09-15T08:33:56Z</time>
      </trkpt>
      <trkpt lat="44.37766" lon="6.54689">
        <ele>1953.5363769531</ele>
        <time>2012-09-15T08:34:02Z</time>
      </trkpt>
      <trkpt lat="44.37756" lon="6.54683">
        <ele>1957.3815917969</ele>
        <time>2012-09-15T08:34:08Z</time>
      </trkpt>
      <trkpt lat="44.37746" lon="6.54674">
        <ele>1957.3815917969</ele>
        <time>2012-09-15T08:34:14Z</time>
      </trkpt>
      <trkpt lat="44.37737" lon="6.54664">
        <ele>1956.9008789062</ele>
        <time>2012-09-15T08:34:19Z</time>
      </trkpt>
      <trkpt lat="44.37728" lon="6.54655">
        <ele>1956.9008789062</ele>
        <time>2012-09-15T08:34:23Z</time>
      </trkpt>
      <trkpt lat="44.37713" lon="6.54642">
        <ele>1956.4201660156</ele>
        <time>2012-09-15T08:34:28Z</time>
      </trkpt>
      <trkpt lat="44.37695" lon="6.54621">
        <ele>1954.0170898438</ele>
        <time>2012-09-15T08:34:35Z</time>
      </trkpt>
      <trkpt lat="44.37681" lon="6.54607">
        <ele>1951.6137695312</ele>
        <time>2012-09-15T08:34:40Z</time>
      </trkpt>
      <trkpt lat="44.37666" lon="6.54594">
        <ele>1951.6137695312</ele>
        <time>2012-09-15T08:34:46Z</time>
      </trkpt>
      <trkpt lat="44.37652" lon="6.54583">
        <ele>1949.6911621094</ele>
        <time>2012-09-15T08:34:51Z</time>
      </trkpt>
      <trkpt lat="44.37636" lon="6.54578">
        <ele>1952.5749511719</ele>
        <time>2012-09-15T08:34:56Z</time>
      </trkpt>
      <trkpt lat="44.37634" lon="6.54575">
        <ele>1951.1330566406</ele>
        <time>2012-09-15T08:35:00Z</time>
      </trkpt>
      <trkpt lat="44.37632" lon="6.54569">
        <ele>1941.5197753906</ele>
        <time>2012-09-15T08:35:49Z</time>
      </trkpt>
      <trkpt lat="44.37631" lon="6.54571">
        <ele>1947.2875976562</ele>
        <time>2012-09-15T08:36:04Z</time>
      </trkpt>
      <trkpt lat="44.37627" lon="6.54571">
        <ele>1949.6911621094</ele>
        <time>2012-09-15T08:36:26Z</time>
      </trkpt>
      <trkpt lat="44.37618" lon="6.54567">
        <ele>1949.2104492188</ele>
        <time>2012-09-15T08:36:30Z</time>
      </trkpt>
      <trkpt lat="44.37606" lon="6.54557">
        <ele>1947.2875976562</ele>
        <time>2012-09-15T08:36:35Z</time>
      </trkpt>
      <trkpt lat="44.37593" lon="6.54549">
        <ele>1946.8068847656</ele>
        <time>2012-09-15T08:36:41Z</time>
      </trkpt>
      <trkpt lat="44.37582" lon="6.54539">
        <ele>1946.8068847656</ele>
        <time>2012-09-15T08:36:46Z</time>
      </trkpt>
      <trkpt lat="44.3757" lon="6.54531">
        <ele>1945.3649902344</ele>
        <time>2012-09-15T08:36:51Z</time>
      </trkpt>
      <trkpt lat="44.37567" lon="6.54527">
        <ele>1945.845703125</ele>
        <time>2012-09-15T08:36:54Z</time>
      </trkpt>
      <trkpt lat="44.3756" lon="6.54525">
        <ele>1945.3649902344</ele>
        <time>2012-09-15T08:37:00Z</time>
      </trkpt>
      <trkpt lat="44.37558" lon="6.54524">
        <ele>1945.845703125</ele>
        <time>2012-09-15T08:37:01Z</time>
      </trkpt>
      <trkpt lat="44.3755" lon="6.54518">
        <ele>1946.3264160156</ele>
        <time>2012-09-15T08:37:04Z</time>
      </trkpt>
      <trkpt lat="44.37536" lon="6.54515">
        <ele>1946.8068847656</ele>
        <time>2012-09-15T08:37:09Z</time>
      </trkpt>
      <trkpt lat="44.37519" lon="6.54514">
        <ele>1946.8068847656</ele>
        <time>2012-09-15T08:37:14Z</time>
      </trkpt>
      <trkpt lat="44.37505" lon="6.54512">
        <ele>1946.8068847656</ele>
        <time>2012-09-15T08:37:19Z</time>
      </trkpt>
      <trkpt lat="44.375" lon="6.54512">
        <ele>1947.2875976562</ele>
        <time>2012-09-15T08:37:24Z</time>
      </trkpt>
      <trkpt lat="44.3749" lon="6.54512">
        <ele>1946.3264160156</ele>
        <time>2012-09-15T08:37:29Z</time>
      </trkpt>
      <trkpt lat="44.37476" lon="6.5451">
        <ele>1946.3264160156</ele>
        <time>2012-09-15T08:37:34Z</time>
      </trkpt>
      <trkpt lat="44.37466" lon="6.5451">
        <ele>1944.8842773438</ele>
        <time>2012-09-15T08:37:38Z</time>
      </trkpt>
      <trkpt lat="44.37448" lon="6.54511">
        <ele>1943.4423828125</ele>
        <time>2012-09-15T08:37:43Z</time>
      </trkpt>
      <trkpt lat="44.37433" lon="6.54509">
        <ele>1942.4812011719</ele>
        <time>2012-09-15T08:37:48Z</time>
      </trkpt>
      <trkpt lat="44.37424" lon="6.54506">
        <ele>1942.4812011719</ele>
        <time>2012-09-15T08:37:52Z</time>
      </trkpt>
      <trkpt lat="44.37413" lon="6.54501">
        <ele>1942.0004882812</ele>
        <time>2012-09-15T08:37:57Z</time>
      </trkpt>
      <trkpt lat="44.37402" lon="6.54489">
        <ele>1942.0004882812</ele>
        <time>2012-09-15T08:38:02Z</time>
      </trkpt>
      <trkpt lat="44.37398" lon="6.5447">
        <ele>1940.0778808594</ele>
        <time>2012-09-15T08:38:07Z</time>
      </trkpt>
      <trkpt lat="44.37394" lon="6.54455">
        <ele>1941.0390625</ele>
        <time>2012-09-15T08:38:13Z</time>
      </trkpt>
      <trkpt lat="44.37391" lon="6.5444">
        <ele>1940.5583496094</ele>
        <time>2012-09-15T08:38:17Z</time>
      </trkpt>
      <trkpt lat="44.37379" lon="6.54426">
        <ele>1940.5583496094</ele>
        <time>2012-09-15T08:38:22Z</time>
      </trkpt>
      <trkpt lat="44.37361" lon="6.54404">
        <ele>1937.1938476562</ele>
        <time>2012-09-15T08:38:30Z</time>
      </trkpt>
      <trkpt lat="44.37349" lon="6.54398">
        <ele>1940.5583496094</ele>
        <time>2012-09-15T08:38:35Z</time>
      </trkpt>
      <trkpt lat="44.37347" lon="6.54397">
        <ele>1940.0778808594</ele>
        <time>2012-09-15T08:38:36Z</time>
      </trkpt>
      <trkpt lat="44.37334" lon="6.5439">
        <ele>1941.5197753906</ele>
        <time>2012-09-15T08:38:42Z</time>
      </trkpt>
      <trkpt lat="44.37318" lon="6.54389">
        <ele>1942.0004882812</ele>
        <time>2012-09-15T08:38:49Z</time>
      </trkpt>
      <trkpt lat="44.3731" lon="6.54389">
        <ele>1941.5197753906</ele>
        <time>2012-09-15T08:38:54Z</time>
      </trkpt>
      <trkpt lat="44.37294" lon="6.54385">
        <ele>1940.0778808594</ele>
        <time>2012-09-15T08:39:02Z</time>
      </trkpt>
      <trkpt lat="44.3729" lon="6.54381">
        <ele>1939.5971679688</ele>
        <time>2012-09-15T08:39:07Z</time>
      </trkpt>
      <trkpt lat="44.37285" lon="6.54374">
        <ele>1934.3100585938</ele>
        <time>2012-09-15T08:39:24Z</time>
      </trkpt>
      <trkpt lat="44.37286" lon="6.54374">
        <ele>1932.3874511719</ele>
        <time>2012-09-15T08:39:31Z</time>
      </trkpt>
      <trkpt lat="44.37287" lon="6.54377">
        <ele>1937.1938476562</ele>
        <time>2012-09-15T08:40:08Z</time>
      </trkpt>
      <trkpt lat="44.37282" lon="6.54374">
        <ele>1936.2326660156</ele>
        <time>2012-09-15T08:40:18Z</time>
      </trkpt>
      <trkpt lat="44.37281" lon="6.54373">
        <ele>1935.751953125</ele>
        <time>2012-09-15T08:40:19Z</time>
      </trkpt>
      <trkpt lat="44.37274" lon="6.54362">
        <ele>1934.7907714844</ele>
        <time>2012-09-15T08:40:25Z</time>
      </trkpt>
      <trkpt lat="44.37272" lon="6.54357">
        <ele>1934.7907714844</ele>
        <time>2012-09-15T08:40:30Z</time>
      </trkpt>
      <trkpt lat="44.37267" lon="6.54348">
        <ele>1935.2712402344</ele>
        <time>2012-09-15T08:40:38Z</time>
      </trkpt>
      <trkpt lat="44.37267" lon="6.54343">
        <ele>1936.2326660156</ele>
        <time>2012-09-15T08:40:41Z</time>
      </trkpt>
      <trkpt lat="44.37264" lon="6.54335">
        <ele>1938.1552734375</ele>
        <time>2012-09-15T08:40:49Z</time>
      </trkpt>
      <trkpt lat="44.37265" lon="6.5433">
        <ele>1936.2326660156</ele>
        <time>2012-09-15T08:40:54Z</time>
      </trkpt>
      <trkpt lat="44.37263" lon="6.54324">
        <ele>1936.7131347656</ele>
        <time>2012-09-15T08:41:00Z</time>
      </trkpt>
      <trkpt lat="44.37263" lon="6.54317">
        <ele>1936.7131347656</ele>
        <time>2012-09-15T08:41:06Z</time>
      </trkpt>
      <trkpt lat="44.37264" lon="6.5431">
        <ele>1933.8293457031</ele>
        <time>2012-09-15T08:41:13Z</time>
      </trkpt>
      <trkpt lat="44.3726" lon="6.54304">
        <ele>1935.2712402344</ele>
        <time>2012-09-15T08:41:19Z</time>
      </trkpt>
      <trkpt lat="44.37254" lon="6.54301">
        <ele>1937.6745605469</ele>
        <time>2012-09-15T08:41:27Z</time>
      </trkpt>
      <trkpt lat="44.37253" lon="6.54302">
        <ele>1941.5197753906</ele>
        <time>2012-09-15T08:41:34Z</time>
      </trkpt>
      <trkpt lat="44.37251" lon="6.54301">
        <ele>1942.4812011719</ele>
        <time>2012-09-15T08:41:41Z</time>
      </trkpt>
      <trkpt lat="44.37248" lon="6.54298">
        <ele>1941.0390625</ele>
        <time>2012-09-15T08:41:46Z</time>
      </trkpt>
      <trkpt lat="44.37246" lon="6.54296">
        <ele>1940.0778808594</ele>
        <time>2012-09-15T08:41:51Z</time>
      </trkpt>
      <trkpt lat="44.37237" lon="6.54281">
        <ele>1942.9616699219</ele>
        <time>2012-09-15T08:41:58Z</time>
      </trkpt>
      <trkpt lat="44.37233" lon="6.54267">
        <ele>1940.0778808594</ele>
        <time>2012-09-15T08:42:03Z</time>
      </trkpt>
      <trkpt lat="44.3723" lon="6.54262">
        <ele>1939.1164550781</ele>
        <time>2012-09-15T08:42:07Z</time>
      </trkpt>
      <trkpt lat="44.37226" lon="6.54261">
        <ele>1937.6745605469</ele>
        <time>2012-09-15T08:42:14Z</time>
      </trkpt>
      <trkpt lat="44.37221" lon="6.54262">
        <ele>1936.7131347656</ele>
        <time>2012-09-15T08:42:18Z</time>
      </trkpt>
      <trkpt lat="44.37212" lon="6.54265">
        <ele>1936.2326660156</ele>
        <time>2012-09-15T08:42:25Z</time>
      </trkpt>
      <trkpt lat="44.37208" lon="6.54265">
        <ele>1936.2326660156</ele>
        <time>2012-09-15T08:42:29Z</time>
      </trkpt>
      <trkpt lat="44.37204" lon="6.5427">
        <ele>1939.5971679688</ele>
        <time>2012-09-15T08:42:37Z</time>
      </trkpt>
      <trkpt lat="44.372" lon="6.54272">
        <ele>1941.0390625</ele>
        <time>2012-09-15T08:42:42Z</time>
      </trkpt>
      <trkpt lat="44.37194" lon="6.54274">
        <ele>1941.5197753906</ele>
        <time>2012-09-15T08:42:50Z</time>
      </trkpt>
      <trkpt lat="44.37189" lon="6.54275">
        <ele>1941.5197753906</ele>
        <time>2012-09-15T08:42:57Z</time>
      </trkpt>
      <trkpt lat="44.37188" lon="6.54274">
        <ele>1940.5583496094</ele>
        <time>2012-09-15T08:43:05Z</time>
      </trkpt>
      <trkpt lat="44.37186" lon="6.54274">
        <ele>1940.0778808594</ele>
        <time>2012-09-15T08:43:07Z</time>
      </trkpt>
      <trkpt lat="44.37174" lon="6.54274">
        <ele>1938.1552734375</ele>
        <time>2012-09-15T08:43:13Z</time>
      </trkpt>
      <trkpt lat="44.3716" lon="6.54277">
        <ele>1936.2326660156</ele>
        <time>2012-09-15T08:43:18Z</time>
      </trkpt>
      <trkpt lat="44.37144" lon="6.54273">
        <ele>1935.2712402344</ele>
        <time>2012-09-15T08:43:24Z</time>
      </trkpt>
      <trkpt lat="44.37132" lon="6.54256">
        <ele>1933.8293457031</ele>
        <time>2012-09-15T08:43:29Z</time>
      </trkpt>
      <trkpt lat="44.3712" lon="6.54238">
        <ele>1930.9453125</ele>
        <time>2012-09-15T08:43:34Z</time>
      </trkpt>
      <trkpt lat="44.37107" lon="6.54217">
        <ele>1926.6193847656</ele>
        <time>2012-09-15T08:43:40Z</time>
      </trkpt>
      <trkpt lat="44.37106" lon="6.54215">
        <ele>1927.1000976562</ele>
        <time>2012-09-15T08:43:43Z</time>
      </trkpt>
      <trkpt lat="44.37101" lon="6.54206">
        <ele>1925.6579589844</ele>
        <time>2012-09-15T08:43:48Z</time>
      </trkpt>
      <trkpt lat="44.37101" lon="6.54202">
        <ele>1924.2160644531</ele>
        <time>2012-09-15T08:43:53Z</time>
      </trkpt>
      <trkpt lat="44.37094" lon="6.54202">
        <ele>1925.1772460938</ele>
        <time>2012-09-15T08:43:56Z</time>
      </trkpt>
      <trkpt lat="44.37088" lon="6.54193">
        <ele>1924.6967773438</ele>
        <time>2012-09-15T08:44:00Z</time>
      </trkpt>
      <trkpt lat="44.37085" lon="6.54191">
        <ele>1921.8127441406</ele>
        <time>2012-09-15T08:44:05Z</time>
      </trkpt>
      <trkpt lat="44.37084" lon="6.54191">
        <ele>1921.8127441406</ele>
        <time>2012-09-15T08:44:06Z</time>
      </trkpt>
      <trkpt lat="44.37067" lon="6.54201">
        <ele>1924.2160644531</ele>
        <time>2012-09-15T08:44:12Z</time>
      </trkpt>
      <trkpt lat="44.37056" lon="6.54198">
        <ele>1923.7353515625</ele>
        <time>2012-09-15T08:44:16Z</time>
      </trkpt>
      <trkpt lat="44.37043" lon="6.54189">
        <ele>1920.8515625</ele>
        <time>2012-09-15T08:44:21Z</time>
      </trkpt>
      <trkpt lat="44.37027" lon="6.54172">
        <ele>1917.0063476562</ele>
        <time>2012-09-15T08:44:27Z</time>
      </trkpt>
      <trkpt lat="44.37022" lon="6.54161">
        <ele>1917.4868164062</ele>
        <time>2012-09-15T08:44:32Z</time>
      </trkpt>
      <trkpt lat="44.3702" lon="6.54156">
        <ele>1917.4868164062</ele>
        <time>2012-09-15T08:44:34Z</time>
      </trkpt>
      <trkpt lat="44.37016" lon="6.54133">
        <ele>1912.6801757812</ele>
        <time>2012-09-15T08:44:41Z</time>
      </trkpt>
      <trkpt lat="44.37015" lon="6.54133">
        <ele>1912.6801757812</ele>
        <time>2012-09-15T08:44:48Z</time>
      </trkpt>
      <trkpt lat="44.37012" lon="6.54124">
        <ele>1913.1608886719</ele>
        <time>2012-09-15T08:44:54Z</time>
      </trkpt>
      <trkpt lat="44.37011" lon="6.54122">
        <ele>1914.6027832031</ele>
        <time>2012-09-15T08:45:01Z</time>
      </trkpt>
      <trkpt lat="44.37011" lon="6.54119">
        <ele>1916.044921875</ele>
        <time>2012-09-15T08:45:08Z</time>
      </trkpt>
      <trkpt lat="44.37007" lon="6.5412">
        <ele>1918.9289550781</ele>
        <time>2012-09-15T08:45:13Z</time>
      </trkpt>
      <trkpt lat="44.37003" lon="6.54126">
        <ele>1920.3708496094</ele>
        <time>2012-09-15T08:45:18Z</time>
      </trkpt>
      <trkpt lat="44.36999" lon="6.5413">
        <ele>1921.33203125</ele>
        <time>2012-09-15T08:45:22Z</time>
      </trkpt>
      <trkpt lat="44.36996" lon="6.54132">
        <ele>1921.33203125</ele>
        <time>2012-09-15T08:45:30Z</time>
      </trkpt>
      <trkpt lat="44.36996" lon="6.54135">
        <ele>1921.8127441406</ele>
        <time>2012-09-15T08:46:03Z</time>
      </trkpt>
      <trkpt lat="44.36994" lon="6.54135">
        <ele>1920.3708496094</ele>
        <time>2012-09-15T08:46:40Z</time>
      </trkpt>
      <trkpt lat="44.36994" lon="6.54136">
        <ele>1920.8515625</ele>
        <time>2012-09-15T08:46:54Z</time>
      </trkpt>
      <trkpt lat="44.36995" lon="6.54136">
        <ele>1918.9289550781</ele>
        <time>2012-09-15T08:47:04Z</time>
      </trkpt>
      <trkpt lat="44.36998" lon="6.54135">
        <ele>1918.4482421875</ele>
        <time>2012-09-15T08:47:36Z</time>
      </trkpt>
      <trkpt lat="44.36997" lon="6.54137">
        <ele>1920.8515625</ele>
        <time>2012-09-15T08:47:56Z</time>
      </trkpt>
      <trkpt lat="44.36991" lon="6.54138">
        <ele>1924.6967773438</ele>
        <time>2012-09-15T08:48:03Z</time>
      </trkpt>
      <trkpt lat="44.36988" lon="6.54136">
        <ele>1925.1772460938</ele>
        <time>2012-09-15T08:48:09Z</time>
      </trkpt>
      <trkpt lat="44.36986" lon="6.54135">
        <ele>1925.6579589844</ele>
        <time>2012-09-15T08:48:11Z</time>
      </trkpt>
      <trkpt lat="44.36977" lon="6.54123">
        <ele>1922.2934570312</ele>
        <time>2012-09-15T08:48:18Z</time>
      </trkpt>
      <trkpt lat="44.36969" lon="6.54125">
        <ele>1923.2548828125</ele>
        <time>2012-09-15T08:48:23Z</time>
      </trkpt>
      <trkpt lat="44.36956" lon="6.54128">
        <ele>1927.5805664062</ele>
        <time>2012-09-15T08:48:31Z</time>
      </trkpt>
      <trkpt lat="44.36949" lon="6.54126">
        <ele>1929.9838867188</ele>
        <time>2012-09-15T08:48:38Z</time>
      </trkpt>
      <trkpt lat="44.36945" lon="6.54124">
        <ele>1930.9453125</ele>
        <time>2012-09-15T08:48:45Z</time>
      </trkpt>
      <trkpt lat="44.36943" lon="6.54122">
        <ele>1930.4645996094</ele>
        <time>2012-09-15T08:48:51Z</time>
      </trkpt>
      <trkpt lat="44.36939" lon="6.54117">
        <ele>1929.9838867188</ele>
        <time>2012-09-15T08:48:56Z</time>
      </trkpt>
      <trkpt lat="44.36929" lon="6.54108">
        <ele>1929.5031738281</ele>
        <time>2012-09-15T08:49:04Z</time>
      </trkpt>
      <trkpt lat="44.36921" lon="6.54101">
        <ele>1929.0224609375</ele>
        <time>2012-09-15T08:49:11Z</time>
      </trkpt>
      <trkpt lat="44.3692" lon="6.541">
        <ele>1929.0224609375</ele>
        <time>2012-09-15T08:49:15Z</time>
      </trkpt>
      <trkpt lat="44.36917" lon="6.54096">
        <ele>1929.0224609375</ele>
        <time>2012-09-15T08:49:21Z</time>
      </trkpt>
      <trkpt lat="44.36913" lon="6.54089">
        <ele>1930.4645996094</ele>
        <time>2012-09-15T08:49:29Z</time>
      </trkpt>
      <trkpt lat="44.36912" lon="6.54088">
        <ele>1928.5419921875</ele>
        <time>2012-09-15T08:49:38Z</time>
      </trkpt>
      <trkpt lat="44.36911" lon="6.54088">
        <ele>1929.0224609375</ele>
        <time>2012-09-15T08:49:42Z</time>
      </trkpt>
      <trkpt lat="44.36905" lon="6.5409">
        <ele>1928.5419921875</ele>
        <time>2012-09-15T08:49:48Z</time>
      </trkpt>
      <trkpt lat="44.369" lon="6.54093">
        <ele>1928.0612792969</ele>
        <time>2012-09-15T08:49:52Z</time>
      </trkpt>
      <trkpt lat="44.36893" lon="6.54091">
        <ele>1929.9838867188</ele>
        <time>2012-09-15T08:50:00Z</time>
      </trkpt>
      <trkpt lat="44.36892" lon="6.54083">
        <ele>1932.8679199219</ele>
        <time>2012-09-15T08:50:08Z</time>
      </trkpt>
      <trkpt lat="44.36896" lon="6.54075">
        <ele>1933.8293457031</ele>
        <time>2012-09-15T08:50:15Z</time>
      </trkpt>
      <trkpt lat="44.36897" lon="6.54074">
        <ele>1934.3100585938</ele>
        <time>2012-09-15T08:50:16Z</time>
      </trkpt>
      <trkpt lat="44.369" lon="6.54069">
        <ele>1935.751953125</ele>
        <time>2012-09-15T08:50:24Z</time>
      </trkpt>
      <trkpt lat="44.36898" lon="6.54064">
        <ele>1936.7131347656</ele>
        <time>2012-09-15T08:50:31Z</time>
      </trkpt>
      <trkpt lat="44.36892" lon="6.54066">
        <ele>1937.1938476562</ele>
        <time>2012-09-15T08:50:38Z</time>
      </trkpt>
      <trkpt lat="44.36888" lon="6.54068">
        <ele>1937.6745605469</ele>
        <time>2012-09-15T08:50:42Z</time>
      </trkpt>
      <trkpt lat="44.36881" lon="6.54071">
        <ele>1937.6745605469</ele>
        <time>2012-09-15T08:50:51Z</time>
      </trkpt>
      <trkpt lat="44.36877" lon="6.54075">
        <ele>1939.1164550781</ele>
        <time>2012-09-15T08:50:59Z</time>
      </trkpt>
      <trkpt lat="44.36874" lon="6.54077">
        <ele>1940.5583496094</ele>
        <time>2012-09-15T08:51:05Z</time>
      </trkpt>
      <trkpt lat="44.36872" lon="6.54076">
        <ele>1942.0004882812</ele>
        <time>2012-09-15T08:51:11Z</time>
      </trkpt>
      <trkpt lat="44.36871" lon="6.54074">
        <ele>1942.4812011719</ele>
        <time>2012-09-15T08:51:12Z</time>
      </trkpt>
      <trkpt lat="44.36867" lon="6.54066">
        <ele>1942.9616699219</ele>
        <time>2012-09-15T08:51:16Z</time>
      </trkpt>
      <trkpt lat="44.36857" lon="6.54047">
        <ele>1942.9616699219</ele>
        <time>2012-09-15T08:51:23Z</time>
      </trkpt>
      <trkpt lat="44.36852" lon="6.54037">
        <ele>1942.9616699219</ele>
        <time>2012-09-15T08:51:28Z</time>
      </trkpt>
      <trkpt lat="44.36845" lon="6.54037">
        <ele>1943.9230957031</ele>
        <time>2012-09-15T08:51:35Z</time>
      </trkpt>
      <trkpt lat="44.36843" lon="6.54039">
        <ele>1943.4423828125</ele>
        <time>2012-09-15T08:51:40Z</time>
      </trkpt>
      <trkpt lat="44.36842" lon="6.54041">
        <ele>1942.9616699219</ele>
        <time>2012-09-15T08:51:41Z</time>
      </trkpt>
      <trkpt lat="44.36834" lon="6.54047">
        <ele>1944.8842773438</ele>
        <time>2012-09-15T08:51:47Z</time>
      </trkpt>
      <trkpt lat="44.3683" lon="6.54049">
        <ele>1945.845703125</ele>
        <time>2012-09-15T08:51:49Z</time>
      </trkpt>
      <trkpt lat="44.36825" lon="6.54051">
        <ele>1946.3264160156</ele>
        <time>2012-09-15T08:51:52Z</time>
      </trkpt>
      <trkpt lat="44.36814" lon="6.5404">
        <ele>1946.3264160156</ele>
        <time>2012-09-15T08:51:59Z</time>
      </trkpt>
      <trkpt lat="44.36799" lon="6.54024">
        <ele>1946.8068847656</ele>
        <time>2012-09-15T08:52:08Z</time>
      </trkpt>
      <trkpt lat="44.36794" lon="6.54017">
        <ele>1948.2490234375</ele>
        <time>2012-09-15T08:52:14Z</time>
      </trkpt>
      <trkpt lat="44.36794" lon="6.54016">
        <ele>1946.8068847656</ele>
        <time>2012-09-15T08:52:23Z</time>
      </trkpt>
      <trkpt lat="44.3679" lon="6.54013">
        <ele>1946.3264160156</ele>
        <time>2012-09-15T08:52:29Z</time>
      </trkpt>
      <trkpt lat="44.36786" lon="6.54018">
        <ele>1946.8068847656</ele>
        <time>2012-09-15T08:52:35Z</time>
      </trkpt>
      <trkpt lat="44.36781" lon="6.54019">
        <ele>1946.8068847656</ele>
        <time>2012-09-15T08:52:40Z</time>
      </trkpt>
      <trkpt lat="44.36777" lon="6.54024">
        <ele>1947.7683105469</ele>
        <time>2012-09-15T08:52:45Z</time>
      </trkpt>
      <trkpt lat="44.36778" lon="6.5403">
        <ele>1952.0942382812</ele>
        <time>2012-09-15T08:52:51Z</time>
      </trkpt>
      <trkpt lat="44.36777" lon="6.54035">
        <ele>1952.0942382812</ele>
        <time>2012-09-15T08:52:57Z</time>
      </trkpt>
      <trkpt lat="44.36774" lon="6.54045">
        <ele>1952.5749511719</ele>
        <time>2012-09-15T08:53:07Z</time>
      </trkpt>
      <trkpt lat="44.36772" lon="6.54055">
        <ele>1952.5749511719</ele>
        <time>2012-09-15T08:53:15Z</time>
      </trkpt>
      <trkpt lat="44.36772" lon="6.54059">
        <ele>1952.5749511719</ele>
        <time>2012-09-15T08:53:17Z</time>
      </trkpt>
      <trkpt lat="44.3677" lon="6.54069">
        <ele>1953.5363769531</ele>
        <time>2012-09-15T08:53:26Z</time>
      </trkpt>
      <trkpt lat="44.36768" lon="6.54076">
        <ele>1953.0556640625</ele>
        <time>2012-09-15T08:53:34Z</time>
      </trkpt>
      <trkpt lat="44.36764" lon="6.54084">
        <ele>1954.0170898438</ele>
        <time>2012-09-15T08:53:43Z</time>
      </trkpt>
      <trkpt lat="44.36763" lon="6.54086">
        <ele>1954.0170898438</ele>
        <time>2012-09-15T08:53:44Z</time>
      </trkpt>
      <trkpt lat="44.36759" lon="6.5409">
        <ele>1953.5363769531</ele>
        <time>2012-09-15T08:53:51Z</time>
      </trkpt>
      <trkpt lat="44.36746" lon="6.541">
        <ele>1953.0556640625</ele>
        <time>2012-09-15T08:53:58Z</time>
      </trkpt>
      <trkpt lat="44.36734" lon="6.54111">
        <ele>1954.4975585938</ele>
        <time>2012-09-15T08:54:04Z</time>
      </trkpt>
      <trkpt lat="44.36729" lon="6.54117">
        <ele>1954.4975585938</ele>
        <time>2012-09-15T08:54:10Z</time>
      </trkpt>
      <trkpt lat="44.36721" lon="6.54126">
        <ele>1954.0170898438</ele>
        <time>2012-09-15T08:54:15Z</time>
      </trkpt>
      <trkpt lat="44.36709" lon="6.5413">
        <ele>1953.5363769531</ele>
        <time>2012-09-15T08:54:19Z</time>
      </trkpt>
      <trkpt lat="44.36699" lon="6.54135">
        <ele>1952.5749511719</ele>
        <time>2012-09-15T08:54:24Z</time>
      </trkpt>
      <trkpt lat="44.36695" lon="6.54141">
        <ele>1950.65234375</ele>
        <time>2012-09-15T08:54:27Z</time>
      </trkpt>
      <trkpt lat="44.367" lon="6.54149">
        <ele>1948.7297363281</ele>
        <time>2012-09-15T08:54:31Z</time>
      </trkpt>
      <trkpt lat="44.36702" lon="6.54153">
        <ele>1947.7683105469</ele>
        <time>2012-09-15T08:54:34Z</time>
      </trkpt>
      <trkpt lat="44.36703" lon="6.54162">
        <ele>1949.2104492188</ele>
        <time>2012-09-15T08:54:40Z</time>
      </trkpt>
      <trkpt lat="44.367" lon="6.54167">
        <ele>1949.2104492188</ele>
        <time>2012-09-15T08:54:47Z</time>
      </trkpt>
      <trkpt lat="44.36699" lon="6.5417">
        <ele>1950.171875</ele>
        <time>2012-09-15T08:54:54Z</time>
      </trkpt>
      <trkpt lat="44.367" lon="6.54176">
        <ele>1949.6911621094</ele>
        <time>2012-09-15T08:55:00Z</time>
      </trkpt>
      <trkpt lat="44.36702" lon="6.54184">
        <ele>1949.6911621094</ele>
        <time>2012-09-15T08:55:06Z</time>
      </trkpt>
      <trkpt lat="44.36701" lon="6.54187">
        <ele>1948.2490234375</ele>
        <time>2012-09-15T08:55:13Z</time>
      </trkpt>
      <trkpt lat="44.367" lon="6.54189">
        <ele>1949.2104492188</ele>
        <time>2012-09-15T08:55:14Z</time>
      </trkpt>
      <trkpt lat="44.3669" lon="6.54198">
        <ele>1953.5363769531</ele>
        <time>2012-09-15T08:55:22Z</time>
      </trkpt>
      <trkpt lat="44.36689" lon="6.54198">
        <ele>1953.5363769531</ele>
        <time>2012-09-15T08:55:23Z</time>
      </trkpt>
      <trkpt lat="44.36683" lon="6.54211">
        <ele>1959.3041992188</ele>
        <time>2012-09-15T08:55:32Z</time>
      </trkpt>
      <trkpt lat="44.36678" lon="6.54219">
        <ele>1960.74609375</ele>
        <time>2012-09-15T08:55:39Z</time>
      </trkpt>
      <trkpt lat="44.36673" lon="6.54233">
        <ele>1963.1494140625</ele>
        <time>2012-09-15T08:55:47Z</time>
      </trkpt>
      <trkpt lat="44.36664" lon="6.54244">
        <ele>1965.5529785156</ele>
        <time>2012-09-15T08:55:54Z</time>
      </trkpt>
      <trkpt lat="44.36655" lon="6.54252">
        <ele>1966.0334472656</ele>
        <time>2012-09-15T08:56:02Z</time>
      </trkpt>
      <trkpt lat="44.36651" lon="6.54255">
        <ele>1970.8400878906</ele>
        <time>2012-09-15T08:56:11Z</time>
      </trkpt>
      <trkpt lat="44.36647" lon="6.5426">
        <ele>1970.8400878906</ele>
        <time>2012-09-15T08:56:19Z</time>
      </trkpt>
      <trkpt lat="44.36642" lon="6.54266">
        <ele>1970.8400878906</ele>
        <time>2012-09-15T08:56:26Z</time>
      </trkpt>
      <trkpt lat="44.36641" lon="6.54266">
        <ele>1970.359375</ele>
        <time>2012-09-15T08:56:27Z</time>
      </trkpt>
      <trkpt lat="44.36639" lon="6.54269">
        <ele>1972.7626953125</ele>
        <time>2012-09-15T08:56:34Z</time>
      </trkpt>
      <trkpt lat="44.36636" lon="6.54274">
        <ele>1975.1657714844</ele>
        <time>2012-09-15T08:56:39Z</time>
      </trkpt>
      <trkpt lat="44.36633" lon="6.54279">
        <ele>1976.1271972656</ele>
        <time>2012-09-15T08:56:46Z</time>
      </trkpt>
      <trkpt lat="44.36631" lon="6.54282">
        <ele>1977.0886230469</ele>
        <time>2012-09-15T08:56:52Z</time>
      </trkpt>
      <trkpt lat="44.36629" lon="6.54283">
        <ele>1978.5305175781</ele>
        <time>2012-09-15T08:56:54Z</time>
      </trkpt>
      <trkpt lat="44.36623" lon="6.54291">
        <ele>1979.0109863281</ele>
        <time>2012-09-15T08:57:02Z</time>
      </trkpt>
      <trkpt lat="44.3662" lon="6.54295">
        <ele>1980.9340820312</ele>
        <time>2012-09-15T08:57:08Z</time>
      </trkpt>
      <trkpt lat="44.36613" lon="6.54303">
        <ele>1979.4916992188</ele>
        <time>2012-09-15T08:57:16Z</time>
      </trkpt>
      <trkpt lat="44.36611" lon="6.54306">
        <ele>1981.4145507812</ele>
        <time>2012-09-15T08:57:21Z</time>
      </trkpt>
      <trkpt lat="44.36609" lon="6.54313">
        <ele>1982.3759765625</ele>
        <time>2012-09-15T08:57:29Z</time>
      </trkpt>
      <trkpt lat="44.36605" lon="6.54318">
        <ele>1982.8564453125</ele>
        <time>2012-09-15T08:57:36Z</time>
      </trkpt>
      <trkpt lat="44.36601" lon="6.54325">
        <ele>1991.5083007812</ele>
        <time>2012-09-15T08:57:43Z</time>
      </trkpt>
      <trkpt lat="44.36595" lon="6.54328">
        <ele>1996.7956542969</ele>
        <time>2012-09-15T08:57:50Z</time>
      </trkpt>
      <trkpt lat="44.36589" lon="6.5433">
        <ele>1999.6796875</ele>
        <time>2012-09-15T08:57:57Z</time>
      </trkpt>
      <trkpt lat="44.36586" lon="6.54335">
        <ele>2003.0441894531</ele>
        <time>2012-09-15T08:58:04Z</time>
      </trkpt>
      <trkpt lat="44.36583" lon="6.5434">
        <ele>2004.966796875</ele>
        <time>2012-09-15T08:58:10Z</time>
      </trkpt>
      <trkpt lat="44.36583" lon="6.54352">
        <ele>2008.8120117188</ele>
        <time>2012-09-15T08:58:18Z</time>
      </trkpt>
      <trkpt lat="44.36584" lon="6.54356">
        <ele>2004.966796875</ele>
        <time>2012-09-15T08:58:26Z</time>
      </trkpt>
      <trkpt lat="44.36583" lon="6.54361">
        <ele>2004.4860839844</ele>
        <time>2012-09-15T08:58:32Z</time>
      </trkpt>
      <trkpt lat="44.36583" lon="6.54366">
        <ele>2006.4086914062</ele>
        <time>2012-09-15T08:58:39Z</time>
      </trkpt>
      <trkpt lat="44.3658" lon="6.54372">
        <ele>2006.8894042969</ele>
        <time>2012-09-15T08:58:46Z</time>
      </trkpt>
      <trkpt lat="44.36579" lon="6.5438">
        <ele>2010.7346191406</ele>
        <time>2012-09-15T08:58:54Z</time>
      </trkpt>
      <trkpt lat="44.36577" lon="6.54386">
        <ele>2014.0993652344</ele>
        <time>2012-09-15T08:59:01Z</time>
      </trkpt>
      <trkpt lat="44.36574" lon="6.54393">
        <ele>2017.9445800781</ele>
        <time>2012-09-15T08:59:09Z</time>
      </trkpt>
      <trkpt lat="44.36573" lon="6.54396">
        <ele>2021.3090820312</ele>
        <time>2012-09-15T08:59:17Z</time>
      </trkpt>
      <trkpt lat="44.36572" lon="6.54397">
        <ele>2023.7124023438</ele>
        <time>2012-09-15T08:59:20Z</time>
      </trkpt>
      <trkpt lat="44.36568" lon="6.54406">
        <ele>2022.2705078125</ele>
        <time>2012-09-15T08:59:26Z</time>
      </trkpt>
      <trkpt lat="44.36565" lon="6.54413">
        <ele>2022.7512207031</ele>
        <time>2012-09-15T08:59:32Z</time>
      </trkpt>
      <trkpt lat="44.36561" lon="6.54422">
        <ele>2022.7512207031</ele>
        <time>2012-09-15T08:59:40Z</time>
      </trkpt>
      <trkpt lat="44.36555" lon="6.54433">
        <ele>2024.1931152344</ele>
        <time>2012-09-15T08:59:49Z</time>
      </trkpt>
      <trkpt lat="44.36553" lon="6.54435">
        <ele>2024.1931152344</ele>
        <time>2012-09-15T08:59:51Z</time>
      </trkpt>
      <trkpt lat="44.36547" lon="6.54439">
        <ele>2022.7512207031</ele>
        <time>2012-09-15T08:59:57Z</time>
      </trkpt>
      <trkpt lat="44.36542" lon="6.54441">
        <ele>2022.7512207031</ele>
        <time>2012-09-15T09:00:01Z</time>
      </trkpt>
      <trkpt lat="44.36536" lon="6.54444">
        <ele>2024.1931152344</ele>
        <time>2012-09-15T09:00:08Z</time>
      </trkpt>
      <trkpt lat="44.36531" lon="6.5445">
        <ele>2023.7124023438</ele>
        <time>2012-09-15T09:00:16Z</time>
      </trkpt>
      <trkpt lat="44.36526" lon="6.54454">
        <ele>2021.7897949219</ele>
        <time>2012-09-15T09:00:21Z</time>
      </trkpt>
      <trkpt lat="44.36521" lon="6.54454">
        <ele>2022.2705078125</ele>
        <time>2012-09-15T09:00:28Z</time>
      </trkpt>
      <trkpt lat="44.36522" lon="6.54457">
        <ele>2028.5192871094</ele>
        <time>2012-09-15T09:00:41Z</time>
      </trkpt>
      <trkpt lat="44.36522" lon="6.54449">
        <ele>2029.48046875</ele>
        <time>2012-09-15T09:00:47Z</time>
      </trkpt>
      <trkpt lat="44.36525" lon="6.54442">
        <ele>2031.4030761719</ele>
        <time>2012-09-15T09:00:53Z</time>
      </trkpt>
      <trkpt lat="44.36525" lon="6.54435">
        <ele>2032.8449707031</ele>
        <time>2012-09-15T09:00:59Z</time>
      </trkpt>
      <trkpt lat="44.36524" lon="6.54432">
        <ele>2030.4418945312</ele>
        <time>2012-09-15T09:01:05Z</time>
      </trkpt>
      <trkpt lat="44.3652" lon="6.54434">
        <ele>2030.9226074219</ele>
        <time>2012-09-15T09:01:09Z</time>
      </trkpt>
      <trkpt lat="44.3651" lon="6.5444">
        <ele>2030.9226074219</ele>
        <time>2012-09-15T09:01:16Z</time>
      </trkpt>
      <trkpt lat="44.36503" lon="6.54446">
        <ele>2028.9997558594</ele>
        <time>2012-09-15T09:01:22Z</time>
      </trkpt>
      <trkpt lat="44.36497" lon="6.54455">
        <ele>2028.9997558594</ele>
        <time>2012-09-15T09:01:29Z</time>
      </trkpt>
      <trkpt lat="44.36491" lon="6.54468">
        <ele>2024.673828125</ele>
        <time>2012-09-15T09:01:37Z</time>
      </trkpt>
      <trkpt lat="44.36488" lon="6.54477">
        <ele>2028.0385742188</ele>
        <time>2012-09-15T09:01:42Z</time>
      </trkpt>
      <trkpt lat="44.36477" lon="6.54494">
        <ele>2027.5576171875</ele>
        <time>2012-09-15T09:01:49Z</time>
      </trkpt>
      <trkpt lat="44.36468" lon="6.54502">
        <ele>2026.1157226562</ele>
        <time>2012-09-15T09:01:55Z</time>
      </trkpt>
      <trkpt lat="44.36457" lon="6.54511">
        <ele>2028.9997558594</ele>
        <time>2012-09-15T09:02:01Z</time>
      </trkpt>
      <trkpt lat="44.36445" lon="6.54521">
        <ele>2028.5192871094</ele>
        <time>2012-09-15T09:02:08Z</time>
      </trkpt>
      <trkpt lat="44.36433" lon="6.54531">
        <ele>2025.6350097656</ele>
        <time>2012-09-15T09:02:14Z</time>
      </trkpt>
      <trkpt lat="44.36432" lon="6.54532">
        <ele>2025.6350097656</ele>
        <time>2012-09-15T09:02:15Z</time>
      </trkpt>
      <trkpt lat="44.36423" lon="6.54542">
        <ele>2026.1157226562</ele>
        <time>2012-09-15T09:02:22Z</time>
      </trkpt>
      <trkpt lat="44.36412" lon="6.54543">
        <ele>2026.1157226562</ele>
        <time>2012-09-15T09:02:28Z</time>
      </trkpt>
      <trkpt lat="44.36405" lon="6.54548">
        <ele>2026.1157226562</ele>
        <time>2012-09-15T09:02:33Z</time>
      </trkpt>
      <trkpt lat="44.36395" lon="6.54557">
        <ele>2026.1157226562</ele>
        <time>2012-09-15T09:02:41Z</time>
      </trkpt>
      <trkpt lat="44.36385" lon="6.54568">
        <ele>2028.0385742188</ele>
        <time>2012-09-15T09:02:49Z</time>
      </trkpt>
      <trkpt lat="44.36375" lon="6.54576">
        <ele>2029.48046875</ele>
        <time>2012-09-15T09:02:56Z</time>
      </trkpt>
      <trkpt lat="44.36368" lon="6.54585">
        <ele>2031.4030761719</ele>
        <time>2012-09-15T09:03:02Z</time>
      </trkpt>
      <trkpt lat="44.36357" lon="6.54596">
        <ele>2033.3256835938</ele>
        <time>2012-09-15T09:03:10Z</time>
      </trkpt>
      <trkpt lat="44.36353" lon="6.54598">
        <ele>2034.287109375</ele>
        <time>2012-09-15T09:03:13Z</time>
      </trkpt>
      <trkpt lat="44.36351" lon="6.54602">
        <ele>2035.7290039062</ele>
        <time>2012-09-15T09:03:20Z</time>
      </trkpt>
      <trkpt lat="44.36351" lon="6.54607">
        <ele>2037.6516113281</ele>
        <time>2012-09-15T09:03:28Z</time>
      </trkpt>
      <trkpt lat="44.36353" lon="6.54608">
        <ele>2043.4194335938</ele>
        <time>2012-09-15T09:03:38Z</time>
      </trkpt>
      <trkpt lat="44.36352" lon="6.54608">
        <ele>2042.9387207031</ele>
        <time>2012-09-15T09:03:39Z</time>
      </trkpt>
      <trkpt lat="44.36353" lon="6.54608">
        <ele>2046.7841796875</ele>
        <time>2012-09-15T09:03:55Z</time>
      </trkpt>
      <trkpt lat="44.36353" lon="6.54606">
        <ele>2047.7456054688</ele>
        <time>2012-09-15T09:04:09Z</time>
      </trkpt>
      <trkpt lat="44.36355" lon="6.54599">
        <ele>2054.474609375</ele>
        <time>2012-09-15T09:04:20Z</time>
      </trkpt>
      <trkpt lat="44.36356" lon="6.54597">
        <ele>2056.8779296875</ele>
        <time>2012-09-15T09:04:31Z</time>
      </trkpt>
      <trkpt lat="44.36355" lon="6.54597">
        <ele>2053.994140625</ele>
        <time>2012-09-15T09:04:41Z</time>
      </trkpt>
      <trkpt lat="44.36352" lon="6.54605">
        <ele>2043.9001464844</ele>
        <time>2012-09-15T09:05:11Z</time>
      </trkpt>
      <trkpt lat="44.36349" lon="6.54612">
        <ele>2041.9775390625</ele>
        <time>2012-09-15T09:05:20Z</time>
      </trkpt>
      <trkpt lat="44.36347" lon="6.54617">
        <ele>2039.57421875</ele>
        <time>2012-09-15T09:05:25Z</time>
      </trkpt>
      <trkpt lat="44.36341" lon="6.54631">
        <ele>2037.1708984375</ele>
        <time>2012-09-15T09:05:33Z</time>
      </trkpt>
      <trkpt lat="44.36335" lon="6.54638">
        <ele>2037.6516113281</ele>
        <time>2012-09-15T09:05:38Z</time>
      </trkpt>
      <trkpt lat="44.36327" lon="6.54652">
        <ele>2041.0161132812</ele>
        <time>2012-09-15T09:05:46Z</time>
      </trkpt>
      <trkpt lat="44.36322" lon="6.54663">
        <ele>2045.3422851562</ele>
        <time>2012-09-15T09:05:52Z</time>
      </trkpt>
      <trkpt lat="44.36309" lon="6.54673">
        <ele>2047.2648925781</ele>
        <time>2012-09-15T09:06:00Z</time>
      </trkpt>
      <trkpt lat="44.36301" lon="6.54683">
        <ele>2048.2260742188</ele>
        <time>2012-09-15T09:06:07Z</time>
      </trkpt>
      <trkpt lat="44.36296" lon="6.5469">
        <ele>2049.1875</ele>
        <time>2012-09-15T09:06:12Z</time>
      </trkpt>
      <trkpt lat="44.3629" lon="6.54702">
        <ele>2049.1875</ele>
        <time>2012-09-15T09:06:18Z</time>
      </trkpt>
      <trkpt lat="44.36285" lon="6.54712">
        <ele>2050.1489257812</ele>
        <time>2012-09-15T09:06:24Z</time>
      </trkpt>
      <trkpt lat="44.36283" lon="6.54716">
        <ele>2049.1875</ele>
        <time>2012-09-15T09:06:26Z</time>
      </trkpt>
      <trkpt lat="44.36276" lon="6.54728">
        <ele>2051.1101074219</ele>
        <time>2012-09-15T09:06:34Z</time>
      </trkpt>
      <trkpt lat="44.36272" lon="6.54733">
        <ele>2050.1489257812</ele>
        <time>2012-09-15T09:06:38Z</time>
      </trkpt>
      <trkpt lat="44.36266" lon="6.54751">
        <ele>2049.1875</ele>
        <time>2012-09-15T09:06:47Z</time>
      </trkpt>
      <trkpt lat="44.36266" lon="6.54752">
        <ele>2049.6682128906</ele>
        <time>2012-09-15T09:06:48Z</time>
      </trkpt>
      <trkpt lat="44.36262" lon="6.54763">
        <ele>2054.474609375</ele>
        <time>2012-09-15T09:06:52Z</time>
      </trkpt>
      <trkpt lat="44.36248" lon="6.54768">
        <ele>2058.3198242188</ele>
        <time>2012-09-15T09:07:00Z</time>
      </trkpt>
      <trkpt lat="44.3624" lon="6.54771">
        <ele>2059.28125</ele>
        <time>2012-09-15T09:07:06Z</time>
      </trkpt>
      <trkpt lat="44.36238" lon="6.54776">
        <ele>2061.6848144531</ele>
        <time>2012-09-15T09:07:11Z</time>
      </trkpt>
      <trkpt lat="44.36237" lon="6.54785">
        <ele>2062.6459960938</ele>
        <time>2012-09-15T09:07:18Z</time>
      </trkpt>
      <trkpt lat="44.36237" lon="6.54786">
        <ele>2065.0493164062</ele>
        <time>2012-09-15T09:07:26Z</time>
      </trkpt>
      <trkpt lat="44.36238" lon="6.54788">
        <ele>2067.4523925781</ele>
        <time>2012-09-15T09:07:34Z</time>
      </trkpt>
      <trkpt lat="44.36238" lon="6.54789">
        <ele>2077.0659179688</ele>
        <time>2012-09-15T09:07:42Z</time>
      </trkpt>
      <trkpt lat="44.36239" lon="6.54786">
        <ele>2084.2756347656</ele>
        <time>2012-09-15T09:07:53Z</time>
      </trkpt>
      <trkpt lat="44.3624" lon="6.54786">
        <ele>2086.6787109375</ele>
        <time>2012-09-15T09:08:02Z</time>
      </trkpt>
      <trkpt lat="44.36237" lon="6.54789">
        <ele>2072.2590332031</ele>
        <time>2012-09-15T09:08:12Z</time>
      </trkpt>
      <trkpt lat="44.36235" lon="6.54794">
        <ele>2060.2426757812</ele>
        <time>2012-09-15T09:08:23Z</time>
      </trkpt>
      <trkpt lat="44.36239" lon="6.54795">
        <ele>2057.3586425781</ele>
        <time>2012-09-15T09:08:27Z</time>
      </trkpt>
      <trkpt lat="44.36241" lon="6.54794">
        <ele>2057.3586425781</ele>
        <time>2012-09-15T09:08:34Z</time>
      </trkpt>
      <trkpt lat="44.36242" lon="6.5479">
        <ele>2061.6848144531</ele>
        <time>2012-09-15T09:08:44Z</time>
      </trkpt>
      <trkpt lat="44.36246" lon="6.54794">
        <ele>2062.6459960938</ele>
        <time>2012-09-15T09:08:55Z</time>
      </trkpt>
      <trkpt lat="44.36247" lon="6.54795">
        <ele>2058.8005371094</ele>
        <time>2012-09-15T09:09:19Z</time>
      </trkpt>
      <trkpt lat="44.3625" lon="6.54802">
        <ele>2061.2041015625</ele>
        <time>2012-09-15T09:09:25Z</time>
      </trkpt>
      <trkpt lat="44.3625" lon="6.54809">
        <ele>2063.6071777344</ele>
        <time>2012-09-15T09:09:29Z</time>
      </trkpt>
      <trkpt lat="44.36252" lon="6.54817">
        <ele>2066.4912109375</ele>
        <time>2012-09-15T09:09:33Z</time>
      </trkpt>
      <trkpt lat="44.36258" lon="6.54833">
        <ele>2069.8557128906</ele>
        <time>2012-09-15T09:09:40Z</time>
      </trkpt>
      <trkpt lat="44.3626" lon="6.5484">
        <ele>2070.3364257812</ele>
        <time>2012-09-15T09:09:43Z</time>
      </trkpt>
      <trkpt lat="44.36263" lon="6.54854">
        <ele>2068.4138183594</ele>
        <time>2012-09-15T09:09:49Z</time>
      </trkpt>
      <trkpt lat="44.36266" lon="6.54873">
        <ele>2064.087890625</ele>
        <time>2012-09-15T09:09:56Z</time>
      </trkpt>
      <trkpt lat="44.36267" lon="6.54879">
        <ele>2064.087890625</ele>
        <time>2012-09-15T09:09:58Z</time>
      </trkpt>
      <trkpt lat="44.36259" lon="6.54889">
        <ele>2063.1267089844</ele>
        <time>2012-09-15T09:10:05Z</time>
      </trkpt>
      <trkpt lat="44.36255" lon="6.54889">
        <ele>2063.1267089844</ele>
        <time>2012-09-15T09:10:07Z</time>
      </trkpt>
      <trkpt lat="44.36245" lon="6.54894">
        <ele>2066.0104980469</ele>
        <time>2012-09-15T09:10:14Z</time>
      </trkpt>
      <trkpt lat="44.36232" lon="6.54895">
        <ele>2066.0104980469</ele>
        <time>2012-09-15T09:10:21Z</time>
      </trkpt>
      <trkpt lat="44.36219" lon="6.54893">
        <ele>2065.0493164062</ele>
        <time>2012-09-15T09:10:28Z</time>
      </trkpt>
      <trkpt lat="44.362" lon="6.54892">
        <ele>2068.4138183594</ele>
        <time>2012-09-15T09:10:38Z</time>
      </trkpt>
      <trkpt lat="44.36186" lon="6.54886">
        <ele>2068.4138183594</ele>
        <time>2012-09-15T09:10:46Z</time>
      </trkpt>
      <trkpt lat="44.36177" lon="6.54884">
        <ele>2068.89453125</ele>
        <time>2012-09-15T09:10:53Z</time>
      </trkpt>
      <trkpt lat="44.36174" lon="6.54883">
        <ele>2069.3752441406</ele>
        <time>2012-09-15T09:10:59Z</time>
      </trkpt>
      <trkpt lat="44.3616" lon="6.5488">
        <ele>2070.3364257812</ele>
        <time>2012-09-15T09:11:06Z</time>
      </trkpt>
      <trkpt lat="44.36143" lon="6.54881">
        <ele>2074.6623535156</ele>
        <time>2012-09-15T09:11:14Z</time>
      </trkpt>
      <trkpt lat="44.36128" lon="6.54881">
        <ele>2077.5463867188</ele>
        <time>2012-09-15T09:11:22Z</time>
      </trkpt>
      <trkpt lat="44.36109" lon="6.54877">
        <ele>2080.4304199219</ele>
        <time>2012-09-15T09:11:32Z</time>
      </trkpt>
      <trkpt lat="44.36106" lon="6.54875">
        <ele>2078.98828125</ele>
        <time>2012-09-15T09:11:34Z</time>
      </trkpt>
      <trkpt lat="44.36101" lon="6.54868">
        <ele>2077.5463867188</ele>
        <time>2012-09-15T09:11:38Z</time>
      </trkpt>
      <trkpt lat="44.36092" lon="6.54871">
        <ele>2078.5078125</ele>
        <time>2012-09-15T09:11:43Z</time>
      </trkpt>
      <trkpt lat="44.36089" lon="6.54872">
        <ele>2078.98828125</ele>
        <time>2012-09-15T09:11:45Z</time>
      </trkpt>
      <trkpt lat="44.36076" lon="6.54878">
        <ele>2081.8723144531</ele>
        <time>2012-09-15T09:11:53Z</time>
      </trkpt>
      <trkpt lat="44.36062" lon="6.54886">
        <ele>2083.794921875</ele>
        <time>2012-09-15T09:12:02Z</time>
      </trkpt>
      <trkpt lat="44.3605" lon="6.54886">
        <ele>2081.8723144531</ele>
        <time>2012-09-15T09:12:09Z</time>
      </trkpt>
      <trkpt lat="44.36038" lon="6.54887">
        <ele>2081.3916015625</ele>
        <time>2012-09-15T09:12:16Z</time>
      </trkpt>
      <trkpt lat="44.36029" lon="6.54884">
        <ele>2081.3916015625</ele>
        <time>2012-09-15T09:12:22Z</time>
      </trkpt>
      <trkpt lat="44.3602" lon="6.54887">
        <ele>2083.794921875</ele>
        <time>2012-09-15T09:12:27Z</time>
      </trkpt>
      <trkpt lat="44.36017" lon="6.54888">
        <ele>2085.2368164062</ele>
        <time>2012-09-15T09:12:29Z</time>
      </trkpt>
      <trkpt lat="44.36007" lon="6.54883">
        <ele>2085.7175292969</ele>
        <time>2012-09-15T09:12:36Z</time>
      </trkpt>
      <trkpt lat="44.35993" lon="6.54881">
        <ele>2086.6787109375</ele>
        <time>2012-09-15T09:12:44Z</time>
      </trkpt>
      <trkpt lat="44.35992" lon="6.54882">
        <ele>2086.6787109375</ele>
        <time>2012-09-15T09:12:45Z</time>
      </trkpt>
      <trkpt lat="44.35976" lon="6.54891">
        <ele>2084.2756347656</ele>
        <time>2012-09-15T09:12:52Z</time>
      </trkpt>
      <trkpt lat="44.35965" lon="6.54899">
        <ele>2083.794921875</ele>
        <time>2012-09-15T09:12:56Z</time>
      </trkpt>
      <trkpt lat="44.35951" lon="6.54899">
        <ele>2082.3530273438</ele>
        <time>2012-09-15T09:13:01Z</time>
      </trkpt>
      <trkpt lat="44.35941" lon="6.54904">
        <ele>2080.4304199219</ele>
        <time>2012-09-15T09:13:06Z</time>
      </trkpt>
      <trkpt lat="44.35932" lon="6.54913">
        <ele>2080.9111328125</ele>
        <time>2012-09-15T09:13:11Z</time>
      </trkpt>
      <trkpt lat="44.3593" lon="6.54914">
        <ele>2080.9111328125</ele>
        <time>2012-09-15T09:13:16Z</time>
      </trkpt>
      <trkpt lat="44.35923" lon="6.54918">
        <ele>2073.7009277344</ele>
        <time>2012-09-15T09:13:46Z</time>
      </trkpt>
      <trkpt lat="44.35927" lon="6.54915">
        <ele>2065.0493164062</ele>
        <time>2012-09-15T09:14:00Z</time>
      </trkpt>
      <trkpt lat="44.35938" lon="6.54909">
        <ele>2077.5463867188</ele>
        <time>2012-09-15T09:14:49Z</time>
      </trkpt>
      <trkpt lat="44.35937" lon="6.54909">
        <ele>2073.7009277344</ele>
        <time>2012-09-15T09:15:00Z</time>
      </trkpt>
      <trkpt lat="44.35936" lon="6.5491">
        <ele>2073.7009277344</ele>
        <time>2012-09-15T09:15:17Z</time>
      </trkpt>
      <trkpt lat="44.35935" lon="6.54911">
        <ele>2074.6623535156</ele>
        <time>2012-09-15T09:15:27Z</time>
      </trkpt>
      <trkpt lat="44.35932" lon="6.5491">
        <ele>2089.08203125</ele>
        <time>2012-09-15T09:15:44Z</time>
      </trkpt>
      <trkpt lat="44.35933" lon="6.54913">
        <ele>2084.7563476562</ele>
        <time>2012-09-15T09:15:53Z</time>
      </trkpt>
      <trkpt lat="44.35933" lon="6.54913">
        <ele>2077.5463867188</ele>
        <time>2012-09-15T09:16:03Z</time>
      </trkpt>
      <trkpt lat="44.35929" lon="6.54914">
        <ele>2075.1428222656</ele>
        <time>2012-09-15T09:16:11Z</time>
      </trkpt>
      <trkpt lat="44.35916" lon="6.54915">
        <ele>2077.5463867188</ele>
        <time>2012-09-15T09:16:18Z</time>
      </trkpt>
      <trkpt lat="44.35909" lon="6.54911">
        <ele>2078.5078125</ele>
        <time>2012-09-15T09:16:24Z</time>
      </trkpt>
      <trkpt lat="44.35904" lon="6.54909">
        <ele>2076.5852050781</ele>
        <time>2012-09-15T09:16:29Z</time>
      </trkpt>
      <trkpt lat="44.35901" lon="6.54909">
        <ele>2076.5852050781</ele>
        <time>2012-09-15T09:16:35Z</time>
      </trkpt>
      <trkpt lat="44.35896" lon="6.54908">
        <ele>2079.9497070312</ele>
        <time>2012-09-15T09:16:41Z</time>
      </trkpt>
      <trkpt lat="44.35888" lon="6.54906">
        <ele>2088.1208496094</ele>
        <time>2012-09-15T09:16:50Z</time>
      </trkpt>
      <trkpt lat="44.35886" lon="6.54905">
        <ele>2091.0046386719</ele>
        <time>2012-09-15T09:16:56Z</time>
      </trkpt>
      <trkpt lat="44.35883" lon="6.54905">
        <ele>2094.3693847656</ele>
        <time>2012-09-15T09:17:04Z</time>
      </trkpt>
      <trkpt lat="44.35878" lon="6.549">
        <ele>2093.408203125</ele>
        <time>2012-09-15T09:17:11Z</time>
      </trkpt>
      <trkpt lat="44.35874" lon="6.54895">
        <ele>2091.0046386719</ele>
        <time>2012-09-15T09:17:17Z</time>
      </trkpt>
      <trkpt lat="44.35872" lon="6.54896">
        <ele>2091.4853515625</ele>
        <time>2012-09-15T09:17:20Z</time>
      </trkpt>
      <trkpt lat="44.35859" lon="6.54902">
        <ele>2098.6953125</ele>
        <time>2012-09-15T09:17:29Z</time>
      </trkpt>
      <trkpt lat="44.35849" lon="6.54905">
        <ele>2098.6953125</ele>
        <time>2012-09-15T09:17:37Z</time>
      </trkpt>
      <trkpt lat="44.35847" lon="6.54905">
        <ele>2098.2145996094</ele>
        <time>2012-09-15T09:17:38Z</time>
      </trkpt>
      <trkpt lat="44.35841" lon="6.54914">
        <ele>2098.6953125</ele>
        <time>2012-09-15T09:17:45Z</time>
      </trkpt>
      <trkpt lat="44.3584" lon="6.54917">
        <ele>2097.7341308594</ele>
        <time>2012-09-15T09:17:48Z</time>
      </trkpt>
      <trkpt lat="44.35834" lon="6.54928">
        <ele>2098.6953125</ele>
        <time>2012-09-15T09:17:56Z</time>
      </trkpt>
      <trkpt lat="44.35833" lon="6.54931">
        <ele>2099.6567382812</ele>
        <time>2012-09-15T09:17:57Z</time>
      </trkpt>
      <trkpt lat="44.35823" lon="6.54949">
        <ele>2104.4631347656</ele>
        <time>2012-09-15T09:18:06Z</time>
      </trkpt>
      <trkpt lat="44.35814" lon="6.5496">
        <ele>2105.9050292969</ele>
        <time>2012-09-15T09:18:13Z</time>
      </trkpt>
      <trkpt lat="44.35803" lon="6.54962">
        <ele>2104.9438476562</ele>
        <time>2012-09-15T09:18:19Z</time>
      </trkpt>
      <trkpt lat="44.3579" lon="6.54958">
        <ele>2103.0212402344</ele>
        <time>2012-09-15T09:18:27Z</time>
      </trkpt>
      <trkpt lat="44.35783" lon="6.54947">
        <ele>2101.5793457031</ele>
        <time>2012-09-15T09:18:33Z</time>
      </trkpt>
      <trkpt lat="44.35774" lon="6.54935">
        <ele>2099.6567382812</ele>
        <time>2012-09-15T09:18:40Z</time>
      </trkpt>
      <trkpt lat="44.3576" lon="6.54928">
        <ele>2103.501953125</ele>
        <time>2012-09-15T09:18:49Z</time>
      </trkpt>
      <trkpt lat="44.35748" lon="6.54933">
        <ele>2106.3857421875</ele>
        <time>2012-09-15T09:18:57Z</time>
      </trkpt>
      <trkpt lat="44.35742" lon="6.54938">
        <ele>2106.8664550781</ele>
        <time>2012-09-15T09:19:02Z</time>
      </trkpt>
      <trkpt lat="44.35733" lon="6.54949">
        <ele>2109.7504882812</ele>
        <time>2012-09-15T09:19:09Z</time>
      </trkpt>
      <trkpt lat="44.35725" lon="6.54958">
        <ele>2109.7504882812</ele>
        <time>2012-09-15T09:19:16Z</time>
      </trkpt>
      <trkpt lat="44.35715" lon="6.54967">
        <ele>2110.7119140625</ele>
        <time>2012-09-15T09:19:22Z</time>
      </trkpt>
      <trkpt lat="44.35707" lon="6.54978">
        <ele>2111.1926269531</ele>
        <time>2012-09-15T09:19:29Z</time>
      </trkpt>
      <trkpt lat="44.35697" lon="6.54984">
        <ele>2112.6345214844</ele>
        <time>2012-09-15T09:19:35Z</time>
      </trkpt>
      <trkpt lat="44.35687" lon="6.5498">
        <ele>2112.6345214844</ele>
        <time>2012-09-15T09:19:41Z</time>
      </trkpt>
      <trkpt lat="44.35674" lon="6.54975">
        <ele>2112.1538085938</ele>
        <time>2012-09-15T09:19:48Z</time>
      </trkpt>
      <trkpt lat="44.35661" lon="6.54974">
        <ele>2112.1538085938</ele>
        <time>2012-09-15T09:19:56Z</time>
      </trkpt>
      <trkpt lat="44.35647" lon="6.54975">
        <ele>2112.1538085938</ele>
        <time>2012-09-15T09:20:04Z</time>
      </trkpt>
      <trkpt lat="44.3564" lon="6.5498">
        <ele>2113.115234375</ele>
        <time>2012-09-15T09:20:09Z</time>
      </trkpt>
      <trkpt lat="44.35639" lon="6.54981">
        <ele>2113.595703125</ele>
        <time>2012-09-15T09:20:10Z</time>
      </trkpt>
      <trkpt lat="44.35635" lon="6.54986">
        <ele>2113.595703125</ele>
        <time>2012-09-15T09:20:14Z</time>
      </trkpt>
      <trkpt lat="44.35626" lon="6.54989">
        <ele>2115.9990234375</ele>
        <time>2012-09-15T09:20:20Z</time>
      </trkpt>
      <trkpt lat="44.35617" lon="6.54989">
        <ele>2116.4797363281</ele>
        <time>2012-09-15T09:20:27Z</time>
      </trkpt>
      <trkpt lat="44.35614" lon="6.5499">
        <ele>2115.5185546875</ele>
        <time>2012-09-15T09:20:29Z</time>
      </trkpt>
      <trkpt lat="44.35611" lon="6.54996">
        <ele>2115.0378417969</ele>
        <time>2012-09-15T09:20:33Z</time>
      </trkpt>
      <trkpt lat="44.35607" lon="6.54999">
        <ele>2114.0764160156</ele>
        <time>2012-09-15T09:20:42Z</time>
      </trkpt>
      <trkpt lat="44.35602" lon="6.55004">
        <ele>2111.1926269531</ele>
        <time>2012-09-15T09:20:57Z</time>
      </trkpt>
      <trkpt lat="44.35601" lon="6.55004">
        <ele>2110.2312011719</ele>
        <time>2012-09-15T09:21:09Z</time>
      </trkpt>
      <trkpt lat="44.356" lon="6.54999">
        <ele>2108.30859375</ele>
        <time>2012-09-15T09:21:21Z</time>
      </trkpt>
      <trkpt lat="44.35604" lon="6.55001">
        <ele>2104.4631347656</ele>
        <time>2012-09-15T09:21:59Z</time>
      </trkpt>
      <trkpt lat="44.35606" lon="6.54999">
        <ele>2104.4631347656</ele>
        <time>2012-09-15T09:22:12Z</time>
      </trkpt>
      <trkpt lat="44.35603" lon="6.55002">
        <ele>2105.4245605469</ele>
        <time>2012-09-15T09:22:18Z</time>
      </trkpt>
      <trkpt lat="44.356" lon="6.55009">
        <ele>2106.8664550781</ele>
        <time>2012-09-15T09:22:22Z</time>
      </trkpt>
      <trkpt lat="44.35597" lon="6.55031">
        <ele>2109.2700195312</ele>
        <time>2012-09-15T09:22:31Z</time>
      </trkpt>
      <trkpt lat="44.35592" lon="6.55047">
        <ele>2111.1926269531</ele>
        <time>2012-09-15T09:22:38Z</time>
      </trkpt>
      <trkpt lat="44.3559" lon="6.55052">
        <ele>2111.1926269531</ele>
        <time>2012-09-15T09:22:40Z</time>
      </trkpt>
      <trkpt lat="44.35586" lon="6.55053">
        <ele>2112.1538085938</ele>
        <time>2012-09-15T09:22:44Z</time>
      </trkpt>
      <trkpt lat="44.35577" lon="6.55046">
        <ele>2114.5571289062</ele>
        <time>2012-09-15T09:22:51Z</time>
      </trkpt>
      <trkpt lat="44.35567" lon="6.55038">
        <ele>2115.0378417969</ele>
        <time>2012-09-15T09:22:58Z</time>
      </trkpt>
      <trkpt lat="44.35559" lon="6.5503">
        <ele>2116.4797363281</ele>
        <time>2012-09-15T09:23:04Z</time>
      </trkpt>
      <trkpt lat="44.3555" lon="6.55026">
        <ele>2116.9604492188</ele>
        <time>2012-09-15T09:23:10Z</time>
      </trkpt>
      <trkpt lat="44.35537" lon="6.55022">
        <ele>2117.9216308594</ele>
        <time>2012-09-15T09:23:18Z</time>
      </trkpt>
      <trkpt lat="44.35526" lon="6.55023">
        <ele>2118.8830566406</ele>
        <time>2012-09-15T09:23:24Z</time>
      </trkpt>
      <trkpt lat="44.35524" lon="6.55023">
        <ele>2119.3637695312</ele>
        <time>2012-09-15T09:23:25Z</time>
      </trkpt>
      <trkpt lat="44.35518" lon="6.5502">
        <ele>2119.8442382812</ele>
        <time>2012-09-15T09:23:29Z</time>
      </trkpt>
      <trkpt lat="44.35509" lon="6.55024">
        <ele>2120.8056640625</ele>
        <time>2012-09-15T09:23:35Z</time>
      </trkpt>
      <trkpt lat="44.35496" lon="6.55028">
        <ele>2122.2475585938</ele>
        <time>2012-09-15T09:23:43Z</time>
      </trkpt>
      <trkpt lat="44.35486" lon="6.55036">
        <ele>2123.208984375</ele>
        <time>2012-09-15T09:23:50Z</time>
      </trkpt>
      <trkpt lat="44.35476" lon="6.55046">
        <ele>2124.6511230469</ele>
        <time>2012-09-15T09:23:58Z</time>
      </trkpt>
      <trkpt lat="44.35468" lon="6.55048">
        <ele>2125.6123046875</ele>
        <time>2012-09-15T09:24:04Z</time>
      </trkpt>
      <trkpt lat="44.35455" lon="6.55046">
        <ele>2127.5349121094</ele>
        <time>2012-09-15T09:24:12Z</time>
      </trkpt>
      <trkpt lat="44.35445" lon="6.55049">
        <ele>2129.9382324219</ele>
        <time>2012-09-15T09:24:19Z</time>
      </trkpt>
      <trkpt lat="44.35443" lon="6.5505">
        <ele>2129.4575195312</ele>
        <time>2012-09-15T09:24:20Z</time>
      </trkpt>
      <trkpt lat="44.35438" lon="6.55063">
        <ele>2129.9382324219</ele>
        <time>2012-09-15T09:24:28Z</time>
      </trkpt>
      <trkpt lat="44.3543" lon="6.55074">
        <ele>2130.8996582031</ele>
        <time>2012-09-15T09:24:35Z</time>
      </trkpt>
      <trkpt lat="44.35423" lon="6.55086">
        <ele>2131.8608398438</ele>
        <time>2012-09-15T09:24:42Z</time>
      </trkpt>
      <trkpt lat="44.35418" lon="6.55106">
        <ele>2132.3415527344</ele>
        <time>2012-09-15T09:24:52Z</time>
      </trkpt>
      <trkpt lat="44.35416" lon="6.55111">
        <ele>2132.3415527344</ele>
        <time>2012-09-15T09:24:54Z</time>
      </trkpt>
      <trkpt lat="44.35408" lon="6.55115">
        <ele>2133.7834472656</ele>
        <time>2012-09-15T09:25:01Z</time>
      </trkpt>
      <trkpt lat="44.35396" lon="6.55117">
        <ele>2135.2253417969</ele>
        <time>2012-09-15T09:25:09Z</time>
      </trkpt>
      <trkpt lat="44.35383" lon="6.55117">
        <ele>2134.7448730469</ele>
        <time>2012-09-15T09:25:17Z</time>
      </trkpt>
      <trkpt lat="44.35374" lon="6.55121">
        <ele>2134.7448730469</ele>
        <time>2012-09-15T09:25:21Z</time>
      </trkpt>
      <trkpt lat="44.35364" lon="6.55127">
        <ele>2136.1867675781</ele>
        <time>2012-09-15T09:25:27Z</time>
      </trkpt>
      <trkpt lat="44.35352" lon="6.55138">
        <ele>2137.1479492188</ele>
        <time>2012-09-15T09:25:34Z</time>
      </trkpt>
      <trkpt lat="44.35343" lon="6.55149">
        <ele>2136.6672363281</ele>
        <time>2012-09-15T09:25:38Z</time>
      </trkpt>
      <trkpt lat="44.35336" lon="6.55155">
        <ele>2137.1479492188</ele>
        <time>2012-09-15T09:25:41Z</time>
      </trkpt>
      <trkpt lat="44.35335" lon="6.55156">
        <ele>2137.6286621094</ele>
        <time>2012-09-15T09:25:42Z</time>
      </trkpt>
      <trkpt lat="44.3533" lon="6.55158">
        <ele>2137.6286621094</ele>
        <time>2012-09-15T09:25:49Z</time>
      </trkpt>
      <trkpt lat="44.35329" lon="6.55161">
        <ele>2139.0705566406</ele>
        <time>2012-09-15T09:25:55Z</time>
      </trkpt>
      <trkpt lat="44.35327" lon="6.55167">
        <ele>2140.9934082031</ele>
        <time>2012-09-15T09:26:00Z</time>
      </trkpt>
      <trkpt lat="44.35318" lon="6.55175">
        <ele>2142.916015625</ele>
        <time>2012-09-15T09:26:06Z</time>
      </trkpt>
      <trkpt lat="44.35304" lon="6.55181">
        <ele>2145.3193359375</ele>
        <time>2012-09-15T09:26:14Z</time>
      </trkpt>
      <trkpt lat="44.35293" lon="6.55187">
        <ele>2147.2419433594</ele>
        <time>2012-09-15T09:26:21Z</time>
      </trkpt>
      <trkpt lat="44.35283" lon="6.55192">
        <ele>2146.7612304688</ele>
        <time>2012-09-15T09:26:27Z</time>
      </trkpt>
      <trkpt lat="44.35273" lon="6.55196">
        <ele>2147.2419433594</ele>
        <time>2012-09-15T09:26:34Z</time>
      </trkpt>
      <trkpt lat="44.35263" lon="6.55193">
        <ele>2148.203125</ele>
        <time>2012-09-15T09:26:41Z</time>
      </trkpt>
      <trkpt lat="44.35255" lon="6.55181">
        <ele>2149.1645507812</ele>
        <time>2012-09-15T09:26:50Z</time>
      </trkpt>
      <trkpt lat="44.35252" lon="6.55173">
        <ele>2148.6838378906</ele>
        <time>2012-09-15T09:26:56Z</time>
      </trkpt>
      <trkpt lat="44.3525" lon="6.55172">
        <ele>2148.203125</ele>
        <time>2012-09-15T09:27:05Z</time>
      </trkpt>
      <trkpt lat="44.35249" lon="6.55169">
        <ele>2150.1259765625</ele>
        <time>2012-09-15T09:27:13Z</time>
      </trkpt>
      <trkpt lat="44.35248" lon="6.5517">
        <ele>2151.5678710938</ele>
        <time>2012-09-15T09:27:19Z</time>
      </trkpt>
      <trkpt lat="44.35245" lon="6.55169">
        <ele>2153.4904785156</ele>
        <time>2012-09-15T09:27:29Z</time>
      </trkpt>
      <trkpt lat="44.35238" lon="6.55165">
        <ele>2153.009765625</ele>
        <time>2012-09-15T09:27:37Z</time>
      </trkpt>
      <trkpt lat="44.35233" lon="6.55159">
        <ele>2151.5678710938</ele>
        <time>2012-09-15T09:27:45Z</time>
      </trkpt>
      <trkpt lat="44.3523" lon="6.55153">
        <ele>2149.6452636719</ele>
        <time>2012-09-15T09:27:50Z</time>
      </trkpt>
      <trkpt lat="44.3522" lon="6.55142">
        <ele>2148.203125</ele>
        <time>2012-09-15T09:27:58Z</time>
      </trkpt>
      <trkpt lat="44.35208" lon="6.55128">
        <ele>2150.6064453125</ele>
        <time>2012-09-15T09:28:09Z</time>
      </trkpt>
      <trkpt lat="44.35198" lon="6.55133">
        <ele>2153.009765625</ele>
        <time>2012-09-15T09:28:17Z</time>
      </trkpt>
      <trkpt lat="44.3519" lon="6.55133">
        <ele>2154.4516601562</ele>
        <time>2012-09-15T09:28:24Z</time>
      </trkpt>
      <trkpt lat="44.3518" lon="6.5513">
        <ele>2158.2971191406</ele>
        <time>2012-09-15T09:28:33Z</time>
      </trkpt>
      <trkpt lat="44.35175" lon="6.55132">
        <ele>2163.5842285156</ele>
        <time>2012-09-15T09:28:39Z</time>
      </trkpt>
      <trkpt lat="44.35166" lon="6.55126">
        <ele>2166.4682617188</ele>
        <time>2012-09-15T09:28:46Z</time>
      </trkpt>
      <trkpt lat="44.3516" lon="6.55118">
        <ele>2169.3522949219</ele>
        <time>2012-09-15T09:28:52Z</time>
      </trkpt>
      <trkpt lat="44.35157" lon="6.55115">
        <ele>2169.3522949219</ele>
        <time>2012-09-15T09:28:54Z</time>
      </trkpt>
      <trkpt lat="44.35146" lon="6.55105">
        <ele>2166.4682617188</ele>
        <time>2012-09-15T09:29:00Z</time>
      </trkpt>
      <trkpt lat="44.35141" lon="6.55105">
        <ele>2167.4294433594</ele>
        <time>2012-09-15T09:29:05Z</time>
      </trkpt>
      <trkpt lat="44.35138" lon="6.55102">
        <ele>2167.91015625</ele>
        <time>2012-09-15T09:29:08Z</time>
      </trkpt>
      <trkpt lat="44.35132" lon="6.55089">
        <ele>2163.5842285156</ele>
        <time>2012-09-15T09:29:14Z</time>
      </trkpt>
      <trkpt lat="44.35127" lon="6.55088">
        <ele>2166.9489746094</ele>
        <time>2012-09-15T09:29:20Z</time>
      </trkpt>
      <trkpt lat="44.35125" lon="6.55086">
        <ele>2172.7170410156</ele>
        <time>2012-09-15T09:29:26Z</time>
      </trkpt>
      <trkpt lat="44.35122" lon="6.55084">
        <ele>2175.6008300781</ele>
        <time>2012-09-15T09:29:32Z</time>
      </trkpt>
      <trkpt lat="44.35117" lon="6.55081">
        <ele>2176.0815429688</ele>
        <time>2012-09-15T09:29:38Z</time>
      </trkpt>
      <trkpt lat="44.3511" lon="6.55077">
        <ele>2177.04296875</ele>
        <time>2012-09-15T09:29:45Z</time>
      </trkpt>
      <trkpt lat="44.35108" lon="6.55077">
        <ele>2178.0041503906</ele>
        <time>2012-09-15T09:29:48Z</time>
      </trkpt>
      <trkpt lat="44.35101" lon="6.5508">
        <ele>2181.8493652344</ele>
        <time>2012-09-15T09:29:54Z</time>
      </trkpt>
      <trkpt lat="44.35092" lon="6.55079">
        <ele>2184.2526855469</ele>
        <time>2012-09-15T09:30:03Z</time>
      </trkpt>
      <trkpt lat="44.35088" lon="6.55079">
        <ele>2184.7333984375</ele>
        <time>2012-09-15T09:30:08Z</time>
      </trkpt>
      <trkpt lat="44.35081" lon="6.55085">
        <ele>2183.7719726562</ele>
        <time>2012-09-15T09:30:17Z</time>
      </trkpt>
      <trkpt lat="44.35073" lon="6.5509">
        <ele>2182.810546875</ele>
        <time>2012-09-15T09:30:25Z</time>
      </trkpt>
      <trkpt lat="44.35067" lon="6.55096">
        <ele>2181.8493652344</ele>
        <time>2012-09-15T09:30:32Z</time>
      </trkpt>
      <trkpt lat="44.35059" lon="6.55101">
        <ele>2182.810546875</ele>
        <time>2012-09-15T09:30:41Z</time>
      </trkpt>
      <trkpt lat="44.35053" lon="6.55108">
        <ele>2184.2526855469</ele>
        <time>2012-09-15T09:30:50Z</time>
      </trkpt>
      <trkpt lat="44.35049" lon="6.55114">
        <ele>2185.2138671875</ele>
        <time>2012-09-15T09:30:57Z</time>
      </trkpt>
      <trkpt lat="44.35046" lon="6.55123">
        <ele>2184.7333984375</ele>
        <time>2012-09-15T09:31:04Z</time>
      </trkpt>
      <trkpt lat="44.35045" lon="6.55127">
        <ele>2183.7719726562</ele>
        <time>2012-09-15T09:31:07Z</time>
      </trkpt>
      <trkpt lat="44.35039" lon="6.55138">
        <ele>2183.2912597656</ele>
        <time>2012-09-15T09:31:15Z</time>
      </trkpt>
      <trkpt lat="44.35035" lon="6.55148">
        <ele>2184.7333984375</ele>
        <time>2012-09-15T09:31:22Z</time>
      </trkpt>
      <trkpt lat="44.3503" lon="6.55159">
        <ele>2185.2138671875</ele>
        <time>2012-09-15T09:31:30Z</time>
      </trkpt>
      <trkpt lat="44.35029" lon="6.5516">
        <ele>2185.2138671875</ele>
        <time>2012-09-15T09:31:31Z</time>
      </trkpt>
      <trkpt lat="44.35027" lon="6.55165">
        <ele>2186.1752929688</ele>
        <time>2012-09-15T09:31:38Z</time>
      </trkpt>
      <trkpt lat="44.35025" lon="6.55166">
        <ele>2186.1752929688</ele>
        <time>2012-09-15T09:31:39Z</time>
      </trkpt>
      <trkpt lat="44.35019" lon="6.55179">
        <ele>2188.5788574219</ele>
        <time>2012-09-15T09:31:48Z</time>
      </trkpt>
      <trkpt lat="44.35018" lon="6.55182">
        <ele>2188.5788574219</ele>
        <time>2012-09-15T09:31:50Z</time>
      </trkpt>
      <trkpt lat="44.35015" lon="6.55187">
        <ele>2188.0981445312</ele>
        <time>2012-09-15T09:31:56Z</time>
      </trkpt>
      <trkpt lat="44.35014" lon="6.55191">
        <ele>2189.0593261719</ele>
        <time>2012-09-15T09:31:59Z</time>
      </trkpt>
      <trkpt lat="44.35001" lon="6.5521">
        <ele>2190.5012207031</ele>
        <time>2012-09-15T09:32:08Z</time>
      </trkpt>
      <trkpt lat="44.35" lon="6.55212">
        <ele>2190.5012207031</ele>
        <time>2012-09-15T09:32:09Z</time>
      </trkpt>
      <trkpt lat="44.34991" lon="6.55226">
        <ele>2192.4240722656</ele>
        <time>2012-09-15T09:32:17Z</time>
      </trkpt>
      <trkpt lat="44.34989" lon="6.55229">
        <ele>2192.9045410156</ele>
        <time>2012-09-15T09:32:19Z</time>
      </trkpt>
      <trkpt lat="44.34982" lon="6.55239">
        <ele>2195.3078613281</ele>
        <time>2012-09-15T09:32:26Z</time>
      </trkpt>
      <trkpt lat="44.34981" lon="6.5524">
        <ele>2195.7885742188</ele>
        <time>2012-09-15T09:32:27Z</time>
      </trkpt>
      <trkpt lat="44.34971" lon="6.55239">
        <ele>2198.1916503906</ele>
        <time>2012-09-15T09:32:34Z</time>
      </trkpt>
      <trkpt lat="44.34969" lon="6.55239">
        <ele>2198.6723632812</ele>
        <time>2012-09-15T09:32:35Z</time>
      </trkpt>
      <trkpt lat="44.34956" lon="6.55237">
        <ele>2200.5949707031</ele>
        <time>2012-09-15T09:32:44Z</time>
      </trkpt>
      <trkpt lat="44.34943" lon="6.55228">
        <ele>2199.6337890625</ele>
        <time>2012-09-15T09:32:52Z</time>
      </trkpt>
      <trkpt lat="44.34933" lon="6.55219">
        <ele>2197.7111816406</ele>
        <time>2012-09-15T09:32:58Z</time>
      </trkpt>
      <trkpt lat="44.34928" lon="6.55215">
        <ele>2196.2692871094</ele>
        <time>2012-09-15T09:33:01Z</time>
      </trkpt>
      <trkpt lat="44.34925" lon="6.55212">
        <ele>2195.3078613281</ele>
        <time>2012-09-15T09:33:05Z</time>
      </trkpt>
      <trkpt lat="44.34918" lon="6.5521">
        <ele>2201.0756835938</ele>
        <time>2012-09-15T09:33:13Z</time>
      </trkpt>
      <trkpt lat="44.34915" lon="6.55205">
        <ele>2202.0368652344</ele>
        <time>2012-09-15T09:33:20Z</time>
      </trkpt>
      <trkpt lat="44.34911" lon="6.55202">
        <ele>2203.4790039062</ele>
        <time>2012-09-15T09:33:27Z</time>
      </trkpt>
      <trkpt lat="44.34906" lon="6.55198">
        <ele>2199.6337890625</ele>
        <time>2012-09-15T09:33:36Z</time>
      </trkpt>
      <trkpt lat="44.34906" lon="6.55194">
        <ele>2202.9982910156</ele>
        <time>2012-09-15T09:33:43Z</time>
      </trkpt>
      <trkpt lat="44.34903" lon="6.552">
        <ele>2201.0756835938</ele>
        <time>2012-09-15T09:34:30Z</time>
      </trkpt>
      <trkpt lat="44.349" lon="6.552">
        <ele>2196.7497558594</ele>
        <time>2012-09-15T09:36:22Z</time>
      </trkpt>
      <trkpt lat="44.34903" lon="6.55199">
        <ele>2202.9982910156</ele>
        <time>2012-09-15T09:37:14Z</time>
      </trkpt>
      <trkpt lat="44.34904" lon="6.55201">
        <ele>2201.5563964844</ele>
        <time>2012-09-15T09:38:19Z</time>
      </trkpt>
      <trkpt lat="44.34904" lon="6.55199">
        <ele>2199.6337890625</ele>
        <time>2012-09-15T09:38:24Z</time>
      </trkpt>
      <trkpt lat="44.34903" lon="6.55195">
        <ele>2199.6337890625</ele>
        <time>2012-09-15T09:38:31Z</time>
      </trkpt>
      <trkpt lat="44.349" lon="6.55196">
        <ele>2198.6723632812</ele>
        <time>2012-09-15T09:38:41Z</time>
      </trkpt>
      <trkpt lat="44.34898" lon="6.55192">
        <ele>2203.4790039062</ele>
        <time>2012-09-15T09:38:55Z</time>
      </trkpt>
      <trkpt lat="44.34893" lon="6.55194">
        <ele>2203.9597167969</ele>
        <time>2012-09-15T09:38:59Z</time>
      </trkpt>
      <trkpt lat="44.34878" lon="6.552">
        <ele>2205.4018554688</ele>
        <time>2012-09-15T09:39:08Z</time>
      </trkpt>
      <trkpt lat="44.34869" lon="6.55201">
        <ele>2206.3630371094</ele>
        <time>2012-09-15T09:39:14Z</time>
      </trkpt>
      <trkpt lat="44.34865" lon="6.55208">
        <ele>2207.3244628906</ele>
        <time>2012-09-15T09:39:18Z</time>
      </trkpt>
      <trkpt lat="44.34859" lon="6.5522">
        <ele>2207.3244628906</ele>
        <time>2012-09-15T09:39:23Z</time>
      </trkpt>
      <trkpt lat="44.34851" lon="6.55222">
        <ele>2207.8051757812</ele>
        <time>2012-09-15T09:39:29Z</time>
      </trkpt>
      <trkpt lat="44.34843" lon="6.55212">
        <ele>2205.4018554688</ele>
        <time>2012-09-15T09:39:34Z</time>
      </trkpt>
      <trkpt lat="44.34841" lon="6.5521">
        <ele>2202.0368652344</ele>
        <time>2012-09-15T09:39:36Z</time>
      </trkpt>
      <trkpt lat="44.34838" lon="6.55206">
        <ele>2198.6723632812</ele>
        <time>2012-09-15T09:39:39Z</time>
      </trkpt>
      <trkpt lat="44.34838" lon="6.55197">
        <ele>2199.1530761719</ele>
        <time>2012-09-15T09:39:45Z</time>
      </trkpt>
      <trkpt lat="44.34837" lon="6.55187">
        <ele>2201.5563964844</ele>
        <time>2012-09-15T09:39:50Z</time>
      </trkpt>
      <trkpt lat="44.34838" lon="6.55172">
        <ele>2202.9982910156</ele>
        <time>2012-09-15T09:39:57Z</time>
      </trkpt>
      <trkpt lat="44.3484" lon="6.55155">
        <ele>2202.9982910156</ele>
        <time>2012-09-15T09:40:04Z</time>
      </trkpt>
      <trkpt lat="44.3484" lon="6.55151">
        <ele>2203.4790039062</ele>
        <time>2012-09-15T09:40:06Z</time>
      </trkpt>
      <trkpt lat="44.34831" lon="6.55149">
        <ele>2203.4790039062</ele>
        <time>2012-09-15T09:40:11Z</time>
      </trkpt>
      <trkpt lat="44.3483" lon="6.55153">
        <ele>2203.9597167969</ele>
        <time>2012-09-15T09:40:13Z</time>
      </trkpt>
      <trkpt lat="44.34825" lon="6.55158">
        <ele>2204.4404296875</ele>
        <time>2012-09-15T09:40:18Z</time>
      </trkpt>
      <trkpt lat="44.34821" lon="6.55158">
        <ele>2205.8823242188</ele>
        <time>2012-09-15T09:40:26Z</time>
      </trkpt>
      <trkpt lat="44.34818" lon="6.55159">
        <ele>2206.3630371094</ele>
        <time>2012-09-15T09:40:30Z</time>
      </trkpt>
      <trkpt lat="44.34814" lon="6.55162">
        <ele>2206.3630371094</ele>
        <time>2012-09-15T09:40:36Z</time>
      </trkpt>
      <trkpt lat="44.34813" lon="6.55162">
        <ele>2205.8823242188</ele>
        <time>2012-09-15T09:40:40Z</time>
      </trkpt>
      <trkpt lat="44.34806" lon="6.55163">
        <ele>2207.3244628906</ele>
        <time>2012-09-15T09:40:45Z</time>
      </trkpt>
      <trkpt lat="44.348" lon="6.55153">
        <ele>2207.8051757812</ele>
        <time>2012-09-15T09:40:51Z</time>
      </trkpt>
      <trkpt lat="44.34799" lon="6.55152">
        <ele>2208.2856445312</ele>
        <time>2012-09-15T09:40:52Z</time>
      </trkpt>
      <trkpt lat="44.34787" lon="6.5514">
        <ele>2208.7663574219</ele>
        <time>2012-09-15T09:41:00Z</time>
      </trkpt>
      <trkpt lat="44.34779" lon="6.5513">
        <ele>2210.6889648438</ele>
        <time>2012-09-15T09:41:08Z</time>
      </trkpt>
      <trkpt lat="44.34776" lon="6.55123">
        <ele>2212.6115722656</ele>
        <time>2012-09-15T09:41:12Z</time>
      </trkpt>
      <trkpt lat="44.34769" lon="6.55125">
        <ele>2215.0148925781</ele>
        <time>2012-09-15T09:41:18Z</time>
      </trkpt>
      <trkpt lat="44.34766" lon="6.55128">
        <ele>2215.9760742188</ele>
        <time>2012-09-15T09:41:21Z</time>
      </trkpt>
      <trkpt lat="44.34761" lon="6.5513">
        <ele>2217.8986816406</ele>
        <time>2012-09-15T09:41:28Z</time>
      </trkpt>
      <trkpt lat="44.34758" lon="6.55131">
        <ele>2217.8986816406</ele>
        <time>2012-09-15T09:41:32Z</time>
      </trkpt>
      <trkpt lat="44.3475" lon="6.55133">
        <ele>2219.8212890625</ele>
        <time>2012-09-15T09:41:40Z</time>
      </trkpt>
      <trkpt lat="44.34745" lon="6.55134">
        <ele>2221.744140625</ele>
        <time>2012-09-15T09:41:46Z</time>
      </trkpt>
      <trkpt lat="44.34741" lon="6.55133">
        <ele>2222.2248535156</ele>
        <time>2012-09-15T09:41:50Z</time>
      </trkpt>
      <trkpt lat="44.34733" lon="6.55132">
        <ele>2224.1474609375</ele>
        <time>2012-09-15T09:41:58Z</time>
      </trkpt>
      <trkpt lat="44.34729" lon="6.55133">
        <ele>2224.6281738281</ele>
        <time>2012-09-15T09:42:03Z</time>
      </trkpt>
      <trkpt lat="44.34719" lon="6.55134">
        <ele>2225.5893554688</ele>
        <time>2012-09-15T09:42:12Z</time>
      </trkpt>
      <trkpt lat="44.34716" lon="6.55134">
        <ele>2229.4345703125</ele>
        <time>2012-09-15T09:42:16Z</time>
      </trkpt>
      <trkpt lat="44.34712" lon="6.55132">
        <ele>2231.3571777344</ele>
        <time>2012-09-15T09:42:23Z</time>
      </trkpt>
      <trkpt lat="44.34709" lon="6.55138">
        <ele>2230.3959960938</ele>
        <time>2012-09-15T09:42:29Z</time>
      </trkpt>
      <trkpt lat="44.34708" lon="6.55146">
        <ele>2229.4345703125</ele>
        <time>2012-09-15T09:42:35Z</time>
      </trkpt>
      <trkpt lat="44.34705" lon="6.55158">
        <ele>2227.9926757812</ele>
        <time>2012-09-15T09:42:43Z</time>
      </trkpt>
      <trkpt lat="44.34703" lon="6.55161">
        <ele>2227.9926757812</ele>
        <time>2012-09-15T09:42:46Z</time>
      </trkpt>
      <trkpt lat="44.347" lon="6.55172">
        <ele>2227.9926757812</ele>
        <time>2012-09-15T09:42:55Z</time>
      </trkpt>
      <trkpt lat="44.34698" lon="6.55177">
        <ele>2227.5119628906</ele>
        <time>2012-09-15T09:43:01Z</time>
      </trkpt>
      <trkpt lat="44.34697" lon="6.55184">
        <ele>2230.3959960938</ele>
        <time>2012-09-15T09:43:07Z</time>
      </trkpt>
      <trkpt lat="44.34696" lon="6.55188">
        <ele>2231.3571777344</ele>
        <time>2012-09-15T09:43:12Z</time>
      </trkpt>
      <trkpt lat="44.34692" lon="6.55196">
        <ele>2230.8767089844</ele>
        <time>2012-09-15T09:43:20Z</time>
      </trkpt>
      <trkpt lat="44.34687" lon="6.55203">
        <ele>2232.3186035156</ele>
        <time>2012-09-15T09:43:28Z</time>
      </trkpt>
      <trkpt lat="44.34682" lon="6.55209">
        <ele>2234.2412109375</ele>
        <time>2012-09-15T09:43:35Z</time>
      </trkpt>
      <trkpt lat="44.34679" lon="6.55214">
        <ele>2234.7219238281</ele>
        <time>2012-09-15T09:43:42Z</time>
      </trkpt>
      <trkpt lat="44.34673" lon="6.55221">
        <ele>2235.6831054688</ele>
        <time>2012-09-15T09:43:50Z</time>
      </trkpt>
      <trkpt lat="44.34669" lon="6.55227">
        <ele>2237.6059570312</ele>
        <time>2012-09-15T09:43:57Z</time>
      </trkpt>
      <trkpt lat="44.34665" lon="6.55233">
        <ele>2239.5285644531</ele>
        <time>2012-09-15T09:44:04Z</time>
      </trkpt>
      <trkpt lat="44.34663" lon="6.55237">
        <ele>2239.0478515625</ele>
        <time>2012-09-15T09:44:08Z</time>
      </trkpt>
      <trkpt lat="44.34658" lon="6.55246">
        <ele>2241.451171875</ele>
        <time>2012-09-15T09:44:17Z</time>
      </trkpt>
      <trkpt lat="44.34655" lon="6.55251">
        <ele>2242.8930664062</ele>
        <time>2012-09-15T09:44:24Z</time>
      </trkpt>
      <trkpt lat="44.34652" lon="6.55254">
        <ele>2241.9318847656</ele>
        <time>2012-09-15T09:44:29Z</time>
      </trkpt>
      <trkpt lat="44.3465" lon="6.55259">
        <ele>2243.8544921875</ele>
        <time>2012-09-15T09:44:35Z</time>
      </trkpt>
      <trkpt lat="44.34646" lon="6.55264">
        <ele>2246.73828125</ele>
        <time>2012-09-15T09:44:41Z</time>
      </trkpt>
      <trkpt lat="44.34643" lon="6.55268">
        <ele>2244.3349609375</ele>
        <time>2012-09-15T09:44:47Z</time>
      </trkpt>
      <trkpt lat="44.3464" lon="6.55271">
        <ele>2243.8544921875</ele>
        <time>2012-09-15T09:44:51Z</time>
      </trkpt>
      <trkpt lat="44.34638" lon="6.55274">
        <ele>2245.7770996094</ele>
        <time>2012-09-15T09:44:55Z</time>
      </trkpt>
      <trkpt lat="44.34635" lon="6.55278">
        <ele>2245.2963867188</ele>
        <time>2012-09-15T09:44:59Z</time>
      </trkpt>
      <trkpt lat="44.34632" lon="6.55282">
        <ele>2242.4125976562</ele>
        <time>2012-09-15T09:45:03Z</time>
      </trkpt>
      <trkpt lat="44.34628" lon="6.55287">
        <ele>2239.5285644531</ele>
        <time>2012-09-15T09:45:08Z</time>
      </trkpt>
      <trkpt lat="44.34627" lon="6.55289">
        <ele>2238.0866699219</ele>
        <time>2012-09-15T09:45:10Z</time>
      </trkpt>
      <trkpt lat="44.34626" lon="6.55294">
        <ele>2239.5285644531</ele>
        <time>2012-09-15T09:45:16Z</time>
      </trkpt>
      <trkpt lat="44.34627" lon="6.553">
        <ele>2241.9318847656</ele>
        <time>2012-09-15T09:45:21Z</time>
      </trkpt>
      <trkpt lat="44.34626" lon="6.55309">
        <ele>2243.8544921875</ele>
        <time>2012-09-15T09:45:26Z</time>
      </trkpt>
      <trkpt lat="44.34625" lon="6.55317">
        <ele>2245.2963867188</ele>
        <time>2012-09-15T09:45:32Z</time>
      </trkpt>
      <trkpt lat="44.34624" lon="6.5532">
        <ele>2244.3349609375</ele>
        <time>2012-09-15T09:45:36Z</time>
      </trkpt>
      <trkpt lat="44.34622" lon="6.55327">
        <ele>2243.8544921875</ele>
        <time>2012-09-15T09:45:42Z</time>
      </trkpt>
      <trkpt lat="44.3462" lon="6.55331">
        <ele>2242.4125976562</ele>
        <time>2012-09-15T09:45:47Z</time>
      </trkpt>
      <trkpt lat="44.34621" lon="6.5534">
        <ele>2244.3349609375</ele>
        <time>2012-09-15T09:45:53Z</time>
      </trkpt>
      <trkpt lat="44.34619" lon="6.55349">
        <ele>2247.6997070312</ele>
        <time>2012-09-15T09:46:00Z</time>
      </trkpt>
      <trkpt lat="44.34619" lon="6.55355">
        <ele>2250.1030273438</ele>
        <time>2012-09-15T09:46:05Z</time>
      </trkpt>
      <trkpt lat="44.34617" lon="6.55366">
        <ele>2254.9096679688</ele>
        <time>2012-09-15T09:46:13Z</time>
      </trkpt>
      <trkpt lat="44.34616" lon="6.55372">
        <ele>2255.8708496094</ele>
        <time>2012-09-15T09:46:19Z</time>
      </trkpt>
      <trkpt lat="44.34615" lon="6.55373">
        <ele>2252.9870605469</ele>
        <time>2012-09-15T09:46:24Z</time>
      </trkpt>
      <trkpt lat="44.34614" lon="6.55377">
        <ele>2251.0642089844</ele>
        <time>2012-09-15T09:46:29Z</time>
      </trkpt>
      <trkpt lat="44.34614" lon="6.55385">
        <ele>2251.544921875</ele>
        <time>2012-09-15T09:46:35Z</time>
      </trkpt>
      <trkpt lat="44.34614" lon="6.55387">
        <ele>2252.9870605469</ele>
        <time>2012-09-15T09:46:40Z</time>
      </trkpt>
      <trkpt lat="44.34614" lon="6.55392">
        <ele>2253.4677734375</ele>
        <time>2012-09-15T09:46:47Z</time>
      </trkpt>
      <trkpt lat="44.34613" lon="6.55399">
        <ele>2253.4677734375</ele>
        <time>2012-09-15T09:46:55Z</time>
      </trkpt>
      <trkpt lat="44.34613" lon="6.55402">
        <ele>2254.4289550781</ele>
        <time>2012-09-15T09:47:03Z</time>
      </trkpt>
      <trkpt lat="44.34614" lon="6.55405">
        <ele>2258.7548828125</ele>
        <time>2012-09-15T09:47:10Z</time>
      </trkpt>
      <trkpt lat="44.34614" lon="6.55411">
        <ele>2263.0808105469</ele>
        <time>2012-09-15T09:47:16Z</time>
      </trkpt>
      <trkpt lat="44.34614" lon="6.55416">
        <ele>2264.5227050781</ele>
        <time>2012-09-15T09:47:22Z</time>
      </trkpt>
      <trkpt lat="44.34613" lon="6.55418">
        <ele>2264.5227050781</ele>
        <time>2012-09-15T09:47:28Z</time>
      </trkpt>
      <trkpt lat="44.34609" lon="6.55422">
        <ele>2266.4453125</ele>
        <time>2012-09-15T09:47:37Z</time>
      </trkpt>
      <trkpt lat="44.34607" lon="6.55426">
        <ele>2266.9260253906</ele>
        <time>2012-09-15T09:47:42Z</time>
      </trkpt>
      <trkpt lat="44.34604" lon="6.55432">
        <ele>2268.3681640625</ele>
        <time>2012-09-15T09:47:51Z</time>
      </trkpt>
      <trkpt lat="44.346" lon="6.55441">
        <ele>2270.2907714844</ele>
        <time>2012-09-15T09:48:00Z</time>
      </trkpt>
      <trkpt lat="44.346" lon="6.55451">
        <ele>2269.3295898438</ele>
        <time>2012-09-15T09:48:08Z</time>
      </trkpt>
      <trkpt lat="44.34598" lon="6.55454">
        <ele>2269.3295898438</ele>
        <time>2012-09-15T09:48:15Z</time>
      </trkpt>
      <trkpt lat="44.34597" lon="6.55458">
        <ele>2269.3295898438</ele>
        <time>2012-09-15T09:48:23Z</time>
      </trkpt>
      <trkpt lat="44.34596" lon="6.55463">
        <ele>2271.251953125</ele>
        <time>2012-09-15T09:48:28Z</time>
      </trkpt>
      <trkpt lat="44.34594" lon="6.55469">
        <ele>2269.3295898438</ele>
        <time>2012-09-15T09:48:34Z</time>
      </trkpt>
      <trkpt lat="44.34594" lon="6.55475">
        <ele>2268.8488769531</ele>
        <time>2012-09-15T09:48:39Z</time>
      </trkpt>
      <trkpt lat="44.34595" lon="6.55481">
        <ele>2269.3295898438</ele>
        <time>2012-09-15T09:48:44Z</time>
      </trkpt>
      <trkpt lat="44.346" lon="6.55487">
        <ele>2272.2133789062</ele>
        <time>2012-09-15T09:48:52Z</time>
      </trkpt>
      <trkpt lat="44.34605" lon="6.55488">
        <ele>2274.1359863281</ele>
        <time>2012-09-15T09:48:59Z</time>
      </trkpt>
      <trkpt lat="44.34611" lon="6.55486">
        <ele>2276.5393066406</ele>
        <time>2012-09-15T09:49:06Z</time>
      </trkpt>
      <trkpt lat="44.34615" lon="6.55488">
        <ele>2277.9812011719</ele>
        <time>2012-09-15T09:49:12Z</time>
      </trkpt>
      <trkpt lat="44.34616" lon="6.55495">
        <ele>2278.9423828125</ele>
        <time>2012-09-15T09:49:18Z</time>
      </trkpt>
      <trkpt lat="44.34614" lon="6.55498">
        <ele>2281.345703125</ele>
        <time>2012-09-15T09:49:22Z</time>
      </trkpt>
      <trkpt lat="44.34611" lon="6.55501">
        <ele>2283.2683105469</ele>
        <time>2012-09-15T09:49:28Z</time>
      </trkpt>
      <trkpt lat="44.34609" lon="6.55504">
        <ele>2282.7875976562</ele>
        <time>2012-09-15T09:49:33Z</time>
      </trkpt>
      <trkpt lat="44.34607" lon="6.55507">
        <ele>2284.7106933594</ele>
        <time>2012-09-15T09:49:41Z</time>
      </trkpt>
      <trkpt lat="44.34605" lon="6.55509">
        <ele>2285.671875</ele>
        <time>2012-09-15T09:49:46Z</time>
      </trkpt>
      <trkpt lat="44.34601" lon="6.5551">
        <ele>2289.0363769531</ele>
        <time>2012-09-15T09:49:52Z</time>
      </trkpt>
      <trkpt lat="44.346" lon="6.5551">
        <ele>2291.4396972656</ele>
        <time>2012-09-15T09:49:56Z</time>
      </trkpt>
      <trkpt lat="44.34597" lon="6.55514">
        <ele>2295.2849121094</ele>
        <time>2012-09-15T09:50:02Z</time>
      </trkpt>
      <trkpt lat="44.34592" lon="6.55519">
        <ele>2294.3234863281</ele>
        <time>2012-09-15T09:50:10Z</time>
      </trkpt>
      <trkpt lat="44.34589" lon="6.55523">
        <ele>2297.6882324219</ele>
        <time>2012-09-15T09:50:17Z</time>
      </trkpt>
      <trkpt lat="44.34585" lon="6.55527">
        <ele>2301.0529785156</ele>
        <time>2012-09-15T09:50:26Z</time>
      </trkpt>
      <trkpt lat="44.34579" lon="6.5553">
        <ele>2298.6494140625</ele>
        <time>2012-09-15T09:50:33Z</time>
      </trkpt>
      <trkpt lat="44.34575" lon="6.55533">
        <ele>2297.6882324219</ele>
        <time>2012-09-15T09:50:38Z</time>
      </trkpt>
      <trkpt lat="44.34568" lon="6.55538">
        <ele>2295.2849121094</ele>
        <time>2012-09-15T09:50:46Z</time>
      </trkpt>
      <trkpt lat="44.34563" lon="6.55543">
        <ele>2297.2075195312</ele>
        <time>2012-09-15T09:50:54Z</time>
      </trkpt>
      <trkpt lat="44.3456" lon="6.55549">
        <ele>2297.2075195312</ele>
        <time>2012-09-15T09:51:01Z</time>
      </trkpt>
      <trkpt lat="44.34558" lon="6.55556">
        <ele>2298.6494140625</ele>
        <time>2012-09-15T09:51:10Z</time>
      </trkpt>
      <trkpt lat="44.34557" lon="6.55558">
        <ele>2300.091796875</ele>
        <time>2012-09-15T09:51:15Z</time>
      </trkpt>
      <trkpt lat="44.34555" lon="6.55562">
        <ele>2302.4948730469</ele>
        <time>2012-09-15T09:51:21Z</time>
      </trkpt>
      <trkpt lat="44.34552" lon="6.55565">
        <ele>2303.9370117188</ele>
        <time>2012-09-15T09:51:26Z</time>
      </trkpt>
      <trkpt lat="44.34549" lon="6.5557">
        <ele>2307.3015136719</ele>
        <time>2012-09-15T09:51:33Z</time>
      </trkpt>
      <trkpt lat="44.34546" lon="6.55572">
        <ele>2305.37890625</ele>
        <time>2012-09-15T09:51:37Z</time>
      </trkpt>
      <trkpt lat="44.34542" lon="6.55572">
        <ele>2301.0529785156</ele>
        <time>2012-09-15T09:51:44Z</time>
      </trkpt>
      <trkpt lat="44.34541" lon="6.55574">
        <ele>2303.9370117188</ele>
        <time>2012-09-15T09:51:50Z</time>
      </trkpt>
      <trkpt lat="44.34544" lon="6.55578">
        <ele>2315.47265625</ele>
        <time>2012-09-15T09:51:57Z</time>
      </trkpt>
      <trkpt lat="44.34542" lon="6.55582">
        <ele>2320.279296875</ele>
        <time>2012-09-15T09:52:02Z</time>
      </trkpt>
      <trkpt lat="44.34538" lon="6.55585">
        <ele>2324.6052246094</ele>
        <time>2012-09-15T09:52:10Z</time>
      </trkpt>
      <trkpt lat="44.34534" lon="6.55586">
        <ele>2326.0471191406</ele>
        <time>2012-09-15T09:52:15Z</time>
      </trkpt>
      <trkpt lat="44.34529" lon="6.5559">
        <ele>2327.0085449219</ele>
        <time>2012-09-15T09:52:22Z</time>
      </trkpt>
      <trkpt lat="44.34524" lon="6.55594">
        <ele>2326.0471191406</ele>
        <time>2012-09-15T09:52:29Z</time>
      </trkpt>
      <trkpt lat="44.3452" lon="6.55595">
        <ele>2323.6437988281</ele>
        <time>2012-09-15T09:52:33Z</time>
      </trkpt>
      <trkpt lat="44.34516" lon="6.55597">
        <ele>2320.279296875</ele>
        <time>2012-09-15T09:52:40Z</time>
      </trkpt>
      <trkpt lat="44.34516" lon="6.55597">
        <ele>2324.1245117188</ele>
        <time>2012-09-15T09:52:50Z</time>
      </trkpt>
      <trkpt lat="44.34516" lon="6.55597">
        <ele>2323.1633300781</ele>
        <time>2012-09-15T09:53:02Z</time>
      </trkpt>
      <trkpt lat="44.34508" lon="6.55598">
        <ele>2321.7211914062</ele>
        <time>2012-09-15T09:54:03Z</time>
      </trkpt>
      <trkpt lat="44.34503" lon="6.55603">
        <ele>2327.4890136719</ele>
        <time>2012-09-15T09:54:11Z</time>
      </trkpt>
      <trkpt lat="44.345" lon="6.55604">
        <ele>2326.0471191406</ele>
        <time>2012-09-15T09:54:15Z</time>
      </trkpt>
      <trkpt lat="44.34496" lon="6.55605">
        <ele>2328.4504394531</ele>
        <time>2012-09-15T09:54:20Z</time>
      </trkpt>
      <trkpt lat="44.34489" lon="6.55606">
        <ele>2327.4890136719</ele>
        <time>2012-09-15T09:54:27Z</time>
      </trkpt>
      <trkpt lat="44.34485" lon="6.55608">
        <ele>2329.8923339844</ele>
        <time>2012-09-15T09:54:35Z</time>
      </trkpt>
      <trkpt lat="44.34478" lon="6.55612">
        <ele>2327.4890136719</ele>
        <time>2012-09-15T09:54:42Z</time>
      </trkpt>
      <trkpt lat="44.34475" lon="6.55616">
        <ele>2327.4890136719</ele>
        <time>2012-09-15T09:54:47Z</time>
      </trkpt>
      <trkpt lat="44.34473" lon="6.55621">
        <ele>2328.4504394531</ele>
        <time>2012-09-15T09:54:53Z</time>
      </trkpt>
      <trkpt lat="44.34469" lon="6.55625">
        <ele>2328.4504394531</ele>
        <time>2012-09-15T09:55:00Z</time>
      </trkpt>
      <trkpt lat="44.34467" lon="6.55627">
        <ele>2328.9309082031</ele>
        <time>2012-09-15T09:55:04Z</time>
      </trkpt>
      <trkpt lat="44.34462" lon="6.55632">
        <ele>2330.8537597656</ele>
        <time>2012-09-15T09:55:12Z</time>
      </trkpt>
      <trkpt lat="44.34459" lon="6.55636">
        <ele>2336.1411132812</ele>
        <time>2012-09-15T09:55:20Z</time>
      </trkpt>
      <trkpt lat="44.34455" lon="6.5564">
        <ele>2335.6604003906</ele>
        <time>2012-09-15T09:55:28Z</time>
      </trkpt>
      <trkpt lat="44.3445" lon="6.55643">
        <ele>2333.7377929688</ele>
        <time>2012-09-15T09:55:33Z</time>
      </trkpt>
      <trkpt lat="44.34448" lon="6.55643">
        <ele>2333.2570800781</ele>
        <time>2012-09-15T09:55:35Z</time>
      </trkpt>
      <trkpt lat="44.34441" lon="6.5565">
        <ele>2332.2958984375</ele>
        <time>2012-09-15T09:55:44Z</time>
      </trkpt>
      <trkpt lat="44.34433" lon="6.55653">
        <ele>2334.2185058594</ele>
        <time>2012-09-15T09:55:54Z</time>
      </trkpt>
      <trkpt lat="44.34428" lon="6.55653">
        <ele>2335.1796875</ele>
        <time>2012-09-15T09:56:00Z</time>
      </trkpt>
      <trkpt lat="44.34424" lon="6.55656">
        <ele>2336.6215820312</ele>
        <time>2012-09-15T09:56:07Z</time>
      </trkpt>
      <trkpt lat="44.3442" lon="6.55656">
        <ele>2337.5830078125</ele>
        <time>2012-09-15T09:56:12Z</time>
      </trkpt>
      <trkpt lat="44.34416" lon="6.55658">
        <ele>2339.5056152344</ele>
        <time>2012-09-15T09:56:17Z</time>
      </trkpt>
      <trkpt lat="44.34412" lon="6.5566">
        <ele>2340.9475097656</ele>
        <time>2012-09-15T09:56:23Z</time>
      </trkpt>
      <trkpt lat="44.34408" lon="6.55662">
        <ele>2341.9089355469</ele>
        <time>2012-09-15T09:56:29Z</time>
      </trkpt>
      <trkpt lat="44.34405" lon="6.55663">
        <ele>2344.7927246094</ele>
        <time>2012-09-15T09:56:34Z</time>
      </trkpt>
      <trkpt lat="44.34402" lon="6.55663">
        <ele>2346.2348632812</ele>
        <time>2012-09-15T09:56:39Z</time>
      </trkpt>
      <trkpt lat="44.34396" lon="6.55664">
        <ele>2344.7927246094</ele>
        <time>2012-09-15T09:56:46Z</time>
      </trkpt>
      <trkpt lat="44.34393" lon="6.55665">
        <ele>2344.3120117188</ele>
        <time>2012-09-15T09:56:50Z</time>
      </trkpt>
      <trkpt lat="44.3439" lon="6.55663">
        <ele>2345.2734375</ele>
        <time>2012-09-15T09:56:55Z</time>
      </trkpt>
      <trkpt lat="44.34386" lon="6.55661">
        <ele>2345.7541503906</ele>
        <time>2012-09-15T09:57:00Z</time>
      </trkpt>
      <trkpt lat="44.34383" lon="6.5566">
        <ele>2348.6381835938</ele>
        <time>2012-09-15T09:57:07Z</time>
      </trkpt>
      <trkpt lat="44.3438" lon="6.55663">
        <ele>2350.5607910156</ele>
        <time>2012-09-15T09:57:12Z</time>
      </trkpt>
      <trkpt lat="44.34376" lon="6.55663">
        <ele>2351.5222167969</ele>
        <time>2012-09-15T09:57:17Z</time>
      </trkpt>
      <trkpt lat="44.3437" lon="6.55666">
        <ele>2355.8479003906</ele>
        <time>2012-09-15T09:57:25Z</time>
      </trkpt>
      <trkpt lat="44.34364" lon="6.55669">
        <ele>2357.2900390625</ele>
        <time>2012-09-15T09:57:32Z</time>
      </trkpt>
      <trkpt lat="44.34362" lon="6.5567">
        <ele>2357.2900390625</ele>
        <time>2012-09-15T09:57:34Z</time>
      </trkpt>
      <trkpt lat="44.34356" lon="6.55672">
        <ele>2357.7707519531</ele>
        <time>2012-09-15T09:57:39Z</time>
      </trkpt>
      <trkpt lat="44.34348" lon="6.55673">
        <ele>2360.173828125</ele>
        <time>2012-09-15T09:57:48Z</time>
      </trkpt>
      <trkpt lat="44.34344" lon="6.55673">
        <ele>2360.173828125</ele>
        <time>2012-09-15T09:57:54Z</time>
      </trkpt>
      <trkpt lat="44.3434" lon="6.5567">
        <ele>2361.1352539062</ele>
        <time>2012-09-15T09:58:00Z</time>
      </trkpt>
      <trkpt lat="44.34337" lon="6.55675">
        <ele>2361.1352539062</ele>
        <time>2012-09-15T09:58:05Z</time>
      </trkpt>
      <trkpt lat="44.34336" lon="6.5568">
        <ele>2360.173828125</ele>
        <time>2012-09-15T09:58:09Z</time>
      </trkpt>
      <trkpt lat="44.34332" lon="6.55682">
        <ele>2358.7319335938</ele>
        <time>2012-09-15T09:58:13Z</time>
      </trkpt>
      <trkpt lat="44.34325" lon="6.55683">
        <ele>2357.7707519531</ele>
        <time>2012-09-15T09:58:20Z</time>
      </trkpt>
      <trkpt lat="44.34322" lon="6.55682">
        <ele>2358.2512207031</ele>
        <time>2012-09-15T09:58:25Z</time>
      </trkpt>
      <trkpt lat="44.34319" lon="6.55681">
        <ele>2359.2126464844</ele>
        <time>2012-09-15T09:58:30Z</time>
      </trkpt>
      <trkpt lat="44.34316" lon="6.55682">
        <ele>2360.6545410156</ele>
        <time>2012-09-15T09:58:35Z</time>
      </trkpt>
      <trkpt lat="44.34312" lon="6.55684">
        <ele>2359.2126464844</ele>
        <time>2012-09-15T09:58:42Z</time>
      </trkpt>
      <trkpt lat="44.34311" lon="6.55688">
        <ele>2358.2512207031</ele>
        <time>2012-09-15T09:58:46Z</time>
      </trkpt>
      <trkpt lat="44.34307" lon="6.55691">
        <ele>2356.8093261719</ele>
        <time>2012-09-15T09:58:51Z</time>
      </trkpt>
      <trkpt lat="44.34303" lon="6.55691">
        <ele>2357.7707519531</ele>
        <time>2012-09-15T09:58:57Z</time>
      </trkpt>
      <trkpt lat="44.34298" lon="6.55692">
        <ele>2358.2512207031</ele>
        <time>2012-09-15T09:59:02Z</time>
      </trkpt>
      <trkpt lat="44.34291" lon="6.55698">
        <ele>2359.6931152344</ele>
        <time>2012-09-15T09:59:10Z</time>
      </trkpt>
      <trkpt lat="44.34285" lon="6.55701">
        <ele>2358.2512207031</ele>
        <time>2012-09-15T09:59:17Z</time>
      </trkpt>
      <trkpt lat="44.34281" lon="6.55703">
        <ele>2358.7319335938</ele>
        <time>2012-09-15T09:59:23Z</time>
      </trkpt>
      <trkpt lat="44.34278" lon="6.55708">
        <ele>2358.7319335938</ele>
        <time>2012-09-15T09:59:28Z</time>
      </trkpt>
      <trkpt lat="44.34277" lon="6.55712">
        <ele>2360.6545410156</ele>
        <time>2012-09-15T09:59:34Z</time>
      </trkpt>
      <trkpt lat="44.34272" lon="6.55716">
        <ele>2359.2126464844</ele>
        <time>2012-09-15T09:59:41Z</time>
      </trkpt>
      <trkpt lat="44.3427" lon="6.55719">
        <ele>2359.2126464844</ele>
        <time>2012-09-15T09:59:45Z</time>
      </trkpt>
      <trkpt lat="44.34263" lon="6.55726">
        <ele>2360.173828125</ele>
        <time>2012-09-15T09:59:53Z</time>
      </trkpt>
      <trkpt lat="44.34261" lon="6.55732">
        <ele>2361.6159667969</ele>
        <time>2012-09-15T10:00:02Z</time>
      </trkpt>
      <trkpt lat="44.34258" lon="6.55735">
        <ele>2362.0964355469</ele>
        <time>2012-09-15T10:00:07Z</time>
      </trkpt>
      <trkpt lat="44.34254" lon="6.55742">
        <ele>2365.9418945312</ele>
        <time>2012-09-15T10:00:14Z</time>
      </trkpt>
      <trkpt lat="44.3425" lon="6.55743">
        <ele>2368.3452148438</ele>
        <time>2012-09-15T10:00:19Z</time>
      </trkpt>
      <trkpt lat="44.34252" lon="6.55745">
        <ele>2375.5549316406</ele>
        <time>2012-09-15T10:00:25Z</time>
      </trkpt>
      <trkpt lat="44.3425" lon="6.55745">
        <ele>2373.1518554688</ele>
        <time>2012-09-15T10:00:30Z</time>
      </trkpt>
      <trkpt lat="44.34262" lon="6.55744">
        <ele>2370.7485351562</ele>
        <time>2012-09-15T10:16:35Z</time>
      </trkpt>
      <trkpt lat="44.34251" lon="6.55757">
        <ele>2369.787109375</ele>
        <time>2012-09-15T10:16:41Z</time>
      </trkpt>
      <trkpt lat="44.34248" lon="6.5576">
        <ele>2370.2678222656</ele>
        <time>2012-09-15T10:16:42Z</time>
      </trkpt>
      <trkpt lat="44.34236" lon="6.55768">
        <ele>2368.8259277344</ele>
        <time>2012-09-15T10:16:47Z</time>
      </trkpt>
      <trkpt lat="44.34217" lon="6.55757">
        <ele>2356.8093261719</ele>
        <time>2012-09-15T10:17:57Z</time>
      </trkpt>
      <trkpt lat="44.34214" lon="6.55767">
        <ele>2357.7707519531</ele>
        <time>2012-09-15T10:18:00Z</time>
      </trkpt>
      <trkpt lat="44.34203" lon="6.55778">
        <ele>2357.2900390625</ele>
        <time>2012-09-15T10:18:05Z</time>
      </trkpt>
      <trkpt lat="44.3419" lon="6.55788">
        <ele>2359.2126464844</ele>
        <time>2012-09-15T10:18:11Z</time>
      </trkpt>
      <trkpt lat="44.34179" lon="6.55807">
        <ele>2357.2900390625</ele>
        <time>2012-09-15T10:18:16Z</time>
      </trkpt>
      <trkpt lat="44.34171" lon="6.55825">
        <ele>2356.3286132812</ele>
        <time>2012-09-15T10:18:20Z</time>
      </trkpt>
      <trkpt lat="44.34159" lon="6.55841">
        <ele>2354.4060058594</ele>
        <time>2012-09-15T10:18:25Z</time>
      </trkpt>
      <trkpt lat="44.34156" lon="6.55853">
        <ele>2354.88671875</ele>
        <time>2012-09-15T10:18:29Z</time>
      </trkpt>
      <trkpt lat="44.34144" lon="6.55856">
        <ele>2351.5222167969</ele>
        <time>2012-09-15T10:18:33Z</time>
      </trkpt>
      <trkpt lat="44.34134" lon="6.55855">
        <ele>2350.0803222656</ele>
        <time>2012-09-15T10:18:37Z</time>
      </trkpt>
      <trkpt lat="44.34132" lon="6.55855">
        <ele>2350.0803222656</ele>
        <time>2012-09-15T10:18:38Z</time>
      </trkpt>
      <trkpt lat="44.34114" lon="6.55859">
        <ele>2343.3508300781</ele>
        <time>2012-09-15T10:18:46Z</time>
      </trkpt>
      <trkpt lat="44.34102" lon="6.55862">
        <ele>2340.9475097656</ele>
        <time>2012-09-15T10:18:52Z</time>
      </trkpt>
      <trkpt lat="44.3409" lon="6.5586">
        <ele>2342.3896484375</ele>
        <time>2012-09-15T10:18:59Z</time>
      </trkpt>
      <trkpt lat="44.34077" lon="6.55855">
        <ele>2345.2734375</ele>
        <time>2012-09-15T10:19:06Z</time>
      </trkpt>
      <trkpt lat="44.34065" lon="6.5586">
        <ele>2345.7541503906</ele>
        <time>2012-09-15T10:19:11Z</time>
      </trkpt>
      <trkpt lat="44.3405" lon="6.55865">
        <ele>2350.0803222656</ele>
        <time>2012-09-15T10:19:18Z</time>
      </trkpt>
      <trkpt lat="44.34039" lon="6.55866">
        <ele>2352.0026855469</ele>
        <time>2012-09-15T10:19:24Z</time>
      </trkpt>
      <trkpt lat="44.34029" lon="6.55861">
        <ele>2352.9641113281</ele>
        <time>2012-09-15T10:19:29Z</time>
      </trkpt>
      <trkpt lat="44.34013" lon="6.5585">
        <ele>2354.4060058594</ele>
        <time>2012-09-15T10:19:36Z</time>
      </trkpt>
      <trkpt lat="44.34003" lon="6.55845">
        <ele>2351.5222167969</ele>
        <time>2012-09-15T10:19:41Z</time>
      </trkpt>
      <trkpt lat="44.33993" lon="6.55844">
        <ele>2352.4833984375</ele>
        <time>2012-09-15T10:19:47Z</time>
      </trkpt>
      <trkpt lat="44.33989" lon="6.55843">
        <ele>2352.9641113281</ele>
        <time>2012-09-15T10:19:50Z</time>
      </trkpt>
      <trkpt lat="44.33977" lon="6.55829">
        <ele>2352.0026855469</ele>
        <time>2012-09-15T10:19:57Z</time>
      </trkpt>
      <trkpt lat="44.33964" lon="6.55817">
        <ele>2354.88671875</ele>
        <time>2012-09-15T10:20:02Z</time>
      </trkpt>
      <trkpt lat="44.33954" lon="6.55808">
        <ele>2356.8093261719</ele>
        <time>2012-09-15T10:20:07Z</time>
      </trkpt>
      <trkpt lat="44.33949" lon="6.55807">
        <ele>2358.2512207031</ele>
        <time>2012-09-15T10:20:12Z</time>
      </trkpt>
      <trkpt lat="44.33949" lon="6.55804">
        <ele>2358.2512207031</ele>
        <time>2012-09-15T10:20:18Z</time>
      </trkpt>
      <trkpt lat="44.33947" lon="6.55803">
        <ele>2359.2126464844</ele>
        <time>2012-09-15T10:20:22Z</time>
      </trkpt>
      <trkpt lat="44.33944" lon="6.55798">
        <ele>2359.2126464844</ele>
        <time>2012-09-15T10:20:29Z</time>
      </trkpt>
      <trkpt lat="44.33937" lon="6.55795">
        <ele>2362.0964355469</ele>
        <time>2012-09-15T10:20:35Z</time>
      </trkpt>
      <trkpt lat="44.33934" lon="6.55794">
        <ele>2356.3286132812</ele>
        <time>2012-09-15T10:20:39Z</time>
      </trkpt>
      <trkpt lat="44.33934" lon="6.55799">
        <ele>2365.4614257812</ele>
        <time>2012-09-15T10:20:52Z</time>
      </trkpt>
      <trkpt lat="44.33933" lon="6.55798">
        <ele>2364.9807128906</ele>
        <time>2012-09-15T10:20:53Z</time>
      </trkpt>
      <trkpt lat="44.33927" lon="6.55793">
        <ele>2364.0192871094</ele>
        <time>2012-09-15T10:20:56Z</time>
      </trkpt>
      <trkpt lat="44.33919" lon="6.55787">
        <ele>2360.6545410156</ele>
        <time>2012-09-15T10:21:02Z</time>
      </trkpt>
      <trkpt lat="44.33918" lon="6.55788">
        <ele>2362.0964355469</ele>
        <time>2012-09-15T10:21:07Z</time>
      </trkpt>
      <trkpt lat="44.3391" lon="6.55783">
        <ele>2357.7707519531</ele>
        <time>2012-09-15T10:21:14Z</time>
      </trkpt>
      <trkpt lat="44.33904" lon="6.55779">
        <ele>2356.3286132812</ele>
        <time>2012-09-15T10:21:19Z</time>
      </trkpt>
      <trkpt lat="44.33899" lon="6.55771">
        <ele>2357.2900390625</ele>
        <time>2012-09-15T10:21:28Z</time>
      </trkpt>
      <trkpt lat="44.33898" lon="6.5577">
        <ele>2360.173828125</ele>
        <time>2012-09-15T10:21:32Z</time>
      </trkpt>
      <trkpt lat="44.33897" lon="6.55765">
        <ele>2364.5</ele>
        <time>2012-09-15T10:21:39Z</time>
      </trkpt>
      <trkpt lat="44.33896" lon="6.55765">
        <ele>2364.9807128906</ele>
        <time>2012-09-15T10:21:40Z</time>
      </trkpt>
      <trkpt lat="44.33895" lon="6.55763">
        <ele>2367.8645019531</ele>
        <time>2012-09-15T10:21:44Z</time>
      </trkpt>
      <trkpt lat="44.33893" lon="6.55766">
        <ele>2376.9970703125</ele>
        <time>2012-09-15T10:21:50Z</time>
      </trkpt>
      <trkpt lat="44.33894" lon="6.55769">
        <ele>2392.8586425781</ele>
        <time>2012-09-15T10:21:59Z</time>
      </trkpt>
      <trkpt lat="44.33892" lon="6.55765">
        <ele>2398.6267089844</ele>
        <time>2012-09-15T10:22:10Z</time>
      </trkpt>
      <trkpt lat="44.33889" lon="6.55765">
        <ele>2401.9912109375</ele>
        <time>2012-09-15T10:22:15Z</time>
      </trkpt>
      <trkpt lat="44.33883" lon="6.55762">
        <ele>2401.5107421875</ele>
        <time>2012-09-15T10:22:20Z</time>
      </trkpt>
      <trkpt lat="44.33879" lon="6.55762">
        <ele>2405.8364257812</ele>
        <time>2012-09-15T10:22:26Z</time>
      </trkpt>
      <trkpt lat="44.33874" lon="6.5576">
        <ele>2406.3171386719</ele>
        <time>2012-09-15T10:22:31Z</time>
      </trkpt>
      <trkpt lat="44.33871" lon="6.55757">
        <ele>2404.8752441406</ele>
        <time>2012-09-15T10:22:35Z</time>
      </trkpt>
      <trkpt lat="44.33867" lon="6.55754">
        <ele>2403.4333496094</ele>
        <time>2012-09-15T10:22:40Z</time>
      </trkpt>
      <trkpt lat="44.33863" lon="6.55748">
        <ele>2401.0300292969</ele>
        <time>2012-09-15T10:22:47Z</time>
      </trkpt>
      <trkpt lat="44.33854" lon="6.55743">
        <ele>2395.2619628906</ele>
        <time>2012-09-15T10:22:53Z</time>
      </trkpt>
      <trkpt lat="44.33846" lon="6.55733">
        <ele>2390.4553222656</ele>
        <time>2012-09-15T10:23:01Z</time>
      </trkpt>
      <trkpt lat="44.33842" lon="6.55729">
        <ele>2391.8974609375</ele>
        <time>2012-09-15T10:23:06Z</time>
      </trkpt>
      <trkpt lat="44.33838" lon="6.55725">
        <ele>2389.494140625</ele>
        <time>2012-09-15T10:23:10Z</time>
      </trkpt>
      <trkpt lat="44.33832" lon="6.55718">
        <ele>2386.1296386719</ele>
        <time>2012-09-15T10:23:17Z</time>
      </trkpt>
      <trkpt lat="44.33822" lon="6.5571">
        <ele>2380.8425292969</ele>
        <time>2012-09-15T10:23:25Z</time>
      </trkpt>
      <trkpt lat="44.33815" lon="6.55703">
        <ele>2377.4775390625</ele>
        <time>2012-09-15T10:23:32Z</time>
      </trkpt>
      <trkpt lat="44.33811" lon="6.55699">
        <ele>2376.0356445312</ele>
        <time>2012-09-15T10:23:37Z</time>
      </trkpt>
      <trkpt lat="44.33807" lon="6.55694">
        <ele>2373.1518554688</ele>
        <time>2012-09-15T10:23:42Z</time>
      </trkpt>
      <trkpt lat="44.33805" lon="6.55692">
        <ele>2373.1518554688</ele>
        <time>2012-09-15T10:23:48Z</time>
      </trkpt>
      <trkpt lat="44.33796" lon="6.5568">
        <ele>2360.173828125</ele>
        <time>2012-09-15T10:23:55Z</time>
      </trkpt>
      <trkpt lat="44.33793" lon="6.55672">
        <ele>2354.4060058594</ele>
        <time>2012-09-15T10:23:59Z</time>
      </trkpt>
      <trkpt lat="44.33789" lon="6.55665">
        <ele>2353.4448242188</ele>
        <time>2012-09-15T10:24:05Z</time>
      </trkpt>
      <trkpt lat="44.33784" lon="6.5566">
        <ele>2354.88671875</ele>
        <time>2012-09-15T10:24:12Z</time>
      </trkpt>
      <trkpt lat="44.3378" lon="6.55655">
        <ele>2354.4060058594</ele>
        <time>2012-09-15T10:24:18Z</time>
      </trkpt>
      <trkpt lat="44.33776" lon="6.55649">
        <ele>2352.9641113281</ele>
        <time>2012-09-15T10:24:23Z</time>
      </trkpt>
      <trkpt lat="44.33773" lon="6.55647">
        <ele>2352.9641113281</ele>
        <time>2012-09-15T10:24:27Z</time>
      </trkpt>
      <trkpt lat="44.33769" lon="6.55646">
        <ele>2352.4833984375</ele>
        <time>2012-09-15T10:24:31Z</time>
      </trkpt>
      <trkpt lat="44.33761" lon="6.55651">
        <ele>2357.2900390625</ele>
        <time>2012-09-15T10:24:39Z</time>
      </trkpt>
      <trkpt lat="44.33756" lon="6.55651">
        <ele>2355.8479003906</ele>
        <time>2012-09-15T10:24:44Z</time>
      </trkpt>
      <trkpt lat="44.33751" lon="6.55646">
        <ele>2355.3674316406</ele>
        <time>2012-09-15T10:24:51Z</time>
      </trkpt>
      <trkpt lat="44.33745" lon="6.55642">
        <ele>2356.3286132812</ele>
        <time>2012-09-15T10:24:58Z</time>
      </trkpt>
      <trkpt lat="44.33743" lon="6.55639">
        <ele>2356.8093261719</ele>
        <time>2012-09-15T10:25:04Z</time>
      </trkpt>
      <trkpt lat="44.3374" lon="6.55635">
        <ele>2357.2900390625</ele>
        <time>2012-09-15T10:25:10Z</time>
      </trkpt>
      <trkpt lat="44.33737" lon="6.55632">
        <ele>2356.8093261719</ele>
        <time>2012-09-15T10:25:16Z</time>
      </trkpt>
      <trkpt lat="44.33733" lon="6.55627">
        <ele>2356.8093261719</ele>
        <time>2012-09-15T10:25:22Z</time>
      </trkpt>
      <trkpt lat="44.33733" lon="6.55623">
        <ele>2354.88671875</ele>
        <time>2012-09-15T10:25:29Z</time>
      </trkpt>
      <trkpt lat="44.33728" lon="6.55628">
        <ele>2356.8093261719</ele>
        <time>2012-09-15T10:25:43Z</time>
      </trkpt>
      <trkpt lat="44.33726" lon="6.55624">
        <ele>2358.2512207031</ele>
        <time>2012-09-15T10:25:48Z</time>
      </trkpt>
      <trkpt lat="44.33725" lon="6.5562">
        <ele>2359.6931152344</ele>
        <time>2012-09-15T10:25:54Z</time>
      </trkpt>
      <trkpt lat="44.33723" lon="6.55617">
        <ele>2360.6545410156</ele>
        <time>2012-09-15T10:25:58Z</time>
      </trkpt>
      <trkpt lat="44.3372" lon="6.55614">
        <ele>2362.0964355469</ele>
        <time>2012-09-15T10:26:04Z</time>
      </trkpt>
      <trkpt lat="44.33719" lon="6.5561">
        <ele>2364.0192871094</ele>
        <time>2012-09-15T10:26:10Z</time>
      </trkpt>
      <trkpt lat="44.33717" lon="6.55605">
        <ele>2366.4226074219</ele>
        <time>2012-09-15T10:26:18Z</time>
      </trkpt>
      <trkpt lat="44.33714" lon="6.556">
        <ele>2368.3452148438</ele>
        <time>2012-09-15T10:26:26Z</time>
      </trkpt>
      <trkpt lat="44.33708" lon="6.55595">
        <ele>2368.8259277344</ele>
        <time>2012-09-15T10:26:34Z</time>
      </trkpt>
      <trkpt lat="44.33706" lon="6.55591">
        <ele>2368.3452148438</ele>
        <time>2012-09-15T10:26:38Z</time>
      </trkpt>
      <trkpt lat="44.33701" lon="6.55586">
        <ele>2368.3452148438</ele>
        <time>2012-09-15T10:26:45Z</time>
      </trkpt>
      <trkpt lat="44.33699" lon="6.55584">
        <ele>2368.3452148438</ele>
        <time>2012-09-15T10:26:49Z</time>
      </trkpt>
      <trkpt lat="44.33695" lon="6.55581">
        <ele>2370.7485351562</ele>
        <time>2012-09-15T10:26:56Z</time>
      </trkpt>
      <trkpt lat="44.33692" lon="6.55579">
        <ele>2371.2290039062</ele>
        <time>2012-09-15T10:26:59Z</time>
      </trkpt>
      <trkpt lat="44.33688" lon="6.55575">
        <ele>2371.2290039062</ele>
        <time>2012-09-15T10:27:05Z</time>
      </trkpt>
      <trkpt lat="44.33681" lon="6.55572">
        <ele>2373.6323242188</ele>
        <time>2012-09-15T10:27:13Z</time>
      </trkpt>
      <trkpt lat="44.3368" lon="6.5557">
        <ele>2375.5549316406</ele>
        <time>2012-09-15T10:27:18Z</time>
      </trkpt>
      <trkpt lat="44.33677" lon="6.55566">
        <ele>2376.9970703125</ele>
        <time>2012-09-15T10:27:26Z</time>
      </trkpt>
      <trkpt lat="44.33674" lon="6.55565">
        <ele>2376.0356445312</ele>
        <time>2012-09-15T10:27:32Z</time>
      </trkpt>
      <trkpt lat="44.3367" lon="6.55566">
        <ele>2377.9582519531</ele>
        <time>2012-09-15T10:27:38Z</time>
      </trkpt>
      <trkpt lat="44.33666" lon="6.55562">
        <ele>2378.4389648438</ele>
        <time>2012-09-15T10:27:45Z</time>
      </trkpt>
      <trkpt lat="44.33663" lon="6.55564">
        <ele>2378.9194335938</ele>
        <time>2012-09-15T10:27:53Z</time>
      </trkpt>
      <trkpt lat="44.33658" lon="6.55562">
        <ele>2376.9970703125</ele>
        <time>2012-09-15T10:27:59Z</time>
      </trkpt>
      <trkpt lat="44.33654" lon="6.55561">
        <ele>2377.9582519531</ele>
        <time>2012-09-15T10:28:05Z</time>
      </trkpt>
      <trkpt lat="44.3365" lon="6.55557">
        <ele>2376.9970703125</ele>
        <time>2012-09-15T10:28:11Z</time>
      </trkpt>
      <trkpt lat="44.33645" lon="6.55555">
        <ele>2374.1130371094</ele>
        <time>2012-09-15T10:28:20Z</time>
      </trkpt>
      <trkpt lat="44.33641" lon="6.55555">
        <ele>2372.1904296875</ele>
        <time>2012-09-15T10:28:27Z</time>
      </trkpt>
      <trkpt lat="44.33636" lon="6.55555">
        <ele>2372.1904296875</ele>
        <time>2012-09-15T10:28:33Z</time>
      </trkpt>
      <trkpt lat="44.3363" lon="6.55551">
        <ele>2372.1904296875</ele>
        <time>2012-09-15T10:28:40Z</time>
      </trkpt>
      <trkpt lat="44.33624" lon="6.55548">
        <ele>2372.1904296875</ele>
        <time>2012-09-15T10:28:47Z</time>
      </trkpt>
      <trkpt lat="44.33618" lon="6.55546">
        <ele>2372.1904296875</ele>
        <time>2012-09-15T10:28:54Z</time>
      </trkpt>
      <trkpt lat="44.33611" lon="6.55545">
        <ele>2372.6711425781</ele>
        <time>2012-09-15T10:29:02Z</time>
      </trkpt>
      <trkpt lat="44.33609" lon="6.55544">
        <ele>2372.6711425781</ele>
        <time>2012-09-15T10:29:03Z</time>
      </trkpt>
      <trkpt lat="44.33599" lon="6.55543">
        <ele>2371.7097167969</ele>
        <time>2012-09-15T10:29:11Z</time>
      </trkpt>
      <trkpt lat="44.33592" lon="6.55543">
        <ele>2373.1518554688</ele>
        <time>2012-09-15T10:29:20Z</time>
      </trkpt>
      <trkpt lat="44.33585" lon="6.55541">
        <ele>2373.6323242188</ele>
        <time>2012-09-15T10:29:27Z</time>
      </trkpt>
      <trkpt lat="44.33579" lon="6.5554">
        <ele>2374.1130371094</ele>
        <time>2012-09-15T10:29:33Z</time>
      </trkpt>
      <trkpt lat="44.3357" lon="6.55539">
        <ele>2374.1130371094</ele>
        <time>2012-09-15T10:29:43Z</time>
      </trkpt>
      <trkpt lat="44.33564" lon="6.55538">
        <ele>2375.5549316406</ele>
        <time>2012-09-15T10:29:50Z</time>
      </trkpt>
      <trkpt lat="44.33557" lon="6.55538">
        <ele>2376.0356445312</ele>
        <time>2012-09-15T10:29:58Z</time>
      </trkpt>
      <trkpt lat="44.33548" lon="6.55537">
        <ele>2377.4775390625</ele>
        <time>2012-09-15T10:30:07Z</time>
      </trkpt>
      <trkpt lat="44.3354" lon="6.55536">
        <ele>2376.9970703125</ele>
        <time>2012-09-15T10:30:15Z</time>
      </trkpt>
      <trkpt lat="44.33538" lon="6.55536">
        <ele>2376.9970703125</ele>
        <time>2012-09-15T10:30:16Z</time>
      </trkpt>
      <trkpt lat="44.33532" lon="6.55535">
        <ele>2377.9582519531</ele>
        <time>2012-09-15T10:30:24Z</time>
      </trkpt>
      <trkpt lat="44.33527" lon="6.55534">
        <ele>2377.4775390625</ele>
        <time>2012-09-15T10:30:30Z</time>
      </trkpt>
      <trkpt lat="44.33518" lon="6.55533">
        <ele>2377.4775390625</ele>
        <time>2012-09-15T10:30:38Z</time>
      </trkpt>
      <trkpt lat="44.33512" lon="6.55534">
        <ele>2377.9582519531</ele>
        <time>2012-09-15T10:30:45Z</time>
      </trkpt>
      <trkpt lat="44.33506" lon="6.55533">
        <ele>2377.9582519531</ele>
        <time>2012-09-15T10:30:50Z</time>
      </trkpt>
      <trkpt lat="44.33497" lon="6.55529">
        <ele>2378.9194335938</ele>
        <time>2012-09-15T10:31:00Z</time>
      </trkpt>
      <trkpt lat="44.33492" lon="6.5553">
        <ele>2378.9194335938</ele>
        <time>2012-09-15T10:31:07Z</time>
      </trkpt>
      <trkpt lat="44.33486" lon="6.55536">
        <ele>2379.880859375</ele>
        <time>2012-09-15T10:31:14Z</time>
      </trkpt>
      <trkpt lat="44.33485" lon="6.55536">
        <ele>2379.880859375</ele>
        <time>2012-09-15T10:31:15Z</time>
      </trkpt>
      <trkpt lat="44.33481" lon="6.55538">
        <ele>2379.4001464844</ele>
        <time>2012-09-15T10:31:19Z</time>
      </trkpt>
      <trkpt lat="44.33477" lon="6.55544">
        <ele>2379.4001464844</ele>
        <time>2012-09-15T10:31:27Z</time>
      </trkpt>
      <trkpt lat="44.33477" lon="6.55544">
        <ele>2378.4389648438</ele>
        <time>2012-09-15T10:31:32Z</time>
      </trkpt>
      <trkpt lat="44.33469" lon="6.55547">
        <ele>2374.59375</ele>
        <time>2012-09-15T10:31:38Z</time>
      </trkpt>
      <trkpt lat="44.33461" lon="6.55551">
        <ele>2372.1904296875</ele>
        <time>2012-09-15T10:31:45Z</time>
      </trkpt>
      <trkpt lat="44.3346" lon="6.55553">
        <ele>2371.7097167969</ele>
        <time>2012-09-15T10:31:47Z</time>
      </trkpt>
      <trkpt lat="44.33452" lon="6.55556">
        <ele>2367.8645019531</ele>
        <time>2012-09-15T10:31:56Z</time>
      </trkpt>
      <trkpt lat="44.33448" lon="6.55559">
        <ele>2366.4226074219</ele>
        <time>2012-09-15T10:32:01Z</time>
      </trkpt>
      <trkpt lat="44.33445" lon="6.55562">
        <ele>2366.9033203125</ele>
        <time>2012-09-15T10:32:07Z</time>
      </trkpt>
      <trkpt lat="44.3344" lon="6.55566">
        <ele>2367.3837890625</ele>
        <time>2012-09-15T10:32:14Z</time>
      </trkpt>
      <trkpt lat="44.33436" lon="6.55567">
        <ele>2366.9033203125</ele>
        <time>2012-09-15T10:32:17Z</time>
      </trkpt>
      <trkpt lat="44.3343" lon="6.5557">
        <ele>2365.9418945312</ele>
        <time>2012-09-15T10:32:24Z</time>
      </trkpt>
      <trkpt lat="44.33425" lon="6.55569">
        <ele>2365.9418945312</ele>
        <time>2012-09-15T10:32:28Z</time>
      </trkpt>
      <trkpt lat="44.33416" lon="6.55565">
        <ele>2366.9033203125</ele>
        <time>2012-09-15T10:32:36Z</time>
      </trkpt>
      <trkpt lat="44.33409" lon="6.55562">
        <ele>2366.4226074219</ele>
        <time>2012-09-15T10:32:44Z</time>
      </trkpt>
      <trkpt lat="44.33406" lon="6.55556">
        <ele>2368.3452148438</ele>
        <time>2012-09-15T10:32:52Z</time>
      </trkpt>
      <trkpt lat="44.33401" lon="6.55552">
        <ele>2369.787109375</ele>
        <time>2012-09-15T10:32:59Z</time>
      </trkpt>
      <trkpt lat="44.33399" lon="6.55551">
        <ele>2370.7485351562</ele>
        <time>2012-09-15T10:33:06Z</time>
      </trkpt>
      <trkpt lat="44.33397" lon="6.55549">
        <ele>2372.1904296875</ele>
        <time>2012-09-15T10:33:17Z</time>
      </trkpt>
      <trkpt lat="44.33392" lon="6.55545">
        <ele>2371.7097167969</ele>
        <time>2012-09-15T10:33:30Z</time>
      </trkpt>
      <trkpt lat="44.33381" lon="6.55537">
        <ele>2372.1904296875</ele>
        <time>2012-09-15T10:33:37Z</time>
      </trkpt>
      <trkpt lat="44.33364" lon="6.55534">
        <ele>2369.787109375</ele>
        <time>2012-09-15T10:33:44Z</time>
      </trkpt>
      <trkpt lat="44.33353" lon="6.55538">
        <ele>2368.8259277344</ele>
        <time>2012-09-15T10:33:50Z</time>
      </trkpt>
      <trkpt lat="44.3334" lon="6.55541">
        <ele>2368.3452148438</ele>
        <time>2012-09-15T10:33:56Z</time>
      </trkpt>
      <trkpt lat="44.33327" lon="6.55544">
        <ele>2367.8645019531</ele>
        <time>2012-09-15T10:34:02Z</time>
      </trkpt>
      <trkpt lat="44.33317" lon="6.55546">
        <ele>2368.3452148438</ele>
        <time>2012-09-15T10:34:08Z</time>
      </trkpt>
      <trkpt lat="44.33315" lon="6.55548">
        <ele>2370.7485351562</ele>
        <time>2012-09-15T10:34:16Z</time>
      </trkpt>
      <trkpt lat="44.33313" lon="6.55549">
        <ele>2371.2290039062</ele>
        <time>2012-09-15T10:34:17Z</time>
      </trkpt>
      <trkpt lat="44.333" lon="6.5555">
        <ele>2371.2290039062</ele>
        <time>2012-09-15T10:34:24Z</time>
      </trkpt>
      <trkpt lat="44.33294" lon="6.5555">
        <ele>2371.2290039062</ele>
        <time>2012-09-15T10:34:27Z</time>
      </trkpt>
      <trkpt lat="44.33279" lon="6.55548">
        <ele>2371.7097167969</ele>
        <time>2012-09-15T10:34:34Z</time>
      </trkpt>
      <trkpt lat="44.3327" lon="6.55545">
        <ele>2371.2290039062</ele>
        <time>2012-09-15T10:34:39Z</time>
      </trkpt>
      <trkpt lat="44.33258" lon="6.55542">
        <ele>2372.6711425781</ele>
        <time>2012-09-15T10:34:45Z</time>
      </trkpt>
      <trkpt lat="44.33248" lon="6.55538">
        <ele>2373.1518554688</ele>
        <time>2012-09-15T10:34:51Z</time>
      </trkpt>
      <trkpt lat="44.33236" lon="6.55532">
        <ele>2373.6323242188</ele>
        <time>2012-09-15T10:34:58Z</time>
      </trkpt>
      <trkpt lat="44.33226" lon="6.55528">
        <ele>2373.6323242188</ele>
        <time>2012-09-15T10:35:03Z</time>
      </trkpt>
      <trkpt lat="44.33221" lon="6.55517">
        <ele>2375.07421875</ele>
        <time>2012-09-15T10:35:09Z</time>
      </trkpt>
      <trkpt lat="44.3322" lon="6.55512">
        <ele>2376.0356445312</ele>
        <time>2012-09-15T10:35:14Z</time>
      </trkpt>
      <trkpt lat="44.33219" lon="6.55508">
        <ele>2377.4775390625</ele>
        <time>2012-09-15T10:35:19Z</time>
      </trkpt>
      <trkpt lat="44.33221" lon="6.55496">
        <ele>2379.880859375</ele>
        <time>2012-09-15T10:35:28Z</time>
      </trkpt>
      <trkpt lat="44.3322" lon="6.55486">
        <ele>2381.3229980469</ele>
        <time>2012-09-15T10:35:36Z</time>
      </trkpt>
      <trkpt lat="44.33217" lon="6.55482">
        <ele>2382.2844238281</ele>
        <time>2012-09-15T10:35:42Z</time>
      </trkpt>
      <trkpt lat="44.33214" lon="6.55481">
        <ele>2381.8037109375</ele>
        <time>2012-09-15T10:35:48Z</time>
      </trkpt>
      <trkpt lat="44.33209" lon="6.55481">
        <ele>2379.880859375</ele>
        <time>2012-09-15T10:35:54Z</time>
      </trkpt>
      <trkpt lat="44.33204" lon="6.55475">
        <ele>2381.3229980469</ele>
        <time>2012-09-15T10:36:00Z</time>
      </trkpt>
      <trkpt lat="44.332" lon="6.5547">
        <ele>2381.8037109375</ele>
        <time>2012-09-15T10:36:05Z</time>
      </trkpt>
      <trkpt lat="44.33196" lon="6.55461">
        <ele>2383.7263183594</ele>
        <time>2012-09-15T10:36:13Z</time>
      </trkpt>
      <trkpt lat="44.33191" lon="6.55461">
        <ele>2383.7263183594</ele>
        <time>2012-09-15T10:36:17Z</time>
      </trkpt>
      <trkpt lat="44.33189" lon="6.55461">
        <ele>2383.2456054688</ele>
        <time>2012-09-15T10:36:19Z</time>
      </trkpt>
      <trkpt lat="44.33186" lon="6.55458">
        <ele>2383.7263183594</ele>
        <time>2012-09-15T10:36:23Z</time>
      </trkpt>
      <trkpt lat="44.33179" lon="6.55448">
        <ele>2383.7263183594</ele>
        <time>2012-09-15T10:36:33Z</time>
      </trkpt>
      <trkpt lat="44.33171" lon="6.55442">
        <ele>2384.20703125</ele>
        <time>2012-09-15T10:36:41Z</time>
      </trkpt>
      <trkpt lat="44.33165" lon="6.55438">
        <ele>2383.7263183594</ele>
        <time>2012-09-15T10:36:48Z</time>
      </trkpt>
      <trkpt lat="44.33159" lon="6.55432">
        <ele>2384.6877441406</ele>
        <time>2012-09-15T10:36:57Z</time>
      </trkpt>
      <trkpt lat="44.33156" lon="6.55425">
        <ele>2385.6489257812</ele>
        <time>2012-09-15T10:37:04Z</time>
      </trkpt>
      <trkpt lat="44.33152" lon="6.55418">
        <ele>2386.6101074219</ele>
        <time>2012-09-15T10:37:12Z</time>
      </trkpt>
      <trkpt lat="44.33148" lon="6.55412">
        <ele>2387.5715332031</ele>
        <time>2012-09-15T10:37:18Z</time>
      </trkpt>
      <trkpt lat="44.33143" lon="6.55403">
        <ele>2389.0134277344</ele>
        <time>2012-09-15T10:37:27Z</time>
      </trkpt>
      <trkpt lat="44.3314" lon="6.55394">
        <ele>2390.4553222656</ele>
        <time>2012-09-15T10:37:35Z</time>
      </trkpt>
      <trkpt lat="44.33135" lon="6.55385">
        <ele>2391.8974609375</ele>
        <time>2012-09-15T10:37:43Z</time>
      </trkpt>
      <trkpt lat="44.33131" lon="6.55376">
        <ele>2393.3393554688</ele>
        <time>2012-09-15T10:37:52Z</time>
      </trkpt>
      <trkpt lat="44.33128" lon="6.5537">
        <ele>2394.3005371094</ele>
        <time>2012-09-15T10:37:59Z</time>
      </trkpt>
      <trkpt lat="44.33124" lon="6.55362">
        <ele>2395.2619628906</ele>
        <time>2012-09-15T10:38:07Z</time>
      </trkpt>
      <trkpt lat="44.33123" lon="6.55359">
        <ele>2396.2236328125</ele>
        <time>2012-09-15T10:38:14Z</time>
      </trkpt>
      <trkpt lat="44.3312" lon="6.55353">
        <ele>2397.1848144531</ele>
        <time>2012-09-15T10:38:21Z</time>
      </trkpt>
      <trkpt lat="44.33118" lon="6.55346">
        <ele>2397.1848144531</ele>
        <time>2012-09-15T10:38:29Z</time>
      </trkpt>
      <trkpt lat="44.33118" lon="6.55339">
        <ele>2396.7041015625</ele>
        <time>2012-09-15T10:38:49Z</time>
      </trkpt>
      <trkpt lat="44.33117" lon="6.5533">
        <ele>2397.6655273438</ele>
        <time>2012-09-15T10:38:57Z</time>
      </trkpt>
      <trkpt lat="44.33115" lon="6.55323">
        <ele>2400.0688476562</ele>
        <time>2012-09-15T10:39:04Z</time>
      </trkpt>
      <trkpt lat="44.33114" lon="6.55314">
        <ele>2401.9912109375</ele>
        <time>2012-09-15T10:39:11Z</time>
      </trkpt>
      <trkpt lat="44.33112" lon="6.55306">
        <ele>2403.4333496094</ele>
        <time>2012-09-15T10:39:19Z</time>
      </trkpt>
      <trkpt lat="44.3311" lon="6.55296">
        <ele>2404.8752441406</ele>
        <time>2012-09-15T10:39:27Z</time>
      </trkpt>
      <trkpt lat="44.33106" lon="6.55291">
        <ele>2405.3559570312</ele>
        <time>2012-09-15T10:39:34Z</time>
      </trkpt>
      <trkpt lat="44.33104" lon="6.55287">
        <ele>2405.8364257812</ele>
        <time>2012-09-15T10:39:40Z</time>
      </trkpt>
      <trkpt lat="44.33101" lon="6.55279">
        <ele>2406.7978515625</ele>
        <time>2012-09-15T10:39:48Z</time>
      </trkpt>
      <trkpt lat="44.33099" lon="6.55273">
        <ele>2407.2785644531</ele>
        <time>2012-09-15T10:39:55Z</time>
      </trkpt>
      <trkpt lat="44.33098" lon="6.55267">
        <ele>2406.7978515625</ele>
        <time>2012-09-15T10:40:01Z</time>
      </trkpt>
      <trkpt lat="44.33096" lon="6.55261">
        <ele>2408.2397460938</ele>
        <time>2012-09-15T10:40:08Z</time>
      </trkpt>
      <trkpt lat="44.33097" lon="6.55256">
        <ele>2409.681640625</ele>
        <time>2012-09-15T10:40:14Z</time>
      </trkpt>
      <trkpt lat="44.33097" lon="6.55252">
        <ele>2410.1623535156</ele>
        <time>2012-09-15T10:40:19Z</time>
      </trkpt>
      <trkpt lat="44.33096" lon="6.55245">
        <ele>2410.6430664062</ele>
        <time>2012-09-15T10:40:26Z</time>
      </trkpt>
      <trkpt lat="44.33092" lon="6.55238">
        <ele>2411.6044921875</ele>
        <time>2012-09-15T10:40:34Z</time>
      </trkpt>
      <trkpt lat="44.33087" lon="6.55234">
        <ele>2411.1237792969</ele>
        <time>2012-09-15T10:40:41Z</time>
      </trkpt>
      <trkpt lat="44.33084" lon="6.55229">
        <ele>2411.1237792969</ele>
        <time>2012-09-15T10:40:47Z</time>
      </trkpt>
      <trkpt lat="44.33085" lon="6.55227">
        <ele>2414.0078125</ele>
        <time>2012-09-15T10:40:56Z</time>
      </trkpt>
      <trkpt lat="44.33081" lon="6.55219">
        <ele>2414.9692382812</ele>
        <time>2012-09-15T10:41:04Z</time>
      </trkpt>
      <trkpt lat="44.33078" lon="6.55211">
        <ele>2415.4499511719</ele>
        <time>2012-09-15T10:41:11Z</time>
      </trkpt>
      <trkpt lat="44.33078" lon="6.55205">
        <ele>2415.9304199219</ele>
        <time>2012-09-15T10:41:18Z</time>
      </trkpt>
      <trkpt lat="44.33074" lon="6.55196">
        <ele>2416.4111328125</ele>
        <time>2012-09-15T10:41:26Z</time>
      </trkpt>
      <trkpt lat="44.3307" lon="6.5519">
        <ele>2417.3723144531</ele>
        <time>2012-09-15T10:41:34Z</time>
      </trkpt>
      <trkpt lat="44.33066" lon="6.55186">
        <ele>2416.4111328125</ele>
        <time>2012-09-15T10:41:39Z</time>
      </trkpt>
      <trkpt lat="44.3306" lon="6.55183">
        <ele>2414.9692382812</ele>
        <time>2012-09-15T10:41:46Z</time>
      </trkpt>
      <trkpt lat="44.33057" lon="6.55182">
        <ele>2414.9692382812</ele>
        <time>2012-09-15T10:41:49Z</time>
      </trkpt>
      <trkpt lat="44.33046" lon="6.55179">
        <ele>2414.4885253906</ele>
        <time>2012-09-15T10:41:58Z</time>
      </trkpt>
      <trkpt lat="44.33041" lon="6.55178">
        <ele>2413.5270996094</ele>
        <time>2012-09-15T10:42:03Z</time>
      </trkpt>
      <trkpt lat="44.33036" lon="6.55177">
        <ele>2414.4885253906</ele>
        <time>2012-09-15T10:42:10Z</time>
      </trkpt>
      <trkpt lat="44.3303" lon="6.5517">
        <ele>2417.3723144531</ele>
        <time>2012-09-15T10:42:18Z</time>
      </trkpt>
      <trkpt lat="44.33023" lon="6.55162">
        <ele>2419.2951660156</ele>
        <time>2012-09-15T10:42:27Z</time>
      </trkpt>
      <trkpt lat="44.3302" lon="6.55157">
        <ele>2420.2563476562</ele>
        <time>2012-09-15T10:42:34Z</time>
      </trkpt>
      <trkpt lat="44.33018" lon="6.5515">
        <ele>2422.6596679688</ele>
        <time>2012-09-15T10:42:41Z</time>
      </trkpt>
      <trkpt lat="44.33018" lon="6.55143">
        <ele>2423.6208496094</ele>
        <time>2012-09-15T10:42:48Z</time>
      </trkpt>
      <trkpt lat="44.33016" lon="6.5513">
        <ele>2425.0627441406</ele>
        <time>2012-09-15T10:42:58Z</time>
      </trkpt>
      <trkpt lat="44.33014" lon="6.55123">
        <ele>2425.5434570312</ele>
        <time>2012-09-15T10:43:04Z</time>
      </trkpt>
      <trkpt lat="44.33007" lon="6.5511">
        <ele>2424.5822753906</ele>
        <time>2012-09-15T10:43:15Z</time>
      </trkpt>
      <trkpt lat="44.33" lon="6.55107">
        <ele>2424.1015625</ele>
        <time>2012-09-15T10:43:22Z</time>
      </trkpt>
      <trkpt lat="44.32993" lon="6.55102">
        <ele>2423.1403808594</ele>
        <time>2012-09-15T10:43:29Z</time>
      </trkpt>
      <trkpt lat="44.32988" lon="6.55098">
        <ele>2424.5822753906</ele>
        <time>2012-09-15T10:43:35Z</time>
      </trkpt>
      <trkpt lat="44.32985" lon="6.55088">
        <ele>2426.9855957031</ele>
        <time>2012-09-15T10:43:45Z</time>
      </trkpt>
      <trkpt lat="44.32982" lon="6.55084">
        <ele>2427.9467773438</ele>
        <time>2012-09-15T10:43:51Z</time>
      </trkpt>
      <trkpt lat="44.3298" lon="6.55083">
        <ele>2427.9467773438</ele>
        <time>2012-09-15T10:43:59Z</time>
      </trkpt>
      <trkpt lat="44.32979" lon="6.55082">
        <ele>2427.4660644531</ele>
        <time>2012-09-15T10:44:00Z</time>
      </trkpt>
      <trkpt lat="44.32969" lon="6.5508">
        <ele>2426.9855957031</ele>
        <time>2012-09-15T10:44:09Z</time>
      </trkpt>
      <trkpt lat="44.32964" lon="6.55081">
        <ele>2428.908203125</ele>
        <time>2012-09-15T10:44:15Z</time>
      </trkpt>
      <trkpt lat="44.32959" lon="6.5508">
        <ele>2429.3889160156</ele>
        <time>2012-09-15T10:44:24Z</time>
      </trkpt>
      <trkpt lat="44.32959" lon="6.55077">
        <ele>2429.8696289062</ele>
        <time>2012-09-15T10:44:41Z</time>
      </trkpt>
      <trkpt lat="44.32963" lon="6.55074">
        <ele>2428.908203125</ele>
        <time>2012-09-15T10:45:29Z</time>
      </trkpt>
      <trkpt lat="44.32965" lon="6.55078">
        <ele>2433.71484375</ele>
        <time>2012-09-15T10:49:16Z</time>
      </trkpt>
      <trkpt lat="44.32974" lon="6.55078">
        <ele>2441.4052734375</ele>
        <time>2012-09-15T10:49:27Z</time>
      </trkpt>
      <trkpt lat="44.32961" lon="6.55081">
        <ele>2435.6374511719</ele>
        <time>2012-09-15T10:56:29Z</time>
      </trkpt>
      <trkpt lat="44.32965" lon="6.55081">
        <ele>2439.4826660156</ele>
        <time>2012-09-15T10:56:42Z</time>
      </trkpt>
      <trkpt lat="44.32964" lon="6.55077">
        <ele>2438.521484375</ele>
        <time>2012-09-15T10:56:53Z</time>
      </trkpt>
      <trkpt lat="44.3295" lon="6.5507">
        <ele>2435.1567382812</ele>
        <time>2012-09-15T10:57:01Z</time>
      </trkpt>
      <trkpt lat="44.32938" lon="6.55066">
        <ele>2435.1567382812</ele>
        <time>2012-09-15T10:57:09Z</time>
      </trkpt>
      <trkpt lat="44.32928" lon="6.55064">
        <ele>2435.6374511719</ele>
        <time>2012-09-15T10:57:16Z</time>
      </trkpt>
      <trkpt lat="44.32918" lon="6.55058">
        <ele>2435.1567382812</ele>
        <time>2012-09-15T10:57:23Z</time>
      </trkpt>
      <trkpt lat="44.32905" lon="6.55053">
        <ele>2435.1567382812</ele>
        <time>2012-09-15T10:57:30Z</time>
      </trkpt>
      <trkpt lat="44.3289" lon="6.55052">
        <ele>2434.6762695312</ele>
        <time>2012-09-15T10:57:37Z</time>
      </trkpt>
      <trkpt lat="44.32876" lon="6.55051">
        <ele>2435.1567382812</ele>
        <time>2012-09-15T10:57:44Z</time>
      </trkpt>
      <trkpt lat="44.32866" lon="6.55044">
        <ele>2435.1567382812</ele>
        <time>2012-09-15T10:57:50Z</time>
      </trkpt>
      <trkpt lat="44.32857" lon="6.55038">
        <ele>2436.1181640625</ele>
        <time>2012-09-15T10:57:55Z</time>
      </trkpt>
      <trkpt lat="44.32849" lon="6.5503">
        <ele>2437.0793457031</ele>
        <time>2012-09-15T10:58:01Z</time>
      </trkpt>
      <trkpt lat="44.3284" lon="6.55021">
        <ele>2438.521484375</ele>
        <time>2012-09-15T10:58:08Z</time>
      </trkpt>
      <trkpt lat="44.32835" lon="6.55008">
        <ele>2439.9633789062</ele>
        <time>2012-09-15T10:58:16Z</time>
      </trkpt>
      <trkpt lat="44.32834" lon="6.54998">
        <ele>2440.9245605469</ele>
        <time>2012-09-15T10:58:21Z</time>
      </trkpt>
      <trkpt lat="44.32827" lon="6.54981">
        <ele>2440.4438476562</ele>
        <time>2012-09-15T10:58:31Z</time>
      </trkpt>
      <trkpt lat="44.32824" lon="6.54968">
        <ele>2440.9245605469</ele>
        <time>2012-09-15T10:58:38Z</time>
      </trkpt>
      <trkpt lat="44.32822" lon="6.54954">
        <ele>2441.4052734375</ele>
        <time>2012-09-15T10:58:45Z</time>
      </trkpt>
      <trkpt lat="44.32817" lon="6.54949">
        <ele>2441.4052734375</ele>
        <time>2012-09-15T10:58:50Z</time>
      </trkpt>
      <trkpt lat="44.32808" lon="6.5494">
        <ele>2439.9633789062</ele>
        <time>2012-09-15T10:58:56Z</time>
      </trkpt>
      <trkpt lat="44.32805" lon="6.54936">
        <ele>2439.001953125</ele>
        <time>2012-09-15T10:58:59Z</time>
      </trkpt>
      <trkpt lat="44.32806" lon="6.54931">
        <ele>2438.0407714844</ele>
        <time>2012-09-15T10:59:06Z</time>
      </trkpt>
      <trkpt lat="44.32804" lon="6.54927">
        <ele>2438.521484375</ele>
        <time>2012-09-15T10:59:11Z</time>
      </trkpt>
      <trkpt lat="44.328" lon="6.54925">
        <ele>2438.0407714844</ele>
        <time>2012-09-15T10:59:17Z</time>
      </trkpt>
      <trkpt lat="44.32792" lon="6.54924">
        <ele>2438.521484375</ele>
        <time>2012-09-15T10:59:22Z</time>
      </trkpt>
      <trkpt lat="44.3279" lon="6.54923">
        <ele>2438.521484375</ele>
        <time>2012-09-15T10:59:23Z</time>
      </trkpt>
      <trkpt lat="44.32778" lon="6.5493">
        <ele>2440.4438476562</ele>
        <time>2012-09-15T10:59:31Z</time>
      </trkpt>
      <trkpt lat="44.32774" lon="6.5493">
        <ele>2440.4438476562</ele>
        <time>2012-09-15T10:59:35Z</time>
      </trkpt>
      <trkpt lat="44.32772" lon="6.54928">
        <ele>2440.9245605469</ele>
        <time>2012-09-15T10:59:38Z</time>
      </trkpt>
      <trkpt lat="44.32766" lon="6.54926">
        <ele>2439.9633789062</ele>
        <time>2012-09-15T10:59:47Z</time>
      </trkpt>
      <trkpt lat="44.32751" lon="6.54926">
        <ele>2440.4438476562</ele>
        <time>2012-09-15T10:59:53Z</time>
      </trkpt>
      <trkpt lat="44.32738" lon="6.54923">
        <ele>2441.8859863281</ele>
        <time>2012-09-15T10:59:59Z</time>
      </trkpt>
      <trkpt lat="44.32729" lon="6.54921">
        <ele>2442.8471679688</ele>
        <time>2012-09-15T11:00:04Z</time>
      </trkpt>
      <trkpt lat="44.32717" lon="6.5492">
        <ele>2444.2893066406</ele>
        <time>2012-09-15T11:00:11Z</time>
      </trkpt>
      <trkpt lat="44.32709" lon="6.54919">
        <ele>2445.2507324219</ele>
        <time>2012-09-15T11:00:15Z</time>
      </trkpt>
      <trkpt lat="44.32705" lon="6.54919">
        <ele>2446.2121582031</ele>
        <time>2012-09-15T11:00:19Z</time>
      </trkpt>
      <trkpt lat="44.32703" lon="6.54921">
        <ele>2446.6926269531</ele>
        <time>2012-09-15T11:00:25Z</time>
      </trkpt>
      <trkpt lat="44.327" lon="6.54922">
        <ele>2446.6926269531</ele>
        <time>2012-09-15T11:00:28Z</time>
      </trkpt>
      <trkpt lat="44.32686" lon="6.54927">
        <ele>2447.6540527344</ele>
        <time>2012-09-15T11:00:36Z</time>
      </trkpt>
      <trkpt lat="44.32675" lon="6.5493">
        <ele>2450.0573730469</ele>
        <time>2012-09-15T11:00:43Z</time>
      </trkpt>
      <trkpt lat="44.32664" lon="6.54932">
        <ele>2451.0185546875</ele>
        <time>2012-09-15T11:00:50Z</time>
      </trkpt>
      <trkpt lat="44.32663" lon="6.54932">
        <ele>2450.0573730469</ele>
        <time>2012-09-15T11:00:56Z</time>
      </trkpt>
      <trkpt lat="44.32658" lon="6.5493">
        <ele>2449.0959472656</ele>
        <time>2012-09-15T11:01:00Z</time>
      </trkpt>
      <trkpt lat="44.32653" lon="6.54929">
        <ele>2449.5766601562</ele>
        <time>2012-09-15T11:01:05Z</time>
      </trkpt>
      <trkpt lat="44.32645" lon="6.54927">
        <ele>2451.0185546875</ele>
        <time>2012-09-15T11:01:14Z</time>
      </trkpt>
      <trkpt lat="44.32639" lon="6.54926">
        <ele>2453.9025878906</ele>
        <time>2012-09-15T11:01:21Z</time>
      </trkpt>
      <trkpt lat="44.32636" lon="6.54925">
        <ele>2454.3830566406</ele>
        <time>2012-09-15T11:01:27Z</time>
      </trkpt>
      <trkpt lat="44.32631" lon="6.54926">
        <ele>2454.3830566406</ele>
        <time>2012-09-15T11:01:35Z</time>
      </trkpt>
      <trkpt lat="44.32624" lon="6.54928">
        <ele>2454.3830566406</ele>
        <time>2012-09-15T11:01:43Z</time>
      </trkpt>
      <trkpt lat="44.32616" lon="6.54927">
        <ele>2455.8249511719</ele>
        <time>2012-09-15T11:01:51Z</time>
      </trkpt>
      <trkpt lat="44.32611" lon="6.54925">
        <ele>2456.3056640625</ele>
        <time>2012-09-15T11:01:58Z</time>
      </trkpt>
      <trkpt lat="44.32607" lon="6.54924">
        <ele>2456.3056640625</ele>
        <time>2012-09-15T11:02:04Z</time>
      </trkpt>
      <trkpt lat="44.32601" lon="6.5492">
        <ele>2455.3444824219</ele>
        <time>2012-09-15T11:02:12Z</time>
      </trkpt>
      <trkpt lat="44.32597" lon="6.5492">
        <ele>2454.8637695312</ele>
        <time>2012-09-15T11:02:18Z</time>
      </trkpt>
      <trkpt lat="44.32598" lon="6.54921">
        <ele>2458.2282714844</ele>
        <time>2012-09-15T11:02:29Z</time>
      </trkpt>
      <trkpt lat="44.32589" lon="6.54909">
        <ele>2458.708984375</ele>
        <time>2012-09-15T11:02:34Z</time>
      </trkpt>
      <trkpt lat="44.32579" lon="6.54894">
        <ele>2457.7478027344</ele>
        <time>2012-09-15T11:02:39Z</time>
      </trkpt>
      <trkpt lat="44.32571" lon="6.54878">
        <ele>2457.7478027344</ele>
        <time>2012-09-15T11:02:43Z</time>
      </trkpt>
      <trkpt lat="44.32564" lon="6.54868">
        <ele>2457.7478027344</ele>
        <time>2012-09-15T11:02:48Z</time>
      </trkpt>
      <trkpt lat="44.32555" lon="6.5485">
        <ele>2458.2282714844</ele>
        <time>2012-09-15T11:02:55Z</time>
      </trkpt>
      <trkpt lat="44.32553" lon="6.54848">
        <ele>2458.2282714844</ele>
        <time>2012-09-15T11:02:56Z</time>
      </trkpt>
      <trkpt lat="44.32544" lon="6.54842">
        <ele>2458.2282714844</ele>
        <time>2012-09-15T11:03:00Z</time>
      </trkpt>
      <trkpt lat="44.32537" lon="6.54826">
        <ele>2458.708984375</ele>
        <time>2012-09-15T11:03:06Z</time>
      </trkpt>
      <trkpt lat="44.32535" lon="6.54815">
        <ele>2457.7478027344</ele>
        <time>2012-09-15T11:03:10Z</time>
      </trkpt>
      <trkpt lat="44.32535" lon="6.54813">
        <ele>2456.3056640625</ele>
        <time>2012-09-15T11:03:16Z</time>
      </trkpt>
      <trkpt lat="44.32528" lon="6.548">
        <ele>2457.2670898438</ele>
        <time>2012-09-15T11:03:27Z</time>
      </trkpt>
      <trkpt lat="44.32524" lon="6.54792">
        <ele>2457.7478027344</ele>
        <time>2012-09-15T11:03:33Z</time>
      </trkpt>
      <trkpt lat="44.32519" lon="6.54787">
        <ele>2457.7478027344</ele>
        <time>2012-09-15T11:03:40Z</time>
      </trkpt>
      <trkpt lat="44.3252" lon="6.54786">
        <ele>2457.2670898438</ele>
        <time>2012-09-15T11:03:55Z</time>
      </trkpt>
      <trkpt lat="44.32518" lon="6.54784">
        <ele>2458.2282714844</ele>
        <time>2012-09-15T11:04:01Z</time>
      </trkpt>
      <trkpt lat="44.32516" lon="6.54781">
        <ele>2458.708984375</ele>
        <time>2012-09-15T11:04:03Z</time>
      </trkpt>
      <trkpt lat="44.32508" lon="6.54772">
        <ele>2460.6318359375</ele>
        <time>2012-09-15T11:04:10Z</time>
      </trkpt>
      <trkpt lat="44.325" lon="6.54776">
        <ele>2462.0737304688</ele>
        <time>2012-09-15T11:04:15Z</time>
      </trkpt>
      <trkpt lat="44.32497" lon="6.54777">
        <ele>2462.5544433594</ele>
        <time>2012-09-15T11:04:17Z</time>
      </trkpt>
      <trkpt lat="44.3249" lon="6.54776">
        <ele>2462.0737304688</ele>
        <time>2012-09-15T11:04:21Z</time>
      </trkpt>
      <trkpt lat="44.32478" lon="6.54778">
        <ele>2462.0737304688</ele>
        <time>2012-09-15T11:04:25Z</time>
      </trkpt>
      <trkpt lat="44.32471" lon="6.54782">
        <ele>2462.0737304688</ele>
        <time>2012-09-15T11:04:30Z</time>
      </trkpt>
      <trkpt lat="44.3247" lon="6.54783">
        <ele>2462.0737304688</ele>
        <time>2012-09-15T11:04:32Z</time>
      </trkpt>
      <trkpt lat="44.32463" lon="6.54788">
        <ele>2462.0737304688</ele>
        <time>2012-09-15T11:04:40Z</time>
      </trkpt>
      <trkpt lat="44.32453" lon="6.5479">
        <ele>2463.515625</ele>
        <time>2012-09-15T11:04:46Z</time>
      </trkpt>
      <trkpt lat="44.32449" lon="6.54791">
        <ele>2464.4770507812</ele>
        <time>2012-09-15T11:04:48Z</time>
      </trkpt>
      <trkpt lat="44.32438" lon="6.54799">
        <ele>2464.9577636719</ele>
        <time>2012-09-15T11:04:56Z</time>
      </trkpt>
      <trkpt lat="44.32427" lon="6.54803">
        <ele>2465.4384765625</ele>
        <time>2012-09-15T11:05:02Z</time>
      </trkpt>
      <trkpt lat="44.32413" lon="6.54806">
        <ele>2465.9189453125</ele>
        <time>2012-09-15T11:05:09Z</time>
      </trkpt>
      <trkpt lat="44.32398" lon="6.54812">
        <ele>2465.9189453125</ele>
        <time>2012-09-15T11:05:16Z</time>
      </trkpt>
      <trkpt lat="44.32384" lon="6.54817">
        <ele>2464.9577636719</ele>
        <time>2012-09-15T11:05:23Z</time>
      </trkpt>
      <trkpt lat="44.32373" lon="6.54818">
        <ele>2465.4384765625</ele>
        <time>2012-09-15T11:05:29Z</time>
      </trkpt>
      <trkpt lat="44.32362" lon="6.54821">
        <ele>2467.3608398438</ele>
        <time>2012-09-15T11:05:36Z</time>
      </trkpt>
      <trkpt lat="44.32355" lon="6.54822">
        <ele>2467.8415527344</ele>
        <time>2012-09-15T11:05:41Z</time>
      </trkpt>
      <trkpt lat="44.32351" lon="6.54822">
        <ele>2468.322265625</ele>
        <time>2012-09-15T11:05:48Z</time>
      </trkpt>
      <trkpt lat="44.3235" lon="6.54823">
        <ele>2468.8029785156</ele>
        <time>2012-09-15T11:05:49Z</time>
      </trkpt>
      <trkpt lat="44.32339" lon="6.54829">
        <ele>2470.2448730469</ele>
        <time>2012-09-15T11:05:57Z</time>
      </trkpt>
      <trkpt lat="44.32329" lon="6.54837">
        <ele>2471.2060546875</ele>
        <time>2012-09-15T11:06:04Z</time>
      </trkpt>
      <trkpt lat="44.32317" lon="6.54845">
        <ele>2471.2060546875</ele>
        <time>2012-09-15T11:06:12Z</time>
      </trkpt>
      <trkpt lat="44.32304" lon="6.54858">
        <ele>2472.6481933594</ele>
        <time>2012-09-15T11:06:22Z</time>
      </trkpt>
      <trkpt lat="44.32296" lon="6.54868">
        <ele>2473.609375</ele>
        <time>2012-09-15T11:06:29Z</time>
      </trkpt>
      <trkpt lat="44.32292" lon="6.54872">
        <ele>2474.0900878906</ele>
        <time>2012-09-15T11:06:32Z</time>
      </trkpt>
      <trkpt lat="44.32289" lon="6.54875">
        <ele>2475.0512695312</ele>
        <time>2012-09-15T11:06:39Z</time>
      </trkpt>
      <trkpt lat="44.32288" lon="6.54879">
        <ele>2477.4548339844</ele>
        <time>2012-09-15T11:06:45Z</time>
      </trkpt>
      <trkpt lat="44.32286" lon="6.54882">
        <ele>2477.4548339844</ele>
        <time>2012-09-15T11:06:47Z</time>
      </trkpt>
      <trkpt lat="44.32276" lon="6.54892">
        <ele>2476.0129394531</ele>
        <time>2012-09-15T11:06:56Z</time>
      </trkpt>
      <trkpt lat="44.32265" lon="6.54903">
        <ele>2476.0129394531</ele>
        <time>2012-09-15T11:07:05Z</time>
      </trkpt>
      <trkpt lat="44.32257" lon="6.54911">
        <ele>2477.4548339844</ele>
        <time>2012-09-15T11:07:12Z</time>
      </trkpt>
      <trkpt lat="44.32249" lon="6.54916">
        <ele>2478.8967285156</ele>
        <time>2012-09-15T11:07:19Z</time>
      </trkpt>
      <trkpt lat="44.32239" lon="6.54927">
        <ele>2480.3388671875</ele>
        <time>2012-09-15T11:07:30Z</time>
      </trkpt>
      <trkpt lat="44.32237" lon="6.54929">
        <ele>2481.7807617188</ele>
        <time>2012-09-15T11:07:36Z</time>
      </trkpt>
      <trkpt lat="44.32232" lon="6.54935">
        <ele>2483.22265625</ele>
        <time>2012-09-15T11:07:44Z</time>
      </trkpt>
      <trkpt lat="44.32225" lon="6.54943">
        <ele>2484.6647949219</ele>
        <time>2012-09-15T11:07:52Z</time>
      </trkpt>
      <trkpt lat="44.32217" lon="6.54948">
        <ele>2484.6647949219</ele>
        <time>2012-09-15T11:08:01Z</time>
      </trkpt>
      <trkpt lat="44.3221" lon="6.54951">
        <ele>2485.1452636719</ele>
        <time>2012-09-15T11:08:10Z</time>
      </trkpt>
      <trkpt lat="44.32203" lon="6.54956">
        <ele>2486.5871582031</ele>
        <time>2012-09-15T11:08:18Z</time>
      </trkpt>
      <trkpt lat="44.32204" lon="6.54957">
        <ele>2487.0678710938</ele>
        <time>2012-09-15T11:08:25Z</time>
      </trkpt>
      <trkpt lat="44.32206" lon="6.54959">
        <ele>2488.5100097656</ele>
        <time>2012-09-15T11:08:31Z</time>
      </trkpt>
      <trkpt lat="44.32207" lon="6.54959">
        <ele>2489.4711914062</ele>
        <time>2012-09-15T11:08:56Z</time>
      </trkpt>
      <trkpt lat="44.32205" lon="6.54961">
        <ele>2489.9519042969</ele>
        <time>2012-09-15T11:09:02Z</time>
      </trkpt>
      <trkpt lat="44.32199" lon="6.54964">
        <ele>2489.9519042969</ele>
        <time>2012-09-15T11:09:09Z</time>
      </trkpt>
      <trkpt lat="44.32188" lon="6.54969">
        <ele>2488.9904785156</ele>
        <time>2012-09-15T11:09:19Z</time>
      </trkpt>
      <trkpt lat="44.32177" lon="6.54975">
        <ele>2489.4711914062</ele>
        <time>2012-09-15T11:09:27Z</time>
      </trkpt>
      <trkpt lat="44.32168" lon="6.54978">
        <ele>2490.9130859375</ele>
        <time>2012-09-15T11:09:35Z</time>
      </trkpt>
      <trkpt lat="44.32163" lon="6.5498">
        <ele>2491.3937988281</ele>
        <time>2012-09-15T11:09:41Z</time>
      </trkpt>
      <trkpt lat="44.32153" lon="6.54983">
        <ele>2492.35546875</ele>
        <time>2012-09-15T11:09:49Z</time>
      </trkpt>
      <trkpt lat="44.32152" lon="6.54984">
        <ele>2492.8359375</ele>
        <time>2012-09-15T11:09:50Z</time>
      </trkpt>
      <trkpt lat="44.32151" lon="6.54984">
        <ele>2495.2392578125</ele>
        <time>2012-09-15T11:10:00Z</time>
      </trkpt>
      <trkpt lat="44.32152" lon="6.54983">
        <ele>2496.2006835938</ele>
        <time>2012-09-15T11:10:05Z</time>
      </trkpt>
      <trkpt lat="44.32153" lon="6.54979">
        <ele>2494.2778320312</ele>
        <time>2012-09-15T11:10:13Z</time>
      </trkpt>
      <trkpt lat="44.32154" lon="6.54974">
        <ele>2492.35546875</ele>
        <time>2012-09-15T11:10:21Z</time>
      </trkpt>
      <trkpt lat="44.32159" lon="6.5497">
        <ele>2493.7973632812</ele>
        <time>2012-09-15T11:10:28Z</time>
      </trkpt>
      <trkpt lat="44.32164" lon="6.54965">
        <ele>2494.2778320312</ele>
        <time>2012-09-15T11:10:35Z</time>
      </trkpt>
      <trkpt lat="44.32169" lon="6.54962">
        <ele>2496.2006835938</ele>
        <time>2012-09-15T11:10:41Z</time>
      </trkpt>
      <trkpt lat="44.32175" lon="6.54957">
        <ele>2498.123046875</ele>
        <time>2012-09-15T11:10:49Z</time>
      </trkpt>
      <trkpt lat="44.32182" lon="6.54951">
        <ele>2500.5263671875</ele>
        <time>2012-09-15T11:10:58Z</time>
      </trkpt>
      <trkpt lat="44.32183" lon="6.54944">
        <ele>2503.4104003906</ele>
        <time>2012-09-15T11:11:07Z</time>
      </trkpt>
      <trkpt lat="44.32188" lon="6.54934">
        <ele>2501.4877929688</ele>
        <time>2012-09-15T11:11:14Z</time>
      </trkpt>
      <trkpt lat="44.32192" lon="6.54931">
        <ele>2502.9296875</ele>
        <time>2012-09-15T11:11:19Z</time>
      </trkpt>
      <trkpt lat="44.32193" lon="6.54929">
        <ele>2504.3715820312</ele>
        <time>2012-09-15T11:11:26Z</time>
      </trkpt>
      <trkpt lat="44.32196" lon="6.54925">
        <ele>2502.9296875</ele>
        <time>2012-09-15T11:11:33Z</time>
      </trkpt>
      <trkpt lat="44.32205" lon="6.54909">
        <ele>2501.9682617188</ele>
        <time>2012-09-15T11:11:43Z</time>
      </trkpt>
      <trkpt lat="44.32205" lon="6.54907">
        <ele>2502.4489746094</ele>
        <time>2012-09-15T11:11:44Z</time>
      </trkpt>
      <trkpt lat="44.32208" lon="6.549">
        <ele>2503.4104003906</ele>
        <time>2012-09-15T11:11:51Z</time>
      </trkpt>
      <trkpt lat="44.32209" lon="6.54902">
        <ele>2505.3330078125</ele>
        <time>2012-09-15T11:11:58Z</time>
      </trkpt>
      <trkpt lat="44.32212" lon="6.54901">
        <ele>2506.7749023438</ele>
        <time>2012-09-15T11:12:22Z</time>
      </trkpt>
      <trkpt lat="44.32217" lon="6.54886">
        <ele>2507.2556152344</ele>
        <time>2012-09-15T11:12:29Z</time>
      </trkpt>
      <trkpt lat="44.32225" lon="6.5487">
        <ele>2507.2556152344</ele>
        <time>2012-09-15T11:12:36Z</time>
      </trkpt>
      <trkpt lat="44.32232" lon="6.54852">
        <ele>2505.3330078125</ele>
        <time>2012-09-15T11:12:42Z</time>
      </trkpt>
      <trkpt lat="44.32237" lon="6.54834">
        <ele>2504.8522949219</ele>
        <time>2012-09-15T11:12:48Z</time>
      </trkpt>
      <trkpt lat="44.32244" lon="6.54822">
        <ele>2505.3330078125</ele>
        <time>2012-09-15T11:12:53Z</time>
      </trkpt>
      <trkpt lat="44.32245" lon="6.54821">
        <ele>2505.3330078125</ele>
        <time>2012-09-15T11:12:54Z</time>
      </trkpt>
      <trkpt lat="44.32251" lon="6.54808">
        <ele>2507.736328125</ele>
        <time>2012-09-15T11:13:00Z</time>
      </trkpt>
      <trkpt lat="44.32253" lon="6.54803">
        <ele>2508.6977539062</ele>
        <time>2012-09-15T11:13:03Z</time>
      </trkpt>
      <trkpt lat="44.32257" lon="6.54789">
        <ele>2510.1396484375</ele>
        <time>2012-09-15T11:13:10Z</time>
      </trkpt>
      <trkpt lat="44.3226" lon="6.54775">
        <ele>2511.5817871094</ele>
        <time>2012-09-15T11:13:17Z</time>
      </trkpt>
      <trkpt lat="44.32265" lon="6.54758">
        <ele>2511.5817871094</ele>
        <time>2012-09-15T11:13:25Z</time>
      </trkpt>
      <trkpt lat="44.3227" lon="6.54747">
        <ele>2513.0236816406</ele>
        <time>2012-09-15T11:13:31Z</time>
      </trkpt>
      <trkpt lat="44.32271" lon="6.5474">
        <ele>2514.4655761719</ele>
        <time>2012-09-15T11:13:35Z</time>
      </trkpt>
      <trkpt lat="44.32272" lon="6.54737">
        <ele>2515.4270019531</ele>
        <time>2012-09-15T11:13:37Z</time>
      </trkpt>
      <trkpt lat="44.32272" lon="6.54736">
        <ele>2515.4270019531</ele>
        <time>2012-09-15T11:13:45Z</time>
      </trkpt>
      <trkpt lat="44.32274" lon="6.54733">
        <ele>2516.8688964844</ele>
        <time>2012-09-15T11:13:57Z</time>
      </trkpt>
      <trkpt lat="44.32278" lon="6.5473">
        <ele>2519.7526855469</ele>
        <time>2012-09-15T11:14:04Z</time>
      </trkpt>
      <trkpt lat="44.32281" lon="6.54722">
        <ele>2524.0788574219</ele>
        <time>2012-09-15T11:14:15Z</time>
      </trkpt>
      <trkpt lat="44.32281" lon="6.54714">
        <ele>2525.0400390625</ele>
        <time>2012-09-15T11:14:23Z</time>
      </trkpt>
      <trkpt lat="44.32282" lon="6.54704">
        <ele>2527.443359375</ele>
        <time>2012-09-15T11:14:33Z</time>
      </trkpt>
      <trkpt lat="44.32283" lon="6.54696">
        <ele>2529.3659667969</ele>
        <time>2012-09-15T11:14:42Z</time>
      </trkpt>
      <trkpt lat="44.32286" lon="6.54691">
        <ele>2531.2885742188</ele>
        <time>2012-09-15T11:14:49Z</time>
      </trkpt>
      <trkpt lat="44.32286" lon="6.54685">
        <ele>2532.73046875</ele>
        <time>2012-09-15T11:14:56Z</time>
      </trkpt>
      <trkpt lat="44.32287" lon="6.54679">
        <ele>2534.1726074219</ele>
        <time>2012-09-15T11:15:03Z</time>
      </trkpt>
      <trkpt lat="44.32288" lon="6.54668">
        <ele>2534.6533203125</ele>
        <time>2012-09-15T11:15:13Z</time>
      </trkpt>
      <trkpt lat="44.32291" lon="6.54661">
        <ele>2537.0563964844</ele>
        <time>2012-09-15T11:15:23Z</time>
      </trkpt>
      <trkpt lat="44.32293" lon="6.54655">
        <ele>2538.4985351562</ele>
        <time>2012-09-15T11:15:31Z</time>
      </trkpt>
      <trkpt lat="44.32294" lon="6.54651">
        <ele>2539.4597167969</ele>
        <time>2012-09-15T11:15:38Z</time>
      </trkpt>
      <trkpt lat="44.32295" lon="6.54644">
        <ele>2539.9404296875</ele>
        <time>2012-09-15T11:15:46Z</time>
      </trkpt>
      <trkpt lat="44.32298" lon="6.54641">
        <ele>2542.3439941406</ele>
        <time>2012-09-15T11:15:54Z</time>
      </trkpt>
      <trkpt lat="44.32299" lon="6.54636">
        <ele>2544.7470703125</ele>
        <time>2012-09-15T11:16:02Z</time>
      </trkpt>
      <trkpt lat="44.32298" lon="6.54634">
        <ele>2546.1892089844</ele>
        <time>2012-09-15T11:16:08Z</time>
      </trkpt>
      <trkpt lat="44.32298" lon="6.54629">
        <ele>2547.6311035156</ele>
        <time>2012-09-15T11:16:16Z</time>
      </trkpt>
      <trkpt lat="44.32304" lon="6.54626">
        <ele>2549.0729980469</ele>
        <time>2012-09-15T11:16:25Z</time>
      </trkpt>
      <trkpt lat="44.32305" lon="6.54621">
        <ele>2550.0344238281</ele>
        <time>2012-09-15T11:16:31Z</time>
      </trkpt>
      <trkpt lat="44.32307" lon="6.54617">
        <ele>2551.4763183594</ele>
        <time>2012-09-15T11:16:38Z</time>
      </trkpt>
      <trkpt lat="44.3231" lon="6.54614">
        <ele>2553.3989257812</ele>
        <time>2012-09-15T11:16:46Z</time>
      </trkpt>
      <trkpt lat="44.32311" lon="6.54611">
        <ele>2550.9956054688</ele>
        <time>2012-09-15T11:17:13Z</time>
      </trkpt>
      <trkpt lat="44.32313" lon="6.54606">
        <ele>2553.3989257812</ele>
        <time>2012-09-15T11:17:19Z</time>
      </trkpt>
      <trkpt lat="44.32315" lon="6.54602">
        <ele>2555.8020019531</ele>
        <time>2012-09-15T11:17:26Z</time>
      </trkpt>
      <trkpt lat="44.32318" lon="6.54597">
        <ele>2557.2443847656</ele>
        <time>2012-09-15T11:17:34Z</time>
      </trkpt>
      <trkpt lat="44.3232" lon="6.54592">
        <ele>2557.7250976562</ele>
        <time>2012-09-15T11:17:40Z</time>
      </trkpt>
      <trkpt lat="44.32321" lon="6.54586">
        <ele>2559.1669921875</ele>
        <time>2012-09-15T11:17:48Z</time>
      </trkpt>
      <trkpt lat="44.32323" lon="6.5458">
        <ele>2561.5703125</ele>
        <time>2012-09-15T11:17:57Z</time>
      </trkpt>
      <trkpt lat="44.32324" lon="6.54575">
        <ele>2563.4926757812</ele>
        <time>2012-09-15T11:18:05Z</time>
      </trkpt>
      <trkpt lat="44.32326" lon="6.54571">
        <ele>2563.4926757812</ele>
        <time>2012-09-15T11:18:11Z</time>
      </trkpt>
      <trkpt lat="44.32324" lon="6.54568">
        <ele>2564.4541015625</ele>
        <time>2012-09-15T11:18:16Z</time>
      </trkpt>
      <trkpt lat="44.32323" lon="6.54564">
        <ele>2565.4155273438</ele>
        <time>2012-09-15T11:18:22Z</time>
      </trkpt>
      <trkpt lat="44.32323" lon="6.54561">
        <ele>2565.8959960938</ele>
        <time>2012-09-15T11:18:28Z</time>
      </trkpt>
      <trkpt lat="44.32326" lon="6.54557">
        <ele>2566.857421875</ele>
        <time>2012-09-15T11:18:36Z</time>
      </trkpt>
      <trkpt lat="44.32325" lon="6.54554">
        <ele>2567.337890625</ele>
        <time>2012-09-15T11:18:42Z</time>
      </trkpt>
      <trkpt lat="44.32328" lon="6.54552">
        <ele>2569.7412109375</ele>
        <time>2012-09-15T11:18:48Z</time>
      </trkpt>
      <trkpt lat="44.3233" lon="6.54547">
        <ele>2572.1447753906</ele>
        <time>2012-09-15T11:18:57Z</time>
      </trkpt>
      <trkpt lat="44.32332" lon="6.54543">
        <ele>2573.1062011719</ele>
        <time>2012-09-15T11:19:05Z</time>
      </trkpt>
      <trkpt lat="44.32332" lon="6.54536">
        <ele>2574.0673828125</ele>
        <time>2012-09-15T11:19:13Z</time>
      </trkpt>
      <trkpt lat="44.32332" lon="6.54531">
        <ele>2574.5480957031</ele>
        <time>2012-09-15T11:19:20Z</time>
      </trkpt>
      <trkpt lat="44.32332" lon="6.54528">
        <ele>2574.0673828125</ele>
        <time>2012-09-15T11:19:27Z</time>
      </trkpt>
      <trkpt lat="44.32332" lon="6.54525">
        <ele>2574.5480957031</ele>
        <time>2012-09-15T11:19:35Z</time>
      </trkpt>
      <trkpt lat="44.32332" lon="6.54528">
        <ele>2575.5092773438</ele>
        <time>2012-09-15T11:19:43Z</time>
      </trkpt>
      <trkpt lat="44.32341" lon="6.5453">
        <ele>2584.6418457031</ele>
        <time>2012-09-15T12:11:12Z</time>
      </trkpt>
      <trkpt lat="44.32334" lon="6.54526">
        <ele>2584.1611328125</ele>
        <time>2012-09-15T12:12:29Z</time>
      </trkpt>
      <trkpt lat="44.32333" lon="6.54528">
        <ele>2580.7966308594</ele>
        <time>2012-09-15T12:12:55Z</time>
      </trkpt>
      <trkpt lat="44.32333" lon="6.54529">
        <ele>2578.3933105469</ele>
        <time>2012-09-15T12:13:07Z</time>
      </trkpt>
      <trkpt lat="44.32334" lon="6.5453">
        <ele>2577.4318847656</ele>
        <time>2012-09-15T12:13:15Z</time>
      </trkpt>
      <trkpt lat="44.32333" lon="6.54531">
        <ele>2578.3933105469</ele>
        <time>2012-09-15T12:13:26Z</time>
      </trkpt>
      <trkpt lat="44.32333" lon="6.54531">
        <ele>2579.3544921875</ele>
        <time>2012-09-15T12:13:36Z</time>
      </trkpt>
      <trkpt lat="44.32333" lon="6.5453">
        <ele>2576.9514160156</ele>
        <time>2012-09-15T12:13:53Z</time>
      </trkpt>
      <trkpt lat="44.3233" lon="6.54529">
        <ele>2575.9899902344</ele>
        <time>2012-09-15T12:14:04Z</time>
      </trkpt>
      <trkpt lat="44.3232" lon="6.54515">
        <ele>2573.5866699219</ele>
        <time>2012-09-15T12:14:09Z</time>
      </trkpt>
      <trkpt lat="44.3231" lon="6.54503">
        <ele>2571.6638183594</ele>
        <time>2012-09-15T12:14:13Z</time>
      </trkpt>
      <trkpt lat="44.32298" lon="6.54483">
        <ele>2568.2993164062</ele>
        <time>2012-09-15T12:14:18Z</time>
      </trkpt>
      <trkpt lat="44.32296" lon="6.54475">
        <ele>2566.857421875</ele>
        <time>2012-09-15T12:14:21Z</time>
      </trkpt>
      <trkpt lat="44.32295" lon="6.54469">
        <ele>2565.8959960938</ele>
        <time>2012-09-15T12:14:24Z</time>
      </trkpt>
      <trkpt lat="44.32299" lon="6.54466">
        <ele>2563.0122070312</ele>
        <time>2012-09-15T12:14:29Z</time>
      </trkpt>
      <trkpt lat="44.323" lon="6.54465">
        <ele>2563.0122070312</ele>
        <time>2012-09-15T12:14:44Z</time>
      </trkpt>
      <trkpt lat="44.323" lon="6.54461">
        <ele>2564.4541015625</ele>
        <time>2012-09-15T12:15:07Z</time>
      </trkpt>
      <trkpt lat="44.32302" lon="6.54459">
        <ele>2563.4926757812</ele>
        <time>2012-09-15T12:15:09Z</time>
      </trkpt>
      <trkpt lat="44.3231" lon="6.54453">
        <ele>2559.1669921875</ele>
        <time>2012-09-15T12:15:13Z</time>
      </trkpt>
      <trkpt lat="44.32307" lon="6.54444">
        <ele>2556.2829589844</ele>
        <time>2012-09-15T12:15:17Z</time>
      </trkpt>
      <trkpt lat="44.32299" lon="6.54419">
        <ele>2550.0344238281</ele>
        <time>2012-09-15T12:15:23Z</time>
      </trkpt>
      <trkpt lat="44.32293" lon="6.54403">
        <ele>2546.1892089844</ele>
        <time>2012-09-15T12:15:27Z</time>
      </trkpt>
      <trkpt lat="44.32284" lon="6.54386">
        <ele>2542.3439941406</ele>
        <time>2012-09-15T12:15:31Z</time>
      </trkpt>
      <trkpt lat="44.32278" lon="6.54369">
        <ele>2538.0178222656</ele>
        <time>2012-09-15T12:15:35Z</time>
      </trkpt>
      <trkpt lat="44.32268" lon="6.54346">
        <ele>2533.6918945312</ele>
        <time>2012-09-15T12:15:40Z</time>
      </trkpt>
      <trkpt lat="44.32256" lon="6.54327">
        <ele>2529.3659667969</ele>
        <time>2012-09-15T12:15:45Z</time>
      </trkpt>
      <trkpt lat="44.32249" lon="6.54313">
        <ele>2526.4821777344</ele>
        <time>2012-09-15T12:15:49Z</time>
      </trkpt>
      <trkpt lat="44.32247" lon="6.5431">
        <ele>2525.5207519531</ele>
        <time>2012-09-15T12:15:50Z</time>
      </trkpt>
      <trkpt lat="44.32239" lon="6.54289">
        <ele>2521.6752929688</ele>
        <time>2012-09-15T12:15:55Z</time>
      </trkpt>
      <trkpt lat="44.3223" lon="6.54276">
        <ele>2518.7915039062</ele>
        <time>2012-09-15T12:16:00Z</time>
      </trkpt>
      <trkpt lat="44.32226" lon="6.54265">
        <ele>2516.8688964844</ele>
        <time>2012-09-15T12:16:02Z</time>
      </trkpt>
      <trkpt lat="44.32221" lon="6.54251">
        <ele>2514.4655761719</ele>
        <time>2012-09-15T12:16:05Z</time>
      </trkpt>
      <trkpt lat="44.32219" lon="6.54235">
        <ele>2510.1396484375</ele>
        <time>2012-09-15T12:16:09Z</time>
      </trkpt>
      <trkpt lat="44.32216" lon="6.5422">
        <ele>2506.7749023438</ele>
        <time>2012-09-15T12:16:12Z</time>
      </trkpt>
      <trkpt lat="44.32215" lon="6.54194">
        <ele>2502.4489746094</ele>
        <time>2012-09-15T12:16:17Z</time>
      </trkpt>
      <trkpt lat="44.32214" lon="6.54181">
        <ele>2500.0458984375</ele>
        <time>2012-09-15T12:16:19Z</time>
      </trkpt>
      <trkpt lat="44.32219" lon="6.54156">
        <ele>2495.2392578125</ele>
        <time>2012-09-15T12:16:25Z</time>
      </trkpt>
      <trkpt lat="44.32221" lon="6.54144">
        <ele>2493.3166503906</ele>
        <time>2012-09-15T12:16:28Z</time>
      </trkpt>
      <trkpt lat="44.32227" lon="6.54145">
        <ele>2490.9130859375</ele>
        <time>2012-09-15T12:16:32Z</time>
      </trkpt>
      <trkpt lat="44.32239" lon="6.54163">
        <ele>2488.5100097656</ele>
        <time>2012-09-15T12:16:37Z</time>
      </trkpt>
      <trkpt lat="44.32244" lon="6.5417">
        <ele>2487.5485839844</ele>
        <time>2012-09-15T12:16:39Z</time>
      </trkpt>
      <trkpt lat="44.32257" lon="6.54169">
        <ele>2485.6259765625</ele>
        <time>2012-09-15T12:16:44Z</time>
      </trkpt>
      <trkpt lat="44.32266" lon="6.54175">
        <ele>2484.6647949219</ele>
        <time>2012-09-15T12:16:47Z</time>
      </trkpt>
      <trkpt lat="44.32278" lon="6.54174">
        <ele>2482.2614746094</ele>
        <time>2012-09-15T12:16:50Z</time>
      </trkpt>
      <trkpt lat="44.3229" lon="6.54177">
        <ele>2481.7807617188</ele>
        <time>2012-09-15T12:16:53Z</time>
      </trkpt>
      <trkpt lat="44.32297" lon="6.54188">
        <ele>2480.8195800781</ele>
        <time>2012-09-15T12:16:56Z</time>
      </trkpt>
      <trkpt lat="44.32298" lon="6.5419">
        <ele>2480.3388671875</ele>
        <time>2012-09-15T12:17:04Z</time>
      </trkpt>
      <trkpt lat="44.32298" lon="6.54191">
        <ele>2480.3388671875</ele>
        <time>2012-09-15T12:17:17Z</time>
      </trkpt>
      <trkpt lat="44.32299" lon="6.54192">
        <ele>2478.8967285156</ele>
        <time>2012-09-15T12:17:39Z</time>
      </trkpt>
      <trkpt lat="44.32296" lon="6.54195">
        <ele>2476.9743652344</ele>
        <time>2012-09-15T12:17:51Z</time>
      </trkpt>
      <trkpt lat="44.32303" lon="6.542">
        <ele>2474.5708007812</ele>
        <time>2012-09-15T12:17:56Z</time>
      </trkpt>
      <trkpt lat="44.32309" lon="6.54202">
        <ele>2474.5708007812</ele>
        <time>2012-09-15T12:17:58Z</time>
      </trkpt>
      <trkpt lat="44.32312" lon="6.54213">
        <ele>2473.609375</ele>
        <time>2012-09-15T12:18:03Z</time>
      </trkpt>
      <trkpt lat="44.32315" lon="6.54214">
        <ele>2474.0900878906</ele>
        <time>2012-09-15T12:18:08Z</time>
      </trkpt>
      <trkpt lat="44.3232" lon="6.54215">
        <ele>2474.0900878906</ele>
        <time>2012-09-15T12:18:13Z</time>
      </trkpt>
      <trkpt lat="44.32323" lon="6.54216">
        <ele>2473.12890625</ele>
        <time>2012-09-15T12:18:17Z</time>
      </trkpt>
      <trkpt lat="44.32325" lon="6.54215">
        <ele>2470.7255859375</ele>
        <time>2012-09-15T12:18:24Z</time>
      </trkpt>
      <trkpt lat="44.32327" lon="6.54212">
        <ele>2469.7641601562</ele>
        <time>2012-09-15T12:18:27Z</time>
      </trkpt>
      <trkpt lat="44.32336" lon="6.54209">
        <ele>2465.9189453125</ele>
        <time>2012-09-15T12:18:31Z</time>
      </trkpt>
      <trkpt lat="44.32344" lon="6.54218">
        <ele>2465.4384765625</ele>
        <time>2012-09-15T12:18:36Z</time>
      </trkpt>
      <trkpt lat="44.32349" lon="6.54221">
        <ele>2463.9963378906</ele>
        <time>2012-09-15T12:18:39Z</time>
      </trkpt>
      <trkpt lat="44.32352" lon="6.54221">
        <ele>2463.03515625</ele>
        <time>2012-09-15T12:18:40Z</time>
      </trkpt>
      <trkpt lat="44.32357" lon="6.5422">
        <ele>2462.5544433594</ele>
        <time>2012-09-15T12:18:42Z</time>
      </trkpt>
      <trkpt lat="44.32364" lon="6.54229">
        <ele>2461.5932617188</ele>
        <time>2012-09-15T12:18:47Z</time>
      </trkpt>
      <trkpt lat="44.32368" lon="6.54227">
        <ele>2460.1511230469</ele>
        <time>2012-09-15T12:18:50Z</time>
      </trkpt>
      <trkpt lat="44.32378" lon="6.54218">
        <ele>2455.8249511719</ele>
        <time>2012-09-15T12:18:54Z</time>
      </trkpt>
      <trkpt lat="44.32387" lon="6.54206">
        <ele>2449.5766601562</ele>
        <time>2012-09-15T12:18:58Z</time>
      </trkpt>
      <trkpt lat="44.32396" lon="6.54203">
        <ele>2447.6540527344</ele>
        <time>2012-09-15T12:19:00Z</time>
      </trkpt>
      <trkpt lat="44.32404" lon="6.54199">
        <ele>2447.6540527344</ele>
        <time>2012-09-15T12:19:02Z</time>
      </trkpt>
      <trkpt lat="44.32416" lon="6.54209">
        <ele>2448.1345214844</ele>
        <time>2012-09-15T12:19:06Z</time>
      </trkpt>
      <trkpt lat="44.32422" lon="6.54211">
        <ele>2446.2121582031</ele>
        <time>2012-09-15T12:19:09Z</time>
      </trkpt>
      <trkpt lat="44.32425" lon="6.5421">
        <ele>2445.7314453125</ele>
        <time>2012-09-15T12:19:10Z</time>
      </trkpt>
      <trkpt lat="44.32441" lon="6.54194">
        <ele>2441.4052734375</ele>
        <time>2012-09-15T12:19:15Z</time>
      </trkpt>
      <trkpt lat="44.3246" lon="6.54184">
        <ele>2437.5600585938</ele>
        <time>2012-09-15T12:19:19Z</time>
      </trkpt>
      <trkpt lat="44.32472" lon="6.54175">
        <ele>2434.1955566406</ele>
        <time>2012-09-15T12:19:22Z</time>
      </trkpt>
      <trkpt lat="44.32487" lon="6.54165">
        <ele>2429.3889160156</ele>
        <time>2012-09-15T12:19:26Z</time>
      </trkpt>
      <trkpt lat="44.32502" lon="6.54148">
        <ele>2425.5434570312</ele>
        <time>2012-09-15T12:19:30Z</time>
      </trkpt>
      <trkpt lat="44.32514" lon="6.54128">
        <ele>2421.6982421875</ele>
        <time>2012-09-15T12:19:34Z</time>
      </trkpt>
      <trkpt lat="44.32529" lon="6.54095">
        <ele>2416.8918457031</ele>
        <time>2012-09-15T12:19:38Z</time>
      </trkpt>
      <trkpt lat="44.32543" lon="6.54075">
        <ele>2414.9692382812</ele>
        <time>2012-09-15T12:19:43Z</time>
      </trkpt>
      <trkpt lat="44.32544" lon="6.54074">
        <ele>2415.9304199219</ele>
        <time>2012-09-15T12:19:47Z</time>
      </trkpt>
      <trkpt lat="44.32544" lon="6.54075">
        <ele>2415.9304199219</ele>
        <time>2012-09-15T12:19:57Z</time>
      </trkpt>
      <trkpt lat="44.32544" lon="6.54075">
        <ele>2420.7370605469</ele>
        <time>2012-09-15T12:20:21Z</time>
      </trkpt>
      <trkpt lat="44.32544" lon="6.54075">
        <ele>2419.7756347656</ele>
        <time>2012-09-15T12:20:41Z</time>
      </trkpt>
      <trkpt lat="44.32543" lon="6.54075">
        <ele>2415.4499511719</ele>
        <time>2012-09-15T12:20:58Z</time>
      </trkpt>
      <trkpt lat="44.32541" lon="6.54076">
        <ele>2415.4499511719</ele>
        <time>2012-09-15T12:21:08Z</time>
      </trkpt>
      <trkpt lat="44.32534" lon="6.54076">
        <ele>2415.9304199219</ele>
        <time>2012-09-15T12:21:14Z</time>
      </trkpt>
      <trkpt lat="44.32531" lon="6.54075">
        <ele>2415.9304199219</ele>
        <time>2012-09-15T12:21:16Z</time>
      </trkpt>
      <trkpt lat="44.32528" lon="6.5406">
        <ele>2413.5270996094</ele>
        <time>2012-09-15T12:21:22Z</time>
      </trkpt>
      <trkpt lat="44.32524" lon="6.54045">
        <ele>2412.5659179688</ele>
        <time>2012-09-15T12:21:25Z</time>
      </trkpt>
      <trkpt lat="44.32522" lon="6.54015">
        <ele>2410.1623535156</ele>
        <time>2012-09-15T12:21:30Z</time>
      </trkpt>
      <trkpt lat="44.32523" lon="6.54009">
        <ele>2409.681640625</ele>
        <time>2012-09-15T12:21:31Z</time>
      </trkpt>
      <trkpt lat="44.32534" lon="6.53985">
        <ele>2405.3559570312</ele>
        <time>2012-09-15T12:21:35Z</time>
      </trkpt>
      <trkpt lat="44.32548" lon="6.53981">
        <ele>2402.9526367188</ele>
        <time>2012-09-15T12:21:38Z</time>
      </trkpt>
      <trkpt lat="44.32559" lon="6.53979">
        <ele>2401.9912109375</ele>
        <time>2012-09-15T12:21:40Z</time>
      </trkpt>
      <trkpt lat="44.32564" lon="6.53964">
        <ele>2401.0300292969</ele>
        <time>2012-09-15T12:21:43Z</time>
      </trkpt>
      <trkpt lat="44.32568" lon="6.53945">
        <ele>2398.6267089844</ele>
        <time>2012-09-15T12:21:46Z</time>
      </trkpt>
      <trkpt lat="44.32575" lon="6.53933">
        <ele>2395.7426757812</ele>
        <time>2012-09-15T12:21:50Z</time>
      </trkpt>
      <trkpt lat="44.32571" lon="6.53929">
        <ele>2394.3005371094</ele>
        <time>2012-09-15T12:21:54Z</time>
      </trkpt>
      <trkpt lat="44.32568" lon="6.53929">
        <ele>2393.8200683594</ele>
        <time>2012-09-15T12:21:55Z</time>
      </trkpt>
      <trkpt lat="44.32556" lon="6.53922">
        <ele>2391.8974609375</ele>
        <time>2012-09-15T12:22:00Z</time>
      </trkpt>
      <trkpt lat="44.32548" lon="6.5392">
        <ele>2390.4553222656</ele>
        <time>2012-09-15T12:22:03Z</time>
      </trkpt>
      <trkpt lat="44.32537" lon="6.53917">
        <ele>2388.0522460938</ele>
        <time>2012-09-15T12:22:06Z</time>
      </trkpt>
      <trkpt lat="44.32509" lon="6.5391">
        <ele>2382.7648925781</ele>
        <time>2012-09-15T12:22:13Z</time>
      </trkpt>
      <trkpt lat="44.3249" lon="6.53906">
        <ele>2379.4001464844</ele>
        <time>2012-09-15T12:22:18Z</time>
      </trkpt>
      <trkpt lat="44.32486" lon="6.53907">
        <ele>2378.9194335938</ele>
        <time>2012-09-15T12:22:19Z</time>
      </trkpt>
      <trkpt lat="44.32474" lon="6.53909">
        <ele>2376.9970703125</ele>
        <time>2012-09-15T12:22:23Z</time>
      </trkpt>
      <trkpt lat="44.3247" lon="6.53917">
        <ele>2374.59375</ele>
        <time>2012-09-15T12:22:27Z</time>
      </trkpt>
      <trkpt lat="44.32468" lon="6.53917">
        <ele>2374.1130371094</ele>
        <time>2012-09-15T12:22:30Z</time>
      </trkpt>
      <trkpt lat="44.32463" lon="6.53918">
        <ele>2373.1518554688</ele>
        <time>2012-09-15T12:22:34Z</time>
      </trkpt>
      <trkpt lat="44.3245" lon="6.5393">
        <ele>2372.6711425781</ele>
        <time>2012-09-15T12:22:39Z</time>
      </trkpt>
      <trkpt lat="44.32447" lon="6.53932">
        <ele>2372.6711425781</ele>
        <time>2012-09-15T12:22:40Z</time>
      </trkpt>
      <trkpt lat="44.3244" lon="6.53926">
        <ele>2372.1904296875</ele>
        <time>2012-09-15T12:22:44Z</time>
      </trkpt>
      <trkpt lat="44.32437" lon="6.5392">
        <ele>2372.1904296875</ele>
        <time>2012-09-15T12:22:46Z</time>
      </trkpt>
      <trkpt lat="44.32429" lon="6.5392">
        <ele>2371.2290039062</ele>
        <time>2012-09-15T12:22:50Z</time>
      </trkpt>
      <trkpt lat="44.32425" lon="6.53921">
        <ele>2371.2290039062</ele>
        <time>2012-09-15T12:22:54Z</time>
      </trkpt>
      <trkpt lat="44.32424" lon="6.53919">
        <ele>2370.7485351562</ele>
        <time>2012-09-15T12:22:56Z</time>
      </trkpt>
      <trkpt lat="44.3242" lon="6.53909">
        <ele>2369.306640625</ele>
        <time>2012-09-15T12:23:01Z</time>
      </trkpt>
      <trkpt lat="44.32419" lon="6.53906">
        <ele>2368.8259277344</ele>
        <time>2012-09-15T12:23:02Z</time>
      </trkpt>
      <trkpt lat="44.32419" lon="6.53892">
        <ele>2367.8645019531</ele>
        <time>2012-09-15T12:23:06Z</time>
      </trkpt>
      <trkpt lat="44.32419" lon="6.5387">
        <ele>2365.4614257812</ele>
        <time>2012-09-15T12:23:11Z</time>
      </trkpt>
      <trkpt lat="44.32413" lon="6.53863">
        <ele>2364.9807128906</ele>
        <time>2012-09-15T12:23:14Z</time>
      </trkpt>
      <trkpt lat="44.32405" lon="6.53858">
        <ele>2363.5383300781</ele>
        <time>2012-09-15T12:23:19Z</time>
      </trkpt>
      <trkpt lat="44.32407" lon="6.53846">
        <ele>2362.0964355469</ele>
        <time>2012-09-15T12:23:23Z</time>
      </trkpt>
      <trkpt lat="44.32404" lon="6.53835">
        <ele>2360.6545410156</ele>
        <time>2012-09-15T12:23:26Z</time>
      </trkpt>
      <trkpt lat="44.32407" lon="6.53825">
        <ele>2360.173828125</ele>
        <time>2012-09-15T12:23:29Z</time>
      </trkpt>
      <trkpt lat="44.32407" lon="6.53801">
        <ele>2357.7707519531</ele>
        <time>2012-09-15T12:23:34Z</time>
      </trkpt>
      <trkpt lat="44.32404" lon="6.53795">
        <ele>2356.8093261719</ele>
        <time>2012-09-15T12:23:38Z</time>
      </trkpt>
      <trkpt lat="44.32404" lon="6.53793">
        <ele>2359.6931152344</ele>
        <time>2012-09-15T12:23:55Z</time>
      </trkpt>
      <trkpt lat="44.32404" lon="6.53792">
        <ele>2362.0964355469</ele>
        <time>2012-09-15T12:24:17Z</time>
      </trkpt>
      <trkpt lat="44.32405" lon="6.53794">
        <ele>2361.1352539062</ele>
        <time>2012-09-15T12:24:38Z</time>
      </trkpt>
      <trkpt lat="44.32402" lon="6.53783">
        <ele>2371.7097167969</ele>
        <time>2012-09-15T12:25:23Z</time>
      </trkpt>
      <trkpt lat="44.32401" lon="6.53791">
        <ele>2364.0192871094</ele>
        <time>2012-09-15T12:25:56Z</time>
      </trkpt>
      <trkpt lat="44.324" lon="6.53797">
        <ele>2354.88671875</ele>
        <time>2012-09-15T12:38:13Z</time>
      </trkpt>
      <trkpt lat="44.32401" lon="6.53795">
        <ele>2356.3286132812</ele>
        <time>2012-09-15T12:38:30Z</time>
      </trkpt>
      <trkpt lat="44.32399" lon="6.53793">
        <ele>2356.3286132812</ele>
        <time>2012-09-15T12:38:35Z</time>
      </trkpt>
      <trkpt lat="44.32399" lon="6.53789">
        <ele>2356.8093261719</ele>
        <time>2012-09-15T12:38:42Z</time>
      </trkpt>
      <trkpt lat="44.32401" lon="6.53786">
        <ele>2356.3286132812</ele>
        <time>2012-09-15T12:38:47Z</time>
      </trkpt>
      <trkpt lat="44.32405" lon="6.53769">
        <ele>2353.9255371094</ele>
        <time>2012-09-15T12:38:53Z</time>
      </trkpt>
      <trkpt lat="44.32414" lon="6.53758">
        <ele>2351.0415039062</ele>
        <time>2012-09-15T12:38:58Z</time>
      </trkpt>
      <trkpt lat="44.32415" lon="6.5375">
        <ele>2349.599609375</ele>
        <time>2012-09-15T12:39:00Z</time>
      </trkpt>
      <trkpt lat="44.32415" lon="6.53737">
        <ele>2348.6381835938</ele>
        <time>2012-09-15T12:39:04Z</time>
      </trkpt>
      <trkpt lat="44.32414" lon="6.53738">
        <ele>2347.6767578125</ele>
        <time>2012-09-15T12:39:10Z</time>
      </trkpt>
      <trkpt lat="44.3241" lon="6.53743">
        <ele>2342.3896484375</ele>
        <time>2012-09-15T12:39:23Z</time>
      </trkpt>
      <trkpt lat="44.32407" lon="6.53744">
        <ele>2338.5444335938</ele>
        <time>2012-09-15T12:39:35Z</time>
      </trkpt>
      <trkpt lat="44.32407" lon="6.53739">
        <ele>2339.0249023438</ele>
        <time>2012-09-15T12:39:40Z</time>
      </trkpt>
      <trkpt lat="44.32415" lon="6.53726">
        <ele>2339.5056152344</ele>
        <time>2012-09-15T12:39:45Z</time>
      </trkpt>
      <trkpt lat="44.32421" lon="6.53705">
        <ele>2339.5056152344</ele>
        <time>2012-09-15T12:39:50Z</time>
      </trkpt>
      <trkpt lat="44.32423" lon="6.537">
        <ele>2339.0249023438</ele>
        <time>2012-09-15T12:39:51Z</time>
      </trkpt>
      <trkpt lat="44.32426" lon="6.53682">
        <ele>2336.1411132812</ele>
        <time>2012-09-15T12:39:55Z</time>
      </trkpt>
      <trkpt lat="44.32436" lon="6.53666">
        <ele>2334.69921875</ele>
        <time>2012-09-15T12:40:00Z</time>
      </trkpt>
      <trkpt lat="44.32441" lon="6.53627">
        <ele>2332.2958984375</ele>
        <time>2012-09-15T12:40:07Z</time>
      </trkpt>
      <trkpt lat="44.32444" lon="6.53604">
        <ele>2329.8923339844</ele>
        <time>2012-09-15T12:40:11Z</time>
      </trkpt>
      <trkpt lat="44.32447" lon="6.53592">
        <ele>2329.8923339844</ele>
        <time>2012-09-15T12:40:13Z</time>
      </trkpt>
      <trkpt lat="44.32453" lon="6.5357">
        <ele>2328.9309082031</ele>
        <time>2012-09-15T12:40:18Z</time>
      </trkpt>
      <trkpt lat="44.32463" lon="6.53528">
        <ele>2325.56640625</ele>
        <time>2012-09-15T12:40:26Z</time>
      </trkpt>
      <trkpt lat="44.32467" lon="6.53493">
        <ele>2322.6826171875</ele>
        <time>2012-09-15T12:40:31Z</time>
      </trkpt>
      <trkpt lat="44.32468" lon="6.53486">
        <ele>2322.2019042969</ele>
        <time>2012-09-15T12:40:32Z</time>
      </trkpt>
      <trkpt lat="44.32468" lon="6.5347">
        <ele>2321.7211914062</ele>
        <time>2012-09-15T12:40:34Z</time>
      </trkpt>
      <trkpt lat="44.32472" lon="6.53454">
        <ele>2320.279296875</ele>
        <time>2012-09-15T12:40:38Z</time>
      </trkpt>
      <trkpt lat="44.3248" lon="6.53451">
        <ele>2318.8374023438</ele>
        <time>2012-09-15T12:40:40Z</time>
      </trkpt>
      <trkpt lat="44.32505" lon="6.53449">
        <ele>2316.4340820312</ele>
        <time>2012-09-15T12:40:45Z</time>
      </trkpt>
      <trkpt lat="44.32517" lon="6.5345">
        <ele>2316.4340820312</ele>
        <time>2012-09-15T12:40:50Z</time>
      </trkpt>
      <trkpt lat="44.3252" lon="6.53437">
        <ele>2314.9919433594</ele>
        <time>2012-09-15T12:40:54Z</time>
      </trkpt>
      <trkpt lat="44.32518" lon="6.53428">
        <ele>2314.0305175781</ele>
        <time>2012-09-15T12:40:57Z</time>
      </trkpt>
      <trkpt lat="44.32504" lon="6.53422">
        <ele>2311.1467285156</ele>
        <time>2012-09-15T12:41:02Z</time>
      </trkpt>
      <trkpt lat="44.32481" lon="6.53418">
        <ele>2305.37890625</ele>
        <time>2012-09-15T12:41:08Z</time>
      </trkpt>
      <trkpt lat="44.32468" lon="6.53417">
        <ele>2302.9755859375</ele>
        <time>2012-09-15T12:41:12Z</time>
      </trkpt>
      <trkpt lat="44.32452" lon="6.53417">
        <ele>2301.5336914062</ele>
        <time>2012-09-15T12:41:16Z</time>
      </trkpt>
      <trkpt lat="44.32439" lon="6.5342">
        <ele>2299.1301269531</ele>
        <time>2012-09-15T12:41:20Z</time>
      </trkpt>
      <trkpt lat="44.32424" lon="6.53424">
        <ele>2297.6882324219</ele>
        <time>2012-09-15T12:41:25Z</time>
      </trkpt>
      <trkpt lat="44.32421" lon="6.53425">
        <ele>2296.7268066406</ele>
        <time>2012-09-15T12:41:29Z</time>
      </trkpt>
      <trkpt lat="44.32418" lon="6.53424">
        <ele>2297.6882324219</ele>
        <time>2012-09-15T12:41:37Z</time>
      </trkpt>
      <trkpt lat="44.32415" lon="6.53424">
        <ele>2297.6882324219</ele>
        <time>2012-09-15T12:41:42Z</time>
      </trkpt>
      <trkpt lat="44.3241" lon="6.53425">
        <ele>2298.1687011719</ele>
        <time>2012-09-15T12:41:46Z</time>
      </trkpt>
      <trkpt lat="44.32408" lon="6.53423">
        <ele>2300.572265625</ele>
        <time>2012-09-15T12:42:01Z</time>
      </trkpt>
      <trkpt lat="44.32405" lon="6.53423">
        <ele>2301.5336914062</ele>
        <time>2012-09-15T12:42:09Z</time>
      </trkpt>
      <trkpt lat="44.32403" lon="6.53423">
        <ele>2301.5336914062</ele>
        <time>2012-09-15T12:42:17Z</time>
      </trkpt>
      <trkpt lat="44.32399" lon="6.53423">
        <ele>2301.5336914062</ele>
        <time>2012-09-15T12:42:23Z</time>
      </trkpt>
      <trkpt lat="44.32392" lon="6.53424">
        <ele>2302.0141601562</ele>
        <time>2012-09-15T12:42:30Z</time>
      </trkpt>
      <trkpt lat="44.32385" lon="6.53423">
        <ele>2302.0141601562</ele>
        <time>2012-09-15T12:42:37Z</time>
      </trkpt>
      <trkpt lat="44.32383" lon="6.5342">
        <ele>2301.5336914062</ele>
        <time>2012-09-15T12:42:40Z</time>
      </trkpt>
      <trkpt lat="44.32375" lon="6.53416">
        <ele>2302.0141601562</ele>
        <time>2012-09-15T12:42:47Z</time>
      </trkpt>
      <trkpt lat="44.32373" lon="6.53415">
        <ele>2302.0141601562</ele>
        <time>2012-09-15T12:42:48Z</time>
      </trkpt>
      <trkpt lat="44.32373" lon="6.53415">
        <ele>2302.0141601562</ele>
        <time>2012-09-15T12:43:01Z</time>
      </trkpt>
      <trkpt lat="44.32367" lon="6.53414">
        <ele>2300.572265625</ele>
        <time>2012-09-15T12:43:05Z</time>
      </trkpt>
      <trkpt lat="44.32358" lon="6.5343">
        <ele>2296.7268066406</ele>
        <time>2012-09-15T12:43:12Z</time>
      </trkpt>
      <trkpt lat="44.32356" lon="6.53433">
        <ele>2295.765625</ele>
        <time>2012-09-15T12:43:18Z</time>
      </trkpt>
      <trkpt lat="44.32351" lon="6.53434">
        <ele>2294.8041992188</ele>
        <time>2012-09-15T12:43:25Z</time>
      </trkpt>
      <trkpt lat="44.3234" lon="6.53436">
        <ele>2294.3234863281</ele>
        <time>2012-09-15T12:43:30Z</time>
      </trkpt>
      <trkpt lat="44.32336" lon="6.53435">
        <ele>2293.8430175781</ele>
        <time>2012-09-15T12:43:32Z</time>
      </trkpt>
      <trkpt lat="44.32325" lon="6.53442">
        <ele>2292.4011230469</ele>
        <time>2012-09-15T12:43:38Z</time>
      </trkpt>
      <trkpt lat="44.32321" lon="6.53446">
        <ele>2292.8815917969</ele>
        <time>2012-09-15T12:43:42Z</time>
      </trkpt>
      <trkpt lat="44.32315" lon="6.53446">
        <ele>2293.3623046875</ele>
        <time>2012-09-15T12:43:49Z</time>
      </trkpt>
      <trkpt lat="44.32311" lon="6.53447">
        <ele>2294.3234863281</ele>
        <time>2012-09-15T12:43:55Z</time>
      </trkpt>
      <trkpt lat="44.32311" lon="6.53448">
        <ele>2294.8041992188</ele>
        <time>2012-09-15T12:44:01Z</time>
      </trkpt>
      <trkpt lat="44.32308" lon="6.5345">
        <ele>2294.8041992188</ele>
        <time>2012-09-15T12:44:06Z</time>
      </trkpt>
      <trkpt lat="44.32304" lon="6.53454">
        <ele>2293.8430175781</ele>
        <time>2012-09-15T12:44:11Z</time>
      </trkpt>
      <trkpt lat="44.32299" lon="6.53457">
        <ele>2292.8815917969</ele>
        <time>2012-09-15T12:44:34Z</time>
      </trkpt>
      <trkpt lat="44.3229" lon="6.53467">
        <ele>2291.9204101562</ele>
        <time>2012-09-15T12:44:39Z</time>
      </trkpt>
      <trkpt lat="44.32283" lon="6.53474">
        <ele>2291.4396972656</ele>
        <time>2012-09-15T12:44:44Z</time>
      </trkpt>
      <trkpt lat="44.3228" lon="6.53475">
        <ele>2291.4396972656</ele>
        <time>2012-09-15T12:44:47Z</time>
      </trkpt>
      <trkpt lat="44.32276" lon="6.53478">
        <ele>2292.8815917969</ele>
        <time>2012-09-15T12:44:54Z</time>
      </trkpt>
      <trkpt lat="44.32273" lon="6.53479">
        <ele>2292.8815917969</ele>
        <time>2012-09-15T12:44:59Z</time>
      </trkpt>
      <trkpt lat="44.3227" lon="6.53476">
        <ele>2292.4011230469</ele>
        <time>2012-09-15T12:45:05Z</time>
      </trkpt>
      <trkpt lat="44.32269" lon="6.53472">
        <ele>2292.4011230469</ele>
        <time>2012-09-15T12:45:11Z</time>
      </trkpt>
      <trkpt lat="44.32268" lon="6.53471">
        <ele>2291.4396972656</ele>
        <time>2012-09-15T12:45:12Z</time>
      </trkpt>
      <trkpt lat="44.32261" lon="6.53459">
        <ele>2289.9978027344</ele>
        <time>2012-09-15T12:45:17Z</time>
      </trkpt>
      <trkpt lat="44.32258" lon="6.53448">
        <ele>2289.5170898438</ele>
        <time>2012-09-15T12:45:20Z</time>
      </trkpt>
      <trkpt lat="44.32246" lon="6.53444">
        <ele>2289.0363769531</ele>
        <time>2012-09-15T12:45:25Z</time>
      </trkpt>
      <trkpt lat="44.32243" lon="6.53446">
        <ele>2288.5559082031</ele>
        <time>2012-09-15T12:45:30Z</time>
      </trkpt>
      <trkpt lat="44.32239" lon="6.53448">
        <ele>2287.5944824219</ele>
        <time>2012-09-15T12:45:35Z</time>
      </trkpt>
      <trkpt lat="44.32238" lon="6.53448">
        <ele>2287.5944824219</ele>
        <time>2012-09-15T12:45:36Z</time>
      </trkpt>
      <trkpt lat="44.32231" lon="6.53445">
        <ele>2286.6330566406</ele>
        <time>2012-09-15T12:45:44Z</time>
      </trkpt>
      <trkpt lat="44.32223" lon="6.53441">
        <ele>2285.671875</ele>
        <time>2012-09-15T12:45:48Z</time>
      </trkpt>
      <trkpt lat="44.32212" lon="6.53447">
        <ele>2284.7106933594</ele>
        <time>2012-09-15T12:45:55Z</time>
      </trkpt>
      <trkpt lat="44.32208" lon="6.53449">
        <ele>2284.2299804688</ele>
        <time>2012-09-15T12:46:00Z</time>
      </trkpt>
      <trkpt lat="44.32204" lon="6.53449">
        <ele>2283.7490234375</ele>
        <time>2012-09-15T12:46:07Z</time>
      </trkpt>
      <trkpt lat="44.322" lon="6.5345">
        <ele>2282.7875976562</ele>
        <time>2012-09-15T12:46:14Z</time>
      </trkpt>
      <trkpt lat="44.32193" lon="6.5345">
        <ele>2281.8264160156</ele>
        <time>2012-09-15T12:46:19Z</time>
      </trkpt>
      <trkpt lat="44.3219" lon="6.5345">
        <ele>2281.8264160156</ele>
        <time>2012-09-15T12:46:21Z</time>
      </trkpt>
      <trkpt lat="44.32186" lon="6.53449">
        <ele>2282.7875976562</ele>
        <time>2012-09-15T12:46:24Z</time>
      </trkpt>
      <trkpt lat="44.32177" lon="6.53443">
        <ele>2284.2299804688</ele>
        <time>2012-09-15T12:46:32Z</time>
      </trkpt>
      <trkpt lat="44.32176" lon="6.53443">
        <ele>2284.2299804688</ele>
        <time>2012-09-15T12:46:33Z</time>
      </trkpt>
      <trkpt lat="44.32173" lon="6.53446">
        <ele>2279.4230957031</ele>
        <time>2012-09-15T12:46:40Z</time>
      </trkpt>
      <trkpt lat="44.3217" lon="6.53447">
        <ele>2277.0200195312</ele>
        <time>2012-09-15T12:46:42Z</time>
      </trkpt>
      <trkpt lat="44.32159" lon="6.53457">
        <ele>2276.05859375</ele>
        <time>2012-09-15T12:46:48Z</time>
      </trkpt>
      <trkpt lat="44.3215" lon="6.53471">
        <ele>2273.1748046875</ele>
        <time>2012-09-15T12:46:53Z</time>
      </trkpt>
      <trkpt lat="44.32141" lon="6.53488">
        <ele>2270.771484375</ele>
        <time>2012-09-15T12:46:58Z</time>
      </trkpt>
      <trkpt lat="44.32131" lon="6.53492">
        <ele>2269.3295898438</ele>
        <time>2012-09-15T12:47:02Z</time>
      </trkpt>
      <trkpt lat="44.32113" lon="6.53502">
        <ele>2267.4064941406</ele>
        <time>2012-09-15T12:47:08Z</time>
      </trkpt>
      <trkpt lat="44.32101" lon="6.53517">
        <ele>2264.5227050781</ele>
        <time>2012-09-15T12:47:13Z</time>
      </trkpt>
      <trkpt lat="44.32084" lon="6.5353">
        <ele>2262.1193847656</ele>
        <time>2012-09-15T12:47:18Z</time>
      </trkpt>
      <trkpt lat="44.32069" lon="6.53544">
        <ele>2258.2741699219</ele>
        <time>2012-09-15T12:47:23Z</time>
      </trkpt>
      <trkpt lat="44.32056" lon="6.53553">
        <ele>2257.3129882812</ele>
        <time>2012-09-15T12:47:27Z</time>
      </trkpt>
      <trkpt lat="44.32053" lon="6.53561">
        <ele>2254.9096679688</ele>
        <time>2012-09-15T12:47:29Z</time>
      </trkpt>
      <trkpt lat="44.32051" lon="6.53576">
        <ele>2252.0256347656</ele>
        <time>2012-09-15T12:47:34Z</time>
      </trkpt>
      <trkpt lat="44.3204" lon="6.53582">
        <ele>2250.1030273438</ele>
        <time>2012-09-15T12:47:38Z</time>
      </trkpt>
      <trkpt lat="44.32034" lon="6.53587">
        <ele>2249.6223144531</ele>
        <time>2012-09-15T12:47:45Z</time>
      </trkpt>
      <trkpt lat="44.3203" lon="6.53588">
        <ele>2250.1030273438</ele>
        <time>2012-09-15T12:47:50Z</time>
      </trkpt>
      <trkpt lat="44.32026" lon="6.53583">
        <ele>2251.0642089844</ele>
        <time>2012-09-15T12:47:56Z</time>
      </trkpt>
      <trkpt lat="44.32024" lon="6.53577">
        <ele>2248.6608886719</ele>
        <time>2012-09-15T12:48:03Z</time>
      </trkpt>
      <trkpt lat="44.32025" lon="6.53576">
        <ele>2244.8156738281</ele>
        <time>2012-09-15T12:48:10Z</time>
      </trkpt>
      <trkpt lat="44.32026" lon="6.53573">
        <ele>2242.4125976562</ele>
        <time>2012-09-15T12:48:15Z</time>
      </trkpt>
      <trkpt lat="44.32026" lon="6.53576">
        <ele>2238.5673828125</ele>
        <time>2012-09-15T12:48:23Z</time>
      </trkpt>
      <trkpt lat="44.32027" lon="6.5358">
        <ele>2235.6831054688</ele>
        <time>2012-09-15T12:48:36Z</time>
      </trkpt>
      <trkpt lat="44.32033" lon="6.53594">
        <ele>2225.5893554688</ele>
        <time>2012-09-15T12:50:12Z</time>
      </trkpt>
      <trkpt lat="44.32034" lon="6.53599">
        <ele>2219.3408203125</ele>
        <time>2012-09-15T12:50:14Z</time>
      </trkpt>
      <trkpt lat="44.32035" lon="6.53608">
        <ele>2210.2082519531</ele>
        <time>2012-09-15T12:50:20Z</time>
      </trkpt>
      <trkpt lat="44.32035" lon="6.53607">
        <ele>2209.7275390625</ele>
        <time>2012-09-15T12:50:28Z</time>
      </trkpt>
      <trkpt lat="44.32034" lon="6.53602">
        <ele>2214.0534667969</ele>
        <time>2012-09-15T12:50:36Z</time>
      </trkpt>
      <trkpt lat="44.32032" lon="6.53592">
        <ele>2220.3022460938</ele>
        <time>2012-09-15T12:50:53Z</time>
      </trkpt>
      <trkpt lat="44.32025" lon="6.53571">
        <ele>2220.3022460938</ele>
        <time>2012-09-15T12:50:58Z</time>
      </trkpt>
      <trkpt lat="44.32013" lon="6.53555">
        <ele>2221.744140625</ele>
        <time>2012-09-15T12:51:02Z</time>
      </trkpt>
      <trkpt lat="44.32008" lon="6.53543">
        <ele>2221.744140625</ele>
        <time>2012-09-15T12:51:05Z</time>
      </trkpt>
      <trkpt lat="44.32008" lon="6.5354">
        <ele>2221.2634277344</ele>
        <time>2012-09-15T12:51:06Z</time>
      </trkpt>
      <trkpt lat="44.32005" lon="6.5353">
        <ele>2221.2634277344</ele>
        <time>2012-09-15T12:51:09Z</time>
      </trkpt>
      <trkpt lat="44.32" lon="6.53527">
        <ele>2223.1862792969</ele>
        <time>2012-09-15T12:51:14Z</time>
      </trkpt>
      <trkpt lat="44.31999" lon="6.53525">
        <ele>2224.6281738281</ele>
        <time>2012-09-15T12:51:27Z</time>
      </trkpt>
      <trkpt lat="44.31993" lon="6.53521">
        <ele>2230.8767089844</ele>
        <time>2012-09-15T12:51:54Z</time>
      </trkpt>
      <trkpt lat="44.31987" lon="6.53526">
        <ele>2229.9152832031</ele>
        <time>2012-09-15T12:51:59Z</time>
      </trkpt>
      <trkpt lat="44.31982" lon="6.53534">
        <ele>2228.9538574219</ele>
        <time>2012-09-15T12:52:06Z</time>
      </trkpt>
      <trkpt lat="44.3198" lon="6.53537">
        <ele>2227.5119628906</ele>
        <time>2012-09-15T12:52:11Z</time>
      </trkpt>
      <trkpt lat="44.31976" lon="6.53538">
        <ele>2226.0700683594</ele>
        <time>2012-09-15T12:52:18Z</time>
      </trkpt>
      <trkpt lat="44.31975" lon="6.53538">
        <ele>2225.1086425781</ele>
        <time>2012-09-15T12:52:25Z</time>
      </trkpt>
      <trkpt lat="44.31976" lon="6.53538">
        <ele>2223.6667480469</ele>
        <time>2012-09-15T12:52:30Z</time>
      </trkpt>
      <trkpt lat="44.31979" lon="6.53534">
        <ele>2225.1086425781</ele>
        <time>2012-09-15T12:52:36Z</time>
      </trkpt>
      <trkpt lat="44.31986" lon="6.53539">
        <ele>2222.2248535156</ele>
        <time>2012-09-15T12:52:54Z</time>
      </trkpt>
      <trkpt lat="44.31982" lon="6.53538">
        <ele>2218.3793945312</ele>
        <time>2012-09-15T12:53:04Z</time>
      </trkpt>
      <trkpt lat="44.3198" lon="6.53536">
        <ele>2217.41796875</ele>
        <time>2012-09-15T12:53:06Z</time>
      </trkpt>
      <trkpt lat="44.31976" lon="6.53532">
        <ele>2217.41796875</ele>
        <time>2012-09-15T12:53:13Z</time>
      </trkpt>
      <trkpt lat="44.31969" lon="6.53529">
        <ele>2216.4567871094</ele>
        <time>2012-09-15T12:53:19Z</time>
      </trkpt>
      <trkpt lat="44.31969" lon="6.53525">
        <ele>2215.0148925781</ele>
        <time>2012-09-15T12:53:24Z</time>
      </trkpt>
      <trkpt lat="44.31969" lon="6.53519">
        <ele>2216.4567871094</ele>
        <time>2012-09-15T12:53:28Z</time>
      </trkpt>
      <trkpt lat="44.31971" lon="6.53513">
        <ele>2217.8986816406</ele>
        <time>2012-09-15T12:53:32Z</time>
      </trkpt>
      <trkpt lat="44.31972" lon="6.53513">
        <ele>2217.8986816406</ele>
        <time>2012-09-15T12:53:33Z</time>
      </trkpt>
      <trkpt lat="44.31974" lon="6.53505">
        <ele>2217.41796875</ele>
        <time>2012-09-15T12:53:39Z</time>
      </trkpt>
      <trkpt lat="44.31974" lon="6.53501">
        <ele>2216.4567871094</ele>
        <time>2012-09-15T12:53:43Z</time>
      </trkpt>
      <trkpt lat="44.31974" lon="6.53488">
        <ele>2217.41796875</ele>
        <time>2012-09-15T12:53:48Z</time>
      </trkpt>
      <trkpt lat="44.31971" lon="6.53475">
        <ele>2215.0148925781</ele>
        <time>2012-09-15T12:53:54Z</time>
      </trkpt>
      <trkpt lat="44.31963" lon="6.53468">
        <ele>2213.0922851562</ele>
        <time>2012-09-15T12:53:58Z</time>
      </trkpt>
      <trkpt lat="44.31955" lon="6.53458">
        <ele>2211.1696777344</ele>
        <time>2012-09-15T12:54:03Z</time>
      </trkpt>
      <trkpt lat="44.31955" lon="6.53456">
        <ele>2211.1696777344</ele>
        <time>2012-09-15T12:54:04Z</time>
      </trkpt>
      <trkpt lat="44.31951" lon="6.53442">
        <ele>2209.7275390625</ele>
        <time>2012-09-15T12:54:09Z</time>
      </trkpt>
      <trkpt lat="44.31942" lon="6.53427">
        <ele>2206.84375</ele>
        <time>2012-09-15T12:54:14Z</time>
      </trkpt>
      <trkpt lat="44.31935" lon="6.53422">
        <ele>2204.9211425781</ele>
        <time>2012-09-15T12:54:18Z</time>
      </trkpt>
      <trkpt lat="44.31934" lon="6.53418">
        <ele>2204.4404296875</ele>
        <time>2012-09-15T12:54:21Z</time>
      </trkpt>
      <trkpt lat="44.31933" lon="6.53409">
        <ele>2209.7275390625</ele>
        <time>2012-09-15T12:54:24Z</time>
      </trkpt>
      <trkpt lat="44.31935" lon="6.53396">
        <ele>2209.7275390625</ele>
        <time>2012-09-15T12:54:30Z</time>
      </trkpt>
      <trkpt lat="44.31935" lon="6.53394">
        <ele>2208.7663574219</ele>
        <time>2012-09-15T12:54:31Z</time>
      </trkpt>
      <trkpt lat="44.31932" lon="6.53378">
        <ele>2207.8051757812</ele>
        <time>2012-09-15T12:54:36Z</time>
      </trkpt>
      <trkpt lat="44.31929" lon="6.53369">
        <ele>2206.84375</ele>
        <time>2012-09-15T12:54:41Z</time>
      </trkpt>
      <trkpt lat="44.31927" lon="6.53357">
        <ele>2204.9211425781</ele>
        <time>2012-09-15T12:54:46Z</time>
      </trkpt>
      <trkpt lat="44.31922" lon="6.53339">
        <ele>2203.4790039062</ele>
        <time>2012-09-15T12:54:51Z</time>
      </trkpt>
      <trkpt lat="44.31921" lon="6.53337">
        <ele>2203.4790039062</ele>
        <time>2012-09-15T12:54:52Z</time>
      </trkpt>
      <trkpt lat="44.31915" lon="6.53331">
        <ele>2201.0756835938</ele>
        <time>2012-09-15T12:54:56Z</time>
      </trkpt>
      <trkpt lat="44.31908" lon="6.53319">
        <ele>2198.6723632812</ele>
        <time>2012-09-15T12:55:02Z</time>
      </trkpt>
      <trkpt lat="44.319" lon="6.53301">
        <ele>2195.7885742188</ele>
        <time>2012-09-15T12:55:07Z</time>
      </trkpt>
      <trkpt lat="44.3189" lon="6.53287">
        <ele>2193.3852539062</ele>
        <time>2012-09-15T12:55:12Z</time>
      </trkpt>
      <trkpt lat="44.31888" lon="6.53275">
        <ele>2191.943359375</ele>
        <time>2012-09-15T12:55:16Z</time>
      </trkpt>
      <trkpt lat="44.31878" lon="6.53264">
        <ele>2191.943359375</ele>
        <time>2012-09-15T12:55:20Z</time>
      </trkpt>
      <trkpt lat="44.31866" lon="6.53248">
        <ele>2188.5788574219</ele>
        <time>2012-09-15T12:55:25Z</time>
      </trkpt>
      <trkpt lat="44.31863" lon="6.53246">
        <ele>2188.0981445312</ele>
        <time>2012-09-15T12:55:26Z</time>
      </trkpt>
      <trkpt lat="44.31845" lon="6.53237">
        <ele>2185.6945800781</ele>
        <time>2012-09-15T12:55:31Z</time>
      </trkpt>
      <trkpt lat="44.31834" lon="6.53235">
        <ele>2185.2138671875</ele>
        <time>2012-09-15T12:55:35Z</time>
      </trkpt>
      <trkpt lat="44.3183" lon="6.53232">
        <ele>2185.2138671875</ele>
        <time>2012-09-15T12:55:40Z</time>
      </trkpt>
      <trkpt lat="44.31826" lon="6.53227">
        <ele>2185.2138671875</ele>
        <time>2012-09-15T12:55:45Z</time>
      </trkpt>
      <trkpt lat="44.31812" lon="6.53219">
        <ele>2183.2912597656</ele>
        <time>2012-09-15T12:55:50Z</time>
      </trkpt>
      <trkpt lat="44.31799" lon="6.5322">
        <ele>2183.2912597656</ele>
        <time>2012-09-15T12:55:54Z</time>
      </trkpt>
      <trkpt lat="44.31789" lon="6.53225">
        <ele>2184.7333984375</ele>
        <time>2012-09-15T12:55:58Z</time>
      </trkpt>
      <trkpt lat="44.31783" lon="6.5322">
        <ele>2184.2526855469</ele>
        <time>2012-09-15T12:56:04Z</time>
      </trkpt>
      <trkpt lat="44.3178" lon="6.5322">
        <ele>2184.2526855469</ele>
        <time>2012-09-15T12:56:08Z</time>
      </trkpt>
      <trkpt lat="44.31778" lon="6.53216">
        <ele>2184.7333984375</ele>
        <time>2012-09-15T12:56:13Z</time>
      </trkpt>
      <trkpt lat="44.31776" lon="6.53215">
        <ele>2184.7333984375</ele>
        <time>2012-09-15T12:56:14Z</time>
      </trkpt>
      <trkpt lat="44.31763" lon="6.53211">
        <ele>2185.2138671875</ele>
        <time>2012-09-15T12:56:19Z</time>
      </trkpt>
      <trkpt lat="44.31751" lon="6.53206">
        <ele>2186.6557617188</ele>
        <time>2012-09-15T12:56:24Z</time>
      </trkpt>
      <trkpt lat="44.31724" lon="6.53202">
        <ele>2184.2526855469</ele>
        <time>2012-09-15T12:56:31Z</time>
      </trkpt>
      <trkpt lat="44.31711" lon="6.53206">
        <ele>2183.2912597656</ele>
        <time>2012-09-15T12:56:35Z</time>
      </trkpt>
      <trkpt lat="44.31694" lon="6.53204">
        <ele>2180.8881835938</ele>
        <time>2012-09-15T12:56:40Z</time>
      </trkpt>
      <trkpt lat="44.3167" lon="6.53206">
        <ele>2177.5234375</ele>
        <time>2012-09-15T12:56:46Z</time>
      </trkpt>
      <trkpt lat="44.31662" lon="6.53211">
        <ele>2177.04296875</ele>
        <time>2012-09-15T12:56:49Z</time>
      </trkpt>
      <trkpt lat="44.31646" lon="6.53207">
        <ele>2174.1589355469</ele>
        <time>2012-09-15T12:56:54Z</time>
      </trkpt>
      <trkpt lat="44.31636" lon="6.53212">
        <ele>2171.7553710938</ele>
        <time>2012-09-15T12:56:58Z</time>
      </trkpt>
      <trkpt lat="44.31632" lon="6.53212">
        <ele>2170.7941894531</ele>
        <time>2012-09-15T12:57:02Z</time>
      </trkpt>
      <trkpt lat="44.31629" lon="6.53204">
        <ele>2171.7553710938</ele>
        <time>2012-09-15T12:57:09Z</time>
      </trkpt>
      <trkpt lat="44.31628" lon="6.53202">
        <ele>2172.236328125</ele>
        <time>2012-09-15T12:57:14Z</time>
      </trkpt>
      <trkpt lat="44.31634" lon="6.53198">
        <ele>2157.3359375</ele>
        <time>2012-09-15T12:59:14Z</time>
      </trkpt>
      <trkpt lat="44.31639" lon="6.53209">
        <ele>2140.9934082031</ele>
        <time>2012-09-15T12:59:26Z</time>
      </trkpt>
      <trkpt lat="44.31635" lon="6.53206">
        <ele>2157.8166503906</ele>
        <time>2012-09-15T13:02:39Z</time>
      </trkpt>
      <trkpt lat="44.31631" lon="6.53201">
        <ele>2157.8166503906</ele>
        <time>2012-09-15T13:02:51Z</time>
      </trkpt>
      <trkpt lat="44.31614" lon="6.53189">
        <ele>2154.9323730469</ele>
        <time>2012-09-15T13:02:56Z</time>
      </trkpt>
      <trkpt lat="44.31597" lon="6.5318">
        <ele>2153.009765625</ele>
        <time>2012-09-15T13:03:00Z</time>
      </trkpt>
      <trkpt lat="44.3159" lon="6.53178">
        <ele>2152.5290527344</ele>
        <time>2012-09-15T13:03:04Z</time>
      </trkpt>
      <trkpt lat="44.31592" lon="6.53176">
        <ele>2154.4516601562</ele>
        <time>2012-09-15T13:03:10Z</time>
      </trkpt>
      <trkpt lat="44.31607" lon="6.53173">
        <ele>2153.4904785156</ele>
        <time>2012-09-15T13:03:15Z</time>
      </trkpt>
      <trkpt lat="44.31629" lon="6.53172">
        <ele>2152.0483398438</ele>
        <time>2012-09-15T13:03:20Z</time>
      </trkpt>
      <trkpt lat="44.31642" lon="6.53179">
        <ele>2153.4904785156</ele>
        <time>2012-09-15T13:03:24Z</time>
      </trkpt>
      <trkpt lat="44.31649" lon="6.53179">
        <ele>2151.5678710938</ele>
        <time>2012-09-15T13:03:29Z</time>
      </trkpt>
      <trkpt lat="44.3165" lon="6.53178">
        <ele>2150.6064453125</ele>
        <time>2012-09-15T13:03:30Z</time>
      </trkpt>
      <trkpt lat="44.31659" lon="6.53164">
        <ele>2144.8386230469</ele>
        <time>2012-09-15T13:03:35Z</time>
      </trkpt>
      <trkpt lat="44.31668" lon="6.53162">
        <ele>2143.3967285156</ele>
        <time>2012-09-15T13:03:38Z</time>
      </trkpt>
      <trkpt lat="44.3167" lon="6.53163">
        <ele>2143.3967285156</ele>
        <time>2012-09-15T13:03:39Z</time>
      </trkpt>
      <trkpt lat="44.31675" lon="6.53166">
        <ele>2144.8386230469</ele>
        <time>2012-09-15T13:03:47Z</time>
      </trkpt>
      <trkpt lat="44.31678" lon="6.53167">
        <ele>2146.2807617188</ele>
        <time>2012-09-15T13:03:54Z</time>
      </trkpt>
      <trkpt lat="44.3168" lon="6.53163">
        <ele>2146.2807617188</ele>
        <time>2012-09-15T13:03:58Z</time>
      </trkpt>
      <trkpt lat="44.31686" lon="6.53155">
        <ele>2144.3579101562</ele>
        <time>2012-09-15T13:04:04Z</time>
      </trkpt>
      <trkpt lat="44.31693" lon="6.5315">
        <ele>2143.3967285156</ele>
        <time>2012-09-15T13:04:07Z</time>
      </trkpt>
      <trkpt lat="44.31708" lon="6.53142">
        <ele>2140.9934082031</ele>
        <time>2012-09-15T13:04:12Z</time>
      </trkpt>
      <trkpt lat="44.31713" lon="6.53141">
        <ele>2140.0322265625</ele>
        <time>2012-09-15T13:04:14Z</time>
      </trkpt>
      <trkpt lat="44.31726" lon="6.53143">
        <ele>2137.1479492188</ele>
        <time>2012-09-15T13:04:19Z</time>
      </trkpt>
      <trkpt lat="44.31731" lon="6.53138">
        <ele>2135.7060546875</ele>
        <time>2012-09-15T13:04:21Z</time>
      </trkpt>
      <trkpt lat="44.31747" lon="6.53128">
        <ele>2132.8220214844</ele>
        <time>2012-09-15T13:04:27Z</time>
      </trkpt>
      <trkpt lat="44.31757" lon="6.53121">
        <ele>2131.8608398438</ele>
        <time>2012-09-15T13:04:31Z</time>
      </trkpt>
      <trkpt lat="44.31764" lon="6.53121">
        <ele>2131.3801269531</ele>
        <time>2012-09-15T13:04:35Z</time>
      </trkpt>
      <trkpt lat="44.31767" lon="6.53119">
        <ele>2131.3801269531</ele>
        <time>2012-09-15T13:04:41Z</time>
      </trkpt>
      <trkpt lat="44.31765" lon="6.53119">
        <ele>2130.4189453125</ele>
        <time>2012-09-15T13:04:45Z</time>
      </trkpt>
      <trkpt lat="44.31761" lon="6.53118">
        <ele>2130.4189453125</ele>
        <time>2012-09-15T13:04:50Z</time>
      </trkpt>
      <trkpt lat="44.31755" lon="6.53117">
        <ele>2126.5737304688</ele>
        <time>2012-09-15T13:04:59Z</time>
      </trkpt>
      <trkpt lat="44.31745" lon="6.53113">
        <ele>2125.6123046875</ele>
        <time>2012-09-15T13:05:03Z</time>
      </trkpt>
      <trkpt lat="44.31727" lon="6.53103">
        <ele>2123.689453125</ele>
        <time>2012-09-15T13:05:08Z</time>
      </trkpt>
      <trkpt lat="44.31724" lon="6.53102">
        <ele>2124.1704101562</ele>
        <time>2012-09-15T13:05:09Z</time>
      </trkpt>
      <trkpt lat="44.31717" lon="6.53098">
        <ele>2122.7282714844</ele>
        <time>2012-09-15T13:05:13Z</time>
      </trkpt>
      <trkpt lat="44.3171" lon="6.53088">
        <ele>2121.2861328125</ele>
        <time>2012-09-15T13:05:16Z</time>
      </trkpt>
      <trkpt lat="44.31694" lon="6.53095">
        <ele>2117.4409179688</ele>
        <time>2012-09-15T13:05:22Z</time>
      </trkpt>
      <trkpt lat="44.31689" lon="6.53087">
        <ele>2115.5185546875</ele>
        <time>2012-09-15T13:05:25Z</time>
      </trkpt>
      <trkpt lat="44.31683" lon="6.53071">
        <ele>2110.7119140625</ele>
        <time>2012-09-15T13:05:30Z</time>
      </trkpt>
      <trkpt lat="44.31681" lon="6.53068">
        <ele>2108.7893066406</ele>
        <time>2012-09-15T13:05:34Z</time>
      </trkpt>
      <trkpt lat="44.31675" lon="6.53061">
        <ele>2106.3857421875</ele>
        <time>2012-09-15T13:05:40Z</time>
      </trkpt>
      <trkpt lat="44.31666" lon="6.53048">
        <ele>2105.4245605469</ele>
        <time>2012-09-15T13:05:43Z</time>
      </trkpt>
      <trkpt lat="44.31662" lon="6.53045">
        <ele>2104.4631347656</ele>
        <time>2012-09-15T13:05:44Z</time>
      </trkpt>
      <trkpt lat="44.3165" lon="6.53051">
        <ele>2102.5405273438</ele>
        <time>2012-09-15T13:05:48Z</time>
      </trkpt>
      <trkpt lat="44.31636" lon="6.53061">
        <ele>2101.0986328125</ele>
        <time>2012-09-15T13:05:52Z</time>
      </trkpt>
      <trkpt lat="44.31633" lon="6.5305">
        <ele>2101.0986328125</ele>
        <time>2012-09-15T13:05:56Z</time>
      </trkpt>
      <trkpt lat="44.31639" lon="6.53024">
        <ele>2101.0986328125</ele>
        <time>2012-09-15T13:06:01Z</time>
      </trkpt>
      <trkpt lat="44.31641" lon="6.53004">
        <ele>2098.2145996094</ele>
        <time>2012-09-15T13:06:05Z</time>
      </trkpt>
      <trkpt lat="44.31638" lon="6.52998">
        <ele>2095.8115234375</ele>
        <time>2012-09-15T13:06:07Z</time>
      </trkpt>
      <trkpt lat="44.31625" lon="6.52995">
        <ele>2091.9660644531</ele>
        <time>2012-09-15T13:06:11Z</time>
      </trkpt>
      <trkpt lat="44.31623" lon="6.52996">
        <ele>2091.4853515625</ele>
        <time>2012-09-15T13:06:12Z</time>
      </trkpt>
      <trkpt lat="44.31606" lon="6.53008">
        <ele>2092.4470214844</ele>
        <time>2012-09-15T13:06:17Z</time>
      </trkpt>
      <trkpt lat="44.31604" lon="6.5301">
        <ele>2091.9660644531</ele>
        <time>2012-09-15T13:06:18Z</time>
      </trkpt>
      <trkpt lat="44.31596" lon="6.53005">
        <ele>2089.5627441406</ele>
        <time>2012-09-15T13:06:23Z</time>
      </trkpt>
      <trkpt lat="44.31596" lon="6.52993">
        <ele>2087.6401367188</ele>
        <time>2012-09-15T13:06:27Z</time>
      </trkpt>
      <trkpt lat="44.31594" lon="6.52981">
        <ele>2086.6787109375</ele>
        <time>2012-09-15T13:06:30Z</time>
      </trkpt>
      <trkpt lat="44.3159" lon="6.52977">
        <ele>2085.7175292969</ele>
        <time>2012-09-15T13:06:32Z</time>
      </trkpt>
      <trkpt lat="44.31575" lon="6.52972">
        <ele>2083.3142089844</ele>
        <time>2012-09-15T13:06:37Z</time>
      </trkpt>
      <trkpt lat="44.31569" lon="6.52969">
        <ele>2081.3916015625</ele>
        <time>2012-09-15T13:06:41Z</time>
      </trkpt>
      <trkpt lat="44.31563" lon="6.52965">
        <ele>2079.9497070312</ele>
        <time>2012-09-15T13:06:44Z</time>
      </trkpt>
      <trkpt lat="44.31561" lon="6.52963">
        <ele>2080.4304199219</ele>
        <time>2012-09-15T13:06:52Z</time>
      </trkpt>
      <trkpt lat="44.31559" lon="6.52959">
        <ele>2080.9111328125</ele>
        <time>2012-09-15T13:06:58Z</time>
      </trkpt>
      <trkpt lat="44.31549" lon="6.52952">
        <ele>2080.4304199219</ele>
        <time>2012-09-15T13:07:04Z</time>
      </trkpt>
      <trkpt lat="44.31545" lon="6.52951">
        <ele>2081.8723144531</ele>
        <time>2012-09-15T13:07:08Z</time>
      </trkpt>
      <trkpt lat="44.31542" lon="6.52954">
        <ele>2081.3916015625</ele>
        <time>2012-09-15T13:07:18Z</time>
      </trkpt>
      <trkpt lat="44.3154" lon="6.52956">
        <ele>2082.8334960938</ele>
        <time>2012-09-15T13:07:24Z</time>
      </trkpt>
      <trkpt lat="44.31536" lon="6.52954">
        <ele>2086.1982421875</ele>
        <time>2012-09-15T13:07:32Z</time>
      </trkpt>
      <trkpt lat="44.31533" lon="6.52953">
        <ele>2085.2368164062</ele>
        <time>2012-09-15T13:07:37Z</time>
      </trkpt>
      <trkpt lat="44.31531" lon="6.52951">
        <ele>2084.2756347656</ele>
        <time>2012-09-15T13:07:42Z</time>
      </trkpt>
      <trkpt lat="44.31532" lon="6.52946">
        <ele>2084.2756347656</ele>
        <time>2012-09-15T13:07:48Z</time>
      </trkpt>
      <trkpt lat="44.31532" lon="6.52943">
        <ele>2085.2368164062</ele>
        <time>2012-09-15T13:07:52Z</time>
      </trkpt>
      <trkpt lat="44.31534" lon="6.52937">
        <ele>2088.6015625</ele>
        <time>2012-09-15T13:08:00Z</time>
      </trkpt>
      <trkpt lat="44.31535" lon="6.52927">
        <ele>2091.0046386719</ele>
        <time>2012-09-15T13:08:07Z</time>
      </trkpt>
      <trkpt lat="44.31533" lon="6.52922">
        <ele>2091.0046386719</ele>
        <time>2012-09-15T13:08:14Z</time>
      </trkpt>
      <trkpt lat="44.31546" lon="6.52935">
        <ele>2050.1489257812</ele>
        <time>2012-09-15T13:09:10Z</time>
      </trkpt>
      <trkpt lat="44.31555" lon="6.52941">
        <ele>2036.6901855469</ele>
        <time>2012-09-15T13:09:15Z</time>
      </trkpt>
      <trkpt lat="44.31562" lon="6.52944">
        <ele>2024.673828125</ele>
        <time>2012-09-15T13:09:23Z</time>
      </trkpt>
      <trkpt lat="44.31539" lon="6.52917">
        <ele>2067.9331054688</ele>
        <time>2012-09-15T13:10:43Z</time>
      </trkpt>
      <trkpt lat="44.31549" lon="6.52905">
        <ele>2070.3364257812</ele>
        <time>2012-09-15T13:10:48Z</time>
      </trkpt>
      <trkpt lat="44.31561" lon="6.52904">
        <ele>2069.3752441406</ele>
        <time>2012-09-15T13:10:52Z</time>
      </trkpt>
      <trkpt lat="44.31568" lon="6.52905">
        <ele>2068.4138183594</ele>
        <time>2012-09-15T13:10:54Z</time>
      </trkpt>
      <trkpt lat="44.31571" lon="6.52903">
        <ele>2069.3752441406</ele>
        <time>2012-09-15T13:10:56Z</time>
      </trkpt>
      <trkpt lat="44.31573" lon="6.52892">
        <ele>2069.3752441406</ele>
        <time>2012-09-15T13:11:00Z</time>
      </trkpt>
      <trkpt lat="44.31575" lon="6.5289">
        <ele>2069.8557128906</ele>
        <time>2012-09-15T13:11:01Z</time>
      </trkpt>
      <trkpt lat="44.31585" lon="6.52881">
        <ele>2071.2976074219</ele>
        <time>2012-09-15T13:11:07Z</time>
      </trkpt>
      <trkpt lat="44.316" lon="6.52877">
        <ele>2073.7009277344</ele>
        <time>2012-09-15T13:11:14Z</time>
      </trkpt>
      <trkpt lat="44.31613" lon="6.52867">
        <ele>2073.2204589844</ele>
        <time>2012-09-15T13:11:21Z</time>
      </trkpt>
      <trkpt lat="44.31625" lon="6.52856">
        <ele>2072.2590332031</ele>
        <time>2012-09-15T13:11:27Z</time>
      </trkpt>
      <trkpt lat="44.31633" lon="6.52842">
        <ele>2074.6623535156</ele>
        <time>2012-09-15T13:11:32Z</time>
      </trkpt>
      <trkpt lat="44.31643" lon="6.52824">
        <ele>2073.2204589844</ele>
        <time>2012-09-15T13:11:36Z</time>
      </trkpt>
      <trkpt lat="44.31654" lon="6.52804">
        <ele>2076.5852050781</ele>
        <time>2012-09-15T13:11:40Z</time>
      </trkpt>
      <trkpt lat="44.31673" lon="6.52777">
        <ele>2083.3142089844</ele>
        <time>2012-09-15T13:11:45Z</time>
      </trkpt>
      <trkpt lat="44.31673" lon="6.52769">
        <ele>2083.3142089844</ele>
        <time>2012-09-15T13:11:47Z</time>
      </trkpt>
      <trkpt lat="44.31675" lon="6.52766">
        <ele>2085.7175292969</ele>
        <time>2012-09-15T13:11:49Z</time>
      </trkpt>
      <trkpt lat="44.31689" lon="6.52748">
        <ele>2082.3530273438</ele>
        <time>2012-09-15T13:11:54Z</time>
      </trkpt>
      <trkpt lat="44.31708" lon="6.52732">
        <ele>2076.1044921875</ele>
        <time>2012-09-15T13:11:59Z</time>
      </trkpt>
      <trkpt lat="44.31714" lon="6.52721">
        <ele>2073.7009277344</ele>
        <time>2012-09-15T13:12:01Z</time>
      </trkpt>
      <trkpt lat="44.31732" lon="6.52698">
        <ele>2070.3364257812</ele>
        <time>2012-09-15T13:12:05Z</time>
      </trkpt>
      <trkpt lat="44.31739" lon="6.5269">
        <ele>2068.89453125</ele>
        <time>2012-09-15T13:12:07Z</time>
      </trkpt>
      <trkpt lat="44.31763" lon="6.5266">
        <ele>2066.0104980469</ele>
        <time>2012-09-15T13:12:13Z</time>
      </trkpt>
      <trkpt lat="44.31777" lon="6.52647">
        <ele>2063.1267089844</ele>
        <time>2012-09-15T13:12:16Z</time>
      </trkpt>
      <trkpt lat="44.31804" lon="6.5263">
        <ele>2059.28125</ele>
        <time>2012-09-15T13:12:22Z</time>
      </trkpt>
      <trkpt lat="44.31808" lon="6.52627">
        <ele>2059.28125</ele>
        <time>2012-09-15T13:12:23Z</time>
      </trkpt>
      <trkpt lat="44.31815" lon="6.52619">
        <ele>2059.28125</ele>
        <time>2012-09-15T13:12:25Z</time>
      </trkpt>
      <trkpt lat="44.31821" lon="6.52603">
        <ele>2056.3972167969</ele>
        <time>2012-09-15T13:12:29Z</time>
      </trkpt>
      <trkpt lat="44.31816" lon="6.52598">
        <ele>2053.994140625</ele>
        <time>2012-09-15T13:12:32Z</time>
      </trkpt>
      <trkpt lat="44.318" lon="6.52581">
        <ele>2049.6682128906</ele>
        <time>2012-09-15T13:12:38Z</time>
      </trkpt>
      <trkpt lat="44.31787" lon="6.52568">
        <ele>2045.8229980469</ele>
        <time>2012-09-15T13:12:41Z</time>
      </trkpt>
      <trkpt lat="44.31776" lon="6.52554">
        <ele>2042.4582519531</ele>
        <time>2012-09-15T13:12:45Z</time>
      </trkpt>
      <trkpt lat="44.3177" lon="6.52541">
        <ele>2040.0549316406</ele>
        <time>2012-09-15T13:12:49Z</time>
      </trkpt>
      <trkpt lat="44.31753" lon="6.52527">
        <ele>2036.6901855469</ele>
        <time>2012-09-15T13:12:54Z</time>
      </trkpt>
      <trkpt lat="44.31746" lon="6.52511">
        <ele>2037.1708984375</ele>
        <time>2012-09-15T13:12:58Z</time>
      </trkpt>
      <trkpt lat="44.31744" lon="6.52487">
        <ele>2040.0549316406</ele>
        <time>2012-09-15T13:13:03Z</time>
      </trkpt>
      <trkpt lat="44.31741" lon="6.52473">
        <ele>2038.1323242188</ele>
        <time>2012-09-15T13:13:07Z</time>
      </trkpt>
      <trkpt lat="44.31741" lon="6.52466">
        <ele>2035.2482910156</ele>
        <time>2012-09-15T13:13:11Z</time>
      </trkpt>
      <trkpt lat="44.3175" lon="6.52473">
        <ele>2033.8063964844</ele>
        <time>2012-09-15T13:13:16Z</time>
      </trkpt>
      <trkpt lat="44.31755" lon="6.52474">
        <ele>2033.8063964844</ele>
        <time>2012-09-15T13:13:19Z</time>
      </trkpt>
      <trkpt lat="44.31767" lon="6.52482">
        <ele>2029.9611816406</ele>
        <time>2012-09-15T13:13:25Z</time>
      </trkpt>
      <trkpt lat="44.31771" lon="6.52485">
        <ele>2028.0385742188</ele>
        <time>2012-09-15T13:13:27Z</time>
      </trkpt>
      <trkpt lat="44.31778" lon="6.52491">
        <ele>2025.6350097656</ele>
        <time>2012-09-15T13:13:33Z</time>
      </trkpt>
      <trkpt lat="44.31779" lon="6.52491">
        <ele>2024.673828125</ele>
        <time>2012-09-15T13:13:34Z</time>
      </trkpt>
      <trkpt lat="44.31796" lon="6.52495">
        <ele>2021.7897949219</ele>
        <time>2012-09-15T13:13:40Z</time>
      </trkpt>
      <trkpt lat="44.31807" lon="6.52503">
        <ele>2018.9060058594</ele>
        <time>2012-09-15T13:13:45Z</time>
      </trkpt>
      <trkpt lat="44.3182" lon="6.5251">
        <ele>2012.6574707031</ele>
        <time>2012-09-15T13:13:50Z</time>
      </trkpt>
      <trkpt lat="44.3183" lon="6.52513">
        <ele>2009.2927246094</ele>
        <time>2012-09-15T13:13:54Z</time>
      </trkpt>
      <trkpt lat="44.31842" lon="6.52518">
        <ele>2005.9279785156</ele>
        <time>2012-09-15T13:13:58Z</time>
      </trkpt>
      <trkpt lat="44.31853" lon="6.52523">
        <ele>2004.4860839844</ele>
        <time>2012-09-15T13:14:02Z</time>
      </trkpt>
      <trkpt lat="44.31855" lon="6.52522">
        <ele>2003.0441894531</ele>
        <time>2012-09-15T13:14:06Z</time>
      </trkpt>
      <trkpt lat="44.31847" lon="6.52514">
        <ele>2000.6408691406</ele>
        <time>2012-09-15T13:14:11Z</time>
      </trkpt>
      <trkpt lat="44.31837" lon="6.52501">
        <ele>1997.2763671875</ele>
        <time>2012-09-15T13:14:16Z</time>
      </trkpt>
      <trkpt lat="44.31826" lon="6.52485">
        <ele>1991.9890136719</ele>
        <time>2012-09-15T13:14:22Z</time>
      </trkpt>
      <trkpt lat="44.31817" lon="6.52476">
        <ele>1991.0275878906</ele>
        <time>2012-09-15T13:14:26Z</time>
      </trkpt>
      <trkpt lat="44.31812" lon="6.52465">
        <ele>1990.546875</ele>
        <time>2012-09-15T13:14:30Z</time>
      </trkpt>
      <trkpt lat="44.31803" lon="6.52449">
        <ele>1989.1049804688</ele>
        <time>2012-09-15T13:14:35Z</time>
      </trkpt>
      <trkpt lat="44.31799" lon="6.52442">
        <ele>1987.1823730469</ele>
        <time>2012-09-15T13:14:37Z</time>
      </trkpt>
      <trkpt lat="44.31796" lon="6.52431">
        <ele>1982.8564453125</ele>
        <time>2012-09-15T13:14:43Z</time>
      </trkpt>
      <trkpt lat="44.31797" lon="6.52432">
        <ele>1983.3371582031</ele>
        <time>2012-09-15T13:14:47Z</time>
      </trkpt>
      <trkpt lat="44.318" lon="6.52434">
        <ele>1984.2985839844</ele>
        <time>2012-09-15T13:14:52Z</time>
      </trkpt>
      <trkpt lat="44.31805" lon="6.52435">
        <ele>1982.3759765625</ele>
        <time>2012-09-15T13:15:04Z</time>
      </trkpt>
      <trkpt lat="44.31812" lon="6.52437">
        <ele>1979.4916992188</ele>
        <time>2012-09-15T13:15:09Z</time>
      </trkpt>
      <trkpt lat="44.31821" lon="6.52443">
        <ele>1979.9724121094</ele>
        <time>2012-09-15T13:15:14Z</time>
      </trkpt>
      <trkpt lat="44.31826" lon="6.52446">
        <ele>1979.9724121094</ele>
        <time>2012-09-15T13:15:18Z</time>
      </trkpt>
      <trkpt lat="44.31833" lon="6.52449">
        <ele>1983.8178710938</ele>
        <time>2012-09-15T13:15:24Z</time>
      </trkpt>
      <trkpt lat="44.31831" lon="6.52449">
        <ele>1980.9340820312</ele>
        <time>2012-09-15T13:15:28Z</time>
      </trkpt>
      <trkpt lat="44.31828" lon="6.52445">
        <ele>1978.5305175781</ele>
        <time>2012-09-15T13:15:32Z</time>
      </trkpt>
      <trkpt lat="44.31825" lon="6.52438">
        <ele>1974.2045898438</ele>
        <time>2012-09-15T13:15:37Z</time>
      </trkpt>
      <trkpt lat="44.31826" lon="6.52441">
        <ele>1968.9174804688</ele>
        <time>2012-09-15T13:15:43Z</time>
      </trkpt>
      <trkpt lat="44.31825" lon="6.52434">
        <ele>1968.4367675781</ele>
        <time>2012-09-15T13:15:51Z</time>
      </trkpt>
      <trkpt lat="44.31824" lon="6.52433">
        <ele>1967.4753417969</ele>
        <time>2012-09-15T13:15:52Z</time>
      </trkpt>
      <trkpt lat="44.31823" lon="6.5243">
        <ele>1965.5529785156</ele>
        <time>2012-09-15T13:15:57Z</time>
      </trkpt>
      <trkpt lat="44.31828" lon="6.52431">
        <ele>1963.1494140625</ele>
        <time>2012-09-15T13:16:03Z</time>
      </trkpt>
      <trkpt lat="44.3183" lon="6.5243">
        <ele>1962.1879882812</ele>
        <time>2012-09-15T13:16:08Z</time>
      </trkpt>
      <trkpt lat="44.31831" lon="6.52428">
        <ele>1959.7846679688</ele>
        <time>2012-09-15T13:16:14Z</time>
      </trkpt>
      <trkpt lat="44.31831" lon="6.52426">
        <ele>1959.3041992188</ele>
        <time>2012-09-15T13:16:15Z</time>
      </trkpt>
      <trkpt lat="44.31823" lon="6.52419">
        <ele>1958.8234863281</ele>
        <time>2012-09-15T13:16:20Z</time>
      </trkpt>
      <trkpt lat="44.31822" lon="6.52414">
        <ele>1957.3815917969</ele>
        <time>2012-09-15T13:16:23Z</time>
      </trkpt>
      <trkpt lat="44.31826" lon="6.52415">
        <ele>1956.9008789062</ele>
        <time>2012-09-15T13:16:27Z</time>
      </trkpt>
      <trkpt lat="44.31833" lon="6.52415">
        <ele>1952.5749511719</ele>
        <time>2012-09-15T13:16:33Z</time>
      </trkpt>
      <trkpt lat="44.31843" lon="6.5242">
        <ele>1951.6137695312</ele>
        <time>2012-09-15T13:16:37Z</time>
      </trkpt>
      <trkpt lat="44.31844" lon="6.5242">
        <ele>1949.6911621094</ele>
        <time>2012-09-15T13:16:40Z</time>
      </trkpt>
      <trkpt lat="44.31836" lon="6.52409">
        <ele>1949.6911621094</ele>
        <time>2012-09-15T13:16:45Z</time>
      </trkpt>
      <trkpt lat="44.31833" lon="6.52405">
        <ele>1948.2490234375</ele>
        <time>2012-09-15T13:16:52Z</time>
      </trkpt>
      <trkpt lat="44.31832" lon="6.52406">
        <ele>1949.6911621094</ele>
        <time>2012-09-15T13:17:00Z</time>
      </trkpt>
      <trkpt lat="44.31836" lon="6.52407">
        <ele>1949.2104492188</ele>
        <time>2012-09-15T13:17:12Z</time>
      </trkpt>
      <trkpt lat="44.31829" lon="6.52399">
        <ele>1947.7683105469</ele>
        <time>2012-09-15T13:17:16Z</time>
      </trkpt>
      <trkpt lat="44.3182" lon="6.5239">
        <ele>1946.8068847656</ele>
        <time>2012-09-15T13:17:20Z</time>
      </trkpt>
      <trkpt lat="44.31818" lon="6.52387">
        <ele>1947.2875976562</ele>
        <time>2012-09-15T13:17:23Z</time>
      </trkpt>
      <trkpt lat="44.31819" lon="6.52385">
        <ele>1948.2490234375</ele>
        <time>2012-09-15T13:17:25Z</time>
      </trkpt>
      <trkpt lat="44.31814" lon="6.52382">
        <ele>1944.4035644531</ele>
        <time>2012-09-15T13:17:31Z</time>
      </trkpt>
      <trkpt lat="44.3181" lon="6.52386">
        <ele>1933.8293457031</ele>
        <time>2012-09-15T13:18:12Z</time>
      </trkpt>
      <trkpt lat="44.31806" lon="6.52375">
        <ele>1932.8679199219</ele>
        <time>2012-09-15T13:18:17Z</time>
      </trkpt>
      <trkpt lat="44.31795" lon="6.52366">
        <ele>1932.8679199219</ele>
        <time>2012-09-15T13:18:21Z</time>
      </trkpt>
      <trkpt lat="44.31787" lon="6.52352">
        <ele>1931.9064941406</ele>
        <time>2012-09-15T13:18:25Z</time>
      </trkpt>
      <trkpt lat="44.31776" lon="6.52337">
        <ele>1930.9453125</ele>
        <time>2012-09-15T13:18:30Z</time>
      </trkpt>
      <trkpt lat="44.31776" lon="6.52336">
        <ele>1930.4645996094</ele>
        <time>2012-09-15T13:18:31Z</time>
      </trkpt>
      <trkpt lat="44.31787" lon="6.52339">
        <ele>1928.0612792969</ele>
        <time>2012-09-15T13:18:36Z</time>
      </trkpt>
      <trkpt lat="44.318" lon="6.52342">
        <ele>1926.6193847656</ele>
        <time>2012-09-15T13:18:40Z</time>
      </trkpt>
      <trkpt lat="44.31813" lon="6.52349">
        <ele>1925.1772460938</ele>
        <time>2012-09-15T13:18:44Z</time>
      </trkpt>
      <trkpt lat="44.31816" lon="6.52351">
        <ele>1924.6967773438</ele>
        <time>2012-09-15T13:18:49Z</time>
      </trkpt>
      <trkpt lat="44.31815" lon="6.52351">
        <ele>1923.7353515625</ele>
        <time>2012-09-15T13:18:51Z</time>
      </trkpt>
      <trkpt lat="44.31808" lon="6.52335">
        <ele>1923.2548828125</ele>
        <time>2012-09-15T13:18:56Z</time>
      </trkpt>
      <trkpt lat="44.31802" lon="6.52329">
        <ele>1921.8127441406</ele>
        <time>2012-09-15T13:18:59Z</time>
      </trkpt>
      <trkpt lat="44.31815" lon="6.52329">
        <ele>1917.9675292969</ele>
        <time>2012-09-15T13:19:05Z</time>
      </trkpt>
      <trkpt lat="44.31816" lon="6.52329">
        <ele>1917.0063476562</ele>
        <time>2012-09-15T13:19:06Z</time>
      </trkpt>
      <trkpt lat="44.31816" lon="6.52324">
        <ele>1917.0063476562</ele>
        <time>2012-09-15T13:19:10Z</time>
      </trkpt>
      <trkpt lat="44.31812" lon="6.52322">
        <ele>1915.5642089844</ele>
        <time>2012-09-15T13:19:15Z</time>
      </trkpt>
      <trkpt lat="44.318" lon="6.52319">
        <ele>1910.7575683594</ele>
        <time>2012-09-15T13:19:20Z</time>
      </trkpt>
      <trkpt lat="44.31789" lon="6.52315">
        <ele>1905.4704589844</ele>
        <time>2012-09-15T13:19:24Z</time>
      </trkpt>
      <trkpt lat="44.31772" lon="6.52316">
        <ele>1899.2216796875</ele>
        <time>2012-09-15T13:19:29Z</time>
      </trkpt>
      <trkpt lat="44.31751" lon="6.52314">
        <ele>1896.337890625</ele>
        <time>2012-09-15T13:19:33Z</time>
      </trkpt>
      <trkpt lat="44.31743" lon="6.52312">
        <ele>1894.4150390625</ele>
        <time>2012-09-15T13:19:37Z</time>
      </trkpt>
      <trkpt lat="44.31744" lon="6.52308">
        <ele>1894.8957519531</ele>
        <time>2012-09-15T13:19:39Z</time>
      </trkpt>
      <trkpt lat="44.31735" lon="6.52294">
        <ele>1893.4538574219</ele>
        <time>2012-09-15T13:19:44Z</time>
      </trkpt>
      <trkpt lat="44.31715" lon="6.52281">
        <ele>1892.4926757812</ele>
        <time>2012-09-15T13:19:49Z</time>
      </trkpt>
      <trkpt lat="44.31705" lon="6.52269">
        <ele>1894.8957519531</ele>
        <time>2012-09-15T13:19:52Z</time>
      </trkpt>
      <trkpt lat="44.31691" lon="6.52261">
        <ele>1894.8957519531</ele>
        <time>2012-09-15T13:19:56Z</time>
      </trkpt>
      <trkpt lat="44.31685" lon="6.52246">
        <ele>1895.3764648438</ele>
        <time>2012-09-15T13:19:59Z</time>
      </trkpt>
      <trkpt lat="44.31679" lon="6.52227">
        <ele>1894.8957519531</ele>
        <time>2012-09-15T13:20:03Z</time>
      </trkpt>
      <trkpt lat="44.31672" lon="6.52219">
        <ele>1894.8957519531</ele>
        <time>2012-09-15T13:20:06Z</time>
      </trkpt>
      <trkpt lat="44.31668" lon="6.52212">
        <ele>1894.4150390625</ele>
        <time>2012-09-15T13:20:08Z</time>
      </trkpt>
      <trkpt lat="44.31655" lon="6.52199">
        <ele>1895.3764648438</ele>
        <time>2012-09-15T13:20:13Z</time>
      </trkpt>
      <trkpt lat="44.31649" lon="6.52182">
        <ele>1894.4150390625</ele>
        <time>2012-09-15T13:20:17Z</time>
      </trkpt>
      <trkpt lat="44.31639" lon="6.52166">
        <ele>1892.4926757812</ele>
        <time>2012-09-15T13:20:21Z</time>
      </trkpt>
      <trkpt lat="44.31632" lon="6.5216">
        <ele>1892.0119628906</ele>
        <time>2012-09-15T13:20:24Z</time>
      </trkpt>
      <trkpt lat="44.3162" lon="6.52153">
        <ele>1896.337890625</ele>
        <time>2012-09-15T13:20:29Z</time>
      </trkpt>
      <trkpt lat="44.31609" lon="6.52145">
        <ele>1897.2990722656</ele>
        <time>2012-09-15T13:20:35Z</time>
      </trkpt>
      <trkpt lat="44.31608" lon="6.52138">
        <ele>1904.0285644531</ele>
        <time>2012-09-15T13:20:40Z</time>
      </trkpt>
      <trkpt lat="44.31604" lon="6.52128">
        <ele>1909.7961425781</ele>
        <time>2012-09-15T13:20:46Z</time>
      </trkpt>
      <trkpt lat="44.316" lon="6.52116">
        <ele>1914.6027832031</ele>
        <time>2012-09-15T13:20:52Z</time>
      </trkpt>
      <trkpt lat="44.31596" lon="6.52108">
        <ele>1917.0063476562</ele>
        <time>2012-09-15T13:20:55Z</time>
      </trkpt>
      <trkpt lat="44.3159" lon="6.521">
        <ele>1920.8515625</ele>
        <time>2012-09-15T13:20:59Z</time>
      </trkpt>
      <trkpt lat="44.31575" lon="6.52084">
        <ele>1922.2934570312</ele>
        <time>2012-09-15T13:21:04Z</time>
      </trkpt>
      <trkpt lat="44.31558" lon="6.52071">
        <ele>1920.8515625</ele>
        <time>2012-09-15T13:21:08Z</time>
      </trkpt>
      <trkpt lat="44.31555" lon="6.52069">
        <ele>1920.3708496094</ele>
        <time>2012-09-15T13:21:09Z</time>
      </trkpt>
      <trkpt lat="44.31548" lon="6.52064">
        <ele>1919.4096679688</ele>
        <time>2012-09-15T13:21:11Z</time>
      </trkpt>
      <trkpt lat="44.3152" lon="6.52045">
        <ele>1904.0285644531</ele>
        <time>2012-09-15T13:21:17Z</time>
      </trkpt>
      <trkpt lat="44.31511" lon="6.52038">
        <ele>1898.2602539062</ele>
        <time>2012-09-15T13:21:20Z</time>
      </trkpt>
      <trkpt lat="44.31499" lon="6.52028">
        <ele>1893.4538574219</ele>
        <time>2012-09-15T13:21:24Z</time>
      </trkpt>
      <trkpt lat="44.31491" lon="6.5202">
        <ele>1891.0505371094</ele>
        <time>2012-09-15T13:21:28Z</time>
      </trkpt>
      <trkpt lat="44.31485" lon="6.52021">
        <ele>1885.7634277344</ele>
        <time>2012-09-15T13:21:33Z</time>
      </trkpt>
      <trkpt lat="44.31482" lon="6.52019">
        <ele>1885.7634277344</ele>
        <time>2012-09-15T13:21:41Z</time>
      </trkpt>
      <trkpt lat="44.31481" lon="6.52021">
        <ele>1886.244140625</ele>
        <time>2012-09-15T13:21:49Z</time>
      </trkpt>
      <trkpt lat="44.31484" lon="6.52024">
        <ele>1889.1279296875</ele>
        <time>2012-09-15T13:21:52Z</time>
      </trkpt>
      <trkpt lat="44.31481" lon="6.52019">
        <ele>1892.0119628906</ele>
        <time>2012-09-15T13:22:04Z</time>
      </trkpt>
      <trkpt lat="44.31479" lon="6.52028">
        <ele>1895.8571777344</ele>
        <time>2012-09-15T13:23:20Z</time>
      </trkpt>
      <trkpt lat="44.31474" lon="6.5202">
        <ele>1905.4704589844</ele>
        <time>2012-09-15T13:24:41Z</time>
      </trkpt>
      <trkpt lat="44.31495" lon="6.52036">
        <ele>1914.1220703125</ele>
        <time>2012-09-15T13:26:49Z</time>
      </trkpt>
      <trkpt lat="44.31485" lon="6.52016">
        <ele>1902.5864257812</ele>
        <time>2012-09-15T13:27:19Z</time>
      </trkpt>
      <trkpt lat="44.31473" lon="6.51999">
        <ele>1901.6252441406</ele>
        <time>2012-09-15T13:27:32Z</time>
      </trkpt>
      <trkpt lat="44.31471" lon="6.52005">
        <ele>1897.2990722656</ele>
        <time>2012-09-15T13:27:45Z</time>
      </trkpt>
      <trkpt lat="44.31472" lon="6.52004">
        <ele>1896.818359375</ele>
        <time>2012-09-15T13:27:48Z</time>
      </trkpt>
      <trkpt lat="44.31474" lon="6.52001">
        <ele>1894.8957519531</ele>
        <time>2012-09-15T13:27:50Z</time>
      </trkpt>
      <trkpt lat="44.31474" lon="6.51985">
        <ele>1896.337890625</ele>
        <time>2012-09-15T13:27:55Z</time>
      </trkpt>
      <trkpt lat="44.31456" lon="6.51972">
        <ele>1892.9731445312</ele>
        <time>2012-09-15T13:28:00Z</time>
      </trkpt>
      <trkpt lat="44.31435" lon="6.51952">
        <ele>1886.724609375</ele>
        <time>2012-09-15T13:28:05Z</time>
      </trkpt>
      <trkpt lat="44.31432" lon="6.51948">
        <ele>1884.8022460938</ele>
        <time>2012-09-15T13:28:06Z</time>
      </trkpt>
      <trkpt lat="44.31411" lon="6.5194">
        <ele>1878.0727539062</ele>
        <time>2012-09-15T13:28:11Z</time>
      </trkpt>
      <trkpt lat="44.31409" lon="6.51938">
        <ele>1878.0727539062</ele>
        <time>2012-09-15T13:28:12Z</time>
      </trkpt>
      <trkpt lat="44.31408" lon="6.51934">
        <ele>1875.6694335938</ele>
        <time>2012-09-15T13:28:19Z</time>
      </trkpt>
      <trkpt lat="44.31427" lon="6.51943">
        <ele>1867.498046875</ele>
        <time>2012-09-15T13:30:41Z</time>
      </trkpt>
      <trkpt lat="44.31424" lon="6.51939">
        <ele>1876.1501464844</ele>
        <time>2012-09-15T13:30:54Z</time>
      </trkpt>
      <trkpt lat="44.31401" lon="6.51936">
        <ele>1881.4372558594</ele>
        <time>2012-09-15T13:42:25Z</time>
      </trkpt>
      <trkpt lat="44.31418" lon="6.51939">
        <ele>1879.0339355469</ele>
        <time>2012-09-15T13:43:28Z</time>
      </trkpt>
      <trkpt lat="44.31411" lon="6.51937">
        <ele>1877.5920410156</ele>
        <time>2012-09-15T13:43:32Z</time>
      </trkpt>
      <trkpt lat="44.31397" lon="6.51931">
        <ele>1872.3049316406</ele>
        <time>2012-09-15T13:43:36Z</time>
      </trkpt>
      <trkpt lat="44.31381" lon="6.51928">
        <ele>1868.9404296875</ele>
        <time>2012-09-15T13:43:40Z</time>
      </trkpt>
      <trkpt lat="44.31368" lon="6.51925">
        <ele>1865.0949707031</ele>
        <time>2012-09-15T13:43:43Z</time>
      </trkpt>
      <trkpt lat="44.31357" lon="6.51909">
        <ele>1860.7690429688</ele>
        <time>2012-09-15T13:43:47Z</time>
      </trkpt>
      <trkpt lat="44.31368" lon="6.51906">
        <ele>1860.2883300781</ele>
        <time>2012-09-15T13:43:52Z</time>
      </trkpt>
      <trkpt lat="44.31374" lon="6.51905">
        <ele>1872.7856445312</ele>
        <time>2012-09-15T13:44:08Z</time>
      </trkpt>
      <trkpt lat="44.31372" lon="6.51906">
        <ele>1875.1887207031</ele>
        <time>2012-09-15T13:44:16Z</time>
      </trkpt>
      <trkpt lat="44.31366" lon="6.51909">
        <ele>1893.4538574219</ele>
        <time>2012-09-15T13:44:27Z</time>
      </trkpt>
      <trkpt lat="44.31371" lon="6.51909">
        <ele>1890.0893554688</ele>
        <time>2012-09-15T13:44:37Z</time>
      </trkpt>
      <trkpt lat="44.31373" lon="6.51907">
        <ele>1878.5534667969</ele>
        <time>2012-09-15T13:44:50Z</time>
      </trkpt>
      <trkpt lat="44.31366" lon="6.51901">
        <ele>1859.8076171875</ele>
        <time>2012-09-15T13:45:48Z</time>
      </trkpt>
      <trkpt lat="44.31355" lon="6.51903">
        <ele>1892.9731445312</ele>
        <time>2012-09-15T13:46:14Z</time>
      </trkpt>
      <trkpt lat="44.31359" lon="6.51909">
        <ele>1893.9345703125</ele>
        <time>2012-09-15T13:47:02Z</time>
      </trkpt>
      <trkpt lat="44.31358" lon="6.51912">
        <ele>1896.337890625</ele>
        <time>2012-09-15T13:47:11Z</time>
      </trkpt>
      <trkpt lat="44.31364" lon="6.51906">
        <ele>1870.3823242188</ele>
        <time>2012-09-15T13:47:23Z</time>
      </trkpt>
      <trkpt lat="44.31371" lon="6.51902">
        <ele>1858.3657226562</ele>
        <time>2012-09-15T13:47:53Z</time>
      </trkpt>
      <trkpt lat="44.31387" lon="6.51873">
        <ele>1849.7138671875</ele>
        <time>2012-09-15T13:47:59Z</time>
      </trkpt>
      <trkpt lat="44.31402" lon="6.51843">
        <ele>1852.1171875</ele>
        <time>2012-09-15T13:48:03Z</time>
      </trkpt>
      <trkpt lat="44.31411" lon="6.51831">
        <ele>1852.1171875</ele>
        <time>2012-09-15T13:48:05Z</time>
      </trkpt>
      <trkpt lat="44.3142" lon="6.51816">
        <ele>1845.3879394531</ele>
        <time>2012-09-15T13:48:07Z</time>
      </trkpt>
      <trkpt lat="44.31437" lon="6.51797">
        <ele>1838.1782226562</ele>
        <time>2012-09-15T13:48:11Z</time>
      </trkpt>
      <trkpt lat="44.31459" lon="6.51795">
        <ele>1833.8520507812</ele>
        <time>2012-09-15T13:48:15Z</time>
      </trkpt>
      <trkpt lat="44.31471" lon="6.51793">
        <ele>1831.9294433594</ele>
        <time>2012-09-15T13:48:17Z</time>
      </trkpt>
      <trkpt lat="44.31491" lon="6.51784">
        <ele>1830.0068359375</ele>
        <time>2012-09-15T13:48:21Z</time>
      </trkpt>
      <trkpt lat="44.31502" lon="6.51784">
        <ele>1828.0842285156</ele>
        <time>2012-09-15T13:48:26Z</time>
      </trkpt>
      <trkpt lat="44.31503" lon="6.51784">
        <ele>1826.1616210938</ele>
        <time>2012-09-15T13:48:32Z</time>
      </trkpt>
      <trkpt lat="44.31504" lon="6.51781">
        <ele>1825.6809082031</ele>
        <time>2012-09-15T13:48:51Z</time>
      </trkpt>
      <trkpt lat="44.31505" lon="6.51776">
        <ele>1826.1616210938</ele>
        <time>2012-09-15T13:48:53Z</time>
      </trkpt>
      <trkpt lat="44.31502" lon="6.51757">
        <ele>1827.123046875</ele>
        <time>2012-09-15T13:48:57Z</time>
      </trkpt>
      <trkpt lat="44.31501" lon="6.5174">
        <ele>1827.603515625</ele>
        <time>2012-09-15T13:49:01Z</time>
      </trkpt>
      <trkpt lat="44.31507" lon="6.51725">
        <ele>1827.603515625</ele>
        <time>2012-09-15T13:49:04Z</time>
      </trkpt>
      <trkpt lat="44.31511" lon="6.51708">
        <ele>1828.5649414062</ele>
        <time>2012-09-15T13:49:08Z</time>
      </trkpt>
      <trkpt lat="44.31512" lon="6.51706">
        <ele>1823.7583007812</ele>
        <time>2012-09-15T13:49:12Z</time>
      </trkpt>
      <trkpt lat="44.3152" lon="6.51705">
        <ele>1824.7197265625</ele>
        <time>2012-09-15T13:49:37Z</time>
      </trkpt>
      <trkpt lat="44.3152" lon="6.51703">
        <ele>1822.7971191406</ele>
        <time>2012-09-15T13:49:48Z</time>
      </trkpt>
      <trkpt lat="44.31524" lon="6.51706">
        <ele>1822.31640625</ele>
        <time>2012-09-15T13:49:55Z</time>
      </trkpt>
      <trkpt lat="44.31524" lon="6.51705">
        <ele>1824.2390136719</ele>
        <time>2012-09-15T13:50:05Z</time>
      </trkpt>
      <trkpt lat="44.31522" lon="6.51704">
        <ele>1825.6809082031</ele>
        <time>2012-09-15T13:50:15Z</time>
      </trkpt>
      <trkpt lat="44.31519" lon="6.51701">
        <ele>1830.0068359375</ele>
        <time>2012-09-15T13:50:24Z</time>
      </trkpt>
      <trkpt lat="44.31516" lon="6.51699">
        <ele>1833.8520507812</ele>
        <time>2012-09-15T13:50:27Z</time>
      </trkpt>
      <trkpt lat="44.31512" lon="6.51694">
        <ele>1837.216796875</ele>
        <time>2012-09-15T13:50:36Z</time>
      </trkpt>
      <trkpt lat="44.31512" lon="6.51694">
        <ele>1839.6201171875</ele>
        <time>2012-09-15T13:50:49Z</time>
      </trkpt>
      <trkpt lat="44.31511" lon="6.51695">
        <ele>1838.6589355469</ele>
        <time>2012-09-15T13:50:57Z</time>
      </trkpt>
      <trkpt lat="44.31511" lon="6.517">
        <ele>1835.2939453125</ele>
        <time>2012-09-15T13:51:08Z</time>
      </trkpt>
      <trkpt lat="44.31506" lon="6.51696">
        <ele>1838.1782226562</ele>
        <time>2012-09-15T13:51:19Z</time>
      </trkpt>
      <trkpt lat="44.31504" lon="6.51697">
        <ele>1837.6975097656</ele>
        <time>2012-09-15T13:51:21Z</time>
      </trkpt>
      <trkpt lat="44.31493" lon="6.51696">
        <ele>1833.3713378906</ele>
        <time>2012-09-15T13:51:28Z</time>
      </trkpt>
      <trkpt lat="44.31492" lon="6.51694">
        <ele>1833.3713378906</ele>
        <time>2012-09-15T13:51:31Z</time>
      </trkpt>
      <trkpt lat="44.31495" lon="6.51692">
        <ele>1831.4487304688</ele>
        <time>2012-09-15T13:51:34Z</time>
      </trkpt>
      <trkpt lat="44.31496" lon="6.51687">
        <ele>1829.0454101562</ele>
        <time>2012-09-15T13:51:39Z</time>
      </trkpt>
      <trkpt lat="44.31496" lon="6.51677">
        <ele>1818.4709472656</ele>
        <time>2012-09-15T13:51:52Z</time>
      </trkpt>
      <trkpt lat="44.31497" lon="6.51674">
        <ele>1826.1616210938</ele>
        <time>2012-09-15T13:51:57Z</time>
      </trkpt>
      <trkpt lat="44.31498" lon="6.51671">
        <ele>1828.5649414062</ele>
        <time>2012-09-15T13:52:03Z</time>
      </trkpt>
      <trkpt lat="44.31504" lon="6.51675">
        <ele>1823.2778320312</ele>
        <time>2012-09-15T13:52:17Z</time>
      </trkpt>
      <trkpt lat="44.31504" lon="6.51664">
        <ele>1813.6643066406</ele>
        <time>2012-09-15T13:52:26Z</time>
      </trkpt>
      <trkpt lat="44.31507" lon="6.51658">
        <ele>1814.6257324219</ele>
        <time>2012-09-15T13:52:32Z</time>
      </trkpt>
      <trkpt lat="44.31504" lon="6.51655">
        <ele>1819.9128417969</ele>
        <time>2012-09-15T13:52:37Z</time>
      </trkpt>
      <trkpt lat="44.31501" lon="6.51656">
        <ele>1825.6809082031</ele>
        <time>2012-09-15T13:52:43Z</time>
      </trkpt>
      <trkpt lat="44.315" lon="6.51655">
        <ele>1825.6809082031</ele>
        <time>2012-09-15T13:52:44Z</time>
      </trkpt>
      <trkpt lat="44.31495" lon="6.51652">
        <ele>1830.0068359375</ele>
        <time>2012-09-15T13:52:49Z</time>
      </trkpt>
      <trkpt lat="44.31487" lon="6.51653">
        <ele>1831.9294433594</ele>
        <time>2012-09-15T13:52:56Z</time>
      </trkpt>
      <trkpt lat="44.31487" lon="6.51655">
        <ele>1831.9294433594</ele>
        <time>2012-09-15T13:53:02Z</time>
      </trkpt>
      <trkpt lat="44.3148" lon="6.51652">
        <ele>1835.2939453125</ele>
        <time>2012-09-15T13:53:07Z</time>
      </trkpt>
      <trkpt lat="44.31473" lon="6.5165">
        <ele>1842.9846191406</ele>
        <time>2012-09-15T13:53:16Z</time>
      </trkpt>
      <trkpt lat="44.31466" lon="6.51647">
        <ele>1843.9460449219</ele>
        <time>2012-09-15T13:53:20Z</time>
      </trkpt>
      <trkpt lat="44.31458" lon="6.51641">
        <ele>1838.1782226562</ele>
        <time>2012-09-15T13:53:25Z</time>
      </trkpt>
      <trkpt lat="44.31456" lon="6.51638">
        <ele>1837.216796875</ele>
        <time>2012-09-15T13:53:28Z</time>
      </trkpt>
      <trkpt lat="44.31449" lon="6.51629">
        <ele>1837.216796875</ele>
        <time>2012-09-15T13:53:35Z</time>
      </trkpt>
      <trkpt lat="44.31439" lon="6.51619">
        <ele>1840.1008300781</ele>
        <time>2012-09-15T13:53:41Z</time>
      </trkpt>
      <trkpt lat="44.31435" lon="6.51611">
        <ele>1835.2939453125</ele>
        <time>2012-09-15T13:53:47Z</time>
      </trkpt>
      <trkpt lat="44.31434" lon="6.51604">
        <ele>1830.9682617188</ele>
        <time>2012-09-15T13:53:53Z</time>
      </trkpt>
      <trkpt lat="44.3143" lon="6.51599">
        <ele>1829.0454101562</ele>
        <time>2012-09-15T13:53:58Z</time>
      </trkpt>
      <trkpt lat="44.3142" lon="6.51592">
        <ele>1830.9682617188</ele>
        <time>2012-09-15T13:54:03Z</time>
      </trkpt>
      <trkpt lat="44.31408" lon="6.51586">
        <ele>1833.3713378906</ele>
        <time>2012-09-15T13:54:09Z</time>
      </trkpt>
      <trkpt lat="44.31398" lon="6.51583">
        <ele>1835.7746582031</ele>
        <time>2012-09-15T13:54:15Z</time>
      </trkpt>
      <trkpt lat="44.31394" lon="6.51583">
        <ele>1834.3327636719</ele>
        <time>2012-09-15T13:54:19Z</time>
      </trkpt>
      <trkpt lat="44.31391" lon="6.5158">
        <ele>1834.3327636719</ele>
        <time>2012-09-15T13:54:22Z</time>
      </trkpt>
      <trkpt lat="44.31385" lon="6.51576">
        <ele>1836.7360839844</ele>
        <time>2012-09-15T13:54:27Z</time>
      </trkpt>
      <trkpt lat="44.31382" lon="6.51574">
        <ele>1838.6589355469</ele>
        <time>2012-09-15T13:54:32Z</time>
      </trkpt>
      <trkpt lat="44.31377" lon="6.51569">
        <ele>1845.3879394531</ele>
        <time>2012-09-15T13:54:39Z</time>
      </trkpt>
      <trkpt lat="44.31376" lon="6.5157">
        <ele>1845.3879394531</ele>
        <time>2012-09-15T13:54:41Z</time>
      </trkpt>
      <trkpt lat="44.31372" lon="6.51567">
        <ele>1845.3879394531</ele>
        <time>2012-09-15T13:54:46Z</time>
      </trkpt>
      <trkpt lat="44.31371" lon="6.51562">
        <ele>1847.7912597656</ele>
        <time>2012-09-15T13:54:51Z</time>
      </trkpt>
      <trkpt lat="44.31369" lon="6.51559">
        <ele>1849.7138671875</ele>
        <time>2012-09-15T13:54:56Z</time>
      </trkpt>
      <trkpt lat="44.31358" lon="6.51556">
        <ele>1847.7912597656</ele>
        <time>2012-09-15T13:55:03Z</time>
      </trkpt>
      <trkpt lat="44.31354" lon="6.51556">
        <ele>1848.7524414062</ele>
        <time>2012-09-15T13:55:06Z</time>
      </trkpt>
      <trkpt lat="44.31346" lon="6.51557">
        <ele>1844.4265136719</ele>
        <time>2012-09-15T13:55:10Z</time>
      </trkpt>
      <trkpt lat="44.31342" lon="6.51557">
        <ele>1844.9072265625</ele>
        <time>2012-09-15T13:55:15Z</time>
      </trkpt>
      <trkpt lat="44.31337" lon="6.51555">
        <ele>1848.7524414062</ele>
        <time>2012-09-15T13:55:20Z</time>
      </trkpt>
      <trkpt lat="44.31335" lon="6.51553">
        <ele>1846.3493652344</ele>
        <time>2012-09-15T13:55:23Z</time>
      </trkpt>
      <trkpt lat="44.31327" lon="6.51548">
        <ele>1848.2717285156</ele>
        <time>2012-09-15T13:55:30Z</time>
      </trkpt>
      <trkpt lat="44.31326" lon="6.51547">
        <ele>1848.7524414062</ele>
        <time>2012-09-15T13:55:31Z</time>
      </trkpt>
      <trkpt lat="44.31325" lon="6.51547">
        <ele>1849.7138671875</ele>
        <time>2012-09-15T13:55:33Z</time>
      </trkpt>
      <trkpt lat="44.31321" lon="6.51549">
        <ele>1859.3271484375</ele>
        <time>2012-09-15T13:55:40Z</time>
      </trkpt>
      <trkpt lat="44.31319" lon="6.5155">
        <ele>1856.923828125</ele>
        <time>2012-09-15T13:55:42Z</time>
      </trkpt>
      <trkpt lat="44.31307" lon="6.51549">
        <ele>1854.0400390625</ele>
        <time>2012-09-15T13:55:49Z</time>
      </trkpt>
      <trkpt lat="44.31298" lon="6.51548">
        <ele>1852.1171875</ele>
        <time>2012-09-15T13:55:53Z</time>
      </trkpt>
      <trkpt lat="44.31291" lon="6.5155">
        <ele>1851.6364746094</ele>
        <time>2012-09-15T13:55:58Z</time>
      </trkpt>
      <trkpt lat="44.31288" lon="6.51545">
        <ele>1849.7138671875</ele>
        <time>2012-09-15T13:56:01Z</time>
      </trkpt>
      <trkpt lat="44.31291" lon="6.51536">
        <ele>1849.2331542969</ele>
        <time>2012-09-15T13:56:07Z</time>
      </trkpt>
      <trkpt lat="44.31294" lon="6.51524">
        <ele>1855.0012207031</ele>
        <time>2012-09-15T13:56:13Z</time>
      </trkpt>
      <trkpt lat="44.31295" lon="6.51519">
        <ele>1858.3657226562</ele>
        <time>2012-09-15T13:56:15Z</time>
      </trkpt>
      <trkpt lat="44.31301" lon="6.51512">
        <ele>1858.3657226562</ele>
        <time>2012-09-15T13:56:20Z</time>
      </trkpt>
      <trkpt lat="44.31305" lon="6.51512">
        <ele>1863.1723632812</ele>
        <time>2012-09-15T13:56:23Z</time>
      </trkpt>
      <trkpt lat="44.31309" lon="6.5151">
        <ele>1863.6528320312</ele>
        <time>2012-09-15T13:56:26Z</time>
      </trkpt>
      <trkpt lat="44.31315" lon="6.51503">
        <ele>1858.8464355469</ele>
        <time>2012-09-15T13:56:31Z</time>
      </trkpt>
      <trkpt lat="44.31321" lon="6.51498">
        <ele>1861.2497558594</ele>
        <time>2012-09-15T13:56:35Z</time>
      </trkpt>
      <trkpt lat="44.31326" lon="6.51492">
        <ele>1854.5205078125</ele>
        <time>2012-09-15T13:56:40Z</time>
      </trkpt>
      <trkpt lat="44.3133" lon="6.51495">
        <ele>1861.2497558594</ele>
        <time>2012-09-15T13:56:46Z</time>
      </trkpt>
      <trkpt lat="44.31338" lon="6.51491">
        <ele>1848.7524414062</ele>
        <time>2012-09-15T13:56:52Z</time>
      </trkpt>
      <trkpt lat="44.31339" lon="6.51489">
        <ele>1847.7912597656</ele>
        <time>2012-09-15T13:56:54Z</time>
      </trkpt>
      <trkpt lat="44.31344" lon="6.51488">
        <ele>1851.1557617188</ele>
        <time>2012-09-15T13:57:03Z</time>
      </trkpt>
      <trkpt lat="44.31351" lon="6.51486">
        <ele>1855.9624023438</ele>
        <time>2012-09-15T13:57:11Z</time>
      </trkpt>
      <trkpt lat="44.31355" lon="6.51483">
        <ele>1864.6142578125</ele>
        <time>2012-09-15T13:57:18Z</time>
      </trkpt>
      <trkpt lat="44.3136" lon="6.5148">
        <ele>1870.8630371094</ele>
        <time>2012-09-15T13:57:23Z</time>
      </trkpt>
      <trkpt lat="44.31364" lon="6.51479">
        <ele>1873.7468261719</ele>
        <time>2012-09-15T13:57:28Z</time>
      </trkpt>
      <trkpt lat="44.31366" lon="6.5148">
        <ele>1874.2275390625</ele>
        <time>2012-09-15T13:57:30Z</time>
      </trkpt>
      <trkpt lat="44.31372" lon="6.51476">
        <ele>1874.7082519531</ele>
        <time>2012-09-15T13:57:38Z</time>
      </trkpt>
      <trkpt lat="44.31374" lon="6.51476">
        <ele>1873.2663574219</ele>
        <time>2012-09-15T13:57:39Z</time>
      </trkpt>
      <trkpt lat="44.31376" lon="6.51471">
        <ele>1887.2053222656</ele>
        <time>2012-09-15T13:57:47Z</time>
      </trkpt>
      <trkpt lat="44.31386" lon="6.51469">
        <ele>1885.7634277344</ele>
        <time>2012-09-15T13:57:54Z</time>
      </trkpt>
      <trkpt lat="44.31394" lon="6.51468">
        <ele>1889.6086425781</ele>
        <time>2012-09-15T13:58:00Z</time>
      </trkpt>
      <trkpt lat="44.31401" lon="6.51465">
        <ele>1888.1667480469</ele>
        <time>2012-09-15T13:58:04Z</time>
      </trkpt>
      <trkpt lat="44.31408" lon="6.5146">
        <ele>1883.3598632812</ele>
        <time>2012-09-15T13:58:08Z</time>
      </trkpt>
      <trkpt lat="44.31414" lon="6.51458">
        <ele>1884.8022460938</ele>
        <time>2012-09-15T13:58:12Z</time>
      </trkpt>
      <trkpt lat="44.3142" lon="6.51457">
        <ele>1884.3215332031</ele>
        <time>2012-09-15T13:58:16Z</time>
      </trkpt>
      <trkpt lat="44.31433" lon="6.51456">
        <ele>1889.6086425781</ele>
        <time>2012-09-15T13:58:23Z</time>
      </trkpt>
      <trkpt lat="44.31442" lon="6.51458">
        <ele>1884.8022460938</ele>
        <time>2012-09-15T13:58:30Z</time>
      </trkpt>
      <trkpt lat="44.3145" lon="6.51461">
        <ele>1885.2827148438</ele>
        <time>2012-09-15T13:58:36Z</time>
      </trkpt>
      <trkpt lat="44.31454" lon="6.5146">
        <ele>1884.8022460938</ele>
        <time>2012-09-15T13:58:40Z</time>
      </trkpt>
      <trkpt lat="44.3146" lon="6.51457">
        <ele>1874.2275390625</ele>
        <time>2012-09-15T13:58:48Z</time>
      </trkpt>
      <trkpt lat="44.31464" lon="6.51457">
        <ele>1879.0339355469</ele>
        <time>2012-09-15T13:58:54Z</time>
      </trkpt>
      <trkpt lat="44.31467" lon="6.51458">
        <ele>1887.6860351562</ele>
        <time>2012-09-15T13:59:06Z</time>
      </trkpt>
      <trkpt lat="44.3147" lon="6.51458">
        <ele>1889.1279296875</ele>
        <time>2012-09-15T13:59:16Z</time>
      </trkpt>
      <trkpt lat="44.31474" lon="6.51457">
        <ele>1893.4538574219</ele>
        <time>2012-09-15T13:59:22Z</time>
      </trkpt>
      <trkpt lat="44.31479" lon="6.51457">
        <ele>1897.7797851562</ele>
        <time>2012-09-15T13:59:28Z</time>
      </trkpt>
      <trkpt lat="44.31484" lon="6.51455">
        <ele>1897.2990722656</ele>
        <time>2012-09-15T13:59:36Z</time>
      </trkpt>
      <trkpt lat="44.31486" lon="6.51454">
        <ele>1897.7797851562</ele>
        <time>2012-09-15T13:59:41Z</time>
      </trkpt>
      <trkpt lat="44.3149" lon="6.51455">
        <ele>1895.3764648438</ele>
        <time>2012-09-15T13:59:46Z</time>
      </trkpt>
      <trkpt lat="44.31494" lon="6.51455">
        <ele>1894.8957519531</ele>
        <time>2012-09-15T13:59:53Z</time>
      </trkpt>
      <trkpt lat="44.31501" lon="6.51456">
        <ele>1893.9345703125</ele>
        <time>2012-09-15T14:00:02Z</time>
      </trkpt>
      <trkpt lat="44.31502" lon="6.51455">
        <ele>1892.9731445312</ele>
        <time>2012-09-15T14:00:12Z</time>
      </trkpt>
      <trkpt lat="44.31506" lon="6.51453">
        <ele>1893.9345703125</ele>
        <time>2012-09-15T14:00:18Z</time>
      </trkpt>
      <trkpt lat="44.31511" lon="6.51455">
        <ele>1893.4538574219</ele>
        <time>2012-09-15T14:00:25Z</time>
      </trkpt>
      <trkpt lat="44.31519" lon="6.5146">
        <ele>1898.2602539062</ele>
        <time>2012-09-15T14:00:35Z</time>
      </trkpt>
      <trkpt lat="44.31527" lon="6.51463">
        <ele>1902.1057128906</ele>
        <time>2012-09-15T14:00:43Z</time>
      </trkpt>
      <trkpt lat="44.31533" lon="6.51469">
        <ele>1904.0285644531</ele>
        <time>2012-09-15T14:00:51Z</time>
      </trkpt>
      <trkpt lat="44.31539" lon="6.51476">
        <ele>1904.0285644531</ele>
        <time>2012-09-15T14:00:59Z</time>
      </trkpt>
      <trkpt lat="44.31544" lon="6.51482">
        <ele>1904.5090332031</ele>
        <time>2012-09-15T14:01:06Z</time>
      </trkpt>
      <trkpt lat="44.31549" lon="6.51487">
        <ele>1905.9509277344</ele>
        <time>2012-09-15T14:01:13Z</time>
      </trkpt>
      <trkpt lat="44.31557" lon="6.51489">
        <ele>1904.5090332031</ele>
        <time>2012-09-15T14:01:20Z</time>
      </trkpt>
      <trkpt lat="44.31563" lon="6.51489">
        <ele>1901.6252441406</ele>
        <time>2012-09-15T14:01:27Z</time>
      </trkpt>
      <trkpt lat="44.31569" lon="6.51489">
        <ele>1900.1833496094</ele>
        <time>2012-09-15T14:01:34Z</time>
      </trkpt>
      <trkpt lat="44.31576" lon="6.5149">
        <ele>1901.6252441406</ele>
        <time>2012-09-15T14:01:41Z</time>
      </trkpt>
      <trkpt lat="44.31585" lon="6.51491">
        <ele>1903.0671386719</ele>
        <time>2012-09-15T14:01:50Z</time>
      </trkpt>
      <trkpt lat="44.3159" lon="6.51492">
        <ele>1901.6252441406</ele>
        <time>2012-09-15T14:01:58Z</time>
      </trkpt>
      <trkpt lat="44.31594" lon="6.51491">
        <ele>1901.6252441406</ele>
        <time>2012-09-15T14:02:05Z</time>
      </trkpt>
      <trkpt lat="44.31599" lon="6.51491">
        <ele>1901.6252441406</ele>
        <time>2012-09-15T14:02:13Z</time>
      </trkpt>
      <trkpt lat="44.31599" lon="6.51491">
        <ele>1908.8349609375</ele>
        <time>2012-09-15T14:02:21Z</time>
      </trkpt>
      <trkpt lat="44.31603" lon="6.51487">
        <ele>1908.8349609375</ele>
        <time>2012-09-15T14:02:27Z</time>
      </trkpt>
      <trkpt lat="44.3161" lon="6.51485">
        <ele>1912.1994628906</ele>
        <time>2012-09-15T14:02:36Z</time>
      </trkpt>
      <trkpt lat="44.31618" lon="6.51485">
        <ele>1913.6413574219</ele>
        <time>2012-09-15T14:02:45Z</time>
      </trkpt>
      <trkpt lat="44.31626" lon="6.51486">
        <ele>1915.5642089844</ele>
        <time>2012-09-15T14:02:54Z</time>
      </trkpt>
      <trkpt lat="44.31631" lon="6.5149">
        <ele>1917.4868164062</ele>
        <time>2012-09-15T14:03:02Z</time>
      </trkpt>
      <trkpt lat="44.31637" lon="6.51489">
        <ele>1919.4096679688</ele>
        <time>2012-09-15T14:03:11Z</time>
      </trkpt>
      <trkpt lat="44.31643" lon="6.51488">
        <ele>1919.8901367188</ele>
        <time>2012-09-15T14:03:19Z</time>
      </trkpt>
      <trkpt lat="44.31647" lon="6.51488">
        <ele>1920.3708496094</ele>
        <time>2012-09-15T14:03:26Z</time>
      </trkpt>
      <trkpt lat="44.31651" lon="6.51487">
        <ele>1920.8515625</ele>
        <time>2012-09-15T14:03:32Z</time>
      </trkpt>
      <trkpt lat="44.31657" lon="6.51486">
        <ele>1921.8127441406</ele>
        <time>2012-09-15T14:03:39Z</time>
      </trkpt>
      <trkpt lat="44.31664" lon="6.51482">
        <ele>1923.7353515625</ele>
        <time>2012-09-15T14:03:48Z</time>
      </trkpt>
      <trkpt lat="44.31667" lon="6.5148">
        <ele>1925.6579589844</ele>
        <time>2012-09-15T14:03:53Z</time>
      </trkpt>
      <trkpt lat="44.31675" lon="6.51482">
        <ele>1926.6193847656</ele>
        <time>2012-09-15T14:04:02Z</time>
      </trkpt>
      <trkpt lat="44.31682" lon="6.51484">
        <ele>1927.1000976562</ele>
        <time>2012-09-15T14:04:10Z</time>
      </trkpt>
      <trkpt lat="44.31688" lon="6.51487">
        <ele>1925.6579589844</ele>
        <time>2012-09-15T14:04:17Z</time>
      </trkpt>
      <trkpt lat="44.31691" lon="6.51489">
        <ele>1928.0612792969</ele>
        <time>2012-09-15T14:04:24Z</time>
      </trkpt>
      <trkpt lat="44.31697" lon="6.51489">
        <ele>1927.5805664062</ele>
        <time>2012-09-15T14:04:30Z</time>
      </trkpt>
      <trkpt lat="44.31703" lon="6.5149">
        <ele>1923.7353515625</ele>
        <time>2012-09-15T14:04:36Z</time>
      </trkpt>
      <trkpt lat="44.31707" lon="6.51489">
        <ele>1922.7741699219</ele>
        <time>2012-09-15T14:04:42Z</time>
      </trkpt>
      <trkpt lat="44.31708" lon="6.51489">
        <ele>1917.4868164062</ele>
        <time>2012-09-15T14:04:48Z</time>
      </trkpt>
      <trkpt lat="44.31711" lon="6.51485">
        <ele>1909.7961425781</ele>
        <time>2012-09-15T14:05:02Z</time>
      </trkpt>
      <trkpt lat="44.31716" lon="6.51482">
        <ele>1911.7189941406</ele>
        <time>2012-09-15T14:05:06Z</time>
      </trkpt>
      <trkpt lat="44.31723" lon="6.51484">
        <ele>1913.1608886719</ele>
        <time>2012-09-15T14:05:13Z</time>
      </trkpt>
      <trkpt lat="44.31724" lon="6.51484">
        <ele>1912.6801757812</ele>
        <time>2012-09-15T14:05:14Z</time>
      </trkpt>
      <trkpt lat="44.31728" lon="6.51484">
        <ele>1917.0063476562</ele>
        <time>2012-09-15T14:05:20Z</time>
      </trkpt>
      <trkpt lat="44.31736" lon="6.5148">
        <ele>1916.044921875</ele>
        <time>2012-09-15T14:05:27Z</time>
      </trkpt>
      <trkpt lat="44.31744" lon="6.51475">
        <ele>1910.7575683594</ele>
        <time>2012-09-15T14:05:34Z</time>
      </trkpt>
      <trkpt lat="44.31746" lon="6.51474">
        <ele>1912.6801757812</ele>
        <time>2012-09-15T14:05:36Z</time>
      </trkpt>
      <trkpt lat="44.31752" lon="6.51477">
        <ele>1913.1608886719</ele>
        <time>2012-09-15T14:05:41Z</time>
      </trkpt>
      <trkpt lat="44.31756" lon="6.51485">
        <ele>1916.5256347656</ele>
        <time>2012-09-15T14:05:47Z</time>
      </trkpt>
      <trkpt lat="44.31758" lon="6.51488">
        <ele>1917.4868164062</ele>
        <time>2012-09-15T14:05:49Z</time>
      </trkpt>
      <trkpt lat="44.31764" lon="6.51493">
        <ele>1917.4868164062</ele>
        <time>2012-09-15T14:05:57Z</time>
      </trkpt>
      <trkpt lat="44.31768" lon="6.51495">
        <ele>1920.3708496094</ele>
        <time>2012-09-15T14:06:03Z</time>
      </trkpt>
      <trkpt lat="44.31774" lon="6.51499">
        <ele>1917.4868164062</ele>
        <time>2012-09-15T14:06:11Z</time>
      </trkpt>
      <trkpt lat="44.31779" lon="6.51498">
        <ele>1916.5256347656</ele>
        <time>2012-09-15T14:06:13Z</time>
      </trkpt>
      <trkpt lat="44.31784" lon="6.51499">
        <ele>1917.4868164062</ele>
        <time>2012-09-15T14:06:17Z</time>
      </trkpt>
      <trkpt lat="44.31784" lon="6.515">
        <ele>1917.9675292969</ele>
        <time>2012-09-15T14:06:19Z</time>
      </trkpt>
      <trkpt lat="44.31789" lon="6.51501">
        <ele>1927.1000976562</ele>
        <time>2012-09-15T14:06:26Z</time>
      </trkpt>
      <trkpt lat="44.31795" lon="6.51502">
        <ele>1929.0224609375</ele>
        <time>2012-09-15T14:06:33Z</time>
      </trkpt>
      <trkpt lat="44.318" lon="6.51497">
        <ele>1926.138671875</ele>
        <time>2012-09-15T14:06:40Z</time>
      </trkpt>
      <trkpt lat="44.31802" lon="6.51495">
        <ele>1925.1772460938</ele>
        <time>2012-09-15T14:06:48Z</time>
      </trkpt>
      <trkpt lat="44.31805" lon="6.51495">
        <ele>1924.6967773438</ele>
        <time>2012-09-15T14:06:50Z</time>
      </trkpt>
      <trkpt lat="44.3181" lon="6.51491">
        <ele>1928.5419921875</ele>
        <time>2012-09-15T14:06:57Z</time>
      </trkpt>
      <trkpt lat="44.31813" lon="6.51489">
        <ele>1929.0224609375</ele>
        <time>2012-09-15T14:07:02Z</time>
      </trkpt>
      <trkpt lat="44.3182" lon="6.5148">
        <ele>1922.7741699219</ele>
        <time>2012-09-15T14:07:10Z</time>
      </trkpt>
      <trkpt lat="44.3182" lon="6.51477">
        <ele>1921.8127441406</ele>
        <time>2012-09-15T14:07:12Z</time>
      </trkpt>
      <trkpt lat="44.31822" lon="6.51474">
        <ele>1923.7353515625</ele>
        <time>2012-09-15T14:07:18Z</time>
      </trkpt>
      <trkpt lat="44.31828" lon="6.51474">
        <ele>1926.138671875</ele>
        <time>2012-09-15T14:07:25Z</time>
      </trkpt>
      <trkpt lat="44.31834" lon="6.51476">
        <ele>1928.0612792969</ele>
        <time>2012-09-15T14:07:33Z</time>
      </trkpt>
      <trkpt lat="44.31836" lon="6.51482">
        <ele>1932.3874511719</ele>
        <time>2012-09-15T14:07:38Z</time>
      </trkpt>
      <trkpt lat="44.31839" lon="6.51487">
        <ele>1935.751953125</ele>
        <time>2012-09-15T14:07:45Z</time>
      </trkpt>
      <trkpt lat="44.31844" lon="6.5149">
        <ele>1937.6745605469</ele>
        <time>2012-09-15T14:07:52Z</time>
      </trkpt>
      <trkpt lat="44.31848" lon="6.51491">
        <ele>1937.1938476562</ele>
        <time>2012-09-15T14:07:56Z</time>
      </trkpt>
      <trkpt lat="44.3185" lon="6.51492">
        <ele>1937.1938476562</ele>
        <time>2012-09-15T14:07:57Z</time>
      </trkpt>
      <trkpt lat="44.31863" lon="6.51497">
        <ele>1933.3486328125</ele>
        <time>2012-09-15T14:08:03Z</time>
      </trkpt>
      <trkpt lat="44.31865" lon="6.51499">
        <ele>1932.8679199219</ele>
        <time>2012-09-15T14:08:04Z</time>
      </trkpt>
      <trkpt lat="44.31874" lon="6.515">
        <ele>1927.5805664062</ele>
        <time>2012-09-15T14:08:09Z</time>
      </trkpt>
      <trkpt lat="44.31878" lon="6.515">
        <ele>1924.6967773438</ele>
        <time>2012-09-15T14:08:11Z</time>
      </trkpt>
      <trkpt lat="44.31884" lon="6.51497">
        <ele>1922.2934570312</ele>
        <time>2012-09-15T14:08:15Z</time>
      </trkpt>
      <trkpt lat="44.31895" lon="6.51499">
        <ele>1921.33203125</ele>
        <time>2012-09-15T14:08:21Z</time>
      </trkpt>
      <trkpt lat="44.31896" lon="6.51499">
        <ele>1924.6967773438</ele>
        <time>2012-09-15T14:08:25Z</time>
      </trkpt>
      <trkpt lat="44.31897" lon="6.515">
        <ele>1927.1000976562</ele>
        <time>2012-09-15T14:08:27Z</time>
      </trkpt>
      <trkpt lat="44.319" lon="6.51504">
        <ele>1929.0224609375</ele>
        <time>2012-09-15T14:08:31Z</time>
      </trkpt>
      <trkpt lat="44.31907" lon="6.51509">
        <ele>1935.2712402344</ele>
        <time>2012-09-15T14:08:37Z</time>
      </trkpt>
      <trkpt lat="44.31907" lon="6.51511">
        <ele>1936.7131347656</ele>
        <time>2012-09-15T14:08:39Z</time>
      </trkpt>
      <trkpt lat="44.31911" lon="6.51514">
        <ele>1941.5197753906</ele>
        <time>2012-09-15T14:08:45Z</time>
      </trkpt>
      <trkpt lat="44.31916" lon="6.51516">
        <ele>1942.4812011719</ele>
        <time>2012-09-15T14:08:52Z</time>
      </trkpt>
      <trkpt lat="44.31919" lon="6.51515">
        <ele>1944.4035644531</ele>
        <time>2012-09-15T14:08:58Z</time>
      </trkpt>
      <trkpt lat="44.31926" lon="6.51515">
        <ele>1944.4035644531</ele>
        <time>2012-09-15T14:09:04Z</time>
      </trkpt>
      <trkpt lat="44.31929" lon="6.51513">
        <ele>1945.845703125</ele>
        <time>2012-09-15T14:09:10Z</time>
      </trkpt>
      <trkpt lat="44.31935" lon="6.51512">
        <ele>1941.5197753906</ele>
        <time>2012-09-15T14:09:15Z</time>
      </trkpt>
      <trkpt lat="44.31943" lon="6.51508">
        <ele>1929.0224609375</ele>
        <time>2012-09-15T14:09:22Z</time>
      </trkpt>
      <trkpt lat="44.31949" lon="6.51513">
        <ele>1933.8293457031</ele>
        <time>2012-09-15T14:09:28Z</time>
      </trkpt>
      <trkpt lat="44.31953" lon="6.51513">
        <ele>1936.7131347656</ele>
        <time>2012-09-15T14:09:32Z</time>
      </trkpt>
      <trkpt lat="44.3196" lon="6.51514">
        <ele>1937.1938476562</ele>
        <time>2012-09-15T14:09:40Z</time>
      </trkpt>
      <trkpt lat="44.31966" lon="6.51515">
        <ele>1937.1938476562</ele>
        <time>2012-09-15T14:09:47Z</time>
      </trkpt>
      <trkpt lat="44.31973" lon="6.5152">
        <ele>1935.751953125</ele>
        <time>2012-09-15T14:09:55Z</time>
      </trkpt>
      <trkpt lat="44.31977" lon="6.51522">
        <ele>1933.8293457031</ele>
        <time>2012-09-15T14:10:01Z</time>
      </trkpt>
      <trkpt lat="44.31983" lon="6.51524">
        <ele>1929.5031738281</ele>
        <time>2012-09-15T14:10:07Z</time>
      </trkpt>
      <trkpt lat="44.31987" lon="6.51528">
        <ele>1930.4645996094</ele>
        <time>2012-09-15T14:10:12Z</time>
      </trkpt>
      <trkpt lat="44.31991" lon="6.51533">
        <ele>1937.1938476562</ele>
        <time>2012-09-15T14:10:18Z</time>
      </trkpt>
      <trkpt lat="44.31997" lon="6.51535">
        <ele>1934.7907714844</ele>
        <time>2012-09-15T14:10:24Z</time>
      </trkpt>
      <trkpt lat="44.32002" lon="6.51536">
        <ele>1931.42578125</ele>
        <time>2012-09-15T14:10:27Z</time>
      </trkpt>
      <trkpt lat="44.32006" lon="6.51537">
        <ele>1929.9838867188</ele>
        <time>2012-09-15T14:10:31Z</time>
      </trkpt>
      <trkpt lat="44.32009" lon="6.51538">
        <ele>1930.4645996094</ele>
        <time>2012-09-15T14:10:34Z</time>
      </trkpt>
      <trkpt lat="44.32013" lon="6.51541">
        <ele>1930.4645996094</ele>
        <time>2012-09-15T14:10:41Z</time>
      </trkpt>
      <trkpt lat="44.32016" lon="6.51543">
        <ele>1931.9064941406</ele>
        <time>2012-09-15T14:10:47Z</time>
      </trkpt>
      <trkpt lat="44.32023" lon="6.51549">
        <ele>1933.3486328125</ele>
        <time>2012-09-15T14:10:53Z</time>
      </trkpt>
      <trkpt lat="44.32027" lon="6.51546">
        <ele>1928.0612792969</ele>
        <time>2012-09-15T14:10:57Z</time>
      </trkpt>
      <trkpt lat="44.32031" lon="6.51541">
        <ele>1925.1772460938</ele>
        <time>2012-09-15T14:11:04Z</time>
      </trkpt>
      <trkpt lat="44.32032" lon="6.51536">
        <ele>1924.6967773438</ele>
        <time>2012-09-15T14:11:10Z</time>
      </trkpt>
      <trkpt lat="44.32035" lon="6.51533">
        <ele>1933.3486328125</ele>
        <time>2012-09-15T14:11:17Z</time>
      </trkpt>
      <trkpt lat="44.32041" lon="6.51537">
        <ele>1938.1552734375</ele>
        <time>2012-09-15T14:11:24Z</time>
      </trkpt>
      <trkpt lat="44.32045" lon="6.51538">
        <ele>1946.3264160156</ele>
        <time>2012-09-15T14:11:30Z</time>
      </trkpt>
      <trkpt lat="44.3205" lon="6.51536">
        <ele>1952.5749511719</ele>
        <time>2012-09-15T14:11:38Z</time>
      </trkpt>
      <trkpt lat="44.32053" lon="6.51535">
        <ele>1957.3815917969</ele>
        <time>2012-09-15T14:11:44Z</time>
      </trkpt>
      <trkpt lat="44.32061" lon="6.51533">
        <ele>1949.6911621094</ele>
        <time>2012-09-15T14:11:51Z</time>
      </trkpt>
      <trkpt lat="44.32064" lon="6.5153">
        <ele>1946.8068847656</ele>
        <time>2012-09-15T14:11:59Z</time>
      </trkpt>
      <trkpt lat="44.32069" lon="6.51527">
        <ele>1944.8842773438</ele>
        <time>2012-09-15T14:12:07Z</time>
      </trkpt>
      <trkpt lat="44.32076" lon="6.51528">
        <ele>1948.7297363281</ele>
        <time>2012-09-15T14:12:13Z</time>
      </trkpt>
      <trkpt lat="44.32085" lon="6.51531">
        <ele>1951.1330566406</ele>
        <time>2012-09-15T14:12:20Z</time>
      </trkpt>
      <trkpt lat="44.32096" lon="6.51528">
        <ele>1946.8068847656</ele>
        <time>2012-09-15T14:12:25Z</time>
      </trkpt>
      <trkpt lat="44.32098" lon="6.51527">
        <ele>1944.8842773438</ele>
        <time>2012-09-15T14:12:27Z</time>
      </trkpt>
      <trkpt lat="44.32102" lon="6.51521">
        <ele>1945.3649902344</ele>
        <time>2012-09-15T14:12:34Z</time>
      </trkpt>
      <trkpt lat="44.32104" lon="6.51519">
        <ele>1943.9230957031</ele>
        <time>2012-09-15T14:12:36Z</time>
      </trkpt>
      <trkpt lat="44.3211" lon="6.51513">
        <ele>1940.0778808594</ele>
        <time>2012-09-15T14:12:42Z</time>
      </trkpt>
      <trkpt lat="44.32112" lon="6.51512">
        <ele>1941.5197753906</ele>
        <time>2012-09-15T14:12:45Z</time>
      </trkpt>
      <trkpt lat="44.32122" lon="6.5151">
        <ele>1944.4035644531</ele>
        <time>2012-09-15T14:12:53Z</time>
      </trkpt>
      <trkpt lat="44.32124" lon="6.5151">
        <ele>1944.8842773438</ele>
        <time>2012-09-15T14:12:55Z</time>
      </trkpt>
      <trkpt lat="44.32132" lon="6.51507">
        <ele>1946.3264160156</ele>
        <time>2012-09-15T14:13:02Z</time>
      </trkpt>
      <trkpt lat="44.3214" lon="6.51505">
        <ele>1946.8068847656</ele>
        <time>2012-09-15T14:13:09Z</time>
      </trkpt>
      <trkpt lat="44.32142" lon="6.51502">
        <ele>1945.3649902344</ele>
        <time>2012-09-15T14:13:12Z</time>
      </trkpt>
      <trkpt lat="44.32147" lon="6.51496">
        <ele>1943.4423828125</ele>
        <time>2012-09-15T14:13:17Z</time>
      </trkpt>
      <trkpt lat="44.3215" lon="6.51493">
        <ele>1946.3264160156</ele>
        <time>2012-09-15T14:13:20Z</time>
      </trkpt>
      <trkpt lat="44.32152" lon="6.51491">
        <ele>1948.7297363281</ele>
        <time>2012-09-15T14:13:23Z</time>
      </trkpt>
      <trkpt lat="44.32157" lon="6.51491">
        <ele>1947.2875976562</ele>
        <time>2012-09-15T14:13:27Z</time>
      </trkpt>
      <trkpt lat="44.3216" lon="6.51487">
        <ele>1948.7297363281</ele>
        <time>2012-09-15T14:13:31Z</time>
      </trkpt>
      <trkpt lat="44.32166" lon="6.51477">
        <ele>1944.4035644531</ele>
        <time>2012-09-15T14:13:40Z</time>
      </trkpt>
      <trkpt lat="44.32172" lon="6.51468">
        <ele>1942.9616699219</ele>
        <time>2012-09-15T14:13:49Z</time>
      </trkpt>
      <trkpt lat="44.32175" lon="6.51466">
        <ele>1945.845703125</ele>
        <time>2012-09-15T14:13:55Z</time>
      </trkpt>
      <trkpt lat="44.3218" lon="6.51464">
        <ele>1952.0942382812</ele>
        <time>2012-09-15T14:14:03Z</time>
      </trkpt>
      <trkpt lat="44.32183" lon="6.5146">
        <ele>1952.5749511719</ele>
        <time>2012-09-15T14:14:08Z</time>
      </trkpt>
      <trkpt lat="44.32182" lon="6.51458">
        <ele>1956.9008789062</ele>
        <time>2012-09-15T14:14:13Z</time>
      </trkpt>
      <trkpt lat="44.32182" lon="6.51454">
        <ele>1960.2653808594</ele>
        <time>2012-09-15T14:14:18Z</time>
      </trkpt>
      <trkpt lat="44.32183" lon="6.51453">
        <ele>1959.7846679688</ele>
        <time>2012-09-15T14:14:19Z</time>
      </trkpt>
      <trkpt lat="44.3219" lon="6.51444">
        <ele>1953.5363769531</ele>
        <time>2012-09-15T14:14:27Z</time>
      </trkpt>
      <trkpt lat="44.32191" lon="6.51439">
        <ele>1955.939453125</ele>
        <time>2012-09-15T14:14:34Z</time>
      </trkpt>
      <trkpt lat="44.32191" lon="6.51435">
        <ele>1960.2653808594</ele>
        <time>2012-09-15T14:14:39Z</time>
      </trkpt>
      <trkpt lat="44.32194" lon="6.51432">
        <ele>1958.8234863281</ele>
        <time>2012-09-15T14:14:45Z</time>
      </trkpt>
      <trkpt lat="44.32196" lon="6.51432">
        <ele>1957.8623046875</ele>
        <time>2012-09-15T14:14:46Z</time>
      </trkpt>
      <trkpt lat="44.32204" lon="6.51427">
        <ele>1956.4201660156</ele>
        <time>2012-09-15T14:14:53Z</time>
      </trkpt>
      <trkpt lat="44.32205" lon="6.51426">
        <ele>1956.4201660156</ele>
        <time>2012-09-15T14:14:54Z</time>
      </trkpt>
      <trkpt lat="44.32207" lon="6.51426">
        <ele>1958.8234863281</ele>
        <time>2012-09-15T14:14:57Z</time>
      </trkpt>
      <trkpt lat="44.32211" lon="6.51419">
        <ele>1956.4201660156</ele>
        <time>2012-09-15T14:15:01Z</time>
      </trkpt>
      <trkpt lat="44.32213" lon="6.51416">
        <ele>1965.072265625</ele>
        <time>2012-09-15T14:15:07Z</time>
      </trkpt>
      <trkpt lat="44.32218" lon="6.51416">
        <ele>1965.5529785156</ele>
        <time>2012-09-15T14:15:11Z</time>
      </trkpt>
      <trkpt lat="44.32225" lon="6.5141">
        <ele>1968.4367675781</ele>
        <time>2012-09-15T14:15:18Z</time>
      </trkpt>
      <trkpt lat="44.32228" lon="6.51406">
        <ele>1966.0334472656</ele>
        <time>2012-09-15T14:15:23Z</time>
      </trkpt>
      <trkpt lat="44.32233" lon="6.51402">
        <ele>1959.3041992188</ele>
        <time>2012-09-15T14:15:28Z</time>
      </trkpt>
      <trkpt lat="44.32235" lon="6.51396">
        <ele>1958.3427734375</ele>
        <time>2012-09-15T14:15:32Z</time>
      </trkpt>
      <trkpt lat="44.32244" lon="6.51391">
        <ele>1959.7846679688</ele>
        <time>2012-09-15T14:15:36Z</time>
      </trkpt>
      <trkpt lat="44.32257" lon="6.5138">
        <ele>1960.74609375</ele>
        <time>2012-09-15T14:15:40Z</time>
      </trkpt>
      <trkpt lat="44.32267" lon="6.51375">
        <ele>1963.1494140625</ele>
        <time>2012-09-15T14:15:44Z</time>
      </trkpt>
      <trkpt lat="44.32282" lon="6.51369">
        <ele>1967.9560546875</ele>
        <time>2012-09-15T14:15:49Z</time>
      </trkpt>
      <trkpt lat="44.32283" lon="6.51373">
        <ele>1966.0334472656</ele>
        <time>2012-09-15T14:15:53Z</time>
      </trkpt>
      <trkpt lat="44.32287" lon="6.51371">
        <ele>1962.6687011719</ele>
        <time>2012-09-15T14:15:58Z</time>
      </trkpt>
      <trkpt lat="44.32288" lon="6.5137">
        <ele>1962.6687011719</ele>
        <time>2012-09-15T14:15:59Z</time>
      </trkpt>
      <trkpt lat="44.32296" lon="6.51372">
        <ele>1962.6687011719</ele>
        <time>2012-09-15T14:16:06Z</time>
      </trkpt>
      <trkpt lat="44.32308" lon="6.51373">
        <ele>1960.74609375</ele>
        <time>2012-09-15T14:16:12Z</time>
      </trkpt>
      <trkpt lat="44.32317" lon="6.51377">
        <ele>1961.2268066406</ele>
        <time>2012-09-15T14:16:17Z</time>
      </trkpt>
      <trkpt lat="44.32318" lon="6.51377">
        <ele>1959.3041992188</ele>
        <time>2012-09-15T14:16:18Z</time>
      </trkpt>
      <trkpt lat="44.32325" lon="6.51375">
        <ele>1950.65234375</ele>
        <time>2012-09-15T14:16:23Z</time>
      </trkpt>
      <trkpt lat="44.32325" lon="6.51375">
        <ele>1951.6137695312</ele>
        <time>2012-09-15T14:16:24Z</time>
      </trkpt>
      <trkpt lat="44.32329" lon="6.51375">
        <ele>1949.2104492188</ele>
        <time>2012-09-15T14:16:30Z</time>
      </trkpt>
      <trkpt lat="44.32331" lon="6.51378">
        <ele>1949.2104492188</ele>
        <time>2012-09-15T14:16:35Z</time>
      </trkpt>
      <trkpt lat="44.32332" lon="6.51379">
        <ele>1949.2104492188</ele>
        <time>2012-09-15T14:16:36Z</time>
      </trkpt>
      <trkpt lat="44.3234" lon="6.51381">
        <ele>1952.0942382812</ele>
        <time>2012-09-15T14:16:41Z</time>
      </trkpt>
      <trkpt lat="44.32346" lon="6.51382">
        <ele>1947.7683105469</ele>
        <time>2012-09-15T14:16:46Z</time>
      </trkpt>
      <trkpt lat="44.32354" lon="6.51388">
        <ele>1945.845703125</ele>
        <time>2012-09-15T14:16:51Z</time>
      </trkpt>
      <trkpt lat="44.32359" lon="6.51389">
        <ele>1942.0004882812</ele>
        <time>2012-09-15T14:16:56Z</time>
      </trkpt>
      <trkpt lat="44.32362" lon="6.51391">
        <ele>1944.8842773438</ele>
        <time>2012-09-15T14:17:01Z</time>
      </trkpt>
      <trkpt lat="44.32365" lon="6.51393">
        <ele>1943.9230957031</ele>
        <time>2012-09-15T14:17:03Z</time>
      </trkpt>
      <trkpt lat="44.32376" lon="6.51401">
        <ele>1949.6911621094</ele>
        <time>2012-09-15T14:17:09Z</time>
      </trkpt>
      <trkpt lat="44.32383" lon="6.51404">
        <ele>1953.0556640625</ele>
        <time>2012-09-15T14:17:13Z</time>
      </trkpt>
      <trkpt lat="44.32397" lon="6.51406">
        <ele>1954.4975585938</ele>
        <time>2012-09-15T14:17:18Z</time>
      </trkpt>
      <trkpt lat="44.32405" lon="6.51408">
        <ele>1958.3427734375</ele>
        <time>2012-09-15T14:17:22Z</time>
      </trkpt>
      <trkpt lat="44.32407" lon="6.5141">
        <ele>1962.1879882812</ele>
        <time>2012-09-15T14:17:26Z</time>
      </trkpt>
      <trkpt lat="44.3241" lon="6.51412">
        <ele>1966.5141601562</ele>
        <time>2012-09-15T14:17:31Z</time>
      </trkpt>
      <trkpt lat="44.32416" lon="6.51415">
        <ele>1968.4367675781</ele>
        <time>2012-09-15T14:17:35Z</time>
      </trkpt>
      <trkpt lat="44.32421" lon="6.51417">
        <ele>1966.0334472656</ele>
        <time>2012-09-15T14:17:38Z</time>
      </trkpt>
      <trkpt lat="44.3243" lon="6.51417">
        <ele>1962.1879882812</ele>
        <time>2012-09-15T14:17:44Z</time>
      </trkpt>
      <trkpt lat="44.32439" lon="6.51419">
        <ele>1960.2653808594</ele>
        <time>2012-09-15T14:17:49Z</time>
      </trkpt>
      <trkpt lat="44.3245" lon="6.51423">
        <ele>1954.9782714844</ele>
        <time>2012-09-15T14:17:53Z</time>
      </trkpt>
      <trkpt lat="44.32458" lon="6.51419">
        <ele>1956.4201660156</ele>
        <time>2012-09-15T14:17:59Z</time>
      </trkpt>
      <trkpt lat="44.32462" lon="6.51414">
        <ele>1950.65234375</ele>
        <time>2012-09-15T14:18:04Z</time>
      </trkpt>
      <trkpt lat="44.32466" lon="6.51407">
        <ele>1954.0170898438</ele>
        <time>2012-09-15T14:18:09Z</time>
      </trkpt>
      <trkpt lat="44.32478" lon="6.51396">
        <ele>1951.1330566406</ele>
        <time>2012-09-15T14:18:13Z</time>
      </trkpt>
      <trkpt lat="44.32494" lon="6.51387">
        <ele>1948.2490234375</ele>
        <time>2012-09-15T14:18:17Z</time>
      </trkpt>
      <trkpt lat="44.32507" lon="6.51381">
        <ele>1944.4035644531</ele>
        <time>2012-09-15T14:18:22Z</time>
      </trkpt>
      <trkpt lat="44.32512" lon="6.51375">
        <ele>1943.9230957031</ele>
        <time>2012-09-15T14:18:26Z</time>
      </trkpt>
      <trkpt lat="44.32518" lon="6.51373">
        <ele>1945.3649902344</ele>
        <time>2012-09-15T14:18:29Z</time>
      </trkpt>
      <trkpt lat="44.32527" lon="6.51372">
        <ele>1951.6137695312</ele>
        <time>2012-09-15T14:18:35Z</time>
      </trkpt>
      <trkpt lat="44.32531" lon="6.51371">
        <ele>1950.171875</ele>
        <time>2012-09-15T14:18:39Z</time>
      </trkpt>
      <trkpt lat="44.32539" lon="6.51369">
        <ele>1951.1330566406</ele>
        <time>2012-09-15T14:18:48Z</time>
      </trkpt>
      <trkpt lat="44.32545" lon="6.51369">
        <ele>1955.458984375</ele>
        <time>2012-09-15T14:18:56Z</time>
      </trkpt>
      <trkpt lat="44.32549" lon="6.51369">
        <ele>1959.3041992188</ele>
        <time>2012-09-15T14:19:01Z</time>
      </trkpt>
      <trkpt lat="44.32552" lon="6.51367">
        <ele>1958.8234863281</ele>
        <time>2012-09-15T14:19:05Z</time>
      </trkpt>
      <trkpt lat="44.32556" lon="6.51367">
        <ele>1959.7846679688</ele>
        <time>2012-09-15T14:19:10Z</time>
      </trkpt>
      <trkpt lat="44.32563" lon="6.51365">
        <ele>1959.3041992188</ele>
        <time>2012-09-15T14:19:18Z</time>
      </trkpt>
      <trkpt lat="44.32568" lon="6.51363">
        <ele>1957.8623046875</ele>
        <time>2012-09-15T14:19:24Z</time>
      </trkpt>
      <trkpt lat="44.32571" lon="6.51357">
        <ele>1953.0556640625</ele>
        <time>2012-09-15T14:19:30Z</time>
      </trkpt>
      <trkpt lat="44.32574" lon="6.51361">
        <ele>1966.9948730469</ele>
        <time>2012-09-15T14:19:36Z</time>
      </trkpt>
      <trkpt lat="44.3258" lon="6.5136">
        <ele>1968.9174804688</ele>
        <time>2012-09-15T14:19:43Z</time>
      </trkpt>
      <trkpt lat="44.32584" lon="6.51363">
        <ele>1974.6853027344</ele>
        <time>2012-09-15T14:19:48Z</time>
      </trkpt>
      <trkpt lat="44.32589" lon="6.51364">
        <ele>1979.4916992188</ele>
        <time>2012-09-15T14:19:53Z</time>
      </trkpt>
      <trkpt lat="44.3259" lon="6.51364">
        <ele>1978.0498046875</ele>
        <time>2012-09-15T14:19:54Z</time>
      </trkpt>
      <trkpt lat="44.32597" lon="6.51368">
        <ele>1979.9724121094</ele>
        <time>2012-09-15T14:20:01Z</time>
      </trkpt>
      <trkpt lat="44.326" lon="6.5137">
        <ele>1979.0109863281</ele>
        <time>2012-09-15T14:20:06Z</time>
      </trkpt>
      <trkpt lat="44.32605" lon="6.51373">
        <ele>1986.7016601562</ele>
        <time>2012-09-15T14:20:14Z</time>
      </trkpt>
      <trkpt lat="44.32611" lon="6.51377">
        <ele>1988.6245117188</ele>
        <time>2012-09-15T14:20:22Z</time>
      </trkpt>
      <trkpt lat="44.32621" lon="6.51377">
        <ele>1980.4533691406</ele>
        <time>2012-09-15T14:20:29Z</time>
      </trkpt>
      <trkpt lat="44.32627" lon="6.51379">
        <ele>1981.4145507812</ele>
        <time>2012-09-15T14:20:36Z</time>
      </trkpt>
      <trkpt lat="44.32631" lon="6.51378">
        <ele>1979.9724121094</ele>
        <time>2012-09-15T14:20:42Z</time>
      </trkpt>
      <trkpt lat="44.32636" lon="6.51374">
        <ele>1975.1657714844</ele>
        <time>2012-09-15T14:20:47Z</time>
      </trkpt>
      <trkpt lat="44.32637" lon="6.51373">
        <ele>1973.7238769531</ele>
        <time>2012-09-15T14:20:48Z</time>
      </trkpt>
      <trkpt lat="44.32642" lon="6.5137">
        <ele>1970.8400878906</ele>
        <time>2012-09-15T14:20:54Z</time>
      </trkpt>
      <trkpt lat="44.32646" lon="6.51365">
        <ele>1968.4367675781</ele>
        <time>2012-09-15T14:21:00Z</time>
      </trkpt>
      <trkpt lat="44.3265" lon="6.51365">
        <ele>1969.3981933594</ele>
        <time>2012-09-15T14:21:06Z</time>
      </trkpt>
      <trkpt lat="44.3265" lon="6.51362">
        <ele>1967.9560546875</ele>
        <time>2012-09-15T14:21:11Z</time>
      </trkpt>
      <trkpt lat="44.32651" lon="6.51357">
        <ele>1966.9948730469</ele>
        <time>2012-09-15T14:21:14Z</time>
      </trkpt>
      <trkpt lat="44.32652" lon="6.51351">
        <ele>1974.6853027344</ele>
        <time>2012-09-15T14:21:22Z</time>
      </trkpt>
      <trkpt lat="44.3266" lon="6.51343">
        <ele>1982.3759765625</ele>
        <time>2012-09-15T14:21:36Z</time>
      </trkpt>
      <trkpt lat="44.32664" lon="6.51337">
        <ele>1982.8564453125</ele>
        <time>2012-09-15T14:21:44Z</time>
      </trkpt>
      <trkpt lat="44.32669" lon="6.51333">
        <ele>1979.4916992188</ele>
        <time>2012-09-15T14:21:48Z</time>
      </trkpt>
      <trkpt lat="44.32671" lon="6.51328">
        <ele>1978.0498046875</ele>
        <time>2012-09-15T14:21:52Z</time>
      </trkpt>
      <trkpt lat="44.32675" lon="6.51329">
        <ele>1986.2211914062</ele>
        <time>2012-09-15T14:22:00Z</time>
      </trkpt>
      <trkpt lat="44.32679" lon="6.51327">
        <ele>1987.6630859375</ele>
        <time>2012-09-15T14:22:05Z</time>
      </trkpt>
      <trkpt lat="44.32682" lon="6.51322">
        <ele>1988.6245117188</ele>
        <time>2012-09-15T14:22:11Z</time>
      </trkpt>
      <trkpt lat="44.32686" lon="6.51316">
        <ele>1988.1437988281</ele>
        <time>2012-09-15T14:22:16Z</time>
      </trkpt>
      <trkpt lat="44.32688" lon="6.51315">
        <ele>1991.5083007812</ele>
        <time>2012-09-15T14:22:18Z</time>
      </trkpt>
      <trkpt lat="44.3269" lon="6.5131">
        <ele>1987.1823730469</ele>
        <time>2012-09-15T14:22:22Z</time>
      </trkpt>
      <trkpt lat="44.32695" lon="6.51304">
        <ele>1984.779296875</ele>
        <time>2012-09-15T14:22:30Z</time>
      </trkpt>
      <trkpt lat="44.32701" lon="6.51292">
        <ele>1977.0886230469</ele>
        <time>2012-09-15T14:22:37Z</time>
      </trkpt>
      <trkpt lat="44.32702" lon="6.51287">
        <ele>1980.4533691406</ele>
        <time>2012-09-15T14:22:40Z</time>
      </trkpt>
      <trkpt lat="44.32707" lon="6.51276">
        <ele>1979.9724121094</ele>
        <time>2012-09-15T14:22:48Z</time>
      </trkpt>
      <trkpt lat="44.3271" lon="6.51271">
        <ele>1980.4533691406</ele>
        <time>2012-09-15T14:22:52Z</time>
      </trkpt>
      <trkpt lat="44.3271" lon="6.51266">
        <ele>1977.5690917969</ele>
        <time>2012-09-15T14:22:56Z</time>
      </trkpt>
      <trkpt lat="44.32709" lon="6.51258">
        <ele>1976.1271972656</ele>
        <time>2012-09-15T14:23:03Z</time>
      </trkpt>
      <trkpt lat="44.3271" lon="6.51246">
        <ele>1972.7626953125</ele>
        <time>2012-09-15T14:23:12Z</time>
      </trkpt>
      <trkpt lat="44.32711" lon="6.51236">
        <ele>1972.7626953125</ele>
        <time>2012-09-15T14:23:19Z</time>
      </trkpt>
      <trkpt lat="44.32709" lon="6.51231">
        <ele>1975.1657714844</ele>
        <time>2012-09-15T14:23:23Z</time>
      </trkpt>
      <trkpt lat="44.32706" lon="6.5122">
        <ele>1973.7238769531</ele>
        <time>2012-09-15T14:23:32Z</time>
      </trkpt>
      <trkpt lat="44.32706" lon="6.51213">
        <ele>1974.2045898438</ele>
        <time>2012-09-15T14:23:37Z</time>
      </trkpt>
      <trkpt lat="44.32705" lon="6.51202">
        <ele>1972.7626953125</ele>
        <time>2012-09-15T14:23:44Z</time>
      </trkpt>
      <trkpt lat="44.32706" lon="6.51191">
        <ele>1968.9174804688</ele>
        <time>2012-09-15T14:23:50Z</time>
      </trkpt>
      <trkpt lat="44.32712" lon="6.51189">
        <ele>1967.4753417969</ele>
        <time>2012-09-15T14:23:56Z</time>
      </trkpt>
      <trkpt lat="44.32718" lon="6.51185">
        <ele>1967.9560546875</ele>
        <time>2012-09-15T14:24:04Z</time>
      </trkpt>
      <trkpt lat="44.32721" lon="6.51184">
        <ele>1968.4367675781</ele>
        <time>2012-09-15T14:24:11Z</time>
      </trkpt>
      <trkpt lat="44.32724" lon="6.51182">
        <ele>1969.8786621094</ele>
        <time>2012-09-15T14:24:16Z</time>
      </trkpt>
      <trkpt lat="44.32726" lon="6.51178">
        <ele>1970.359375</ele>
        <time>2012-09-15T14:24:21Z</time>
      </trkpt>
      <trkpt lat="44.32726" lon="6.51177">
        <ele>1974.2045898438</ele>
        <time>2012-09-15T14:24:27Z</time>
      </trkpt>
      <trkpt lat="44.32728" lon="6.51176">
        <ele>1973.2434082031</ele>
        <time>2012-09-15T14:24:34Z</time>
      </trkpt>
      <trkpt lat="44.32729" lon="6.51174">
        <ele>1972.7626953125</ele>
        <time>2012-09-15T14:24:39Z</time>
      </trkpt>
      <trkpt lat="44.32729" lon="6.51166">
        <ele>1969.3981933594</ele>
        <time>2012-09-15T14:25:55Z</time>
      </trkpt>
      <trkpt lat="44.32731" lon="6.51164">
        <ele>1975.1657714844</ele>
        <time>2012-09-15T14:26:01Z</time>
      </trkpt>
      <trkpt lat="44.32736" lon="6.51151">
        <ele>1974.6853027344</ele>
        <time>2012-09-15T14:26:06Z</time>
      </trkpt>
      <trkpt lat="44.32747" lon="6.51136">
        <ele>1965.072265625</ele>
        <time>2012-09-15T14:26:11Z</time>
      </trkpt>
      <trkpt lat="44.32758" lon="6.51118">
        <ele>1957.3815917969</ele>
        <time>2012-09-15T14:26:17Z</time>
      </trkpt>
      <trkpt lat="44.3277" lon="6.511">
        <ele>1953.5363769531</ele>
        <time>2012-09-15T14:26:24Z</time>
      </trkpt>
      <trkpt lat="44.32778" lon="6.51084">
        <ele>1954.4975585938</ele>
        <time>2012-09-15T14:26:31Z</time>
      </trkpt>
      <trkpt lat="44.32785" lon="6.51072">
        <ele>1952.5749511719</ele>
        <time>2012-09-15T14:26:37Z</time>
      </trkpt>
      <trkpt lat="44.32793" lon="6.51059">
        <ele>1954.9782714844</ele>
        <time>2012-09-15T14:26:44Z</time>
      </trkpt>
      <trkpt lat="44.32801" lon="6.51052">
        <ele>1957.3815917969</ele>
        <time>2012-09-15T14:26:50Z</time>
      </trkpt>
      <trkpt lat="44.32809" lon="6.51041">
        <ele>1959.7846679688</ele>
        <time>2012-09-15T14:26:57Z</time>
      </trkpt>
      <trkpt lat="44.32821" lon="6.51034">
        <ele>1959.7846679688</ele>
        <time>2012-09-15T14:27:04Z</time>
      </trkpt>
      <trkpt lat="44.32835" lon="6.51025">
        <ele>1958.8234863281</ele>
        <time>2012-09-15T14:27:11Z</time>
      </trkpt>
      <trkpt lat="44.32848" lon="6.51013">
        <ele>1957.3815917969</ele>
        <time>2012-09-15T14:27:19Z</time>
      </trkpt>
      <trkpt lat="44.3285" lon="6.51011">
        <ele>1957.8623046875</ele>
        <time>2012-09-15T14:27:20Z</time>
      </trkpt>
      <trkpt lat="44.32859" lon="6.51012">
        <ele>1960.2653808594</ele>
        <time>2012-09-15T14:27:25Z</time>
      </trkpt>
      <trkpt lat="44.32867" lon="6.51014">
        <ele>1962.6687011719</ele>
        <time>2012-09-15T14:27:30Z</time>
      </trkpt>
      <trkpt lat="44.32869" lon="6.51013">
        <ele>1964.1108398438</ele>
        <time>2012-09-15T14:27:36Z</time>
      </trkpt>
      <trkpt lat="44.32866" lon="6.51016">
        <ele>1971.8012695312</ele>
        <time>2012-09-15T14:28:09Z</time>
      </trkpt>
      <trkpt lat="44.32872" lon="6.51014">
        <ele>1963.6298828125</ele>
        <time>2012-09-15T14:28:20Z</time>
      </trkpt>
      <trkpt lat="44.32883" lon="6.5101">
        <ele>1963.6298828125</ele>
        <time>2012-09-15T14:28:24Z</time>
      </trkpt>
      <trkpt lat="44.32895" lon="6.51012">
        <ele>1962.6687011719</ele>
        <time>2012-09-15T14:28:28Z</time>
      </trkpt>
      <trkpt lat="44.32906" lon="6.51017">
        <ele>1962.6687011719</ele>
        <time>2012-09-15T14:28:32Z</time>
      </trkpt>
      <trkpt lat="44.32914" lon="6.51018">
        <ele>1962.1879882812</ele>
        <time>2012-09-15T14:28:36Z</time>
      </trkpt>
      <trkpt lat="44.32917" lon="6.5102">
        <ele>1961.7075195312</ele>
        <time>2012-09-15T14:28:40Z</time>
      </trkpt>
      <trkpt lat="44.32922" lon="6.51022">
        <ele>1961.2268066406</ele>
        <time>2012-09-15T14:28:47Z</time>
      </trkpt>
      <trkpt lat="44.32928" lon="6.51026">
        <ele>1960.74609375</ele>
        <time>2012-09-15T14:28:51Z</time>
      </trkpt>
      <trkpt lat="44.32938" lon="6.51036">
        <ele>1962.1879882812</ele>
        <time>2012-09-15T14:28:56Z</time>
      </trkpt>
      <trkpt lat="44.32942" lon="6.51037">
        <ele>1962.6687011719</ele>
        <time>2012-09-15T14:28:58Z</time>
      </trkpt>
      <trkpt lat="44.32947" lon="6.51036">
        <ele>1966.0334472656</ele>
        <time>2012-09-15T14:29:04Z</time>
      </trkpt>
      <trkpt lat="44.32948" lon="6.51036">
        <ele>1967.9560546875</ele>
        <time>2012-09-15T14:29:11Z</time>
      </trkpt>
      <trkpt lat="44.32949" lon="6.51036">
        <ele>1972.2819824219</ele>
        <time>2012-09-15T14:29:54Z</time>
      </trkpt>
      <trkpt lat="44.32951" lon="6.51036">
        <ele>1971.8012695312</ele>
        <time>2012-09-15T14:30:01Z</time>
      </trkpt>
      <trkpt lat="44.32954" lon="6.51034">
        <ele>1972.7626953125</ele>
        <time>2012-09-15T14:30:10Z</time>
      </trkpt>
      <trkpt lat="44.32959" lon="6.51032">
        <ele>1972.2819824219</ele>
        <time>2012-09-15T14:30:16Z</time>
      </trkpt>
      <trkpt lat="44.32961" lon="6.51041">
        <ele>1972.7626953125</ele>
        <time>2012-09-15T14:30:22Z</time>
      </trkpt>
      <trkpt lat="44.32961" lon="6.51043">
        <ele>1972.7626953125</ele>
        <time>2012-09-15T14:30:24Z</time>
      </trkpt>
      <trkpt lat="44.32964" lon="6.51053">
        <ele>1975.646484375</ele>
        <time>2012-09-15T14:30:32Z</time>
      </trkpt>
      <trkpt lat="44.32969" lon="6.51059">
        <ele>1973.2434082031</ele>
        <time>2012-09-15T14:30:39Z</time>
      </trkpt>
      <trkpt lat="44.32972" lon="6.51061">
        <ele>1971.8012695312</ele>
        <time>2012-09-15T14:30:42Z</time>
      </trkpt>
      <trkpt lat="44.32978" lon="6.5106">
        <ele>1970.8400878906</ele>
        <time>2012-09-15T14:30:50Z</time>
      </trkpt>
      <trkpt lat="44.32985" lon="6.51066">
        <ele>1968.9174804688</ele>
        <time>2012-09-15T14:30:58Z</time>
      </trkpt>
      <trkpt lat="44.32991" lon="6.51068">
        <ele>1969.3981933594</ele>
        <time>2012-09-15T14:31:05Z</time>
      </trkpt>
      <trkpt lat="44.32995" lon="6.51066">
        <ele>1964.5915527344</ele>
        <time>2012-09-15T14:31:10Z</time>
      </trkpt>
      <trkpt lat="44.33007" lon="6.51071">
        <ele>1961.7075195312</ele>
        <time>2012-09-15T14:31:15Z</time>
      </trkpt>
      <trkpt lat="44.33035" lon="6.51079">
        <ele>1956.9008789062</ele>
        <time>2012-09-15T14:31:23Z</time>
      </trkpt>
      <trkpt lat="44.33056" lon="6.51079">
        <ele>1954.0170898438</ele>
        <time>2012-09-15T14:31:27Z</time>
      </trkpt>
      <trkpt lat="44.33077" lon="6.51075">
        <ele>1950.65234375</ele>
        <time>2012-09-15T14:31:31Z</time>
      </trkpt>
      <trkpt lat="44.33091" lon="6.51069">
        <ele>1948.7297363281</ele>
        <time>2012-09-15T14:31:33Z</time>
      </trkpt>
      <trkpt lat="44.33119" lon="6.51062">
        <ele>1946.3264160156</ele>
        <time>2012-09-15T14:31:37Z</time>
      </trkpt>
      <trkpt lat="44.33152" lon="6.51056">
        <ele>1944.8842773438</ele>
        <time>2012-09-15T14:31:43Z</time>
      </trkpt>
      <trkpt lat="44.33168" lon="6.51053">
        <ele>1944.8842773438</ele>
        <time>2012-09-15T14:31:47Z</time>
      </trkpt>
      <trkpt lat="44.33181" lon="6.5105">
        <ele>1944.8842773438</ele>
        <time>2012-09-15T14:31:52Z</time>
      </trkpt>
      <trkpt lat="44.33203" lon="6.51046">
        <ele>1942.4812011719</ele>
        <time>2012-09-15T14:31:59Z</time>
      </trkpt>
      <trkpt lat="44.33222" lon="6.51041">
        <ele>1941.5197753906</ele>
        <time>2012-09-15T14:32:03Z</time>
      </trkpt>
      <trkpt lat="44.33241" lon="6.51035">
        <ele>1940.0778808594</ele>
        <time>2012-09-15T14:32:07Z</time>
      </trkpt>
      <trkpt lat="44.33258" lon="6.51027">
        <ele>1938.6359863281</ele>
        <time>2012-09-15T14:32:11Z</time>
      </trkpt>
      <trkpt lat="44.3327" lon="6.51022">
        <ele>1938.6359863281</ele>
        <time>2012-09-15T14:32:14Z</time>
      </trkpt>
      <trkpt lat="44.33283" lon="6.51016">
        <ele>1937.1938476562</ele>
        <time>2012-09-15T14:32:18Z</time>
      </trkpt>
      <trkpt lat="44.33304" lon="6.51012">
        <ele>1936.2326660156</ele>
        <time>2012-09-15T14:32:23Z</time>
      </trkpt>
      <trkpt lat="44.3333" lon="6.51003">
        <ele>1934.7907714844</ele>
        <time>2012-09-15T14:32:29Z</time>
      </trkpt>
      <trkpt lat="44.33353" lon="6.50994">
        <ele>1934.3100585938</ele>
        <time>2012-09-15T14:32:35Z</time>
      </trkpt>
      <trkpt lat="44.3337" lon="6.50987">
        <ele>1932.3874511719</ele>
        <time>2012-09-15T14:32:41Z</time>
      </trkpt>
      <trkpt lat="44.33387" lon="6.50989">
        <ele>1932.3874511719</ele>
        <time>2012-09-15T14:32:47Z</time>
      </trkpt>
      <trkpt lat="44.33406" lon="6.50984">
        <ele>1932.3874511719</ele>
        <time>2012-09-15T14:32:55Z</time>
      </trkpt>
      <trkpt lat="44.33416" lon="6.50979">
        <ele>1932.8679199219</ele>
        <time>2012-09-15T14:33:01Z</time>
      </trkpt>
      <trkpt lat="44.33426" lon="6.50977">
        <ele>1932.3874511719</ele>
        <time>2012-09-15T14:33:07Z</time>
      </trkpt>
      <trkpt lat="44.33434" lon="6.50968">
        <ele>1930.4645996094</ele>
        <time>2012-09-15T14:33:14Z</time>
      </trkpt>
      <trkpt lat="44.33434" lon="6.50965">
        <ele>1929.9838867188</ele>
        <time>2012-09-15T14:33:15Z</time>
      </trkpt>
      <trkpt lat="44.33437" lon="6.50961">
        <ele>1929.9838867188</ele>
        <time>2012-09-15T14:33:21Z</time>
      </trkpt>
      <trkpt lat="44.33437" lon="6.50956">
        <ele>1931.42578125</ele>
        <time>2012-09-15T14:33:26Z</time>
      </trkpt>
      <trkpt lat="44.33438" lon="6.50951">
        <ele>1933.3486328125</ele>
        <time>2012-09-15T14:33:33Z</time>
      </trkpt>
      <trkpt lat="44.33437" lon="6.50949">
        <ele>1936.2326660156</ele>
        <time>2012-09-15T14:33:40Z</time>
      </trkpt>
      <trkpt lat="44.33437" lon="6.50946">
        <ele>1938.1552734375</ele>
        <time>2012-09-15T14:33:46Z</time>
      </trkpt>
      <trkpt lat="44.33439" lon="6.50943">
        <ele>1938.1552734375</ele>
        <time>2012-09-15T14:33:51Z</time>
      </trkpt>
      <trkpt lat="44.3344" lon="6.5094">
        <ele>1935.2712402344</ele>
        <time>2012-09-15T14:34:04Z</time>
      </trkpt>
      <trkpt lat="44.33441" lon="6.50939">
        <ele>1935.2712402344</ele>
        <time>2012-09-15T14:34:13Z</time>
      </trkpt>
      <trkpt lat="44.3344" lon="6.50937">
        <ele>1932.8679199219</ele>
        <time>2012-09-15T14:34:19Z</time>
      </trkpt>
      <trkpt lat="44.33442" lon="6.50937">
        <ele>1932.3874511719</ele>
        <time>2012-09-15T14:34:30Z</time>
      </trkpt>
      <trkpt lat="44.33447" lon="6.50937">
        <ele>1935.2712402344</ele>
        <time>2012-09-15T14:34:36Z</time>
      </trkpt>
      <trkpt lat="44.33453" lon="6.50934">
        <ele>1934.3100585938</ele>
        <time>2012-09-15T14:34:42Z</time>
      </trkpt>
      <trkpt lat="44.33456" lon="6.50935">
        <ele>1933.8293457031</ele>
        <time>2012-09-15T14:34:46Z</time>
      </trkpt>
      <trkpt lat="44.33463" lon="6.50932">
        <ele>1931.9064941406</ele>
        <time>2012-09-15T14:34:52Z</time>
      </trkpt>
      <trkpt lat="44.3347" lon="6.50931">
        <ele>1930.9453125</ele>
        <time>2012-09-15T14:34:56Z</time>
      </trkpt>
      <trkpt lat="44.33481" lon="6.5093">
        <ele>1933.3486328125</ele>
        <time>2012-09-15T14:35:02Z</time>
      </trkpt>
      <trkpt lat="44.33486" lon="6.50927">
        <ele>1932.8679199219</ele>
        <time>2012-09-15T14:35:05Z</time>
      </trkpt>
      <trkpt lat="44.33495" lon="6.5093">
        <ele>1935.751953125</ele>
        <time>2012-09-15T14:35:11Z</time>
      </trkpt>
      <trkpt lat="44.33512" lon="6.50939">
        <ele>1936.2326660156</ele>
        <time>2012-09-15T14:35:17Z</time>
      </trkpt>
      <trkpt lat="44.33522" lon="6.5094">
        <ele>1936.7131347656</ele>
        <time>2012-09-15T14:35:21Z</time>
      </trkpt>
      <trkpt lat="44.33533" lon="6.50936">
        <ele>1940.5583496094</ele>
        <time>2012-09-15T14:35:25Z</time>
      </trkpt>
      <trkpt lat="44.33545" lon="6.50937">
        <ele>1946.3264160156</ele>
        <time>2012-09-15T14:35:29Z</time>
      </trkpt>
      <trkpt lat="44.33549" lon="6.50936">
        <ele>1947.7683105469</ele>
        <time>2012-09-15T14:35:33Z</time>
      </trkpt>
      <trkpt lat="44.3355" lon="6.50939">
        <ele>1953.5363769531</ele>
        <time>2012-09-15T14:35:41Z</time>
      </trkpt>
      <trkpt lat="44.33552" lon="6.50939">
        <ele>1955.939453125</ele>
        <time>2012-09-15T14:35:50Z</time>
      </trkpt>
      <trkpt lat="44.33556" lon="6.50943">
        <ele>1949.2104492188</ele>
        <time>2012-09-15T14:36:41Z</time>
      </trkpt>
      <trkpt lat="44.33558" lon="6.50939">
        <ele>1948.7297363281</ele>
        <time>2012-09-15T14:37:22Z</time>
      </trkpt>
      <trkpt lat="44.3356" lon="6.50937">
        <ele>1949.2104492188</ele>
        <time>2012-09-15T14:37:27Z</time>
      </trkpt>
      <trkpt lat="44.3356" lon="6.5094">
        <ele>1959.7846679688</ele>
        <time>2012-09-15T14:37:43Z</time>
      </trkpt>
      <trkpt lat="44.33563" lon="6.50937">
        <ele>1961.2268066406</ele>
        <time>2012-09-15T14:37:50Z</time>
      </trkpt>
      <trkpt lat="44.33568" lon="6.50932">
        <ele>1956.4201660156</ele>
        <time>2012-09-15T14:37:58Z</time>
      </trkpt>
      <trkpt lat="44.3357" lon="6.50929">
        <ele>1954.0170898438</ele>
        <time>2012-09-15T14:38:04Z</time>
      </trkpt>
      <trkpt lat="44.33575" lon="6.50927">
        <ele>1946.3264160156</ele>
        <time>2012-09-15T14:38:09Z</time>
      </trkpt>
      <trkpt lat="44.33585" lon="6.5093">
        <ele>1944.4035644531</ele>
        <time>2012-09-15T14:38:16Z</time>
      </trkpt>
      <trkpt lat="44.33596" lon="6.50927">
        <ele>1948.7297363281</ele>
        <time>2012-09-15T14:38:21Z</time>
      </trkpt>
      <trkpt lat="44.33611" lon="6.50929">
        <ele>1945.3649902344</ele>
        <time>2012-09-15T14:38:25Z</time>
      </trkpt>
      <trkpt lat="44.33616" lon="6.5093">
        <ele>1940.5583496094</ele>
        <time>2012-09-15T14:38:27Z</time>
      </trkpt>
      <trkpt lat="44.33626" lon="6.50941">
        <ele>1928.0612792969</ele>
        <time>2012-09-15T14:38:32Z</time>
      </trkpt>
      <trkpt lat="44.33633" lon="6.50941">
        <ele>1920.3708496094</ele>
        <time>2012-09-15T14:38:36Z</time>
      </trkpt>
      <trkpt lat="44.33635" lon="6.50943">
        <ele>1916.044921875</ele>
        <time>2012-09-15T14:38:58Z</time>
      </trkpt>
      <trkpt lat="44.33634" lon="6.50938">
        <ele>1908.3542480469</ele>
        <time>2012-09-15T14:39:26Z</time>
      </trkpt>
      <trkpt lat="44.33649" lon="6.50937">
        <ele>1911.23828125</ele>
        <time>2012-09-15T14:39:32Z</time>
      </trkpt>
      <trkpt lat="44.33659" lon="6.50932">
        <ele>1912.1994628906</ele>
        <time>2012-09-15T14:39:37Z</time>
      </trkpt>
      <trkpt lat="44.33673" lon="6.50925">
        <ele>1913.6413574219</ele>
        <time>2012-09-15T14:39:42Z</time>
      </trkpt>
      <trkpt lat="44.33688" lon="6.50917">
        <ele>1917.0063476562</ele>
        <time>2012-09-15T14:39:46Z</time>
      </trkpt>
      <trkpt lat="44.33696" lon="6.50914">
        <ele>1919.8901367188</ele>
        <time>2012-09-15T14:39:48Z</time>
      </trkpt>
      <trkpt lat="44.3371" lon="6.50908">
        <ele>1924.6967773438</ele>
        <time>2012-09-15T14:39:53Z</time>
      </trkpt>
      <trkpt lat="44.33725" lon="6.50903">
        <ele>1925.6579589844</ele>
        <time>2012-09-15T14:39:58Z</time>
      </trkpt>
      <trkpt lat="44.33738" lon="6.50902">
        <ele>1928.5419921875</ele>
        <time>2012-09-15T14:40:04Z</time>
      </trkpt>
      <trkpt lat="44.33744" lon="6.50902">
        <ele>1930.9453125</ele>
        <time>2012-09-15T14:40:06Z</time>
      </trkpt>
      <trkpt lat="44.33751" lon="6.509">
        <ele>1936.7131347656</ele>
        <time>2012-09-15T14:40:11Z</time>
      </trkpt>
      <trkpt lat="44.33752" lon="6.50901">
        <ele>1939.1164550781</ele>
        <time>2012-09-15T14:40:12Z</time>
      </trkpt>
      <trkpt lat="44.33758" lon="6.50899">
        <ele>1943.4423828125</ele>
        <time>2012-09-15T14:40:19Z</time>
      </trkpt>
      <trkpt lat="44.3377" lon="6.50891">
        <ele>1941.0390625</ele>
        <time>2012-09-15T14:40:24Z</time>
      </trkpt>
      <trkpt lat="44.33772" lon="6.50891">
        <ele>1939.5971679688</ele>
        <time>2012-09-15T14:40:25Z</time>
      </trkpt>
      <trkpt lat="44.33793" lon="6.5088">
        <ele>1936.2326660156</ele>
        <time>2012-09-15T14:40:32Z</time>
      </trkpt>
      <trkpt lat="44.33809" lon="6.50875">
        <ele>1934.7907714844</ele>
        <time>2012-09-15T14:40:36Z</time>
      </trkpt>
      <trkpt lat="44.33818" lon="6.5088">
        <ele>1915.5642089844</ele>
        <time>2012-09-15T14:40:41Z</time>
      </trkpt>
      <trkpt lat="44.3382" lon="6.50893">
        <ele>1893.4538574219</ele>
        <time>2012-09-15T14:40:47Z</time>
      </trkpt>
      <trkpt lat="44.33819" lon="6.50912">
        <ele>1882.3986816406</ele>
        <time>2012-09-15T14:40:52Z</time>
      </trkpt>
      <trkpt lat="44.33817" lon="6.50927">
        <ele>1876.1501464844</ele>
        <time>2012-09-15T14:40:55Z</time>
      </trkpt>
      <trkpt lat="44.3381" lon="6.50948">
        <ele>1861.73046875</ele>
        <time>2012-09-15T14:41:01Z</time>
      </trkpt>
      <trkpt lat="44.33809" lon="6.50964">
        <ele>1851.6364746094</ele>
        <time>2012-09-15T14:41:06Z</time>
      </trkpt>
      <trkpt lat="44.338" lon="6.5098">
        <ele>1842.0234375</ele>
        <time>2012-09-15T14:41:11Z</time>
      </trkpt>
      <trkpt lat="44.33805" lon="6.50981">
        <ele>1838.1782226562</ele>
        <time>2012-09-15T14:41:14Z</time>
      </trkpt>
      <trkpt lat="44.3381" lon="6.50984">
        <ele>1838.1782226562</ele>
        <time>2012-09-15T14:41:16Z</time>
      </trkpt>
      <trkpt lat="44.33828" lon="6.50987">
        <ele>1833.8520507812</ele>
        <time>2012-09-15T14:41:21Z</time>
      </trkpt>
      <trkpt lat="44.33844" lon="6.50981">
        <ele>1828.5649414062</ele>
        <time>2012-09-15T14:41:26Z</time>
      </trkpt>
      <trkpt lat="44.3386" lon="6.50976">
        <ele>1821.8356933594</ele>
        <time>2012-09-15T14:41:30Z</time>
      </trkpt>
      <trkpt lat="44.33871" lon="6.50971">
        <ele>1817.990234375</ele>
        <time>2012-09-15T14:41:33Z</time>
      </trkpt>
      <trkpt lat="44.33887" lon="6.50972">
        <ele>1813.6643066406</ele>
        <time>2012-09-15T14:41:37Z</time>
      </trkpt>
      <trkpt lat="44.33903" lon="6.50962">
        <ele>1810.2998046875</ele>
        <time>2012-09-15T14:41:41Z</time>
      </trkpt>
      <trkpt lat="44.33906" lon="6.50959">
        <ele>1810.2998046875</ele>
        <time>2012-09-15T14:41:42Z</time>
      </trkpt>
      <trkpt lat="44.33918" lon="6.50946">
        <ele>1809.3386230469</ele>
        <time>2012-09-15T14:41:45Z</time>
      </trkpt>
      <trkpt lat="44.3393" lon="6.50926">
        <ele>1808.8579101562</ele>
        <time>2012-09-15T14:41:48Z</time>
      </trkpt>
      <trkpt lat="44.3395" lon="6.50904">
        <ele>1807.416015625</ele>
        <time>2012-09-15T14:41:52Z</time>
      </trkpt>
      <trkpt lat="44.3397" lon="6.50885">
        <ele>1805.4934082031</ele>
        <time>2012-09-15T14:41:56Z</time>
      </trkpt>
      <trkpt lat="44.33974" lon="6.50884">
        <ele>1805.0126953125</ele>
        <time>2012-09-15T14:42:02Z</time>
      </trkpt>
      <trkpt lat="44.33974" lon="6.50882">
        <ele>1810.2998046875</ele>
        <time>2012-09-15T14:42:13Z</time>
      </trkpt>
      <trkpt lat="44.33974" lon="6.50894">
        <ele>1812.703125</ele>
        <time>2012-09-15T14:42:31Z</time>
      </trkpt>
      <trkpt lat="44.33972" lon="6.50916">
        <ele>1808.3771972656</ele>
        <time>2012-09-15T14:42:36Z</time>
      </trkpt>
      <trkpt lat="44.33971" lon="6.5092">
        <ele>1808.3771972656</ele>
        <time>2012-09-15T14:42:37Z</time>
      </trkpt>
      <trkpt lat="44.33957" lon="6.50936">
        <ele>1805.4934082031</ele>
        <time>2012-09-15T14:42:42Z</time>
      </trkpt>
      <trkpt lat="44.33953" lon="6.50945">
        <ele>1803.5705566406</ele>
        <time>2012-09-15T14:42:45Z</time>
      </trkpt>
      <trkpt lat="44.33951" lon="6.5098">
        <ele>1798.283203125</ele>
        <time>2012-09-15T14:42:52Z</time>
      </trkpt>
      <trkpt lat="44.33947" lon="6.51001">
        <ele>1791.0734863281</ele>
        <time>2012-09-15T14:42:56Z</time>
      </trkpt>
      <trkpt lat="44.33946" lon="6.51011">
        <ele>1788.1896972656</ele>
        <time>2012-09-15T14:42:58Z</time>
      </trkpt>
      <trkpt lat="44.33937" lon="6.51026">
        <ele>1784.3442382812</ele>
        <time>2012-09-15T14:43:05Z</time>
      </trkpt>
      <trkpt lat="44.33937" lon="6.51029">
        <ele>1783.3828125</ele>
        <time>2012-09-15T14:43:13Z</time>
      </trkpt>
      <trkpt lat="44.33935" lon="6.51033">
        <ele>1780.9797363281</ele>
        <time>2012-09-15T14:43:17Z</time>
      </trkpt>
      <trkpt lat="44.33931" lon="6.51053">
        <ele>1780.4990234375</ele>
        <time>2012-09-15T14:43:22Z</time>
      </trkpt>
      <trkpt lat="44.3393" lon="6.51059">
        <ele>1779.5375976562</ele>
        <time>2012-09-15T14:43:23Z</time>
      </trkpt>
      <trkpt lat="44.33923" lon="6.51094">
        <ele>1776.1730957031</ele>
        <time>2012-09-15T14:43:27Z</time>
      </trkpt>
      <trkpt lat="44.33922" lon="6.5111">
        <ele>1775.2116699219</ele>
        <time>2012-09-15T14:43:29Z</time>
      </trkpt>
      <trkpt lat="44.33911" lon="6.51137">
        <ele>1771.3662109375</ele>
        <time>2012-09-15T14:43:33Z</time>
      </trkpt>
      <trkpt lat="44.33892" lon="6.51157">
        <ele>1767.0405273438</ele>
        <time>2012-09-15T14:43:37Z</time>
      </trkpt>
      <trkpt lat="44.3386" lon="6.51176">
        <ele>1763.67578125</ele>
        <time>2012-09-15T14:43:42Z</time>
      </trkpt>
      <trkpt lat="44.33838" lon="6.51185">
        <ele>1759.3500976562</ele>
        <time>2012-09-15T14:43:47Z</time>
      </trkpt>
      <trkpt lat="44.33826" lon="6.5119">
        <ele>1755.0239257812</ele>
        <time>2012-09-15T14:43:51Z</time>
      </trkpt>
      <trkpt lat="44.33815" lon="6.5119">
        <ele>1751.1787109375</ele>
        <time>2012-09-15T14:43:56Z</time>
      </trkpt>
      <trkpt lat="44.33813" lon="6.5119">
        <ele>1750.6979980469</ele>
        <time>2012-09-15T14:43:57Z</time>
      </trkpt>
      <trkpt lat="44.3381" lon="6.5119">
        <ele>1749.7368164062</ele>
        <time>2012-09-15T14:43:59Z</time>
      </trkpt>
      <trkpt lat="44.33806" lon="6.51195">
        <ele>1746.8527832031</ele>
        <time>2012-09-15T14:44:05Z</time>
      </trkpt>
      <trkpt lat="44.33803" lon="6.51209">
        <ele>1747.3334960938</ele>
        <time>2012-09-15T14:44:12Z</time>
      </trkpt>
      <trkpt lat="44.33802" lon="6.51213">
        <ele>1746.3723144531</ele>
        <time>2012-09-15T14:44:13Z</time>
      </trkpt>
      <trkpt lat="44.33795" lon="6.51245">
        <ele>1744.9301757812</ele>
        <time>2012-09-15T14:44:19Z</time>
      </trkpt>
      <trkpt lat="44.33789" lon="6.51265">
        <ele>1745.4108886719</ele>
        <time>2012-09-15T14:44:22Z</time>
      </trkpt>
      <trkpt lat="44.33785" lon="6.51289">
        <ele>1747.8142089844</ele>
        <time>2012-09-15T14:44:25Z</time>
      </trkpt>
      <trkpt lat="44.33776" lon="6.51311">
        <ele>1746.8527832031</ele>
        <time>2012-09-15T14:44:29Z</time>
      </trkpt>
      <trkpt lat="44.33764" lon="6.51322">
        <ele>1743.9689941406</ele>
        <time>2012-09-15T14:44:32Z</time>
      </trkpt>
      <trkpt lat="44.33735" lon="6.51343">
        <ele>1737.2395019531</ele>
        <time>2012-09-15T14:44:37Z</time>
      </trkpt>
      <trkpt lat="44.3373" lon="6.51348">
        <ele>1735.7976074219</ele>
        <time>2012-09-15T14:44:38Z</time>
      </trkpt>
      <trkpt lat="44.33714" lon="6.51366">
        <ele>1731.4716796875</ele>
        <time>2012-09-15T14:44:41Z</time>
      </trkpt>
      <trkpt lat="44.33707" lon="6.51378">
        <ele>1728.587890625</ele>
        <time>2012-09-15T14:44:43Z</time>
      </trkpt>
      <trkpt lat="44.33698" lon="6.51407">
        <ele>1721.8583984375</ele>
        <time>2012-09-15T14:44:48Z</time>
      </trkpt>
      <trkpt lat="44.33692" lon="6.51422">
        <ele>1718.0131835938</ele>
        <time>2012-09-15T14:44:52Z</time>
      </trkpt>
      <trkpt lat="44.33685" lon="6.51427">
        <ele>1716.0905761719</ele>
        <time>2012-09-15T14:44:56Z</time>
      </trkpt>
      <trkpt lat="44.33687" lon="6.51428">
        <ele>1716.0905761719</ele>
        <time>2012-09-15T14:45:03Z</time>
      </trkpt>
      <trkpt lat="44.33686" lon="6.51431">
        <ele>1714.16796875</ele>
        <time>2012-09-15T14:45:08Z</time>
      </trkpt>
      <trkpt lat="44.33673" lon="6.51441">
        <ele>1708.880859375</ele>
        <time>2012-09-15T14:45:14Z</time>
      </trkpt>
      <trkpt lat="44.33666" lon="6.51445">
        <ele>1706.4772949219</ele>
        <time>2012-09-15T14:45:17Z</time>
      </trkpt>
      <trkpt lat="44.33654" lon="6.51448">
        <ele>1701.6708984375</ele>
        <time>2012-09-15T14:45:22Z</time>
      </trkpt>
      <trkpt lat="44.33652" lon="6.51462">
        <ele>1695.9030761719</ele>
        <time>2012-09-15T14:45:27Z</time>
      </trkpt>
      <trkpt lat="44.33658" lon="6.51479">
        <ele>1690.1350097656</ele>
        <time>2012-09-15T14:45:31Z</time>
      </trkpt>
      <trkpt lat="44.33673" lon="6.51506">
        <ele>1683.4057617188</ele>
        <time>2012-09-15T14:45:36Z</time>
      </trkpt>
      <trkpt lat="44.33678" lon="6.51534">
        <ele>1673.7924804688</ele>
        <time>2012-09-15T14:45:41Z</time>
      </trkpt>
      <trkpt lat="44.3367" lon="6.51559">
        <ele>1663.2182617188</ele>
        <time>2012-09-15T14:45:47Z</time>
      </trkpt>
      <trkpt lat="44.33672" lon="6.51582">
        <ele>1655.5275878906</ele>
        <time>2012-09-15T14:45:52Z</time>
      </trkpt>
      <trkpt lat="44.33685" lon="6.51603">
        <ele>1648.7983398438</ele>
        <time>2012-09-15T14:45:56Z</time>
      </trkpt>
      <trkpt lat="44.33686" lon="6.51607">
        <ele>1647.8371582031</ele>
        <time>2012-09-15T14:45:57Z</time>
      </trkpt>
      <trkpt lat="44.33686" lon="6.5161">
        <ele>1650.2404785156</ele>
        <time>2012-09-15T14:46:05Z</time>
      </trkpt>
      <trkpt lat="44.33686" lon="6.51616">
        <ele>1649.759765625</ele>
        <time>2012-09-15T14:46:10Z</time>
      </trkpt>
      <trkpt lat="44.33688" lon="6.51616">
        <ele>1643.9916992188</ele>
        <time>2012-09-15T14:46:15Z</time>
      </trkpt>
      <trkpt lat="44.33689" lon="6.51618">
        <ele>1640.626953125</ele>
        <time>2012-09-15T14:46:21Z</time>
      </trkpt>
      <trkpt lat="44.33688" lon="6.51626">
        <ele>1645.4338378906</ele>
        <time>2012-09-15T14:46:25Z</time>
      </trkpt>
      <trkpt lat="44.33685" lon="6.51627">
        <ele>1646.3952636719</ele>
        <time>2012-09-15T14:46:29Z</time>
      </trkpt>
      <trkpt lat="44.33682" lon="6.51628">
        <ele>1647.8371582031</ele>
        <time>2012-09-15T14:46:35Z</time>
      </trkpt>
      <trkpt lat="44.33682" lon="6.51631">
        <ele>1648.7983398438</ele>
        <time>2012-09-15T14:46:41Z</time>
      </trkpt>
      <trkpt lat="44.33683" lon="6.51637">
        <ele>1648.3176269531</ele>
        <time>2012-09-15T14:46:47Z</time>
      </trkpt>
      <trkpt lat="44.33683" lon="6.51644">
        <ele>1648.3176269531</ele>
        <time>2012-09-15T14:46:54Z</time>
      </trkpt>
      <trkpt lat="44.33683" lon="6.51649">
        <ele>1648.7983398438</ele>
        <time>2012-09-15T14:46:59Z</time>
      </trkpt>
      <trkpt lat="44.33685" lon="6.51652">
        <ele>1647.3564453125</ele>
        <time>2012-09-15T14:47:04Z</time>
      </trkpt>
      <trkpt lat="44.33692" lon="6.51663">
        <ele>1644.953125</ele>
        <time>2012-09-15T14:47:10Z</time>
      </trkpt>
      <trkpt lat="44.33698" lon="6.51673">
        <ele>1644.4724121094</ele>
        <time>2012-09-15T14:47:15Z</time>
      </trkpt>
      <trkpt lat="44.33706" lon="6.51683">
        <ele>1643.0302734375</ele>
        <time>2012-09-15T14:47:19Z</time>
      </trkpt>
      <trkpt lat="44.33724" lon="6.51701">
        <ele>1641.5883789062</ele>
        <time>2012-09-15T14:47:25Z</time>
      </trkpt>
      <trkpt lat="44.33735" lon="6.51709">
        <ele>1642.0690917969</ele>
        <time>2012-09-15T14:47:30Z</time>
      </trkpt>
      <trkpt lat="44.33739" lon="6.51711">
        <ele>1642.0690917969</ele>
        <time>2012-09-15T14:47:32Z</time>
      </trkpt>
      <trkpt lat="44.33743" lon="6.51714">
        <ele>1643.0302734375</ele>
        <time>2012-09-15T14:47:38Z</time>
      </trkpt>
      <trkpt lat="44.33744" lon="6.51715">
        <ele>1643.5109863281</ele>
        <time>2012-09-15T14:47:39Z</time>
      </trkpt>
      <trkpt lat="44.33747" lon="6.5172">
        <ele>1643.0302734375</ele>
        <time>2012-09-15T14:47:45Z</time>
      </trkpt>
      <trkpt lat="44.33749" lon="6.51723">
        <ele>1643.5109863281</ele>
        <time>2012-09-15T14:47:48Z</time>
      </trkpt>
      <trkpt lat="44.33754" lon="6.5173">
        <ele>1644.4724121094</ele>
        <time>2012-09-15T14:47:53Z</time>
      </trkpt>
      <trkpt lat="44.33759" lon="6.51741">
        <ele>1644.4724121094</ele>
        <time>2012-09-15T14:48:00Z</time>
      </trkpt>
      <trkpt lat="44.33764" lon="6.51748">
        <ele>1643.9916992188</ele>
        <time>2012-09-15T14:48:06Z</time>
      </trkpt>
      <trkpt lat="44.33765" lon="6.5175">
        <ele>1644.4724121094</ele>
        <time>2012-09-15T14:48:08Z</time>
      </trkpt>
      <trkpt lat="44.3377" lon="6.51755">
        <ele>1644.4724121094</ele>
        <time>2012-09-15T14:48:13Z</time>
      </trkpt>
      <trkpt lat="44.33776" lon="6.51758">
        <ele>1644.4724121094</ele>
        <time>2012-09-15T14:48:15Z</time>
      </trkpt>
      <trkpt lat="44.33803" lon="6.51768">
        <ele>1642.5498046875</ele>
        <time>2012-09-15T14:48:21Z</time>
      </trkpt>
      <trkpt lat="44.33824" lon="6.51765">
        <ele>1640.626953125</ele>
        <time>2012-09-15T14:48:25Z</time>
      </trkpt>
      <trkpt lat="44.3385" lon="6.51753">
        <ele>1637.7431640625</ele>
        <time>2012-09-15T14:48:30Z</time>
      </trkpt>
      <trkpt lat="44.33878" lon="6.51736">
        <ele>1636.7817382812</ele>
        <time>2012-09-15T14:48:36Z</time>
      </trkpt>
      <trkpt lat="44.33883" lon="6.51736">
        <ele>1636.3012695312</ele>
        <time>2012-09-15T14:48:37Z</time>
      </trkpt>
      <trkpt lat="44.33893" lon="6.51736">
        <ele>1635.8205566406</ele>
        <time>2012-09-15T14:48:40Z</time>
      </trkpt>
      <trkpt lat="44.33909" lon="6.5172">
        <ele>1634.859375</ele>
        <time>2012-09-15T14:48:46Z</time>
      </trkpt>
      <trkpt lat="44.33929" lon="6.51708">
        <ele>1635.33984375</ele>
        <time>2012-09-15T14:48:51Z</time>
      </trkpt>
      <trkpt lat="44.33942" lon="6.51696">
        <ele>1634.859375</ele>
        <time>2012-09-15T14:48:54Z</time>
      </trkpt>
      <trkpt lat="44.3396" lon="6.51672">
        <ele>1635.8205566406</ele>
        <time>2012-09-15T14:48:59Z</time>
      </trkpt>
      <trkpt lat="44.33983" lon="6.51649">
        <ele>1634.859375</ele>
        <time>2012-09-15T14:49:04Z</time>
      </trkpt>
      <trkpt lat="44.34" lon="6.51626">
        <ele>1634.859375</ele>
        <time>2012-09-15T14:49:09Z</time>
      </trkpt>
      <trkpt lat="44.3401" lon="6.51587">
        <ele>1631.4946289062</ele>
        <time>2012-09-15T14:49:16Z</time>
      </trkpt>
      <trkpt lat="44.34015" lon="6.51572">
        <ele>1630.5334472656</ele>
        <time>2012-09-15T14:49:19Z</time>
      </trkpt>
      <trkpt lat="44.34026" lon="6.51552">
        <ele>1630.052734375</ele>
        <time>2012-09-15T14:49:25Z</time>
      </trkpt>
      <trkpt lat="44.34043" lon="6.51536">
        <ele>1628.6108398438</ele>
        <time>2012-09-15T14:49:31Z</time>
      </trkpt>
      <trkpt lat="44.34065" lon="6.51512">
        <ele>1628.1301269531</ele>
        <time>2012-09-15T14:49:38Z</time>
      </trkpt>
      <trkpt lat="44.34079" lon="6.51498">
        <ele>1627.6491699219</ele>
        <time>2012-09-15T14:49:41Z</time>
      </trkpt>
      <trkpt lat="44.34095" lon="6.51474">
        <ele>1626.6879882812</ele>
        <time>2012-09-15T14:49:45Z</time>
      </trkpt>
      <trkpt lat="44.34099" lon="6.51448">
        <ele>1624.7653808594</ele>
        <time>2012-09-15T14:49:49Z</time>
      </trkpt>
      <trkpt lat="44.34099" lon="6.51417">
        <ele>1625.2458496094</ele>
        <time>2012-09-15T14:49:53Z</time>
      </trkpt>
      <trkpt lat="44.34103" lon="6.51381">
        <ele>1625.2458496094</ele>
        <time>2012-09-15T14:49:58Z</time>
      </trkpt>
      <trkpt lat="44.34115" lon="6.51353">
        <ele>1625.2458496094</ele>
        <time>2012-09-15T14:50:03Z</time>
      </trkpt>
      <trkpt lat="44.3412" lon="6.51348">
        <ele>1625.7265625</ele>
        <time>2012-09-15T14:50:04Z</time>
      </trkpt>
      <trkpt lat="44.34137" lon="6.51333">
        <ele>1625.7265625</ele>
        <time>2012-09-15T14:50:08Z</time>
      </trkpt>
      <trkpt lat="44.34152" lon="6.51324">
        <ele>1625.2458496094</ele>
        <time>2012-09-15T14:50:12Z</time>
      </trkpt>
      <trkpt lat="44.34162" lon="6.51314">
        <ele>1625.7265625</ele>
        <time>2012-09-15T14:50:15Z</time>
      </trkpt>
      <trkpt lat="44.34182" lon="6.51301">
        <ele>1623.8039550781</ele>
        <time>2012-09-15T14:50:20Z</time>
      </trkpt>
      <trkpt lat="44.34188" lon="6.51299">
        <ele>1622.8427734375</ele>
        <time>2012-09-15T14:50:21Z</time>
      </trkpt>
      <trkpt lat="44.34214" lon="6.5129">
        <ele>1620.439453125</ele>
        <time>2012-09-15T14:50:25Z</time>
      </trkpt>
      <trkpt lat="44.3424" lon="6.51273">
        <ele>1618.5168457031</ele>
        <time>2012-09-15T14:50:29Z</time>
      </trkpt>
      <trkpt lat="44.34258" lon="6.51258">
        <ele>1617.0749511719</ele>
        <time>2012-09-15T14:50:32Z</time>
      </trkpt>
      <trkpt lat="44.34278" lon="6.51243">
        <ele>1614.6716308594</ele>
        <time>2012-09-15T14:50:37Z</time>
      </trkpt>
      <trkpt lat="44.34288" lon="6.51236">
        <ele>1614.1909179688</ele>
        <time>2012-09-15T14:50:39Z</time>
      </trkpt>
      <trkpt lat="44.3432" lon="6.5123">
        <ele>1609.8647460938</ele>
        <time>2012-09-15T14:50:44Z</time>
      </trkpt>
      <trkpt lat="44.34327" lon="6.51229">
        <ele>1609.3842773438</ele>
        <time>2012-09-15T14:50:45Z</time>
      </trkpt>
      <trkpt lat="44.34352" lon="6.51213">
        <ele>1610.3454589844</ele>
        <time>2012-09-15T14:50:49Z</time>
      </trkpt>
      <trkpt lat="44.34389" lon="6.51184">
        <ele>1609.8647460938</ele>
        <time>2012-09-15T14:50:55Z</time>
      </trkpt>
      <trkpt lat="44.34414" lon="6.51162">
        <ele>1610.3454589844</ele>
        <time>2012-09-15T14:50:59Z</time>
      </trkpt>
      <trkpt lat="44.34447" lon="6.51126">
        <ele>1610.826171875</ele>
        <time>2012-09-15T14:51:05Z</time>
      </trkpt>
      <trkpt lat="44.34466" lon="6.51105">
        <ele>1610.3454589844</ele>
        <time>2012-09-15T14:51:09Z</time>
      </trkpt>
      <trkpt lat="44.34479" lon="6.51088">
        <ele>1608.4228515625</ele>
        <time>2012-09-15T14:51:12Z</time>
      </trkpt>
      <trkpt lat="44.34504" lon="6.51046">
        <ele>1604.0971679688</ele>
        <time>2012-09-15T14:51:18Z</time>
      </trkpt>
      <trkpt lat="44.34525" lon="6.5103">
        <ele>1601.2131347656</ele>
        <time>2012-09-15T14:51:22Z</time>
      </trkpt>
      <trkpt lat="44.34558" lon="6.51">
        <ele>1599.7712402344</ele>
        <time>2012-09-15T14:51:27Z</time>
      </trkpt>
      <trkpt lat="44.3459" lon="6.50962">
        <ele>1599.2905273438</ele>
        <time>2012-09-15T14:51:32Z</time>
      </trkpt>
      <trkpt lat="44.34601" lon="6.50945">
        <ele>1599.7712402344</ele>
        <time>2012-09-15T14:51:34Z</time>
      </trkpt>
      <trkpt lat="44.34625" lon="6.5092">
        <ele>1600.251953125</ele>
        <time>2012-09-15T14:51:38Z</time>
      </trkpt>
      <trkpt lat="44.34645" lon="6.50887">
        <ele>1598.8098144531</ele>
        <time>2012-09-15T14:51:42Z</time>
      </trkpt>
      <trkpt lat="44.34666" lon="6.50855">
        <ele>1597.8486328125</ele>
        <time>2012-09-15T14:51:46Z</time>
      </trkpt>
      <trkpt lat="44.34688" lon="6.50819">
        <ele>1593.5224609375</ele>
        <time>2012-09-15T14:51:51Z</time>
      </trkpt>
      <trkpt lat="44.34695" lon="6.50804">
        <ele>1592.0805664062</ele>
        <time>2012-09-15T14:51:53Z</time>
      </trkpt>
      <trkpt lat="44.34711" lon="6.50784">
        <ele>1591.119140625</ele>
        <time>2012-09-15T14:51:57Z</time>
      </trkpt>
      <trkpt lat="44.3475" lon="6.50765">
        <ele>1587.7546386719</ele>
        <time>2012-09-15T14:52:03Z</time>
      </trkpt>
      <trkpt lat="44.34781" lon="6.5074">
        <ele>1591.119140625</ele>
        <time>2012-09-15T14:52:08Z</time>
      </trkpt>
      <trkpt lat="44.34798" lon="6.50706">
        <ele>1588.2353515625</ele>
        <time>2012-09-15T14:52:12Z</time>
      </trkpt>
      <trkpt lat="44.34801" lon="6.50697">
        <ele>1587.2739257812</ele>
        <time>2012-09-15T14:52:13Z</time>
      </trkpt>
      <trkpt lat="44.34814" lon="6.50675">
        <ele>1587.2739257812</ele>
        <time>2012-09-15T14:52:16Z</time>
      </trkpt>
      <trkpt lat="44.34832" lon="6.50655">
        <ele>1587.7546386719</ele>
        <time>2012-09-15T14:52:20Z</time>
      </trkpt>
      <trkpt lat="44.34848" lon="6.50631">
        <ele>1588.2353515625</ele>
        <time>2012-09-15T14:52:25Z</time>
      </trkpt>
      <trkpt lat="44.34851" lon="6.50627">
        <ele>1587.7546386719</ele>
        <time>2012-09-15T14:52:26Z</time>
      </trkpt>
      <trkpt lat="44.34869" lon="6.50606">
        <ele>1585.83203125</ele>
        <time>2012-09-15T14:52:34Z</time>
      </trkpt>
      <trkpt lat="44.3488" lon="6.50593">
        <ele>1583.4287109375</ele>
        <time>2012-09-15T14:52:40Z</time>
      </trkpt>
      <trkpt lat="44.34893" lon="6.50583">
        <ele>1583.4287109375</ele>
        <time>2012-09-15T14:52:47Z</time>
      </trkpt>
      <trkpt lat="44.34898" lon="6.50581">
        <ele>1581.9868164062</ele>
        <time>2012-09-15T14:52:51Z</time>
      </trkpt>
      <trkpt lat="44.34907" lon="6.50574">
        <ele>1583.9094238281</ele>
        <time>2012-09-15T14:52:57Z</time>
      </trkpt>
      <trkpt lat="44.34909" lon="6.50574">
        <ele>1584.3901367188</ele>
        <time>2012-09-15T14:53:03Z</time>
      </trkpt>
      <trkpt lat="44.34913" lon="6.50574">
        <ele>1587.2739257812</ele>
        <time>2012-09-15T15:00:55Z</time>
      </trkpt>
      <trkpt lat="44.34912" lon="6.50576">
        <ele>1586.7932128906</ele>
        <time>2012-09-15T15:01:02Z</time>
      </trkpt>
      <trkpt lat="44.3491" lon="6.50578">
        <ele>1586.3127441406</ele>
        <time>2012-09-15T15:01:12Z</time>
      </trkpt>
      <trkpt lat="44.34908" lon="6.50581">
        <ele>1584.8708496094</ele>
        <time>2012-09-15T15:01:18Z</time>
      </trkpt>
      <trkpt lat="44.34905" lon="6.50583">
        <ele>1584.8708496094</ele>
        <time>2012-09-15T15:01:22Z</time>
      </trkpt>
      <trkpt lat="44.349" lon="6.50587">
        <ele>1582.9479980469</ele>
        <time>2012-09-15T15:01:28Z</time>
      </trkpt>
      <trkpt lat="44.34897" lon="6.50589">
        <ele>1583.4287109375</ele>
        <time>2012-09-15T15:01:37Z</time>
      </trkpt>
      <trkpt lat="44.34897" lon="6.5059">
        <ele>1584.8708496094</ele>
        <time>2012-09-15T15:02:02Z</time>
      </trkpt>
      <trkpt lat="44.349" lon="6.50589">
        <ele>1586.3127441406</ele>
        <time>2012-09-15T15:02:09Z</time>
      </trkpt>
      <trkpt lat="44.34905" lon="6.50586">
        <ele>1587.2739257812</ele>
        <time>2012-09-15T15:02:17Z</time>
      </trkpt>
      <trkpt lat="44.34908" lon="6.50583">
        <ele>1587.7546386719</ele>
        <time>2012-09-15T15:02:23Z</time>
      </trkpt>
      <trkpt lat="44.34918" lon="6.50571">
        <ele>1587.7546386719</ele>
        <time>2012-09-15T15:02:29Z</time>
      </trkpt>
      <trkpt lat="44.34926" lon="6.50557">
        <ele>1586.3127441406</ele>
        <time>2012-09-15T15:02:36Z</time>
      </trkpt>
      <trkpt lat="44.34931" lon="6.50545">
        <ele>1583.9094238281</ele>
        <time>2012-09-15T15:02:43Z</time>
      </trkpt>
      <trkpt lat="44.34933" lon="6.50542">
        <ele>1582.9479980469</ele>
        <time>2012-09-15T15:02:46Z</time>
      </trkpt>
      <trkpt lat="44.34935" lon="6.50537">
        <ele>1586.3127441406</ele>
        <time>2012-09-15T15:02:53Z</time>
      </trkpt>
      <trkpt lat="44.34938" lon="6.50534">
        <ele>1590.1579589844</ele>
        <time>2012-09-15T15:02:58Z</time>
      </trkpt>
      <trkpt lat="44.34943" lon="6.5053">
        <ele>1594.0031738281</ele>
        <time>2012-09-15T15:03:06Z</time>
      </trkpt>
      <trkpt lat="44.34948" lon="6.50524">
        <ele>1602.6550292969</ele>
        <time>2012-09-15T15:03:15Z</time>
      </trkpt>
      <trkpt lat="44.3495" lon="6.50519">
        <ele>1601.6938476562</ele>
        <time>2012-09-15T15:03:20Z</time>
      </trkpt>
      <trkpt lat="44.34955" lon="6.50511">
        <ele>1596.8872070312</ele>
        <time>2012-09-15T15:03:28Z</time>
      </trkpt>
      <trkpt lat="44.34959" lon="6.50502">
        <ele>1590.6384277344</ele>
        <time>2012-09-15T15:03:36Z</time>
      </trkpt>
      <trkpt lat="44.34962" lon="6.50497">
        <ele>1594.4836425781</ele>
        <time>2012-09-15T15:03:43Z</time>
      </trkpt>
      <trkpt lat="44.34964" lon="6.50492">
        <ele>1608.9035644531</ele>
        <time>2012-09-15T15:03:51Z</time>
      </trkpt>
      <trkpt lat="44.34967" lon="6.50492">
        <ele>1617.0749511719</ele>
        <time>2012-09-15T15:03:56Z</time>
      </trkpt>
      <trkpt lat="44.34974" lon="6.50484">
        <ele>1608.9035644531</ele>
        <time>2012-09-15T15:04:03Z</time>
      </trkpt>
      <trkpt lat="44.34976" lon="6.50477">
        <ele>1607.4616699219</ele>
        <time>2012-09-15T15:04:09Z</time>
      </trkpt>
      <trkpt lat="44.34978" lon="6.50471">
        <ele>1612.2683105469</ele>
        <time>2012-09-15T15:04:17Z</time>
      </trkpt>
      <trkpt lat="44.34981" lon="6.50465">
        <ele>1610.826171875</ele>
        <time>2012-09-15T15:04:26Z</time>
      </trkpt>
      <trkpt lat="44.34983" lon="6.50462">
        <ele>1614.1909179688</ele>
        <time>2012-09-15T15:04:33Z</time>
      </trkpt>
      <trkpt lat="44.34984" lon="6.5046">
        <ele>1620.9201660156</ele>
        <time>2012-09-15T15:04:40Z</time>
      </trkpt>
      <trkpt lat="44.34986" lon="6.50457">
        <ele>1621.4006347656</ele>
        <time>2012-09-15T15:04:47Z</time>
      </trkpt>
      <trkpt lat="44.34987" lon="6.5045">
        <ele>1620.9201660156</ele>
        <time>2012-09-15T15:04:55Z</time>
      </trkpt>
      <trkpt lat="44.3499" lon="6.50445">
        <ele>1623.8039550781</ele>
        <time>2012-09-15T15:05:03Z</time>
      </trkpt>
      <trkpt lat="44.34992" lon="6.50439">
        <ele>1626.6879882812</ele>
        <time>2012-09-15T15:05:11Z</time>
      </trkpt>
      <trkpt lat="44.34995" lon="6.50434">
        <ele>1624.2846679688</ele>
        <time>2012-09-15T15:05:16Z</time>
      </trkpt>
      <trkpt lat="44.34999" lon="6.50425">
        <ele>1619.9587402344</ele>
        <time>2012-09-15T15:05:25Z</time>
      </trkpt>
      <trkpt lat="44.35002" lon="6.50419">
        <ele>1618.0361328125</ele>
        <time>2012-09-15T15:05:33Z</time>
      </trkpt>
      <trkpt lat="44.35005" lon="6.50417">
        <ele>1614.6716308594</ele>
        <time>2012-09-15T15:05:41Z</time>
      </trkpt>
      <trkpt lat="44.35007" lon="6.50417">
        <ele>1618.0361328125</ele>
        <time>2012-09-15T15:05:47Z</time>
      </trkpt>
      <trkpt lat="44.35013" lon="6.50426">
        <ele>1614.6716308594</ele>
        <time>2012-09-15T15:05:56Z</time>
      </trkpt>
      <trkpt lat="44.35015" lon="6.50428">
        <ele>1615.15234375</ele>
        <time>2012-09-15T15:05:59Z</time>
      </trkpt>
      <trkpt lat="44.3502" lon="6.50426">
        <ele>1616.5942382812</ele>
        <time>2012-09-15T15:06:05Z</time>
      </trkpt>
      <trkpt lat="44.35024" lon="6.50417">
        <ele>1618.9975585938</ele>
        <time>2012-09-15T15:06:13Z</time>
      </trkpt>
      <trkpt lat="44.35025" lon="6.50407">
        <ele>1619.9587402344</ele>
        <time>2012-09-15T15:06:22Z</time>
      </trkpt>
      <trkpt lat="44.35029" lon="6.50409">
        <ele>1622.8427734375</ele>
        <time>2012-09-15T15:06:28Z</time>
      </trkpt>
      <trkpt lat="44.3503" lon="6.50411">
        <ele>1624.2846679688</ele>
        <time>2012-09-15T15:06:35Z</time>
      </trkpt>
      <trkpt lat="44.35031" lon="6.50414">
        <ele>1624.7653808594</ele>
        <time>2012-09-15T15:06:39Z</time>
      </trkpt>
      <trkpt lat="44.35033" lon="6.50421">
        <ele>1624.2846679688</ele>
        <time>2012-09-15T15:06:43Z</time>
      </trkpt>
      <trkpt lat="44.35037" lon="6.50432">
        <ele>1624.7653808594</ele>
        <time>2012-09-15T15:06:50Z</time>
      </trkpt>
      <trkpt lat="44.35034" lon="6.50439">
        <ele>1624.7653808594</ele>
        <time>2012-09-15T15:06:55Z</time>
      </trkpt>
      <trkpt lat="44.35023" lon="6.50449">
        <ele>1624.7653808594</ele>
        <time>2012-09-15T15:07:04Z</time>
      </trkpt>
      <trkpt lat="44.35021" lon="6.50466">
        <ele>1625.7265625</ele>
        <time>2012-09-15T15:07:12Z</time>
      </trkpt>
      <trkpt lat="44.35023" lon="6.50479">
        <ele>1627.6491699219</ele>
        <time>2012-09-15T15:07:19Z</time>
      </trkpt>
      <trkpt lat="44.35023" lon="6.50487">
        <ele>1628.6108398438</ele>
        <time>2012-09-15T15:07:24Z</time>
      </trkpt>
      <trkpt lat="44.35024" lon="6.50499">
        <ele>1631.0141601562</ele>
        <time>2012-09-15T15:07:32Z</time>
      </trkpt>
      <trkpt lat="44.35022" lon="6.50507">
        <ele>1634.3786621094</ele>
        <time>2012-09-15T15:07:38Z</time>
      </trkpt>
      <trkpt lat="44.35022" lon="6.50522">
        <ele>1635.8205566406</ele>
        <time>2012-09-15T15:07:46Z</time>
      </trkpt>
      <trkpt lat="44.35021" lon="6.50536">
        <ele>1638.7045898438</ele>
        <time>2012-09-15T15:07:55Z</time>
      </trkpt>
      <trkpt lat="44.35024" lon="6.50543">
        <ele>1639.1850585938</ele>
        <time>2012-09-15T15:07:59Z</time>
      </trkpt>
      <trkpt lat="44.35032" lon="6.50539">
        <ele>1638.7045898438</ele>
        <time>2012-09-15T15:08:06Z</time>
      </trkpt>
      <trkpt lat="44.35033" lon="6.50537">
        <ele>1639.1850585938</ele>
        <time>2012-09-15T15:08:07Z</time>
      </trkpt>
      <trkpt lat="44.35035" lon="6.50531">
        <ele>1641.1076660156</ele>
        <time>2012-09-15T15:08:11Z</time>
      </trkpt>
      <trkpt lat="44.35038" lon="6.50516">
        <ele>1643.9916992188</ele>
        <time>2012-09-15T15:08:18Z</time>
      </trkpt>
      <trkpt lat="44.3504" lon="6.50504">
        <ele>1647.3564453125</ele>
        <time>2012-09-15T15:08:25Z</time>
      </trkpt>
      <trkpt lat="44.35043" lon="6.50488">
        <ele>1650.7209472656</ele>
        <time>2012-09-15T15:08:33Z</time>
      </trkpt>
      <trkpt lat="44.35049" lon="6.50483">
        <ele>1653.1242675781</ele>
        <time>2012-09-15T15:08:38Z</time>
      </trkpt>
      <trkpt lat="44.35057" lon="6.50488">
        <ele>1654.5661621094</ele>
        <time>2012-09-15T15:08:45Z</time>
      </trkpt>
      <trkpt lat="44.3506" lon="6.50492">
        <ele>1657.4501953125</ele>
        <time>2012-09-15T15:08:49Z</time>
      </trkpt>
      <trkpt lat="44.3506" lon="6.50499">
        <ele>1656.9694824219</ele>
        <time>2012-09-15T15:08:53Z</time>
      </trkpt>
      <trkpt lat="44.35061" lon="6.50516">
        <ele>1654.5661621094</ele>
        <time>2012-09-15T15:09:02Z</time>
      </trkpt>
      <trkpt lat="44.35066" lon="6.50524">
        <ele>1654.0856933594</ele>
        <time>2012-09-15T15:09:08Z</time>
      </trkpt>
      <trkpt lat="44.35073" lon="6.50524">
        <ele>1656.0080566406</ele>
        <time>2012-09-15T15:09:14Z</time>
      </trkpt>
      <trkpt lat="44.35081" lon="6.50523">
        <ele>1659.8532714844</ele>
        <time>2012-09-15T15:09:21Z</time>
      </trkpt>
      <trkpt lat="44.35091" lon="6.50519">
        <ele>1665.1408691406</ele>
        <time>2012-09-15T15:09:28Z</time>
      </trkpt>
      <trkpt lat="44.35096" lon="6.50506">
        <ele>1668.5053710938</ele>
        <time>2012-09-15T15:09:35Z</time>
      </trkpt>
      <trkpt lat="44.35102" lon="6.50483">
        <ele>1669.466796875</ele>
        <time>2012-09-15T15:09:42Z</time>
      </trkpt>
      <trkpt lat="44.35104" lon="6.50451">
        <ele>1670.4279785156</ele>
        <time>2012-09-15T15:09:49Z</time>
      </trkpt>
      <trkpt lat="44.35104" lon="6.504">
        <ele>1668.9860839844</ele>
        <time>2012-09-15T15:09:58Z</time>
      </trkpt>
      <trkpt lat="44.35099" lon="6.50359">
        <ele>1668.5053710938</ele>
        <time>2012-09-15T15:10:07Z</time>
      </trkpt>
      <trkpt lat="44.35094" lon="6.50327">
        <ele>1668.5053710938</ele>
        <time>2012-09-15T15:10:15Z</time>
      </trkpt>
      <trkpt lat="44.35094" lon="6.50298">
        <ele>1670.9086914062</ele>
        <time>2012-09-15T15:10:22Z</time>
      </trkpt>
      <trkpt lat="44.351" lon="6.5027">
        <ele>1673.7924804688</ele>
        <time>2012-09-15T15:10:30Z</time>
      </trkpt>
      <trkpt lat="44.35107" lon="6.50249">
        <ele>1672.8312988281</ele>
        <time>2012-09-15T15:10:38Z</time>
      </trkpt>
      <trkpt lat="44.35115" lon="6.50224">
        <ele>1672.8312988281</ele>
        <time>2012-09-15T15:10:48Z</time>
      </trkpt>
      <trkpt lat="44.35122" lon="6.50204">
        <ele>1674.2731933594</ele>
        <time>2012-09-15T15:10:58Z</time>
      </trkpt>
      <trkpt lat="44.35133" lon="6.50184">
        <ele>1677.1574707031</ele>
        <time>2012-09-15T15:11:10Z</time>
      </trkpt>
      <trkpt lat="44.35142" lon="6.50164">
        <ele>1681.0026855469</ele>
        <time>2012-09-15T15:11:22Z</time>
      </trkpt>
      <trkpt lat="44.35146" lon="6.50147">
        <ele>1685.8090820312</ele>
        <time>2012-09-15T15:11:31Z</time>
      </trkpt>
      <trkpt lat="44.35149" lon="6.50134">
        <ele>1686.7702636719</ele>
        <time>2012-09-15T15:11:36Z</time>
      </trkpt>
      <trkpt lat="44.35158" lon="6.50118">
        <ele>1685.3283691406</ele>
        <time>2012-09-15T15:11:42Z</time>
      </trkpt>
      <trkpt lat="44.3517" lon="6.50103">
        <ele>1686.2897949219</ele>
        <time>2012-09-15T15:11:51Z</time>
      </trkpt>
      <trkpt lat="44.35179" lon="6.50098">
        <ele>1682.9250488281</ele>
        <time>2012-09-15T15:11:58Z</time>
      </trkpt>
      <trkpt lat="44.3519" lon="6.50095">
        <ele>1684.8479003906</ele>
        <time>2012-09-15T15:12:07Z</time>
      </trkpt>
      <trkpt lat="44.35201" lon="6.50094">
        <ele>1686.2897949219</ele>
        <time>2012-09-15T15:12:15Z</time>
      </trkpt>
      <trkpt lat="44.35213" lon="6.50093">
        <ele>1685.3283691406</ele>
        <time>2012-09-15T15:12:23Z</time>
      </trkpt>
      <trkpt lat="44.35221" lon="6.50087">
        <ele>1686.2897949219</ele>
        <time>2012-09-15T15:12:29Z</time>
      </trkpt>
      <trkpt lat="44.35224" lon="6.50077">
        <ele>1689.654296875</ele>
        <time>2012-09-15T15:12:36Z</time>
      </trkpt>
      <trkpt lat="44.35225" lon="6.50067">
        <ele>1691.5769042969</ele>
        <time>2012-09-15T15:12:43Z</time>
      </trkpt>
      <trkpt lat="44.35223" lon="6.50058">
        <ele>1692.5385742188</ele>
        <time>2012-09-15T15:12:49Z</time>
      </trkpt>
      <trkpt lat="44.35217" lon="6.50045">
        <ele>1690.6154785156</ele>
        <time>2012-09-15T15:12:58Z</time>
      </trkpt>
      <trkpt lat="44.35213" lon="6.50027">
        <ele>1693.98046875</ele>
        <time>2012-09-15T15:13:06Z</time>
      </trkpt>
      <trkpt lat="44.35213" lon="6.50012">
        <ele>1700.2290039062</ele>
        <time>2012-09-15T15:13:14Z</time>
      </trkpt>
      <trkpt lat="44.35216" lon="6.49994">
        <ele>1699.7482910156</ele>
        <time>2012-09-15T15:13:22Z</time>
      </trkpt>
      <trkpt lat="44.35219" lon="6.49978">
        <ele>1702.1513671875</ele>
        <time>2012-09-15T15:13:31Z</time>
      </trkpt>
      <trkpt lat="44.35221" lon="6.49968">
        <ele>1702.1513671875</ele>
        <time>2012-09-15T15:13:36Z</time>
      </trkpt>
      <trkpt lat="44.35224" lon="6.49959">
        <ele>1702.1513671875</ele>
        <time>2012-09-15T15:13:41Z</time>
      </trkpt>
      <trkpt lat="44.35225" lon="6.49943">
        <ele>1702.1513671875</ele>
        <time>2012-09-15T15:13:49Z</time>
      </trkpt>
      <trkpt lat="44.35225" lon="6.49924">
        <ele>1705.0354003906</ele>
        <time>2012-09-15T15:13:58Z</time>
      </trkpt>
      <trkpt lat="44.35226" lon="6.49905">
        <ele>1706.4772949219</ele>
        <time>2012-09-15T15:14:08Z</time>
      </trkpt>
      <trkpt lat="44.35231" lon="6.49891">
        <ele>1707.4387207031</ele>
        <time>2012-09-15T15:14:16Z</time>
      </trkpt>
      <trkpt lat="44.35236" lon="6.49876">
        <ele>1707.4387207031</ele>
        <time>2012-09-15T15:14:24Z</time>
      </trkpt>
      <trkpt lat="44.35242" lon="6.49864">
        <ele>1708.880859375</ele>
        <time>2012-09-15T15:14:32Z</time>
      </trkpt>
      <trkpt lat="44.35251" lon="6.49851">
        <ele>1712.7260742188</ele>
        <time>2012-09-15T15:14:42Z</time>
      </trkpt>
      <trkpt lat="44.35258" lon="6.49838">
        <ele>1716.5712890625</ele>
        <time>2012-09-15T15:14:52Z</time>
      </trkpt>
      <trkpt lat="44.35266" lon="6.49828">
        <ele>1717.0520019531</ele>
        <time>2012-09-15T15:15:00Z</time>
      </trkpt>
      <trkpt lat="44.35276" lon="6.49816">
        <ele>1717.0520019531</ele>
        <time>2012-09-15T15:15:10Z</time>
      </trkpt>
      <trkpt lat="44.35285" lon="6.49804">
        <ele>1718.974609375</ele>
        <time>2012-09-15T15:15:19Z</time>
      </trkpt>
      <trkpt lat="44.35292" lon="6.49794">
        <ele>1721.3776855469</ele>
        <time>2012-09-15T15:15:27Z</time>
      </trkpt>
      <trkpt lat="44.35301" lon="6.49783">
        <ele>1723.3005371094</ele>
        <time>2012-09-15T15:15:37Z</time>
      </trkpt>
      <trkpt lat="44.35308" lon="6.49776">
        <ele>1726.1845703125</ele>
        <time>2012-09-15T15:15:45Z</time>
      </trkpt>
      <trkpt lat="44.35318" lon="6.49764">
        <ele>1725.2231445312</ele>
        <time>2012-09-15T15:15:54Z</time>
      </trkpt>
      <trkpt lat="44.3533" lon="6.49755">
        <ele>1724.2619628906</ele>
        <time>2012-09-15T15:16:04Z</time>
      </trkpt>
      <trkpt lat="44.35337" lon="6.49753">
        <ele>1724.2619628906</ele>
        <time>2012-09-15T15:16:10Z</time>
      </trkpt>
      <trkpt lat="44.35343" lon="6.49766">
        <ele>1725.7038574219</ele>
        <time>2012-09-15T15:16:19Z</time>
      </trkpt>
      <trkpt lat="44.35342" lon="6.49779">
        <ele>1727.1459960938</ele>
        <time>2012-09-15T15:16:27Z</time>
      </trkpt>
      <trkpt lat="44.35343" lon="6.49795">
        <ele>1726.6652832031</ele>
        <time>2012-09-15T15:16:35Z</time>
      </trkpt>
      <trkpt lat="44.35343" lon="6.49808">
        <ele>1728.1071777344</ele>
        <time>2012-09-15T15:16:42Z</time>
      </trkpt>
      <trkpt lat="44.35345" lon="6.49823">
        <ele>1730.9912109375</ele>
        <time>2012-09-15T15:16:51Z</time>
      </trkpt>
      <trkpt lat="44.3535" lon="6.49847">
        <ele>1729.5490722656</ele>
        <time>2012-09-15T15:17:01Z</time>
      </trkpt>
      <trkpt lat="44.3535" lon="6.49861">
        <ele>1731.4716796875</ele>
        <time>2012-09-15T15:17:09Z</time>
      </trkpt>
      <trkpt lat="44.35349" lon="6.49878">
        <ele>1732.9135742188</ele>
        <time>2012-09-15T15:17:17Z</time>
      </trkpt>
      <trkpt lat="44.35349" lon="6.49899">
        <ele>1731.9523925781</ele>
        <time>2012-09-15T15:17:25Z</time>
      </trkpt>
      <trkpt lat="44.3535" lon="6.49919">
        <ele>1735.3168945312</ele>
        <time>2012-09-15T15:17:35Z</time>
      </trkpt>
      <trkpt lat="44.35353" lon="6.49936">
        <ele>1739.162109375</ele>
        <time>2012-09-15T15:17:45Z</time>
      </trkpt>
      <trkpt lat="44.35357" lon="6.49951">
        <ele>1738.2009277344</ele>
        <time>2012-09-15T15:17:53Z</time>
      </trkpt>
      <trkpt lat="44.35356" lon="6.49959">
        <ele>1739.6428222656</ele>
        <time>2012-09-15T15:18:00Z</time>
      </trkpt>
      <trkpt lat="44.35354" lon="6.49966">
        <ele>1744.9301757812</ele>
        <time>2012-09-15T15:18:41Z</time>
      </trkpt>
      <trkpt lat="44.35354" lon="6.4999">
        <ele>1743.48828125</ele>
        <time>2012-09-15T15:18:45Z</time>
      </trkpt>
      <trkpt lat="44.35357" lon="6.50022">
        <ele>1739.6428222656</ele>
        <time>2012-09-15T15:18:50Z</time>
      </trkpt>
      <trkpt lat="44.35361" lon="6.50036">
        <ele>1737.7202148438</ele>
        <time>2012-09-15T15:18:53Z</time>
      </trkpt>
      <trkpt lat="44.35373" lon="6.50068">
        <ele>1736.2783203125</ele>
        <time>2012-09-15T15:19:01Z</time>
      </trkpt>
      <trkpt lat="44.35376" lon="6.50078">
        <ele>1735.7976074219</ele>
        <time>2012-09-15T15:19:05Z</time>
      </trkpt>
      <trkpt lat="44.35381" lon="6.50096">
        <ele>1735.3168945312</ele>
        <time>2012-09-15T15:19:10Z</time>
      </trkpt>
      <trkpt lat="44.35382" lon="6.50098">
        <ele>1735.7976074219</ele>
        <time>2012-09-15T15:19:13Z</time>
      </trkpt>
      <trkpt lat="44.35379" lon="6.50106">
        <ele>1737.7202148438</ele>
        <time>2012-09-15T15:19:34Z</time>
      </trkpt>
      <trkpt lat="44.35381" lon="6.50111">
        <ele>1737.2395019531</ele>
        <time>2012-09-15T15:19:40Z</time>
      </trkpt>
      <trkpt lat="44.35381" lon="6.50115">
        <ele>1735.7976074219</ele>
        <time>2012-09-15T15:19:46Z</time>
      </trkpt>
      <trkpt lat="44.35381" lon="6.50122">
        <ele>1735.3168945312</ele>
        <time>2012-09-15T15:19:51Z</time>
      </trkpt>
      <trkpt lat="44.35382" lon="6.50124">
        <ele>1734.8364257812</ele>
        <time>2012-09-15T15:19:57Z</time>
      </trkpt>
      <trkpt lat="44.35381" lon="6.5013">
        <ele>1735.3168945312</ele>
        <time>2012-09-15T15:20:02Z</time>
      </trkpt>
      <trkpt lat="44.35382" lon="6.5014">
        <ele>1734.3557128906</ele>
        <time>2012-09-15T15:20:09Z</time>
      </trkpt>
      <trkpt lat="44.35381" lon="6.50149">
        <ele>1733.3942871094</ele>
        <time>2012-09-15T15:20:15Z</time>
      </trkpt>
      <trkpt lat="44.35379" lon="6.50161">
        <ele>1734.8364257812</ele>
        <time>2012-09-15T15:20:24Z</time>
      </trkpt>
      <trkpt lat="44.35375" lon="6.50166">
        <ele>1735.3168945312</ele>
        <time>2012-09-15T15:20:29Z</time>
      </trkpt>
      <trkpt lat="44.35374" lon="6.50175">
        <ele>1733.875</ele>
        <time>2012-09-15T15:20:35Z</time>
      </trkpt>
      <trkpt lat="44.35371" lon="6.50182">
        <ele>1731.9523925781</ele>
        <time>2012-09-15T15:20:43Z</time>
      </trkpt>
      <trkpt lat="44.35369" lon="6.50184">
        <ele>1732.4331054688</ele>
        <time>2012-09-15T15:20:49Z</time>
      </trkpt>
      <trkpt lat="44.35368" lon="6.50188">
        <ele>1733.3942871094</ele>
        <time>2012-09-15T15:20:55Z</time>
      </trkpt>
      <trkpt lat="44.35362" lon="6.50195">
        <ele>1737.2395019531</ele>
        <time>2012-09-15T15:21:04Z</time>
      </trkpt>
      <trkpt lat="44.35356" lon="6.50199">
        <ele>1741.5656738281</ele>
        <time>2012-09-15T15:21:11Z</time>
      </trkpt>
      <trkpt lat="44.35353" lon="6.502">
        <ele>1742.5270996094</ele>
        <time>2012-09-15T15:21:14Z</time>
      </trkpt>
      <trkpt lat="44.35347" lon="6.50203">
        <ele>1744.4494628906</ele>
        <time>2012-09-15T15:21:23Z</time>
      </trkpt>
      <trkpt lat="44.35343" lon="6.50207">
        <ele>1743.0075683594</ele>
        <time>2012-09-15T15:21:30Z</time>
      </trkpt>
      <trkpt lat="44.35343" lon="6.50213">
        <ele>1739.162109375</ele>
        <time>2012-09-15T15:21:35Z</time>
      </trkpt>
      <trkpt lat="44.35342" lon="6.50216">
        <ele>1739.6428222656</ele>
        <time>2012-09-15T15:21:42Z</time>
      </trkpt>
      <trkpt lat="44.35341" lon="6.50216">
        <ele>1740.1237792969</ele>
        <time>2012-09-15T15:21:43Z</time>
      </trkpt>
      <trkpt lat="44.35336" lon="6.5022">
        <ele>1741.0849609375</ele>
        <time>2012-09-15T15:21:51Z</time>
      </trkpt>
      <trkpt lat="44.35332" lon="6.50225">
        <ele>1743.48828125</ele>
        <time>2012-09-15T15:22:01Z</time>
      </trkpt>
      <trkpt lat="44.35329" lon="6.50231">
        <ele>1743.9689941406</ele>
        <time>2012-09-15T15:22:11Z</time>
      </trkpt>
      <trkpt lat="44.35326" lon="6.50236">
        <ele>1744.9301757812</ele>
        <time>2012-09-15T15:22:20Z</time>
      </trkpt>
      <trkpt lat="44.3532" lon="6.50236">
        <ele>1747.8142089844</ele>
        <time>2012-09-15T15:22:29Z</time>
      </trkpt>
      <trkpt lat="44.35315" lon="6.50238">
        <ele>1750.2175292969</ele>
        <time>2012-09-15T15:22:36Z</time>
      </trkpt>
      <trkpt lat="44.35308" lon="6.50244">
        <ele>1751.6594238281</ele>
        <time>2012-09-15T15:22:46Z</time>
      </trkpt>
      <trkpt lat="44.35302" lon="6.50248">
        <ele>1753.1013183594</ele>
        <time>2012-09-15T15:22:54Z</time>
      </trkpt>
      <trkpt lat="44.35298" lon="6.50253">
        <ele>1753.1013183594</ele>
        <time>2012-09-15T15:23:02Z</time>
      </trkpt>
      <trkpt lat="44.35294" lon="6.50257">
        <ele>1753.58203125</ele>
        <time>2012-09-15T15:23:09Z</time>
      </trkpt>
      <trkpt lat="44.35293" lon="6.50262">
        <ele>1755.0239257812</ele>
        <time>2012-09-15T15:23:15Z</time>
      </trkpt>
      <trkpt lat="44.35291" lon="6.50264">
        <ele>1755.5046386719</ele>
        <time>2012-09-15T15:23:21Z</time>
      </trkpt>
      <trkpt lat="44.35292" lon="6.50267">
        <ele>1755.9851074219</ele>
        <time>2012-09-15T15:23:27Z</time>
      </trkpt>
      <trkpt lat="44.35296" lon="6.5027">
        <ele>1756.4660644531</ele>
        <time>2012-09-15T15:23:34Z</time>
      </trkpt>
      <trkpt lat="44.35296" lon="6.50274">
        <ele>1757.908203125</ele>
        <time>2012-09-15T15:23:40Z</time>
      </trkpt>
      <trkpt lat="44.35297" lon="6.50279">
        <ele>1759.3500976562</ele>
        <time>2012-09-15T15:23:46Z</time>
      </trkpt>
      <trkpt lat="44.35297" lon="6.50289">
        <ele>1760.7919921875</ele>
        <time>2012-09-15T15:23:56Z</time>
      </trkpt>
      <trkpt lat="44.35299" lon="6.50298">
        <ele>1762.2338867188</ele>
        <time>2012-09-15T15:24:05Z</time>
      </trkpt>
      <trkpt lat="44.35302" lon="6.50305">
        <ele>1763.1953125</ele>
        <time>2012-09-15T15:24:13Z</time>
      </trkpt>
      <trkpt lat="44.35302" lon="6.50313">
        <ele>1765.1179199219</ele>
        <time>2012-09-15T15:24:22Z</time>
      </trkpt>
      <trkpt lat="44.35303" lon="6.50321">
        <ele>1766.0791015625</ele>
        <time>2012-09-15T15:24:31Z</time>
      </trkpt>
      <trkpt lat="44.35303" lon="6.50326">
        <ele>1768.0017089844</ele>
        <time>2012-09-15T15:24:38Z</time>
      </trkpt>
      <trkpt lat="44.35305" lon="6.50335">
        <ele>1769.9243164062</ele>
        <time>2012-09-15T15:24:49Z</time>
      </trkpt>
      <trkpt lat="44.35306" lon="6.50342">
        <ele>1770.8857421875</ele>
        <time>2012-09-15T15:24:57Z</time>
      </trkpt>
      <trkpt lat="44.35306" lon="6.50352">
        <ele>1772.80859375</ele>
        <time>2012-09-15T15:25:08Z</time>
      </trkpt>
      <trkpt lat="44.35307" lon="6.50357">
        <ele>1773.7697753906</ele>
        <time>2012-09-15T15:25:16Z</time>
      </trkpt>
      <trkpt lat="44.35303" lon="6.50363">
        <ele>1777.1345214844</ele>
        <time>2012-09-15T15:25:25Z</time>
      </trkpt>
      <trkpt lat="44.35303" lon="6.50371">
        <ele>1778.095703125</ele>
        <time>2012-09-15T15:25:34Z</time>
      </trkpt>
      <trkpt lat="44.353" lon="6.50377">
        <ele>1781.4602050781</ele>
        <time>2012-09-15T15:25:42Z</time>
      </trkpt>
      <trkpt lat="44.35302" lon="6.50382">
        <ele>1782.4216308594</ele>
        <time>2012-09-15T15:25:48Z</time>
      </trkpt>
      <trkpt lat="44.35302" lon="6.50392">
        <ele>1784.3442382812</ele>
        <time>2012-09-15T15:25:59Z</time>
      </trkpt>
      <trkpt lat="44.35302" lon="6.50399">
        <ele>1787.2280273438</ele>
        <time>2012-09-15T15:26:08Z</time>
      </trkpt>
      <trkpt lat="44.35301" lon="6.50409">
        <ele>1786.7473144531</ele>
        <time>2012-09-15T15:26:16Z</time>
      </trkpt>
      <trkpt lat="44.35299" lon="6.50417">
        <ele>1787.7087402344</ele>
        <time>2012-09-15T15:26:23Z</time>
      </trkpt>
      <trkpt lat="44.35297" lon="6.50425">
        <ele>1789.1508789062</ele>
        <time>2012-09-15T15:26:32Z</time>
      </trkpt>
      <trkpt lat="44.35299" lon="6.50434">
        <ele>1790.5927734375</ele>
        <time>2012-09-15T15:26:40Z</time>
      </trkpt>
      <trkpt lat="44.35301" lon="6.50443">
        <ele>1792.0349121094</ele>
        <time>2012-09-15T15:26:49Z</time>
      </trkpt>
      <trkpt lat="44.35305" lon="6.50449">
        <ele>1792.99609375</ele>
        <time>2012-09-15T15:26:57Z</time>
      </trkpt>
      <trkpt lat="44.35306" lon="6.50451">
        <ele>1792.99609375</ele>
        <time>2012-09-15T15:27:05Z</time>
      </trkpt>
      <trkpt lat="44.35309" lon="6.50454">
        <ele>1793.4768066406</ele>
        <time>2012-09-15T15:27:13Z</time>
      </trkpt>
      <trkpt lat="44.35312" lon="6.50461">
        <ele>1793.9575195312</ele>
        <time>2012-09-15T15:27:21Z</time>
      </trkpt>
      <trkpt lat="44.35315" lon="6.5047">
        <ele>1795.8801269531</ele>
        <time>2012-09-15T15:27:31Z</time>
      </trkpt>
      <trkpt lat="44.35317" lon="6.50481">
        <ele>1796.8413085938</ele>
        <time>2012-09-15T15:27:41Z</time>
      </trkpt>
      <trkpt lat="44.35319" lon="6.5049">
        <ele>1799.7253417969</ele>
        <time>2012-09-15T15:27:52Z</time>
      </trkpt>
      <trkpt lat="44.35321" lon="6.50501">
        <ele>1801.1672363281</ele>
        <time>2012-09-15T15:28:03Z</time>
      </trkpt>
      <trkpt lat="44.35321" lon="6.50504">
        <ele>1801.1672363281</ele>
        <time>2012-09-15T15:28:11Z</time>
      </trkpt>
      <trkpt lat="44.35322" lon="6.50511">
        <ele>1800.6865234375</ele>
        <time>2012-09-15T15:28:33Z</time>
      </trkpt>
      <trkpt lat="44.35322" lon="6.50519">
        <ele>1802.6091308594</ele>
        <time>2012-09-15T15:28:42Z</time>
      </trkpt>
      <trkpt lat="44.35322" lon="6.50528">
        <ele>1804.0515136719</ele>
        <time>2012-09-15T15:28:52Z</time>
      </trkpt>
      <trkpt lat="44.35324" lon="6.50537">
        <ele>1805.9738769531</ele>
        <time>2012-09-15T15:29:01Z</time>
      </trkpt>
      <trkpt lat="44.35326" lon="6.50544">
        <ele>1806.9353027344</ele>
        <time>2012-09-15T15:29:10Z</time>
      </trkpt>
      <trkpt lat="44.35328" lon="6.5055">
        <ele>1808.3771972656</ele>
        <time>2012-09-15T15:29:18Z</time>
      </trkpt>
      <trkpt lat="44.35324" lon="6.50547">
        <ele>1815.5871582031</ele>
        <time>2012-09-15T15:29:38Z</time>
      </trkpt>
      <trkpt lat="44.35325" lon="6.50545">
        <ele>1816.5483398438</ele>
        <time>2012-09-15T15:29:57Z</time>
      </trkpt>
      <trkpt lat="44.35325" lon="6.50548">
        <ele>1817.0290527344</ele>
        <time>2012-09-15T15:30:02Z</time>
      </trkpt>
      <trkpt lat="44.35328" lon="6.5056">
        <ele>1817.5095214844</ele>
        <time>2012-09-15T15:30:11Z</time>
      </trkpt>
      <trkpt lat="44.35333" lon="6.5057">
        <ele>1814.6257324219</ele>
        <time>2012-09-15T15:30:20Z</time>
      </trkpt>
      <trkpt lat="44.35336" lon="6.50578">
        <ele>1814.6257324219</ele>
        <time>2012-09-15T15:30:28Z</time>
      </trkpt>
      <trkpt lat="44.35339" lon="6.50584">
        <ele>1816.0676269531</ele>
        <time>2012-09-15T15:30:36Z</time>
      </trkpt>
      <trkpt lat="44.3534" lon="6.50581">
        <ele>1817.0290527344</ele>
        <time>2012-09-15T15:30:41Z</time>
      </trkpt>
      <trkpt lat="44.35341" lon="6.50574">
        <ele>1817.990234375</ele>
        <time>2012-09-15T15:30:49Z</time>
      </trkpt>
      <trkpt lat="44.35343" lon="6.50565">
        <ele>1820.8745117188</ele>
        <time>2012-09-15T15:30:58Z</time>
      </trkpt>
      <trkpt lat="44.35345" lon="6.5056">
        <ele>1821.8356933594</ele>
        <time>2012-09-15T15:31:06Z</time>
      </trkpt>
      <trkpt lat="44.35348" lon="6.50556">
        <ele>1822.7971191406</ele>
        <time>2012-09-15T15:31:13Z</time>
      </trkpt>
      <trkpt lat="44.35352" lon="6.50552">
        <ele>1824.2390136719</ele>
        <time>2012-09-15T15:31:21Z</time>
      </trkpt>
      <trkpt lat="44.35353" lon="6.50549">
        <ele>1825.2001953125</ele>
        <time>2012-09-15T15:31:26Z</time>
      </trkpt>
      <trkpt lat="44.35355" lon="6.50544">
        <ele>1827.123046875</ele>
        <time>2012-09-15T15:31:33Z</time>
      </trkpt>
      <trkpt lat="44.35358" lon="6.5054">
        <ele>1829.0454101562</ele>
        <time>2012-09-15T15:31:41Z</time>
      </trkpt>
      <trkpt lat="44.35361" lon="6.50539">
        <ele>1829.0454101562</ele>
        <time>2012-09-15T15:31:47Z</time>
      </trkpt>
      <trkpt lat="44.35365" lon="6.50539">
        <ele>1830.9682617188</ele>
        <time>2012-09-15T15:31:55Z</time>
      </trkpt>
      <trkpt lat="44.35369" lon="6.50541">
        <ele>1832.41015625</ele>
        <time>2012-09-15T15:32:02Z</time>
      </trkpt>
      <trkpt lat="44.35371" lon="6.50546">
        <ele>1834.8134765625</ele>
        <time>2012-09-15T15:32:10Z</time>
      </trkpt>
      <trkpt lat="44.35374" lon="6.50549">
        <ele>1834.8134765625</ele>
        <time>2012-09-15T15:32:17Z</time>
      </trkpt>
      <trkpt lat="44.35377" lon="6.50555">
        <ele>1834.3327636719</ele>
        <time>2012-09-15T15:32:24Z</time>
      </trkpt>
      <trkpt lat="44.35379" lon="6.50559">
        <ele>1836.7360839844</ele>
        <time>2012-09-15T15:32:33Z</time>
      </trkpt>
      <trkpt lat="44.35381" lon="6.50561">
        <ele>1838.1782226562</ele>
        <time>2012-09-15T15:32:39Z</time>
      </trkpt>
      <trkpt lat="44.35381" lon="6.50563">
        <ele>1840.1008300781</ele>
        <time>2012-09-15T15:32:47Z</time>
      </trkpt>
      <trkpt lat="44.35382" lon="6.50566">
        <ele>1841.5427246094</ele>
        <time>2012-09-15T15:32:54Z</time>
      </trkpt>
      <trkpt lat="44.35385" lon="6.50574">
        <ele>1839.1394042969</ele>
        <time>2012-09-15T15:33:01Z</time>
      </trkpt>
      <trkpt lat="44.35386" lon="6.50579">
        <ele>1840.5812988281</ele>
        <time>2012-09-15T15:33:09Z</time>
      </trkpt>
      <trkpt lat="44.35387" lon="6.50589">
        <ele>1840.5812988281</ele>
        <time>2012-09-15T15:33:18Z</time>
      </trkpt>
      <trkpt lat="44.35387" lon="6.50593">
        <ele>1841.0620117188</ele>
        <time>2012-09-15T15:33:25Z</time>
      </trkpt>
      <trkpt lat="44.35389" lon="6.50597">
        <ele>1841.0620117188</ele>
        <time>2012-09-15T15:33:30Z</time>
      </trkpt>
      <trkpt lat="44.35391" lon="6.50604">
        <ele>1842.0234375</ele>
        <time>2012-09-15T15:33:39Z</time>
      </trkpt>
      <trkpt lat="44.35392" lon="6.50608">
        <ele>1843.4653320312</ele>
        <time>2012-09-15T15:33:46Z</time>
      </trkpt>
      <trkpt lat="44.35395" lon="6.50613">
        <ele>1844.4265136719</ele>
        <time>2012-09-15T15:33:54Z</time>
      </trkpt>
      <trkpt lat="44.35399" lon="6.50619">
        <ele>1846.8298339844</ele>
        <time>2012-09-15T15:34:04Z</time>
      </trkpt>
      <trkpt lat="44.35402" lon="6.50619">
        <ele>1849.7138671875</ele>
        <time>2012-09-15T15:34:13Z</time>
      </trkpt>
      <trkpt lat="44.35402" lon="6.50614">
        <ele>1850.6750488281</ele>
        <time>2012-09-15T15:34:20Z</time>
      </trkpt>
      <trkpt lat="44.35404" lon="6.50611">
        <ele>1850.6750488281</ele>
        <time>2012-09-15T15:34:26Z</time>
      </trkpt>
      <trkpt lat="44.35406" lon="6.5061">
        <ele>1853.0786132812</ele>
        <time>2012-09-15T15:34:32Z</time>
      </trkpt>
      <trkpt lat="44.3541" lon="6.50605">
        <ele>1855.4819335938</ele>
        <time>2012-09-15T15:34:41Z</time>
      </trkpt>
      <trkpt lat="44.35413" lon="6.50594">
        <ele>1857.8852539062</ele>
        <time>2012-09-15T15:34:53Z</time>
      </trkpt>
      <trkpt lat="44.35416" lon="6.50585">
        <ele>1858.8464355469</ele>
        <time>2012-09-15T15:35:03Z</time>
      </trkpt>
      <trkpt lat="44.3542" lon="6.50577">
        <ele>1859.8076171875</ele>
        <time>2012-09-15T15:35:12Z</time>
      </trkpt>
      <trkpt lat="44.35425" lon="6.50567">
        <ele>1860.7690429688</ele>
        <time>2012-09-15T15:35:23Z</time>
      </trkpt>
      <trkpt lat="44.3543" lon="6.50557">
        <ele>1861.73046875</ele>
        <time>2012-09-15T15:35:34Z</time>
      </trkpt>
      <trkpt lat="44.35434" lon="6.50553">
        <ele>1864.1335449219</ele>
        <time>2012-09-15T15:35:42Z</time>
      </trkpt>
      <trkpt lat="44.35438" lon="6.50557">
        <ele>1867.498046875</ele>
        <time>2012-09-15T15:35:50Z</time>
      </trkpt>
      <trkpt lat="44.35438" lon="6.50565">
        <ele>1869.9016113281</ele>
        <time>2012-09-15T15:35:58Z</time>
      </trkpt>
      <trkpt lat="44.35441" lon="6.50575">
        <ele>1868.4597167969</ele>
        <time>2012-09-15T15:36:06Z</time>
      </trkpt>
      <trkpt lat="44.35441" lon="6.50583">
        <ele>1870.3823242188</ele>
        <time>2012-09-15T15:36:14Z</time>
      </trkpt>
      <trkpt lat="44.35444" lon="6.50591">
        <ele>1869.4211425781</ele>
        <time>2012-09-15T15:36:22Z</time>
      </trkpt>
      <trkpt lat="44.35448" lon="6.50596">
        <ele>1870.8630371094</ele>
        <time>2012-09-15T15:36:29Z</time>
      </trkpt>
      <trkpt lat="44.3545" lon="6.50599">
        <ele>1871.82421875</ele>
        <time>2012-09-15T15:36:36Z</time>
      </trkpt>
      <trkpt lat="44.35455" lon="6.50605">
        <ele>1873.2663574219</ele>
        <time>2012-09-15T15:36:43Z</time>
      </trkpt>
      <trkpt lat="44.35461" lon="6.50611">
        <ele>1876.630859375</ele>
        <time>2012-09-15T15:36:53Z</time>
      </trkpt>
      <trkpt lat="44.35467" lon="6.50618">
        <ele>1877.5920410156</ele>
        <time>2012-09-15T15:37:03Z</time>
      </trkpt>
      <trkpt lat="44.35471" lon="6.50625">
        <ele>1878.5534667969</ele>
        <time>2012-09-15T15:37:11Z</time>
      </trkpt>
      <trkpt lat="44.35476" lon="6.5063">
        <ele>1879.5146484375</ele>
        <time>2012-09-15T15:37:20Z</time>
      </trkpt>
      <trkpt lat="44.3548" lon="6.50634">
        <ele>1880.4760742188</ele>
        <time>2012-09-15T15:37:28Z</time>
      </trkpt>
      <trkpt lat="44.35485" lon="6.50638">
        <ele>1881.91796875</ele>
        <time>2012-09-15T15:37:37Z</time>
      </trkpt>
      <trkpt lat="44.35489" lon="6.50639">
        <ele>1882.8791503906</ele>
        <time>2012-09-15T15:37:44Z</time>
      </trkpt>
      <trkpt lat="44.3549" lon="6.50638">
        <ele>1883.3598632812</ele>
        <time>2012-09-15T15:37:51Z</time>
      </trkpt>
      <trkpt lat="44.3549" lon="6.50637">
        <ele>1883.8405761719</ele>
        <time>2012-09-15T15:38:00Z</time>
      </trkpt>
      <trkpt lat="44.35482" lon="6.50636">
        <ele>1905.9509277344</ele>
        <time>2012-09-15T15:44:24Z</time>
      </trkpt>
      <trkpt lat="44.35486" lon="6.50642">
        <ele>1900.6638183594</ele>
        <time>2012-09-15T15:44:39Z</time>
      </trkpt>
      <trkpt lat="44.35489" lon="6.50644">
        <ele>1900.6638183594</ele>
        <time>2012-09-15T15:44:45Z</time>
      </trkpt>
      <trkpt lat="44.35493" lon="6.50647">
        <ele>1902.5864257812</ele>
        <time>2012-09-15T15:44:54Z</time>
      </trkpt>
      <trkpt lat="44.355" lon="6.50649">
        <ele>1904.0285644531</ele>
        <time>2012-09-15T15:45:06Z</time>
      </trkpt>
      <trkpt lat="44.35505" lon="6.50651">
        <ele>1904.0285644531</ele>
        <time>2012-09-15T15:45:15Z</time>
      </trkpt>
      <trkpt lat="44.35507" lon="6.50649">
        <ele>1903.0671386719</ele>
        <time>2012-09-15T15:45:22Z</time>
      </trkpt>
      <trkpt lat="44.3551" lon="6.50646">
        <ele>1903.5478515625</ele>
        <time>2012-09-15T15:45:29Z</time>
      </trkpt>
      <trkpt lat="44.35514" lon="6.50644">
        <ele>1903.5478515625</ele>
        <time>2012-09-15T15:45:38Z</time>
      </trkpt>
      <trkpt lat="44.35519" lon="6.5064">
        <ele>1904.5090332031</ele>
        <time>2012-09-15T15:45:48Z</time>
      </trkpt>
      <trkpt lat="44.35524" lon="6.50633">
        <ele>1906.9123535156</ele>
        <time>2012-09-15T15:45:57Z</time>
      </trkpt>
      <trkpt lat="44.35527" lon="6.50627">
        <ele>1908.8349609375</ele>
        <time>2012-09-15T15:46:06Z</time>
      </trkpt>
      <trkpt lat="44.3553" lon="6.50622">
        <ele>1909.7961425781</ele>
        <time>2012-09-15T15:46:15Z</time>
      </trkpt>
      <trkpt lat="44.35534" lon="6.50617">
        <ele>1910.7575683594</ele>
        <time>2012-09-15T15:46:24Z</time>
      </trkpt>
      <trkpt lat="44.35538" lon="6.50612">
        <ele>1912.1994628906</ele>
        <time>2012-09-15T15:46:34Z</time>
      </trkpt>
      <trkpt lat="44.35541" lon="6.50609">
        <ele>1913.1608886719</ele>
        <time>2012-09-15T15:46:41Z</time>
      </trkpt>
      <trkpt lat="44.35546" lon="6.50605">
        <ele>1914.1220703125</ele>
        <time>2012-09-15T15:46:50Z</time>
      </trkpt>
      <trkpt lat="44.35549" lon="6.50602">
        <ele>1915.0834960938</ele>
        <time>2012-09-15T15:46:58Z</time>
      </trkpt>
      <trkpt lat="44.35553" lon="6.506">
        <ele>1915.5642089844</ele>
        <time>2012-09-15T15:47:06Z</time>
      </trkpt>
      <trkpt lat="44.35557" lon="6.50601">
        <ele>1917.0063476562</ele>
        <time>2012-09-15T15:47:14Z</time>
      </trkpt>
      <trkpt lat="44.35561" lon="6.50603">
        <ele>1918.9289550781</ele>
        <time>2012-09-15T15:47:22Z</time>
      </trkpt>
      <trkpt lat="44.35565" lon="6.50604">
        <ele>1920.3708496094</ele>
        <time>2012-09-15T15:47:31Z</time>
      </trkpt>
      <trkpt lat="44.35565" lon="6.50607">
        <ele>1920.3708496094</ele>
        <time>2012-09-15T15:47:39Z</time>
      </trkpt>
      <trkpt lat="44.35566" lon="6.50608">
        <ele>1919.4096679688</ele>
        <time>2012-09-15T15:47:47Z</time>
      </trkpt>
      <trkpt lat="44.35565" lon="6.50609">
        <ele>1918.9289550781</ele>
        <time>2012-09-15T15:47:53Z</time>
      </trkpt>
      <trkpt lat="44.35566" lon="6.50614">
        <ele>1920.3708496094</ele>
        <time>2012-09-15T15:48:00Z</time>
      </trkpt>
      <trkpt lat="44.35566" lon="6.50619">
        <ele>1922.7741699219</ele>
        <time>2012-09-15T15:48:08Z</time>
      </trkpt>
      <trkpt lat="44.35566" lon="6.50626">
        <ele>1925.6579589844</ele>
        <time>2012-09-15T15:48:17Z</time>
      </trkpt>
      <trkpt lat="44.35566" lon="6.50632">
        <ele>1927.5805664062</ele>
        <time>2012-09-15T15:48:26Z</time>
      </trkpt>
      <trkpt lat="44.35563" lon="6.5064">
        <ele>1928.5419921875</ele>
        <time>2012-09-15T15:48:35Z</time>
      </trkpt>
      <trkpt lat="44.35567" lon="6.5064">
        <ele>1930.4645996094</ele>
        <time>2012-09-15T15:48:42Z</time>
      </trkpt>
      <trkpt lat="44.35572" lon="6.50636">
        <ele>1933.3486328125</ele>
        <time>2012-09-15T15:48:51Z</time>
      </trkpt>
      <trkpt lat="44.35576" lon="6.50633">
        <ele>1935.751953125</ele>
        <time>2012-09-15T15:49:00Z</time>
      </trkpt>
      <trkpt lat="44.35581" lon="6.50627">
        <ele>1938.6359863281</ele>
        <time>2012-09-15T15:49:10Z</time>
      </trkpt>
      <trkpt lat="44.35585" lon="6.50623">
        <ele>1940.5583496094</ele>
        <time>2012-09-15T15:49:19Z</time>
      </trkpt>
      <trkpt lat="44.3559" lon="6.50617">
        <ele>1943.9230957031</ele>
        <time>2012-09-15T15:49:29Z</time>
      </trkpt>
      <trkpt lat="44.35593" lon="6.50612">
        <ele>1944.8842773438</ele>
        <time>2012-09-15T15:49:36Z</time>
      </trkpt>
      <trkpt lat="44.35595" lon="6.5061">
        <ele>1944.4035644531</ele>
        <time>2012-09-15T15:49:43Z</time>
      </trkpt>
      <trkpt lat="44.35598" lon="6.50603">
        <ele>1943.4423828125</ele>
        <time>2012-09-15T15:49:51Z</time>
      </trkpt>
      <trkpt lat="44.35605" lon="6.50596">
        <ele>1942.0004882812</ele>
        <time>2012-09-15T15:50:00Z</time>
      </trkpt>
      <trkpt lat="44.35609" lon="6.50591">
        <ele>1942.0004882812</ele>
        <time>2012-09-15T15:50:05Z</time>
      </trkpt>
      <trkpt lat="44.35619" lon="6.50585">
        <ele>1942.4812011719</ele>
        <time>2012-09-15T15:50:15Z</time>
      </trkpt>
      <trkpt lat="44.35626" lon="6.50586">
        <ele>1943.4423828125</ele>
        <time>2012-09-15T15:50:23Z</time>
      </trkpt>
      <trkpt lat="44.35628" lon="6.50592">
        <ele>1946.8068847656</ele>
        <time>2012-09-15T15:50:32Z</time>
      </trkpt>
      <trkpt lat="44.35631" lon="6.50595">
        <ele>1948.2490234375</ele>
        <time>2012-09-15T15:50:39Z</time>
      </trkpt>
      <trkpt lat="44.35636" lon="6.50594">
        <ele>1946.8068847656</ele>
        <time>2012-09-15T15:50:48Z</time>
      </trkpt>
      <trkpt lat="44.35641" lon="6.50594">
        <ele>1945.845703125</ele>
        <time>2012-09-15T15:50:56Z</time>
      </trkpt>
      <trkpt lat="44.35645" lon="6.50591">
        <ele>1946.8068847656</ele>
        <time>2012-09-15T15:51:04Z</time>
      </trkpt>
      <trkpt lat="44.3565" lon="6.50587">
        <ele>1944.8842773438</ele>
        <time>2012-09-15T15:51:12Z</time>
      </trkpt>
      <trkpt lat="44.35655" lon="6.50582">
        <ele>1943.4423828125</ele>
        <time>2012-09-15T15:51:20Z</time>
      </trkpt>
      <trkpt lat="44.3566" lon="6.50579">
        <ele>1942.4812011719</ele>
        <time>2012-09-15T15:51:27Z</time>
      </trkpt>
      <trkpt lat="44.35664" lon="6.50575">
        <ele>1945.3649902344</ele>
        <time>2012-09-15T15:51:35Z</time>
      </trkpt>
      <trkpt lat="44.35667" lon="6.50571">
        <ele>1948.7297363281</ele>
        <time>2012-09-15T15:51:42Z</time>
      </trkpt>
      <trkpt lat="44.35674" lon="6.50568">
        <ele>1948.7297363281</ele>
        <time>2012-09-15T15:51:51Z</time>
      </trkpt>
      <trkpt lat="44.35682" lon="6.50565">
        <ele>1949.2104492188</ele>
        <time>2012-09-15T15:52:01Z</time>
      </trkpt>
      <trkpt lat="44.35686" lon="6.50564">
        <ele>1949.6911621094</ele>
        <time>2012-09-15T15:52:09Z</time>
      </trkpt>
      <trkpt lat="44.35687" lon="6.50563">
        <ele>1950.65234375</ele>
        <time>2012-09-15T15:52:17Z</time>
      </trkpt>
      <trkpt lat="44.35691" lon="6.50563">
        <ele>1954.4975585938</ele>
        <time>2012-09-15T15:52:25Z</time>
      </trkpt>
      <trkpt lat="44.35693" lon="6.50566">
        <ele>1959.7846679688</ele>
        <time>2012-09-15T15:52:34Z</time>
      </trkpt>
      <trkpt lat="44.35688" lon="6.50572">
        <ele>1964.1108398438</ele>
        <time>2012-09-15T15:52:44Z</time>
      </trkpt>
      <trkpt lat="44.35684" lon="6.50578">
        <ele>1966.5141601562</ele>
        <time>2012-09-15T15:52:52Z</time>
      </trkpt>
      <trkpt lat="44.35681" lon="6.50582">
        <ele>1967.9560546875</ele>
        <time>2012-09-15T15:53:00Z</time>
      </trkpt>
      <trkpt lat="44.35678" lon="6.50588">
        <ele>1969.3981933594</ele>
        <time>2012-09-15T15:53:09Z</time>
      </trkpt>
      <trkpt lat="44.35677" lon="6.50591">
        <ele>1972.7626953125</ele>
        <time>2012-09-15T15:53:17Z</time>
      </trkpt>
      <trkpt lat="44.35676" lon="6.50595">
        <ele>1974.6853027344</ele>
        <time>2012-09-15T15:53:24Z</time>
      </trkpt>
      <trkpt lat="44.35675" lon="6.506">
        <ele>1975.646484375</ele>
        <time>2012-09-15T15:53:31Z</time>
      </trkpt>
      <trkpt lat="44.35674" lon="6.50605">
        <ele>1979.4916992188</ele>
        <time>2012-09-15T15:53:39Z</time>
      </trkpt>
      <trkpt lat="44.35675" lon="6.50613">
        <ele>1977.5690917969</ele>
        <time>2012-09-15T15:53:46Z</time>
      </trkpt>
      <trkpt lat="44.35673" lon="6.50621">
        <ele>1977.5690917969</ele>
        <time>2012-09-15T15:53:55Z</time>
      </trkpt>
      <trkpt lat="44.35672" lon="6.50628">
        <ele>1977.5690917969</ele>
        <time>2012-09-15T15:54:03Z</time>
      </trkpt>
      <trkpt lat="44.3567" lon="6.50635">
        <ele>1977.5690917969</ele>
        <time>2012-09-15T15:54:10Z</time>
      </trkpt>
      <trkpt lat="44.35671" lon="6.50641">
        <ele>1978.5305175781</ele>
        <time>2012-09-15T15:54:17Z</time>
      </trkpt>
      <trkpt lat="44.3567" lon="6.50645">
        <ele>1979.4916992188</ele>
        <time>2012-09-15T15:54:23Z</time>
      </trkpt>
      <trkpt lat="44.35669" lon="6.50654">
        <ele>1981.4145507812</ele>
        <time>2012-09-15T15:54:32Z</time>
      </trkpt>
      <trkpt lat="44.35667" lon="6.50661">
        <ele>1983.3371582031</ele>
        <time>2012-09-15T15:54:40Z</time>
      </trkpt>
      <trkpt lat="44.35666" lon="6.50667">
        <ele>1986.7016601562</ele>
        <time>2012-09-15T15:54:47Z</time>
      </trkpt>
      <trkpt lat="44.35665" lon="6.50674">
        <ele>1989.1049804688</ele>
        <time>2012-09-15T15:54:56Z</time>
      </trkpt>
      <trkpt lat="44.35665" lon="6.5068">
        <ele>1991.0275878906</ele>
        <time>2012-09-15T15:55:04Z</time>
      </trkpt>
      <trkpt lat="44.35666" lon="6.50686">
        <ele>1992.4697265625</ele>
        <time>2012-09-15T15:55:12Z</time>
      </trkpt>
      <trkpt lat="44.35666" lon="6.5069">
        <ele>1993.9116210938</ele>
        <time>2012-09-15T15:55:18Z</time>
      </trkpt>
      <trkpt lat="44.35667" lon="6.50694">
        <ele>1994.8728027344</ele>
        <time>2012-09-15T15:55:25Z</time>
      </trkpt>
      <trkpt lat="44.35669" lon="6.50701">
        <ele>1995.8342285156</ele>
        <time>2012-09-15T15:55:34Z</time>
      </trkpt>
      <trkpt lat="44.3567" lon="6.50709">
        <ele>1995.353515625</ele>
        <time>2012-09-15T15:55:43Z</time>
      </trkpt>
      <trkpt lat="44.35672" lon="6.50716">
        <ele>1996.3151855469</ele>
        <time>2012-09-15T15:55:51Z</time>
      </trkpt>
      <trkpt lat="44.35673" lon="6.5072">
        <ele>1997.2763671875</ele>
        <time>2012-09-15T15:55:56Z</time>
      </trkpt>
      <trkpt lat="44.35673" lon="6.50725">
        <ele>1997.2763671875</ele>
        <time>2012-09-15T15:56:01Z</time>
      </trkpt>
      <trkpt lat="44.35672" lon="6.50728">
        <ele>1999.1989746094</ele>
        <time>2012-09-15T15:56:06Z</time>
      </trkpt>
      <trkpt lat="44.3567" lon="6.50734">
        <ele>2000.6408691406</ele>
        <time>2012-09-15T15:56:13Z</time>
      </trkpt>
      <trkpt lat="44.35666" lon="6.50742">
        <ele>2001.6022949219</ele>
        <time>2012-09-15T15:56:23Z</time>
      </trkpt>
      <trkpt lat="44.35665" lon="6.50742">
        <ele>2002.5634765625</ele>
        <time>2012-09-15T15:56:31Z</time>
      </trkpt>
      <trkpt lat="44.35662" lon="6.50749">
        <ele>2003.0441894531</ele>
        <time>2012-09-15T15:56:38Z</time>
      </trkpt>
      <trkpt lat="44.35659" lon="6.50755">
        <ele>2003.0441894531</ele>
        <time>2012-09-15T15:56:43Z</time>
      </trkpt>
      <trkpt lat="44.35656" lon="6.50759">
        <ele>2003.5249023438</ele>
        <time>2012-09-15T15:56:47Z</time>
      </trkpt>
      <trkpt lat="44.35651" lon="6.50769">
        <ele>2004.966796875</ele>
        <time>2012-09-15T15:56:57Z</time>
      </trkpt>
      <trkpt lat="44.35647" lon="6.50775">
        <ele>2005.9279785156</ele>
        <time>2012-09-15T15:57:04Z</time>
      </trkpt>
      <trkpt lat="44.35642" lon="6.50783">
        <ele>2007.3701171875</ele>
        <time>2012-09-15T15:57:13Z</time>
      </trkpt>
      <trkpt lat="44.35639" lon="6.50787">
        <ele>2007.3701171875</ele>
        <time>2012-09-15T15:57:19Z</time>
      </trkpt>
      <trkpt lat="44.35636" lon="6.50794">
        <ele>2007.8508300781</ele>
        <time>2012-09-15T15:57:27Z</time>
      </trkpt>
      <trkpt lat="44.35631" lon="6.50802">
        <ele>2008.3312988281</ele>
        <time>2012-09-15T15:57:36Z</time>
      </trkpt>
      <trkpt lat="44.35626" lon="6.50805">
        <ele>2008.3312988281</ele>
        <time>2012-09-15T15:57:41Z</time>
      </trkpt>
      <trkpt lat="44.3562" lon="6.50811">
        <ele>2009.2927246094</ele>
        <time>2012-09-15T15:57:49Z</time>
      </trkpt>
      <trkpt lat="44.35616" lon="6.5082">
        <ele>2008.8120117188</ele>
        <time>2012-09-15T15:57:59Z</time>
      </trkpt>
      <trkpt lat="44.35612" lon="6.50829">
        <ele>2008.3312988281</ele>
        <time>2012-09-15T15:58:08Z</time>
      </trkpt>
      <trkpt lat="44.35609" lon="6.50835">
        <ele>2007.8508300781</ele>
        <time>2012-09-15T15:58:16Z</time>
      </trkpt>
      <trkpt lat="44.35605" lon="6.50838">
        <ele>2006.8894042969</ele>
        <time>2012-09-15T15:58:23Z</time>
      </trkpt>
      <trkpt lat="44.35598" lon="6.50842">
        <ele>2005.9279785156</ele>
        <time>2012-09-15T15:58:32Z</time>
      </trkpt>
      <trkpt lat="44.35592" lon="6.50847">
        <ele>2004.4860839844</ele>
        <time>2012-09-15T15:58:41Z</time>
      </trkpt>
      <trkpt lat="44.35585" lon="6.50852">
        <ele>2005.9279785156</ele>
        <time>2012-09-15T15:58:50Z</time>
      </trkpt>
      <trkpt lat="44.3558" lon="6.50863">
        <ele>2003.0441894531</ele>
        <time>2012-09-15T15:58:59Z</time>
      </trkpt>
      <trkpt lat="44.3558" lon="6.50865">
        <ele>2002.0827636719</ele>
        <time>2012-09-15T15:59:05Z</time>
      </trkpt>
      <trkpt lat="44.3558" lon="6.50868">
        <ele>2002.0827636719</ele>
        <time>2012-09-15T15:59:10Z</time>
      </trkpt>
      <trkpt lat="44.3558" lon="6.50869">
        <ele>2002.0827636719</ele>
        <time>2012-09-15T15:59:11Z</time>
      </trkpt>
      <trkpt lat="44.3558" lon="6.5088">
        <ele>2002.5634765625</ele>
        <time>2012-09-15T15:59:16Z</time>
      </trkpt>
      <trkpt lat="44.3558" lon="6.50895">
        <ele>2004.4860839844</ele>
        <time>2012-09-15T15:59:22Z</time>
      </trkpt>
      <trkpt lat="44.3558" lon="6.50908">
        <ele>2005.4475097656</ele>
        <time>2012-09-15T15:59:27Z</time>
      </trkpt>
      <trkpt lat="44.35581" lon="6.50923">
        <ele>2006.8894042969</ele>
        <time>2012-09-15T15:59:33Z</time>
      </trkpt>
      <trkpt lat="44.35583" lon="6.5093">
        <ele>2008.8120117188</ele>
        <time>2012-09-15T15:59:37Z</time>
      </trkpt>
      <trkpt lat="44.35588" lon="6.50941">
        <ele>2009.7731933594</ele>
        <time>2012-09-15T15:59:43Z</time>
      </trkpt>
      <trkpt lat="44.35588" lon="6.50946">
        <ele>2010.25390625</ele>
        <time>2012-09-15T15:59:49Z</time>
      </trkpt>
      <trkpt lat="44.35586" lon="6.50955">
        <ele>2010.7346191406</ele>
        <time>2012-09-15T15:59:57Z</time>
      </trkpt>
      <trkpt lat="44.35583" lon="6.5096">
        <ele>2011.6960449219</ele>
        <time>2012-09-15T16:00:04Z</time>
      </trkpt>
      <trkpt lat="44.35577" lon="6.50962">
        <ele>2013.6186523438</ele>
        <time>2012-09-15T16:00:10Z</time>
      </trkpt>
      <trkpt lat="44.35576" lon="6.50962">
        <ele>2013.6186523438</ele>
        <time>2012-09-15T16:00:11Z</time>
      </trkpt>
      <trkpt lat="44.35567" lon="6.50966">
        <ele>2016.5026855469</ele>
        <time>2012-09-15T16:00:21Z</time>
      </trkpt>
      <trkpt lat="44.35563" lon="6.50973">
        <ele>2017.4638671875</ele>
        <time>2012-09-15T16:00:29Z</time>
      </trkpt>
      <trkpt lat="44.35559" lon="6.50979">
        <ele>2017.9445800781</ele>
        <time>2012-09-15T16:00:36Z</time>
      </trkpt>
      <trkpt lat="44.35554" lon="6.50986">
        <ele>2019.38671875</ele>
        <time>2012-09-15T16:00:44Z</time>
      </trkpt>
      <trkpt lat="44.3555" lon="6.50991">
        <ele>2020.8286132812</ele>
        <time>2012-09-15T16:00:50Z</time>
      </trkpt>
      <trkpt lat="44.35545" lon="6.51">
        <ele>2022.7512207031</ele>
        <time>2012-09-15T16:00:59Z</time>
      </trkpt>
      <trkpt lat="44.3554" lon="6.51008">
        <ele>2023.2319335938</ele>
        <time>2012-09-15T16:01:06Z</time>
      </trkpt>
      <trkpt lat="44.35534" lon="6.51017">
        <ele>2024.673828125</ele>
        <time>2012-09-15T16:01:17Z</time>
      </trkpt>
      <trkpt lat="44.35532" lon="6.51023">
        <ele>2026.5964355469</ele>
        <time>2012-09-15T16:01:25Z</time>
      </trkpt>
      <trkpt lat="44.35528" lon="6.51028">
        <ele>2027.0771484375</ele>
        <time>2012-09-15T16:01:32Z</time>
      </trkpt>
      <trkpt lat="44.35523" lon="6.51033">
        <ele>2028.9997558594</ele>
        <time>2012-09-15T16:01:40Z</time>
      </trkpt>
      <trkpt lat="44.35519" lon="6.5104">
        <ele>2030.4418945312</ele>
        <time>2012-09-15T16:01:48Z</time>
      </trkpt>
      <trkpt lat="44.35517" lon="6.51046">
        <ele>2031.4030761719</ele>
        <time>2012-09-15T16:01:55Z</time>
      </trkpt>
      <trkpt lat="44.35516" lon="6.51047">
        <ele>2031.8837890625</ele>
        <time>2012-09-15T16:02:02Z</time>
      </trkpt>
      <trkpt lat="44.35515" lon="6.51051">
        <ele>2032.8449707031</ele>
        <time>2012-09-15T16:02:13Z</time>
      </trkpt>
      <trkpt lat="44.35516" lon="6.51057">
        <ele>2033.3256835938</ele>
        <time>2012-09-15T16:02:20Z</time>
      </trkpt>
      <trkpt lat="44.35518" lon="6.51058">
        <ele>2033.8063964844</ele>
        <time>2012-09-15T16:02:26Z</time>
      </trkpt>
      <trkpt lat="44.35523" lon="6.51056">
        <ele>2034.287109375</ele>
        <time>2012-09-15T16:02:35Z</time>
      </trkpt>
      <trkpt lat="44.35527" lon="6.51054">
        <ele>2032.3645019531</ele>
        <time>2012-09-15T16:02:42Z</time>
      </trkpt>
      <trkpt lat="44.35532" lon="6.51051">
        <ele>2036.6901855469</ele>
        <time>2012-09-15T16:02:52Z</time>
      </trkpt>
      <trkpt lat="44.35537" lon="6.51052">
        <ele>2038.6130371094</ele>
        <time>2012-09-15T16:03:00Z</time>
      </trkpt>
      <trkpt lat="44.35541" lon="6.51053">
        <ele>2039.57421875</ele>
        <time>2012-09-15T16:03:08Z</time>
      </trkpt>
      <trkpt lat="44.35541" lon="6.51055">
        <ele>2041.0161132812</ele>
        <time>2012-09-15T16:03:16Z</time>
      </trkpt>
      <trkpt lat="44.35542" lon="6.51055">
        <ele>2041.0161132812</ele>
        <time>2012-09-15T16:03:22Z</time>
      </trkpt>
      <trkpt lat="44.35542" lon="6.5106">
        <ele>2041.9775390625</ele>
        <time>2012-09-15T16:03:28Z</time>
      </trkpt>
      <trkpt lat="44.35541" lon="6.51066">
        <ele>2043.4194335938</ele>
        <time>2012-09-15T16:03:37Z</time>
      </trkpt>
      <trkpt lat="44.3554" lon="6.51072">
        <ele>2045.3422851562</ele>
        <time>2012-09-15T16:03:46Z</time>
      </trkpt>
      <trkpt lat="44.3554" lon="6.51077">
        <ele>2047.7456054688</ele>
        <time>2012-09-15T16:03:54Z</time>
      </trkpt>
      <trkpt lat="44.35538" lon="6.51081">
        <ele>2050.6293945312</ele>
        <time>2012-09-15T16:04:02Z</time>
      </trkpt>
      <trkpt lat="44.35537" lon="6.51086">
        <ele>2052.5520019531</ele>
        <time>2012-09-15T16:04:09Z</time>
      </trkpt>
      <trkpt lat="44.35538" lon="6.51088">
        <ele>2054.474609375</ele>
        <time>2012-09-15T16:04:17Z</time>
      </trkpt>
      <trkpt lat="44.35545" lon="6.51086">
        <ele>2056.3972167969</ele>
        <time>2012-09-15T16:04:28Z</time>
      </trkpt>
      <trkpt lat="44.35551" lon="6.51083">
        <ele>2057.8393554688</ele>
        <time>2012-09-15T16:04:38Z</time>
      </trkpt>
      <trkpt lat="44.35556" lon="6.51082">
        <ele>2058.8005371094</ele>
        <time>2012-09-15T16:04:46Z</time>
      </trkpt>
      <trkpt lat="44.35559" lon="6.51084">
        <ele>2059.28125</ele>
        <time>2012-09-15T16:04:54Z</time>
      </trkpt>
      <trkpt lat="44.35557" lon="6.51089">
        <ele>2060.7233886719</ele>
        <time>2012-09-15T16:05:02Z</time>
      </trkpt>
      <trkpt lat="44.35555" lon="6.51094">
        <ele>2063.1267089844</ele>
        <time>2012-09-15T16:05:11Z</time>
      </trkpt>
      <trkpt lat="44.35555" lon="6.51099">
        <ele>2064.5686035156</ele>
        <time>2012-09-15T16:05:19Z</time>
      </trkpt>
      <trkpt lat="44.35552" lon="6.511">
        <ele>2066.4912109375</ele>
        <time>2012-09-15T16:05:27Z</time>
      </trkpt>
      <trkpt lat="44.3555" lon="6.51102">
        <ele>2067.4523925781</ele>
        <time>2012-09-15T16:05:32Z</time>
      </trkpt>
      <trkpt lat="44.35549" lon="6.51103">
        <ele>2067.4523925781</ele>
        <time>2012-09-15T16:05:41Z</time>
      </trkpt>
      <trkpt lat="44.35544" lon="6.51092">
        <ele>2077.5463867188</ele>
        <time>2012-09-15T16:06:02Z</time>
      </trkpt>
      <trkpt lat="44.35542" lon="6.51087">
        <ele>2082.3530273438</ele>
        <time>2012-09-15T16:06:13Z</time>
      </trkpt>
      <trkpt lat="44.3554" lon="6.51088">
        <ele>2085.7175292969</ele>
        <time>2012-09-15T16:06:24Z</time>
      </trkpt>
      <trkpt lat="44.3554" lon="6.51093">
        <ele>2085.2368164062</ele>
        <time>2012-09-15T16:06:30Z</time>
      </trkpt>
      <trkpt lat="44.35543" lon="6.51102">
        <ele>2082.8334960938</ele>
        <time>2012-09-15T16:06:38Z</time>
      </trkpt>
      <trkpt lat="44.35544" lon="6.51108">
        <ele>2079.4689941406</ele>
        <time>2012-09-15T16:06:44Z</time>
      </trkpt>
      <trkpt lat="44.35548" lon="6.51109">
        <ele>2077.5463867188</ele>
        <time>2012-09-15T16:06:51Z</time>
      </trkpt>
      <trkpt lat="44.35554" lon="6.51114">
        <ele>2069.8557128906</ele>
        <time>2012-09-15T16:06:57Z</time>
      </trkpt>
      <trkpt lat="44.3556" lon="6.51113">
        <ele>2068.4138183594</ele>
        <time>2012-09-15T16:07:07Z</time>
      </trkpt>
      <trkpt lat="44.35561" lon="6.51114">
        <ele>2068.89453125</ele>
        <time>2012-09-15T16:07:15Z</time>
      </trkpt>
      <trkpt lat="44.35563" lon="6.51115">
        <ele>2070.3364257812</ele>
        <time>2012-09-15T16:07:22Z</time>
      </trkpt>
      <trkpt lat="44.35565" lon="6.51118">
        <ele>2072.7397460938</ele>
        <time>2012-09-15T16:07:28Z</time>
      </trkpt>
      <trkpt lat="44.35567" lon="6.51121">
        <ele>2076.1044921875</ele>
        <time>2012-09-15T16:07:36Z</time>
      </trkpt>
      <trkpt lat="44.35569" lon="6.51123">
        <ele>2077.5463867188</ele>
        <time>2012-09-15T16:07:42Z</time>
      </trkpt>
      <trkpt lat="44.35571" lon="6.51125">
        <ele>2078.98828125</ele>
        <time>2012-09-15T16:07:48Z</time>
      </trkpt>
      <trkpt lat="44.35572" lon="6.51131">
        <ele>2080.4304199219</ele>
        <time>2012-09-15T16:07:56Z</time>
      </trkpt>
      <trkpt lat="44.35574" lon="6.51133">
        <ele>2082.8334960938</ele>
        <time>2012-09-15T16:08:04Z</time>
      </trkpt>
      <trkpt lat="44.35577" lon="6.51138">
        <ele>2083.794921875</ele>
        <time>2012-09-15T16:08:12Z</time>
      </trkpt>
      <trkpt lat="44.35579" lon="6.51144">
        <ele>2084.7563476562</ele>
        <time>2012-09-15T16:08:20Z</time>
      </trkpt>
      <trkpt lat="44.35582" lon="6.51145">
        <ele>2086.1982421875</ele>
        <time>2012-09-15T16:08:28Z</time>
      </trkpt>
      <trkpt lat="44.35583" lon="6.5114">
        <ele>2090.5239257812</ele>
        <time>2012-09-15T16:08:37Z</time>
      </trkpt>
      <trkpt lat="44.35587" lon="6.51137">
        <ele>2091.9660644531</ele>
        <time>2012-09-15T16:08:45Z</time>
      </trkpt>
      <trkpt lat="44.35592" lon="6.51134">
        <ele>2091.0046386719</ele>
        <time>2012-09-15T16:08:53Z</time>
      </trkpt>
      <trkpt lat="44.35597" lon="6.51132">
        <ele>2091.9660644531</ele>
        <time>2012-09-15T16:09:01Z</time>
      </trkpt>
      <trkpt lat="44.356" lon="6.51135">
        <ele>2092.9274902344</ele>
        <time>2012-09-15T16:09:08Z</time>
      </trkpt>
      <trkpt lat="44.35603" lon="6.5114">
        <ele>2094.8500976562</ele>
        <time>2012-09-15T16:09:17Z</time>
      </trkpt>
      <trkpt lat="44.35605" lon="6.51137">
        <ele>2095.3308105469</ele>
        <time>2012-09-15T16:09:24Z</time>
      </trkpt>
      <trkpt lat="44.35608" lon="6.51134">
        <ele>2096.7727050781</ele>
        <time>2012-09-15T16:09:31Z</time>
      </trkpt>
      <trkpt lat="44.35612" lon="6.51131">
        <ele>2100.1374511719</ele>
        <time>2012-09-15T16:09:41Z</time>
      </trkpt>
      <trkpt lat="44.35616" lon="6.51128">
        <ele>2101.0986328125</ele>
        <time>2012-09-15T16:09:49Z</time>
      </trkpt>
      <trkpt lat="44.35619" lon="6.51125">
        <ele>2103.0212402344</ele>
        <time>2012-09-15T16:09:56Z</time>
      </trkpt>
      <trkpt lat="44.35622" lon="6.51122">
        <ele>2103.0212402344</ele>
        <time>2012-09-15T16:10:05Z</time>
      </trkpt>
      <trkpt lat="44.35624" lon="6.5112">
        <ele>2103.9826660156</ele>
        <time>2012-09-15T16:10:12Z</time>
      </trkpt>
      <trkpt lat="44.35627" lon="6.51121">
        <ele>2105.4245605469</ele>
        <time>2012-09-15T16:10:20Z</time>
      </trkpt>
      <trkpt lat="44.35628" lon="6.51125">
        <ele>2106.3857421875</ele>
        <time>2012-09-15T16:10:27Z</time>
      </trkpt>
      <trkpt lat="44.3563" lon="6.51126">
        <ele>2107.3471679688</ele>
        <time>2012-09-15T16:10:34Z</time>
      </trkpt>
      <trkpt lat="44.35633" lon="6.51126">
        <ele>2108.7893066406</ele>
        <time>2012-09-15T16:10:42Z</time>
      </trkpt>
      <trkpt lat="44.35633" lon="6.5113">
        <ele>2109.7504882812</ele>
        <time>2012-09-15T16:10:50Z</time>
      </trkpt>
      <trkpt lat="44.35635" lon="6.51131">
        <ele>2112.1538085938</ele>
        <time>2012-09-15T16:10:57Z</time>
      </trkpt>
      <trkpt lat="44.35637" lon="6.51134">
        <ele>2113.115234375</ele>
        <time>2012-09-15T16:11:04Z</time>
      </trkpt>
      <trkpt lat="44.35641" lon="6.51137">
        <ele>2115.5185546875</ele>
        <time>2012-09-15T16:11:13Z</time>
      </trkpt>
      <trkpt lat="44.35643" lon="6.51134">
        <ele>2116.9604492188</ele>
        <time>2012-09-15T16:11:21Z</time>
      </trkpt>
      <trkpt lat="44.35645" lon="6.51131">
        <ele>2118.8830566406</ele>
        <time>2012-09-15T16:11:28Z</time>
      </trkpt>
      <trkpt lat="44.35648" lon="6.51131">
        <ele>2120.8056640625</ele>
        <time>2012-09-15T16:11:36Z</time>
      </trkpt>
      <trkpt lat="44.3565" lon="6.51134">
        <ele>2122.7282714844</ele>
        <time>2012-09-15T16:11:44Z</time>
      </trkpt>
      <trkpt lat="44.35652" lon="6.51133">
        <ele>2124.6511230469</ele>
        <time>2012-09-15T16:11:53Z</time>
      </trkpt>
      <trkpt lat="44.35654" lon="6.51131">
        <ele>2126.0930175781</ele>
        <time>2012-09-15T16:12:01Z</time>
      </trkpt>
      <trkpt lat="44.35656" lon="6.51128">
        <ele>2126.5737304688</ele>
        <time>2012-09-15T16:12:09Z</time>
      </trkpt>
      <trkpt lat="44.35659" lon="6.51127">
        <ele>2128.015625</ele>
        <time>2012-09-15T16:12:16Z</time>
      </trkpt>
      <trkpt lat="44.3566" lon="6.5113">
        <ele>2127.5349121094</ele>
        <time>2012-09-15T16:12:23Z</time>
      </trkpt>
      <trkpt lat="44.35661" lon="6.51133">
        <ele>2128.4963378906</ele>
        <time>2012-09-15T16:12:31Z</time>
      </trkpt>
      <trkpt lat="44.35663" lon="6.51138">
        <ele>2129.9382324219</ele>
        <time>2012-09-15T16:12:38Z</time>
      </trkpt>
      <trkpt lat="44.35666" lon="6.51143">
        <ele>2131.8608398438</ele>
        <time>2012-09-15T16:12:46Z</time>
      </trkpt>
      <trkpt lat="44.35672" lon="6.51149">
        <ele>2131.8608398438</ele>
        <time>2012-09-15T16:12:56Z</time>
      </trkpt>
      <trkpt lat="44.35677" lon="6.51151">
        <ele>2131.8608398438</ele>
        <time>2012-09-15T16:13:05Z</time>
      </trkpt>
      <trkpt lat="44.3568" lon="6.51152">
        <ele>2131.8608398438</ele>
        <time>2012-09-15T16:13:12Z</time>
      </trkpt>
      <trkpt lat="44.35682" lon="6.51148">
        <ele>2131.3801269531</ele>
        <time>2012-09-15T16:13:18Z</time>
      </trkpt>
      <trkpt lat="44.35685" lon="6.51142">
        <ele>2129.9382324219</ele>
        <time>2012-09-15T16:13:26Z</time>
      </trkpt>
      <trkpt lat="44.35684" lon="6.51137">
        <ele>2130.8996582031</ele>
        <time>2012-09-15T16:13:34Z</time>
      </trkpt>
      <trkpt lat="44.35684" lon="6.51135">
        <ele>2130.8996582031</ele>
        <time>2012-09-15T16:13:36Z</time>
      </trkpt>
      <trkpt lat="44.35684" lon="6.51127">
        <ele>2131.3801269531</ele>
        <time>2012-09-15T16:13:47Z</time>
      </trkpt>
      <trkpt lat="44.35687" lon="6.51118">
        <ele>2130.4189453125</ele>
        <time>2012-09-15T16:13:57Z</time>
      </trkpt>
      <trkpt lat="44.35687" lon="6.51121">
        <ele>2130.4189453125</ele>
        <time>2012-09-15T16:14:04Z</time>
      </trkpt>
      <trkpt lat="44.35691" lon="6.51125">
        <ele>2132.3415527344</ele>
        <time>2012-09-15T16:14:12Z</time>
      </trkpt>
      <trkpt lat="44.35695" lon="6.51127">
        <ele>2132.8220214844</ele>
        <time>2012-09-15T16:14:19Z</time>
      </trkpt>
      <trkpt lat="44.35698" lon="6.51128">
        <ele>2133.7834472656</ele>
        <time>2012-09-15T16:14:26Z</time>
      </trkpt>
      <trkpt lat="44.35702" lon="6.51134">
        <ele>2133.7834472656</ele>
        <time>2012-09-15T16:14:35Z</time>
      </trkpt>
      <trkpt lat="44.35706" lon="6.51141">
        <ele>2136.1867675781</ele>
        <time>2012-09-15T16:14:45Z</time>
      </trkpt>
      <trkpt lat="44.35708" lon="6.51146">
        <ele>2139.5512695312</ele>
        <time>2012-09-15T16:14:55Z</time>
      </trkpt>
      <trkpt lat="44.3571" lon="6.51146">
        <ele>2141.9548339844</ele>
        <time>2012-09-15T16:15:02Z</time>
      </trkpt>
      <trkpt lat="44.35713" lon="6.51148">
        <ele>2144.3579101562</ele>
        <time>2012-09-15T16:15:10Z</time>
      </trkpt>
      <trkpt lat="44.35716" lon="6.51149">
        <ele>2147.2419433594</ele>
        <time>2012-09-15T16:15:18Z</time>
      </trkpt>
      <trkpt lat="44.35719" lon="6.51151">
        <ele>2149.1645507812</ele>
        <time>2012-09-15T16:15:26Z</time>
      </trkpt>
      <trkpt lat="44.3572" lon="6.5115">
        <ele>2149.6452636719</ele>
        <time>2012-09-15T16:15:32Z</time>
      </trkpt>
      <trkpt lat="44.35724" lon="6.51151">
        <ele>2151.0871582031</ele>
        <time>2012-09-15T16:15:40Z</time>
      </trkpt>
      <trkpt lat="44.35726" lon="6.5115">
        <ele>2151.5678710938</ele>
        <time>2012-09-15T16:15:46Z</time>
      </trkpt>
      <trkpt lat="44.35728" lon="6.5115">
        <ele>2152.5290527344</ele>
        <time>2012-09-15T16:15:52Z</time>
      </trkpt>
      <trkpt lat="44.35733" lon="6.5115">
        <ele>2153.4904785156</ele>
        <time>2012-09-15T16:16:00Z</time>
      </trkpt>
      <trkpt lat="44.35735" lon="6.51147">
        <ele>2153.9711914062</ele>
        <time>2012-09-15T16:16:06Z</time>
      </trkpt>
      <trkpt lat="44.35737" lon="6.51148">
        <ele>2155.4130859375</ele>
        <time>2012-09-15T16:16:13Z</time>
      </trkpt>
      <trkpt lat="44.3574" lon="6.51152">
        <ele>2157.3359375</ele>
        <time>2012-09-15T16:16:21Z</time>
      </trkpt>
      <trkpt lat="44.35745" lon="6.51157">
        <ele>2158.2971191406</ele>
        <time>2012-09-15T16:16:30Z</time>
      </trkpt>
      <trkpt lat="44.35747" lon="6.51162">
        <ele>2159.7390136719</ele>
        <time>2012-09-15T16:16:37Z</time>
      </trkpt>
      <trkpt lat="44.3575" lon="6.51172">
        <ele>2160.7004394531</ele>
        <time>2012-09-15T16:16:49Z</time>
      </trkpt>
      <trkpt lat="44.35752" lon="6.5118">
        <ele>2162.1423339844</ele>
        <time>2012-09-15T16:16:57Z</time>
      </trkpt>
      <trkpt lat="44.35752" lon="6.51188">
        <ele>2163.1037597656</ele>
        <time>2012-09-15T16:17:05Z</time>
      </trkpt>
      <trkpt lat="44.35751" lon="6.51198">
        <ele>2164.0649414062</ele>
        <time>2012-09-15T16:17:13Z</time>
      </trkpt>
      <trkpt lat="44.35749" lon="6.51205">
        <ele>2165.0263671875</ele>
        <time>2012-09-15T16:17:20Z</time>
      </trkpt>
      <trkpt lat="44.35747" lon="6.51219">
        <ele>2166.9489746094</ele>
        <time>2012-09-15T16:17:30Z</time>
      </trkpt>
      <trkpt lat="44.35746" lon="6.51228">
        <ele>2167.91015625</ele>
        <time>2012-09-15T16:17:37Z</time>
      </trkpt>
      <trkpt lat="44.35745" lon="6.51238">
        <ele>2168.3908691406</ele>
        <time>2012-09-15T16:17:46Z</time>
      </trkpt>
      <trkpt lat="44.35743" lon="6.51248">
        <ele>2169.3522949219</ele>
        <time>2012-09-15T16:17:54Z</time>
      </trkpt>
      <trkpt lat="44.35741" lon="6.51252">
        <ele>2170.3134765625</ele>
        <time>2012-09-15T16:18:01Z</time>
      </trkpt>
      <trkpt lat="44.35741" lon="6.51253">
        <ele>2170.3134765625</ele>
        <time>2012-09-15T16:18:03Z</time>
      </trkpt>
      <trkpt lat="44.35736" lon="6.51272">
        <ele>2170.3134765625</ele>
        <time>2012-09-15T16:18:11Z</time>
      </trkpt>
      <trkpt lat="44.35733" lon="6.51289">
        <ele>2170.7941894531</ele>
        <time>2012-09-15T16:18:18Z</time>
      </trkpt>
      <trkpt lat="44.3573" lon="6.51304">
        <ele>2170.7941894531</ele>
        <time>2012-09-15T16:18:25Z</time>
      </trkpt>
      <trkpt lat="44.3573" lon="6.51317">
        <ele>2171.2746582031</ele>
        <time>2012-09-15T16:18:30Z</time>
      </trkpt>
      <trkpt lat="44.35733" lon="6.51331">
        <ele>2171.7553710938</ele>
        <time>2012-09-15T16:18:37Z</time>
      </trkpt>
      <trkpt lat="44.35734" lon="6.51334">
        <ele>2171.7553710938</ele>
        <time>2012-09-15T16:18:41Z</time>
      </trkpt>
      <trkpt lat="44.35736" lon="6.51339">
        <ele>2172.236328125</ele>
        <time>2012-09-15T16:18:48Z</time>
      </trkpt>
      <trkpt lat="44.3574" lon="6.51345">
        <ele>2172.7170410156</ele>
        <time>2012-09-15T16:18:56Z</time>
      </trkpt>
      <trkpt lat="44.35743" lon="6.51353">
        <ele>2173.6782226562</ele>
        <time>2012-09-15T16:19:03Z</time>
      </trkpt>
      <trkpt lat="44.35746" lon="6.51355">
        <ele>2173.6782226562</ele>
        <time>2012-09-15T16:19:08Z</time>
      </trkpt>
      <trkpt lat="44.35749" lon="6.51358">
        <ele>2174.6396484375</ele>
        <time>2012-09-15T16:19:14Z</time>
      </trkpt>
      <trkpt lat="44.35749" lon="6.5135">
        <ele>2174.6396484375</ele>
        <time>2012-09-15T16:19:21Z</time>
      </trkpt>
      <trkpt lat="44.35751" lon="6.51342">
        <ele>2173.6782226562</ele>
        <time>2012-09-15T16:19:29Z</time>
      </trkpt>
      <trkpt lat="44.35753" lon="6.51335">
        <ele>2174.1589355469</ele>
        <time>2012-09-15T16:19:39Z</time>
      </trkpt>
      <trkpt lat="44.35754" lon="6.51329">
        <ele>2178.0041503906</ele>
        <time>2012-09-15T16:19:49Z</time>
      </trkpt>
      <trkpt lat="44.35754" lon="6.51325">
        <ele>2179.4460449219</ele>
        <time>2012-09-15T16:19:56Z</time>
      </trkpt>
      <trkpt lat="44.35755" lon="6.51321">
        <ele>2178.9653320312</ele>
        <time>2012-09-15T16:20:02Z</time>
      </trkpt>
      <trkpt lat="44.35757" lon="6.51314">
        <ele>2179.9267578125</ele>
        <time>2012-09-15T16:20:10Z</time>
      </trkpt>
      <trkpt lat="44.35759" lon="6.51305">
        <ele>2181.8493652344</ele>
        <time>2012-09-15T16:20:19Z</time>
      </trkpt>
      <trkpt lat="44.35761" lon="6.51295">
        <ele>2185.2138671875</ele>
        <time>2012-09-15T16:20:29Z</time>
      </trkpt>
      <trkpt lat="44.35764" lon="6.51284">
        <ele>2186.6557617188</ele>
        <time>2012-09-15T16:20:39Z</time>
      </trkpt>
      <trkpt lat="44.35767" lon="6.51276">
        <ele>2186.1752929688</ele>
        <time>2012-09-15T16:20:45Z</time>
      </trkpt>
      <trkpt lat="44.35772" lon="6.51265">
        <ele>2185.6945800781</ele>
        <time>2012-09-15T16:20:54Z</time>
      </trkpt>
      <trkpt lat="44.35777" lon="6.51254">
        <ele>2188.5788574219</ele>
        <time>2012-09-15T16:21:05Z</time>
      </trkpt>
      <trkpt lat="44.35781" lon="6.51247">
        <ele>2189.5400390625</ele>
        <time>2012-09-15T16:21:12Z</time>
      </trkpt>
      <trkpt lat="44.35786" lon="6.51238">
        <ele>2191.943359375</ele>
        <time>2012-09-15T16:21:23Z</time>
      </trkpt>
      <trkpt lat="44.35791" lon="6.51231">
        <ele>2192.9045410156</ele>
        <time>2012-09-15T16:21:32Z</time>
      </trkpt>
      <trkpt lat="44.35794" lon="6.51225">
        <ele>2195.3078613281</ele>
        <time>2012-09-15T16:21:41Z</time>
      </trkpt>
      <trkpt lat="44.35796" lon="6.51218">
        <ele>2196.2692871094</ele>
        <time>2012-09-15T16:21:48Z</time>
      </trkpt>
      <trkpt lat="44.35797" lon="6.51212">
        <ele>2197.7111816406</ele>
        <time>2012-09-15T16:21:55Z</time>
      </trkpt>
      <trkpt lat="44.35799" lon="6.51206">
        <ele>2198.1916503906</ele>
        <time>2012-09-15T16:22:03Z</time>
      </trkpt>
      <trkpt lat="44.35802" lon="6.512">
        <ele>2198.1916503906</ele>
        <time>2012-09-15T16:22:10Z</time>
      </trkpt>
      <trkpt lat="44.35804" lon="6.51194">
        <ele>2199.6337890625</ele>
        <time>2012-09-15T16:22:18Z</time>
      </trkpt>
      <trkpt lat="44.35807" lon="6.51185">
        <ele>2200.5949707031</ele>
        <time>2012-09-15T16:22:26Z</time>
      </trkpt>
      <trkpt lat="44.3581" lon="6.51174">
        <ele>2201.0756835938</ele>
        <time>2012-09-15T16:22:36Z</time>
      </trkpt>
      <trkpt lat="44.35814" lon="6.51165">
        <ele>2202.0368652344</ele>
        <time>2012-09-15T16:22:45Z</time>
      </trkpt>
      <trkpt lat="44.35816" lon="6.51159">
        <ele>2204.9211425781</ele>
        <time>2012-09-15T16:22:53Z</time>
      </trkpt>
      <trkpt lat="44.35819" lon="6.51151">
        <ele>2205.4018554688</ele>
        <time>2012-09-15T16:23:01Z</time>
      </trkpt>
      <trkpt lat="44.3582" lon="6.51146">
        <ele>2208.2856445312</ele>
        <time>2012-09-15T16:23:09Z</time>
      </trkpt>
      <trkpt lat="44.3582" lon="6.51138">
        <ele>2210.2082519531</ele>
        <time>2012-09-15T16:23:17Z</time>
      </trkpt>
      <trkpt lat="44.3582" lon="6.51129">
        <ele>2208.2856445312</ele>
        <time>2012-09-15T16:23:24Z</time>
      </trkpt>
      <trkpt lat="44.35822" lon="6.5112">
        <ele>2208.2856445312</ele>
        <time>2012-09-15T16:23:32Z</time>
      </trkpt>
      <trkpt lat="44.35823" lon="6.51112">
        <ele>2208.2856445312</ele>
        <time>2012-09-15T16:23:39Z</time>
      </trkpt>
      <trkpt lat="44.35821" lon="6.51099">
        <ele>2211.1696777344</ele>
        <time>2012-09-15T16:23:50Z</time>
      </trkpt>
      <trkpt lat="44.35818" lon="6.5109">
        <ele>2213.5727539062</ele>
        <time>2012-09-15T16:24:00Z</time>
      </trkpt>
      <trkpt lat="44.35814" lon="6.51082">
        <ele>2215.0148925781</ele>
        <time>2012-09-15T16:24:10Z</time>
      </trkpt>
      <trkpt lat="44.35813" lon="6.51077">
        <ele>2216.4567871094</ele>
        <time>2012-09-15T16:24:17Z</time>
      </trkpt>
      <trkpt lat="44.35813" lon="6.51075">
        <ele>2217.41796875</ele>
        <time>2012-09-15T16:24:25Z</time>
      </trkpt>
      <trkpt lat="44.35815" lon="6.51071">
        <ele>2218.8601074219</ele>
        <time>2012-09-15T16:24:32Z</time>
      </trkpt>
      <trkpt lat="44.35819" lon="6.51072">
        <ele>2219.8212890625</ele>
        <time>2012-09-15T16:24:38Z</time>
      </trkpt>
      <trkpt lat="44.35824" lon="6.5107">
        <ele>2221.2634277344</ele>
        <time>2012-09-15T16:24:48Z</time>
      </trkpt>
      <trkpt lat="44.35826" lon="6.51069">
        <ele>2222.2248535156</ele>
        <time>2012-09-15T16:24:54Z</time>
      </trkpt>
      <trkpt lat="44.35827" lon="6.51069">
        <ele>2223.1862792969</ele>
        <time>2012-09-15T16:25:01Z</time>
      </trkpt>
      <trkpt lat="44.35826" lon="6.51068">
        <ele>2223.6667480469</ele>
        <time>2012-09-15T16:25:07Z</time>
      </trkpt>
      <trkpt lat="44.3583" lon="6.51073">
        <ele>2225.5893554688</ele>
        <time>2012-09-15T16:25:16Z</time>
      </trkpt>
      <trkpt lat="44.35833" lon="6.51073">
        <ele>2228.9538574219</ele>
        <time>2012-09-15T16:25:25Z</time>
      </trkpt>
      <trkpt lat="44.35834" lon="6.51067">
        <ele>2231.3571777344</ele>
        <time>2012-09-15T16:25:32Z</time>
      </trkpt>
      <trkpt lat="44.35836" lon="6.5106">
        <ele>2233.7604980469</ele>
        <time>2012-09-15T16:25:40Z</time>
      </trkpt>
      <trkpt lat="44.35841" lon="6.51053">
        <ele>2235.6831054688</ele>
        <time>2012-09-15T16:25:49Z</time>
      </trkpt>
      <trkpt lat="44.35847" lon="6.51047">
        <ele>2238.0866699219</ele>
        <time>2012-09-15T16:26:00Z</time>
      </trkpt>
      <trkpt lat="44.35851" lon="6.51048">
        <ele>2240.0092773438</ele>
        <time>2012-09-15T16:26:07Z</time>
      </trkpt>
      <trkpt lat="44.35857" lon="6.51046">
        <ele>2242.4125976562</ele>
        <time>2012-09-15T16:26:17Z</time>
      </trkpt>
      <trkpt lat="44.35862" lon="6.51043">
        <ele>2244.3349609375</ele>
        <time>2012-09-15T16:26:26Z</time>
      </trkpt>
      <trkpt lat="44.35868" lon="6.5104">
        <ele>2246.73828125</ele>
        <time>2012-09-15T16:26:36Z</time>
      </trkpt>
      <trkpt lat="44.35873" lon="6.51038">
        <ele>2248.1801757812</ele>
        <time>2012-09-15T16:26:44Z</time>
      </trkpt>
      <trkpt lat="44.35877" lon="6.51038">
        <ele>2249.6223144531</ele>
        <time>2012-09-15T16:26:52Z</time>
      </trkpt>
      <trkpt lat="44.35883" lon="6.51036">
        <ele>2251.544921875</ele>
        <time>2012-09-15T16:27:01Z</time>
      </trkpt>
      <trkpt lat="44.35889" lon="6.51031">
        <ele>2252.0256347656</ele>
        <time>2012-09-15T16:27:09Z</time>
      </trkpt>
      <trkpt lat="44.35899" lon="6.5103">
        <ele>2253.4677734375</ele>
        <time>2012-09-15T16:27:19Z</time>
      </trkpt>
      <trkpt lat="44.359" lon="6.51035">
        <ele>2254.4289550781</ele>
        <time>2012-09-15T16:27:24Z</time>
      </trkpt>
      <trkpt lat="44.35897" lon="6.51043">
        <ele>2255.8708496094</ele>
        <time>2012-09-15T16:27:33Z</time>
      </trkpt>
      <trkpt lat="44.35894" lon="6.5105">
        <ele>2256.8322753906</ele>
        <time>2012-09-15T16:27:41Z</time>
      </trkpt>
      <trkpt lat="44.35891" lon="6.5105">
        <ele>2256.8322753906</ele>
        <time>2012-09-15T16:27:47Z</time>
      </trkpt>
      <trkpt lat="44.35889" lon="6.51051">
        <ele>2256.3515625</ele>
        <time>2012-09-15T16:27:52Z</time>
      </trkpt>
      <trkpt lat="44.35884" lon="6.51056">
        <ele>2257.3129882812</ele>
        <time>2012-09-15T16:27:57Z</time>
      </trkpt>
      <trkpt lat="44.35883" lon="6.51059">
        <ele>2257.3129882812</ele>
        <time>2012-09-15T16:28:03Z</time>
      </trkpt>
      <trkpt lat="44.35882" lon="6.51062">
        <ele>2257.7937011719</ele>
        <time>2012-09-15T16:28:05Z</time>
      </trkpt>
      <trkpt lat="44.3588" lon="6.51081">
        <ele>2256.3515625</ele>
        <time>2012-09-15T16:28:11Z</time>
      </trkpt>
      <trkpt lat="44.35879" lon="6.5109">
        <ele>2256.3515625</ele>
        <time>2012-09-15T16:28:13Z</time>
      </trkpt>
      <trkpt lat="44.35878" lon="6.51113">
        <ele>2255.3903808594</ele>
        <time>2012-09-15T16:28:20Z</time>
      </trkpt>
      <trkpt lat="44.35878" lon="6.51138">
        <ele>2254.4289550781</ele>
        <time>2012-09-15T16:28:25Z</time>
      </trkpt>
      <trkpt lat="44.35876" lon="6.51163">
        <ele>2253.4677734375</ele>
        <time>2012-09-15T16:28:31Z</time>
      </trkpt>
      <trkpt lat="44.35879" lon="6.51176">
        <ele>2254.9096679688</ele>
        <time>2012-09-15T16:28:36Z</time>
      </trkpt>
      <trkpt lat="44.35883" lon="6.51191">
        <ele>2254.9096679688</ele>
        <time>2012-09-15T16:28:43Z</time>
      </trkpt>
      <trkpt lat="44.35885" lon="6.51199">
        <ele>2254.9096679688</ele>
        <time>2012-09-15T16:28:47Z</time>
      </trkpt>
      <trkpt lat="44.35884" lon="6.51214">
        <ele>2254.9096679688</ele>
        <time>2012-09-15T16:28:52Z</time>
      </trkpt>
      <trkpt lat="44.35883" lon="6.51231">
        <ele>2255.3903808594</ele>
        <time>2012-09-15T16:28:59Z</time>
      </trkpt>
      <trkpt lat="44.35885" lon="6.51244">
        <ele>2255.8708496094</ele>
        <time>2012-09-15T16:29:04Z</time>
      </trkpt>
      <trkpt lat="44.35887" lon="6.51246">
        <ele>2254.9096679688</ele>
        <time>2012-09-15T16:29:08Z</time>
      </trkpt>
      <trkpt lat="44.35888" lon="6.51253">
        <ele>2254.9096679688</ele>
        <time>2012-09-15T16:29:14Z</time>
      </trkpt>
      <trkpt lat="44.35886" lon="6.51262">
        <ele>2255.8708496094</ele>
        <time>2012-09-15T16:29:22Z</time>
      </trkpt>
      <trkpt lat="44.35886" lon="6.51268">
        <ele>2255.8708496094</ele>
        <time>2012-09-15T16:29:29Z</time>
      </trkpt>
      <trkpt lat="44.35886" lon="6.51275">
        <ele>2256.3515625</ele>
        <time>2012-09-15T16:29:36Z</time>
      </trkpt>
      <trkpt lat="44.35886" lon="6.51286">
        <ele>2258.2741699219</ele>
        <time>2012-09-15T16:29:46Z</time>
      </trkpt>
      <trkpt lat="44.35888" lon="6.51297">
        <ele>2259.7160644531</ele>
        <time>2012-09-15T16:29:56Z</time>
      </trkpt>
      <trkpt lat="44.35888" lon="6.51301">
        <ele>2260.1967773438</ele>
        <time>2012-09-15T16:30:01Z</time>
      </trkpt>
      <trkpt lat="44.35888" lon="6.51313">
        <ele>2260.6774902344</ele>
        <time>2012-09-15T16:30:11Z</time>
      </trkpt>
      <trkpt lat="44.35886" lon="6.51322">
        <ele>2262.1193847656</ele>
        <time>2012-09-15T16:30:19Z</time>
      </trkpt>
      <trkpt lat="44.35887" lon="6.5133">
        <ele>2263.0808105469</ele>
        <time>2012-09-15T16:30:28Z</time>
      </trkpt>
      <trkpt lat="44.35888" lon="6.51338">
        <ele>2264.5227050781</ele>
        <time>2012-09-15T16:30:36Z</time>
      </trkpt>
      <trkpt lat="44.35891" lon="6.5134">
        <ele>2265.0034179688</ele>
        <time>2012-09-15T16:30:42Z</time>
      </trkpt>
      <trkpt lat="44.35892" lon="6.51344">
        <ele>2265.4841308594</ele>
        <time>2012-09-15T16:30:49Z</time>
      </trkpt>
      <trkpt lat="44.35892" lon="6.51349">
        <ele>2267.4064941406</ele>
        <time>2012-09-15T16:30:55Z</time>
      </trkpt>
      <trkpt lat="44.35892" lon="6.51358">
        <ele>2268.8488769531</ele>
        <time>2012-09-15T16:31:02Z</time>
      </trkpt>
      <trkpt lat="44.35894" lon="6.51365">
        <ele>2270.2907714844</ele>
        <time>2012-09-15T16:31:10Z</time>
      </trkpt>
      <trkpt lat="44.35895" lon="6.51372">
        <ele>2270.771484375</ele>
        <time>2012-09-15T16:31:16Z</time>
      </trkpt>
      <trkpt lat="44.35895" lon="6.5138">
        <ele>2271.251953125</ele>
        <time>2012-09-15T16:31:23Z</time>
      </trkpt>
      <trkpt lat="44.35896" lon="6.51398">
        <ele>2271.7326660156</ele>
        <time>2012-09-15T16:31:30Z</time>
      </trkpt>
      <trkpt lat="44.35895" lon="6.51412">
        <ele>2272.6940917969</ele>
        <time>2012-09-15T16:31:36Z</time>
      </trkpt>
      <trkpt lat="44.35899" lon="6.51435">
        <ele>2273.1748046875</ele>
        <time>2012-09-15T16:31:45Z</time>
      </trkpt>
      <trkpt lat="44.35905" lon="6.51445">
        <ele>2273.6552734375</ele>
        <time>2012-09-15T16:31:51Z</time>
      </trkpt>
      <trkpt lat="44.35911" lon="6.51455">
        <ele>2274.6166992188</ele>
        <time>2012-09-15T16:31:58Z</time>
      </trkpt>
      <trkpt lat="44.35913" lon="6.51461">
        <ele>2275.0971679688</ele>
        <time>2012-09-15T16:32:01Z</time>
      </trkpt>
      <trkpt lat="44.35914" lon="6.51462">
        <ele>2275.0971679688</ele>
        <time>2012-09-15T16:32:08Z</time>
      </trkpt>
      <trkpt lat="44.35915" lon="6.51462">
        <ele>2274.6166992188</ele>
        <time>2012-09-15T16:32:13Z</time>
      </trkpt>
      <trkpt lat="44.35914" lon="6.51467">
        <ele>2276.05859375</ele>
        <time>2012-09-15T16:35:37Z</time>
      </trkpt>
      <trkpt lat="44.35914" lon="6.51466">
        <ele>2276.5393066406</ele>
        <time>2012-09-15T16:35:50Z</time>
      </trkpt>
      <trkpt lat="44.35914" lon="6.51465">
        <ele>2275.5778808594</ele>
        <time>2012-09-15T16:35:58Z</time>
      </trkpt>
      <trkpt lat="44.35915" lon="6.5147">
        <ele>2273.6552734375</ele>
        <time>2012-09-15T16:37:08Z</time>
      </trkpt>
    </trkseg>
  </trk>
</gpx>